<?xml version='1.0' encoding='UTF-8'?><gpx version="1.1" creator="JPX - https://github.com/jenetics/jpx" xmlns="http://www.topografix.com/GPX/1/1"><trk><trkseg><trkpt lat="44.8721917" lon="9.64284"><ele>203.2</ele><time>2026-04-05T08:43:59.188Z</time></trkpt><trkpt lat="44.8721217" lon="9.6427667"><ele>202.39999999999998</ele><time>2026-04-05T08:44:01.189Z</time></trkpt><trkpt lat="44.87207" lon="9.6426833"><ele>201.6</ele><time>2026-04-05T08:44:03.188Z</time></trkpt><trkpt lat="44.8720183" lon="9.642605"><ele>200.8</ele><time>2026-04-05T08:44:05.188Z</time></trkpt><trkpt lat="44.8719667" lon="9.64253"><ele>200.0</ele><time>2026-04-05T08:44:08.188Z</time></trkpt><trkpt lat="44.871945" lon="9.64275"><ele>200.8</ele><time>2026-04-05T08:44:47.189Z</time></trkpt><trkpt lat="44.8719717" lon="9.642835"><ele>201.6</ele><time>2026-04-05T08:44:48.187Z</time></trkpt><trkpt lat="44.8720083" lon="9.6429133"><ele>202.39999999999998</ele><time>2026-04-05T08:44:49.189Z</time></trkpt><trkpt lat="44.872065" lon="9.643005"><ele>203.2</ele><time>2026-04-05T08:44:50.189Z</time></trkpt><trkpt lat="44.87216" lon="9.6431317"><ele>204.0</ele><time>2026-04-05T08:44:51.188Z</time></trkpt><trkpt lat="44.8722583" lon="9.6432633"><ele>204.0</ele><time>2026-04-05T08:44:52.188Z</time></trkpt><trkpt lat="44.8723433" lon="9.64338"><ele>204.0</ele><time>2026-04-05T08:44:53.187Z</time></trkpt><trkpt lat="44.8724283" lon="9.64349"><ele>204.0</ele><time>2026-04-05T08:44:54.188Z</time></trkpt><trkpt lat="44.8725117" lon="9.6436033"><ele>204.0</ele><time>2026-04-05T08:44:55.188Z</time></trkpt><trkpt lat="44.8725867" lon="9.643705"><ele>203.0</ele><time>2026-04-05T08:44:56.188Z</time></trkpt><trkpt lat="44.87266" lon="9.643795"><ele>202.0</ele><time>2026-04-05T08:44:57.188Z</time></trkpt><trkpt lat="44.8727283" lon="9.64388"><ele>201.0</ele><time>2026-04-05T08:44:58.188Z</time></trkpt><trkpt lat="44.8727917" lon="9.6439617"><ele>200.0</ele><time>2026-04-05T08:44:59.187Z</time></trkpt><trkpt lat="44.8728783" lon="9.6440933"><ele>199.0</ele><time>2026-04-05T08:45:01.188Z</time></trkpt><trkpt lat="44.8729167" lon="9.6442"><ele>198.99999999999997</ele><time>2026-04-05T08:45:12.192Z</time></trkpt><trkpt lat="44.872965" lon="9.6443117"><ele>199.0</ele><time>2026-04-05T08:45:14.19Z</time></trkpt><trkpt lat="44.873" lon="9.644425"><ele>199.0</ele><time>2026-04-05T08:45:16.188Z</time></trkpt><trkpt lat="44.8730583" lon="9.6444767"><ele>199.0</ele><time>2026-04-05T08:45:19.191Z</time></trkpt><trkpt lat="44.8730067" lon="9.64437"><ele>198.99999999999997</ele><time>2026-04-05T08:45:22.191Z</time></trkpt><trkpt lat="44.8729567" lon="9.64428"><ele>199.0</ele><time>2026-04-05T08:45:24.188Z</time></trkpt><trkpt lat="44.8729083" lon="9.6441633"><ele>199.0</ele><time>2026-04-05T08:45:55.188Z</time></trkpt><trkpt lat="44.8728517" lon="9.6440467"><ele>199.0</ele><time>2026-04-05T08:45:57.188Z</time></trkpt><trkpt lat="44.8727633" lon="9.6439133"><ele>199.0</ele><time>2026-04-05T08:45:59.188Z</time></trkpt><trkpt lat="44.872705" lon="9.6438333"><ele>199.0</ele><time>2026-04-05T08:46:00.188Z</time></trkpt><trkpt lat="44.8726483" lon="9.64374"><ele>199.0</ele><time>2026-04-05T08:46:01.189Z</time></trkpt><trkpt lat="44.8725833" lon="9.6436533"><ele>200.0</ele><time>2026-04-05T08:46:02.189Z</time></trkpt><trkpt lat="44.872515" lon="9.6435583"><ele>201.0</ele><time>2026-04-05T08:46:03.189Z</time></trkpt><trkpt lat="44.8724467" lon="9.6434533"><ele>202.0</ele><time>2026-04-05T08:46:04.187Z</time></trkpt><trkpt lat="44.8723767" lon="9.6433467"><ele>203.0</ele><time>2026-04-05T08:46:05.187Z</time></trkpt><trkpt lat="44.872305" lon="9.643245"><ele>204.0</ele><time>2026-04-05T08:46:06.189Z</time></trkpt><trkpt lat="44.8722367" lon="9.6431467"><ele>204.0</ele><time>2026-04-05T08:46:07.187Z</time></trkpt><trkpt lat="44.8721683" lon="9.6430517"><ele>204.0</ele><time>2026-04-05T08:46:08.187Z</time></trkpt><trkpt lat="44.8721" lon="9.6429517"><ele>204.0</ele><time>2026-04-05T08:46:09.189Z</time></trkpt><trkpt lat="44.8720267" lon="9.6428533"><ele>204.0</ele><time>2026-04-05T08:46:10.189Z</time></trkpt><trkpt lat="44.871955" lon="9.6427533"><ele>204.0</ele><time>2026-04-05T08:46:11.188Z</time></trkpt><trkpt lat="44.8718783" lon="9.6426533"><ele>204.39999999999998</ele><time>2026-04-05T08:46:12.189Z</time></trkpt><trkpt lat="44.8718083" lon="9.6425567"><ele>204.8</ele><time>2026-04-05T08:46:13.188Z</time></trkpt><trkpt lat="44.8717383" lon="9.64247"><ele>205.2</ele><time>2026-04-05T08:46:14.188Z</time></trkpt><trkpt lat="44.8716767" lon="9.6423817"><ele>205.60000000000002</ele><time>2026-04-05T08:46:15.189Z</time></trkpt><trkpt lat="44.87161" lon="9.6422867"><ele>206.0</ele><time>2026-04-05T08:46:16.189Z</time></trkpt><trkpt lat="44.87154" lon="9.6421917"><ele>206.0</ele><time>2026-04-05T08:46:17.189Z</time></trkpt><trkpt lat="44.8714733" lon="9.6420933"><ele>206.0</ele><time>2026-04-05T08:46:18.187Z</time></trkpt><trkpt lat="44.8714067" lon="9.6419883"><ele>206.0</ele><time>2026-04-05T08:46:19.192Z</time></trkpt><trkpt lat="44.8713367" lon="9.6418933"><ele>206.0</ele><time>2026-04-05T08:46:20.189Z</time></trkpt><trkpt lat="44.8711883" lon="9.6417067"><ele>205.25</ele><time>2026-04-05T08:46:22.187Z</time></trkpt><trkpt lat="44.87111" lon="9.641615"><ele>204.5</ele><time>2026-04-05T08:46:23.191Z</time></trkpt><trkpt lat="44.8709533" lon="9.641445"><ele>203.75</ele><time>2026-04-05T08:46:25.189Z</time></trkpt><trkpt lat="44.870875" lon="9.6413667"><ele>203.0</ele><time>2026-04-05T08:46:26.188Z</time></trkpt><trkpt lat="44.8707933" lon="9.6412917"><ele>204.0</ele><time>2026-04-05T08:46:27.188Z</time></trkpt><trkpt lat="44.870705" lon="9.6412183"><ele>205.0</ele><time>2026-04-05T08:46:28.19Z</time></trkpt><trkpt lat="44.8706117" lon="9.641145"><ele>206.0</ele><time>2026-04-05T08:46:29.192Z</time></trkpt><trkpt lat="44.8705067" lon="9.64107"><ele>207.0</ele><time>2026-04-05T08:46:30.19Z</time></trkpt><trkpt lat="44.8703967" lon="9.640995"><ele>208.0</ele><time>2026-04-05T08:46:31.19Z</time></trkpt><trkpt lat="44.8702767" lon="9.6409217"><ele>208.0</ele><time>2026-04-05T08:46:32.19Z</time></trkpt><trkpt lat="44.8701467" lon="9.6408533"><ele>208.0</ele><time>2026-04-05T08:46:33.19Z</time></trkpt><trkpt lat="44.8700117" lon="9.6407933"><ele>208.0</ele><time>2026-04-05T08:46:34.188Z</time></trkpt><trkpt lat="44.869875" lon="9.64074"><ele>208.0</ele><time>2026-04-05T08:46:35.189Z</time></trkpt><trkpt lat="44.8697433" lon="9.6406883"><ele>208.5</ele><time>2026-04-05T08:46:36.19Z</time></trkpt><trkpt lat="44.8696167" lon="9.6406433"><ele>209.0</ele><time>2026-04-05T08:46:37.19Z</time></trkpt><trkpt lat="44.8694933" lon="9.6406"><ele>209.5</ele><time>2026-04-05T08:46:38.192Z</time></trkpt><trkpt lat="44.86937" lon="9.64056"><ele>210.0</ele><time>2026-04-05T08:46:39.188Z</time></trkpt><trkpt lat="44.869245" lon="9.64052"><ele>210.5</ele><time>2026-04-05T08:46:40.188Z</time></trkpt><trkpt lat="44.8691217" lon="9.6404817"><ele>211.0</ele><time>2026-04-05T08:46:41.188Z</time></trkpt><trkpt lat="44.8690017" lon="9.64044"><ele>211.5</ele><time>2026-04-05T08:46:42.188Z</time></trkpt><trkpt lat="44.8688817" lon="9.6404"><ele>212.0</ele><time>2026-04-05T08:46:43.189Z</time></trkpt><trkpt lat="44.86876" lon="9.640355"><ele>212.0</ele><time>2026-04-05T08:46:44.188Z</time></trkpt><trkpt lat="44.868635" lon="9.6403117"><ele>212.0</ele><time>2026-04-05T08:46:45.188Z</time></trkpt><trkpt lat="44.8685067" lon="9.6402683"><ele>212.0</ele><time>2026-04-05T08:46:46.188Z</time></trkpt><trkpt lat="44.8683733" lon="9.64023"><ele>212.0</ele><time>2026-04-05T08:46:47.188Z</time></trkpt><trkpt lat="44.8682367" lon="9.640195"><ele>212.25</ele><time>2026-04-05T08:46:48.189Z</time></trkpt><trkpt lat="44.8681" lon="9.6401733"><ele>212.5</ele><time>2026-04-05T08:46:49.188Z</time></trkpt><trkpt lat="44.86797" lon="9.6401733"><ele>212.75</ele><time>2026-04-05T08:46:50.19Z</time></trkpt><trkpt lat="44.8678433" lon="9.64019"><ele>213.0</ele><time>2026-04-05T08:46:51.188Z</time></trkpt><trkpt lat="44.86772" lon="9.640215"><ele>212.75</ele><time>2026-04-05T08:46:52.189Z</time></trkpt><trkpt lat="44.8676017" lon="9.6402433"><ele>212.5</ele><time>2026-04-05T08:46:53.189Z</time></trkpt><trkpt lat="44.8674883" lon="9.6402783"><ele>212.25</ele><time>2026-04-05T08:46:54.189Z</time></trkpt><trkpt lat="44.8673817" lon="9.64032"><ele>212.0</ele><time>2026-04-05T08:46:55.188Z</time></trkpt><trkpt lat="44.8672817" lon="9.6403733"><ele>212.6</ele><time>2026-04-05T08:46:56.188Z</time></trkpt><trkpt lat="44.867185" lon="9.6404317"><ele>213.2</ele><time>2026-04-05T08:46:57.189Z</time></trkpt><trkpt lat="44.867095" lon="9.6404833"><ele>213.8</ele><time>2026-04-05T08:46:58.188Z</time></trkpt><trkpt lat="44.86701" lon="9.6405317"><ele>214.4</ele><time>2026-04-05T08:46:59.188Z</time></trkpt><trkpt lat="44.86693" lon="9.64058"><ele>215.0</ele><time>2026-04-05T08:47:00.188Z</time></trkpt><trkpt lat="44.8668517" lon="9.64062"><ele>215.00000000000003</ele><time>2026-04-05T08:47:01.189Z</time></trkpt><trkpt lat="44.866785" lon="9.6406533"><ele>215.0</ele><time>2026-04-05T08:47:02.188Z</time></trkpt><trkpt lat="44.8667183" lon="9.640685"><ele>215.0</ele><time>2026-04-05T08:47:03.188Z</time></trkpt><trkpt lat="44.8666517" lon="9.6407033"><ele>215.0</ele><time>2026-04-05T08:47:04.188Z</time></trkpt><trkpt lat="44.86655" lon="9.6407133"><ele>215.00000000000003</ele><time>2026-04-05T08:47:06.188Z</time></trkpt><trkpt lat="44.8664633" lon="9.6407133"><ele>215.0</ele><time>2026-04-05T08:47:08.189Z</time></trkpt><trkpt lat="44.8663683" lon="9.6407133"><ele>215.00000000000003</ele><time>2026-04-05T08:47:10.188Z</time></trkpt><trkpt lat="44.8662433" lon="9.64069"><ele>215.0</ele><time>2026-04-05T08:47:12.192Z</time></trkpt><trkpt lat="44.866175" lon="9.6406733"><ele>215.0</ele><time>2026-04-05T08:47:13.188Z</time></trkpt><trkpt lat="44.8661033" lon="9.6406583"><ele>215.0</ele><time>2026-04-05T08:47:14.188Z</time></trkpt><trkpt lat="44.8660367" lon="9.6406633"><ele>215.00000000000003</ele><time>2026-04-05T08:47:15.19Z</time></trkpt><trkpt lat="44.8659533" lon="9.640755"><ele>215.0</ele><time>2026-04-05T08:47:17.189Z</time></trkpt><trkpt lat="44.8659783" lon="9.64089"><ele>215.0</ele><time>2026-04-05T08:47:19.189Z</time></trkpt><trkpt lat="44.8660317" lon="9.6409683"><ele>215.0</ele><time>2026-04-05T08:47:20.188Z</time></trkpt><trkpt lat="44.8661117" lon="9.6410833"><ele>215.0</ele><time>2026-04-05T08:47:22.188Z</time></trkpt><trkpt lat="44.86617" lon="9.6411683"><ele>215.0</ele><time>2026-04-05T08:47:24.188Z</time></trkpt><trkpt lat="44.8661833" lon="9.6412717"><ele>215.0</ele><time>2026-04-05T08:47:26.188Z</time></trkpt><trkpt lat="44.86614" lon="9.64142"><ele>215.2</ele><time>2026-04-05T08:47:28.189Z</time></trkpt><trkpt lat="44.8660917" lon="9.6415333"><ele>215.4</ele><time>2026-04-05T08:47:29.191Z</time></trkpt><trkpt lat="44.8660467" lon="9.641665"><ele>215.60000000000002</ele><time>2026-04-05T08:47:30.19Z</time></trkpt><trkpt lat="44.866" lon="9.6418033"><ele>215.8</ele><time>2026-04-05T08:47:31.191Z</time></trkpt><trkpt lat="44.8659533" lon="9.6419417"><ele>216.0</ele><time>2026-04-05T08:47:32.188Z</time></trkpt><trkpt lat="44.865915" lon="9.6420717"><ele>216.60000000000002</ele><time>2026-04-05T08:47:33.188Z</time></trkpt><trkpt lat="44.8658733" lon="9.6421983"><ele>217.20000000000002</ele><time>2026-04-05T08:47:34.188Z</time></trkpt><trkpt lat="44.8658283" lon="9.6423233"><ele>217.79999999999998</ele><time>2026-04-05T08:47:35.188Z</time></trkpt><trkpt lat="44.8657817" lon="9.6424467"><ele>218.39999999999998</ele><time>2026-04-05T08:47:36.188Z</time></trkpt><trkpt lat="44.86574" lon="9.6425633"><ele>219.0</ele><time>2026-04-05T08:47:37.188Z</time></trkpt><trkpt lat="44.8657017" lon="9.6426817"><ele>219.0</ele><time>2026-04-05T08:47:38.188Z</time></trkpt><trkpt lat="44.8656633" lon="9.642795"><ele>219.0</ele><time>2026-04-05T08:47:39.188Z</time></trkpt><trkpt lat="44.865625" lon="9.6428917"><ele>219.0</ele><time>2026-04-05T08:47:40.188Z</time></trkpt><trkpt lat="44.8655967" lon="9.6429767"><ele>219.0</ele><time>2026-04-05T08:47:41.188Z</time></trkpt><trkpt lat="44.865565" lon="9.64306"><ele>219.0</ele><time>2026-04-05T08:47:42.188Z</time></trkpt><trkpt lat="44.8655333" lon="9.6431467"><ele>219.0</ele><time>2026-04-05T08:47:43.188Z</time></trkpt><trkpt lat="44.8654967" lon="9.64325"><ele>219.39999999999998</ele><time>2026-04-05T08:47:44.189Z</time></trkpt><trkpt lat="44.8654533" lon="9.6433667"><ele>219.79999999999998</ele><time>2026-04-05T08:47:45.188Z</time></trkpt><trkpt lat="44.8654017" lon="9.6434867"><ele>220.20000000000002</ele><time>2026-04-05T08:47:46.188Z</time></trkpt><trkpt lat="44.865355" lon="9.64361"><ele>220.60000000000002</ele><time>2026-04-05T08:47:47.189Z</time></trkpt><trkpt lat="44.8653117" lon="9.6437317"><ele>221.0</ele><time>2026-04-05T08:47:48.189Z</time></trkpt><trkpt lat="44.86527" lon="9.6438517"><ele>221.16666666666669</ele><time>2026-04-05T08:47:49.19Z</time></trkpt><trkpt lat="44.8652283" lon="9.6439667"><ele>221.33333333333334</ele><time>2026-04-05T08:47:50.189Z</time></trkpt><trkpt lat="44.8651883" lon="9.644075"><ele>221.5</ele><time>2026-04-05T08:47:51.188Z</time></trkpt><trkpt lat="44.8651533" lon="9.6441817"><ele>221.66666666666669</ele><time>2026-04-05T08:47:52.188Z</time></trkpt><trkpt lat="44.8651183" lon="9.6442883"><ele>221.83333333333334</ele><time>2026-04-05T08:47:53.189Z</time></trkpt><trkpt lat="44.8650933" lon="9.6443817"><ele>222.0</ele><time>2026-04-05T08:47:54.189Z</time></trkpt><trkpt lat="44.8650883" lon="9.64453"><ele>222.16666666666666</ele><time>2026-04-05T08:47:56.189Z</time></trkpt><trkpt lat="44.8651733" lon="9.6446167"><ele>222.33333333333331</ele><time>2026-04-05T08:47:58.188Z</time></trkpt><trkpt lat="44.8652317" lon="9.644655"><ele>222.5</ele><time>2026-04-05T08:47:59.189Z</time></trkpt><trkpt lat="44.8653017" lon="9.6447017"><ele>222.66666666666666</ele><time>2026-04-05T08:48:00.188Z</time></trkpt><trkpt lat="44.865375" lon="9.6447567"><ele>222.83333333333331</ele><time>2026-04-05T08:48:01.191Z</time></trkpt><trkpt lat="44.8654517" lon="9.6448083"><ele>223.0</ele><time>2026-04-05T08:48:02.188Z</time></trkpt><trkpt lat="44.86552" lon="9.6448583"><ele>223.0</ele><time>2026-04-05T08:48:03.189Z</time></trkpt><trkpt lat="44.865575" lon="9.6449117"><ele>223.0</ele><time>2026-04-05T08:48:04.188Z</time></trkpt><trkpt lat="44.865625" lon="9.6450333"><ele>223.0</ele><time>2026-04-05T08:48:06.188Z</time></trkpt><trkpt lat="44.8655967" lon="9.645215"><ele>223.0</ele><time>2026-04-05T08:48:08.188Z</time></trkpt><trkpt lat="44.8655567" lon="9.64533"><ele>223.0</ele><time>2026-04-05T08:48:09.188Z</time></trkpt><trkpt lat="44.8655" lon="9.6454633"><ele>222.99999999999997</ele><time>2026-04-05T08:48:10.188Z</time></trkpt><trkpt lat="44.8654483" lon="9.6455933"><ele>223.0</ele><time>2026-04-05T08:48:11.192Z</time></trkpt><trkpt lat="44.865405" lon="9.6457017"><ele>223.0</ele><time>2026-04-05T08:48:12.188Z</time></trkpt><trkpt lat="44.8653667" lon="9.6457967"><ele>223.0</ele><time>2026-04-05T08:48:13.19Z</time></trkpt><trkpt lat="44.865345" lon="9.6458917"><ele>222.99999999999997</ele><time>2026-04-05T08:48:14.19Z</time></trkpt><trkpt lat="44.8653417" lon="9.6459833"><ele>223.0</ele><time>2026-04-05T08:48:15.188Z</time></trkpt><trkpt lat="44.865395" lon="9.6461283"><ele>223.2</ele><time>2026-04-05T08:48:17.188Z</time></trkpt><trkpt lat="44.865455" lon="9.6461867"><ele>223.4</ele><time>2026-04-05T08:48:18.189Z</time></trkpt><trkpt lat="44.8655483" lon="9.6462467"><ele>223.59999999999997</ele><time>2026-04-05T08:48:19.189Z</time></trkpt><trkpt lat="44.8656533" lon="9.6463367"><ele>223.79999999999998</ele><time>2026-04-05T08:48:20.189Z</time></trkpt><trkpt lat="44.8657667" lon="9.6464283"><ele>224.0</ele><time>2026-04-05T08:48:21.188Z</time></trkpt><trkpt lat="44.8658733" lon="9.6465167"><ele>223.0</ele><time>2026-04-05T08:48:22.188Z</time></trkpt><trkpt lat="44.8660717" lon="9.646645"><ele>222.0</ele><time>2026-04-05T08:48:24.189Z</time></trkpt><trkpt lat="44.866165" lon="9.6466833"><ele>221.0</ele><time>2026-04-05T08:48:25.189Z</time></trkpt><trkpt lat="44.8662633" lon="9.6467033"><ele>220.0</ele><time>2026-04-05T08:48:26.19Z</time></trkpt><trkpt lat="44.8663683" lon="9.6467"><ele>220.0</ele><time>2026-04-05T08:48:27.189Z</time></trkpt><trkpt lat="44.866475" lon="9.6466917"><ele>220.0</ele><time>2026-04-05T08:48:28.19Z</time></trkpt><trkpt lat="44.8665767" lon="9.6466783"><ele>220.0</ele><time>2026-04-05T08:48:29.191Z</time></trkpt><trkpt lat="44.86667" lon="9.6466667"><ele>220.0</ele><time>2026-04-05T08:48:30.191Z</time></trkpt><trkpt lat="44.8667517" lon="9.6466483"><ele>220.0</ele><time>2026-04-05T08:48:31.191Z</time></trkpt><trkpt lat="44.8668233" lon="9.6466167"><ele>219.66666666666666</ele><time>2026-04-05T08:48:32.189Z</time></trkpt><trkpt lat="44.86688" lon="9.6465517"><ele>219.33333333333331</ele><time>2026-04-05T08:48:33.189Z</time></trkpt><trkpt lat="44.8669217" lon="9.64645"><ele>219.0</ele><time>2026-04-05T08:48:34.189Z</time></trkpt><trkpt lat="44.8669733" lon="9.6463467"><ele>218.66666666666669</ele><time>2026-04-05T08:48:35.189Z</time></trkpt><trkpt lat="44.8670333" lon="9.6462483"><ele>218.33333333333334</ele><time>2026-04-05T08:48:36.189Z</time></trkpt><trkpt lat="44.8670967" lon="9.64617"><ele>218.0</ele><time>2026-04-05T08:48:37.189Z</time></trkpt><trkpt lat="44.8671567" lon="9.646095"><ele>218.00000000000003</ele><time>2026-04-05T08:48:38.189Z</time></trkpt><trkpt lat="44.8672067" lon="9.6460333"><ele>218.0</ele><time>2026-04-05T08:48:39.189Z</time></trkpt><trkpt lat="44.8672683" lon="9.64597"><ele>218.0</ele><time>2026-04-05T08:48:41.189Z</time></trkpt><trkpt lat="44.867345" lon="9.6460017"><ele>218.0</ele><time>2026-04-05T08:48:44.188Z</time></trkpt><trkpt lat="44.8673867" lon="9.6460783"><ele>218.00000000000003</ele><time>2026-04-05T08:48:45.188Z</time></trkpt><trkpt lat="44.8674517" lon="9.64619"><ele>218.0</ele><time>2026-04-05T08:48:46.188Z</time></trkpt><trkpt lat="44.867525" lon="9.6462917"><ele>218.00000000000003</ele><time>2026-04-05T08:48:47.191Z</time></trkpt><trkpt lat="44.867595" lon="9.6463817"><ele>218.0</ele><time>2026-04-05T08:48:48.188Z</time></trkpt><trkpt lat="44.8676567" lon="9.6464633"><ele>218.0</ele><time>2026-04-05T08:48:49.188Z</time></trkpt><trkpt lat="44.8677133" lon="9.6465367"><ele>218.0</ele><time>2026-04-05T08:48:50.188Z</time></trkpt><trkpt lat="44.86777" lon="9.6465917"><ele>218.00000000000003</ele><time>2026-04-05T08:48:51.188Z</time></trkpt><trkpt lat="44.867875" lon="9.646615"><ele>218.0</ele><time>2026-04-05T08:48:53.19Z</time></trkpt><trkpt lat="44.867955" lon="9.6464717"><ele>217.8</ele><time>2026-04-05T08:48:55.188Z</time></trkpt><trkpt lat="44.8679867" lon="9.646345"><ele>217.60000000000002</ele><time>2026-04-05T08:48:56.188Z</time></trkpt><trkpt lat="44.8680283" lon="9.646195"><ele>217.39999999999998</ele><time>2026-04-05T08:48:57.189Z</time></trkpt><trkpt lat="44.8680683" lon="9.6460483"><ele>217.2</ele><time>2026-04-05T08:48:58.189Z</time></trkpt><trkpt lat="44.8681117" lon="9.645905"><ele>217.0</ele><time>2026-04-05T08:48:59.188Z</time></trkpt><trkpt lat="44.8681533" lon="9.6457633"><ele>217.0</ele><time>2026-04-05T08:49:00.19Z</time></trkpt><trkpt lat="44.86819" lon="9.645635"><ele>217.0</ele><time>2026-04-05T08:49:01.188Z</time></trkpt><trkpt lat="44.86822" lon="9.6455267"><ele>217.0</ele><time>2026-04-05T08:49:02.188Z</time></trkpt><trkpt lat="44.8682533" lon="9.6454467"><ele>217.0</ele><time>2026-04-05T08:49:03.189Z</time></trkpt><trkpt lat="44.86834" lon="9.6454083"><ele>217.0</ele><time>2026-04-05T08:49:05.194Z</time></trkpt><trkpt lat="44.8684633" lon="9.6454883"><ele>216.5</ele><time>2026-04-05T08:49:07.189Z</time></trkpt><trkpt lat="44.8685467" lon="9.645555"><ele>216.0</ele><time>2026-04-05T08:49:08.188Z</time></trkpt><trkpt lat="44.8686583" lon="9.6456483"><ele>215.5</ele><time>2026-04-05T08:49:09.188Z</time></trkpt><trkpt lat="44.8687617" lon="9.64573"><ele>215.0</ele><time>2026-04-05T08:49:10.194Z</time></trkpt><trkpt lat="44.8688617" lon="9.6458133"><ele>215.0</ele><time>2026-04-05T08:49:11.188Z</time></trkpt><trkpt lat="44.86896" lon="9.645895"><ele>215.0</ele><time>2026-04-05T08:49:12.188Z</time></trkpt><trkpt lat="44.86905" lon="9.6459717"><ele>215.0</ele><time>2026-04-05T08:49:13.189Z</time></trkpt><trkpt lat="44.8691367" lon="9.6460383"><ele>215.0</ele><time>2026-04-05T08:49:14.188Z</time></trkpt><trkpt lat="44.8692267" lon="9.6460967"><ele>215.0</ele><time>2026-04-05T08:49:15.189Z</time></trkpt><trkpt lat="44.8693067" lon="9.646155"><ele>214.66666666666669</ele><time>2026-04-05T08:49:16.188Z</time></trkpt><trkpt lat="44.86938" lon="9.6462083"><ele>214.33333333333334</ele><time>2026-04-05T08:49:17.188Z</time></trkpt><trkpt lat="44.8694367" lon="9.646275"><ele>214.0</ele><time>2026-04-05T08:49:18.188Z</time></trkpt><trkpt lat="44.8695117" lon="9.6463717"><ele>213.66666666666669</ele><time>2026-04-05T08:49:20.189Z</time></trkpt><trkpt lat="44.8695517" lon="9.6464467"><ele>213.33333333333334</ele><time>2026-04-05T08:49:22.189Z</time></trkpt><trkpt lat="44.8695567" lon="9.6466133"><ele>213.0</ele><time>2026-04-05T08:49:24.188Z</time></trkpt><trkpt lat="44.8695367" lon="9.6467317"><ele>213.0</ele><time>2026-04-05T08:49:25.188Z</time></trkpt><trkpt lat="44.8695033" lon="9.646875"><ele>213.0</ele><time>2026-04-05T08:49:26.188Z</time></trkpt><trkpt lat="44.869475" lon="9.64703"><ele>213.0</ele><time>2026-04-05T08:49:27.188Z</time></trkpt><trkpt lat="44.8694517" lon="9.64718"><ele>213.0</ele><time>2026-04-05T08:49:28.189Z</time></trkpt><trkpt lat="44.8694383" lon="9.6473267"><ele>213.0</ele><time>2026-04-05T08:49:29.193Z</time></trkpt><trkpt lat="44.869435" lon="9.6474617"><ele>212.60000000000002</ele><time>2026-04-05T08:49:30.188Z</time></trkpt><trkpt lat="44.8694433" lon="9.6475867"><ele>212.20000000000002</ele><time>2026-04-05T08:49:31.188Z</time></trkpt><trkpt lat="44.8694617" lon="9.6477083"><ele>211.8</ele><time>2026-04-05T08:49:32.192Z</time></trkpt><trkpt lat="44.8694933" lon="9.6478183"><ele>211.4</ele><time>2026-04-05T08:49:33.188Z</time></trkpt><trkpt lat="44.8695417" lon="9.6479383"><ele>211.0</ele><time>2026-04-05T08:49:34.188Z</time></trkpt><trkpt lat="44.8696133" lon="9.6480833"><ele>210.5</ele><time>2026-04-05T08:49:35.188Z</time></trkpt><trkpt lat="44.8696883" lon="9.648235"><ele>210.0</ele><time>2026-04-05T08:49:36.189Z</time></trkpt><trkpt lat="44.8697717" lon="9.648395"><ele>209.5</ele><time>2026-04-05T08:49:37.189Z</time></trkpt><trkpt lat="44.8698683" lon="9.6485517"><ele>209.0</ele><time>2026-04-05T08:49:38.188Z</time></trkpt><trkpt lat="44.86998" lon="9.6486883"><ele>209.25</ele><time>2026-04-05T08:49:39.19Z</time></trkpt><trkpt lat="44.870105" lon="9.6487933"><ele>209.5</ele><time>2026-04-05T08:49:40.189Z</time></trkpt><trkpt lat="44.87024" lon="9.6488717"><ele>209.75</ele><time>2026-04-05T08:49:41.189Z</time></trkpt><trkpt lat="44.870375" lon="9.6489333"><ele>210.0</ele><time>2026-04-05T08:49:42.188Z</time></trkpt><trkpt lat="44.870505" lon="9.6489867"><ele>210.0</ele><time>2026-04-05T08:49:43.189Z</time></trkpt><trkpt lat="44.870625" lon="9.64904"><ele>210.0</ele><time>2026-04-05T08:49:44.188Z</time></trkpt><trkpt lat="44.870725" lon="9.6491"><ele>210.0</ele><time>2026-04-05T08:49:45.189Z</time></trkpt><trkpt lat="44.8708233" lon="9.6491617"><ele>210.0</ele><time>2026-04-05T08:49:46.188Z</time></trkpt><trkpt lat="44.8709183" lon="9.6492317"><ele>210.0</ele><time>2026-04-05T08:49:47.188Z</time></trkpt><trkpt lat="44.871005" lon="9.6492983"><ele>210.0</ele><time>2026-04-05T08:49:48.188Z</time></trkpt><trkpt lat="44.871085" lon="9.649365"><ele>210.0</ele><time>2026-04-05T08:49:49.188Z</time></trkpt><trkpt lat="44.8711467" lon="9.6494283"><ele>210.0</ele><time>2026-04-05T08:49:50.189Z</time></trkpt><trkpt lat="44.87119" lon="9.6495"><ele>210.0</ele><time>2026-04-05T08:49:51.188Z</time></trkpt><trkpt lat="44.8712167" lon="9.6495817"><ele>210.0</ele><time>2026-04-05T08:49:52.188Z</time></trkpt><trkpt lat="44.8712267" lon="9.64969"><ele>210.0</ele><time>2026-04-05T08:49:53.189Z</time></trkpt><trkpt lat="44.8712317" lon="9.649825"><ele>210.0</ele><time>2026-04-05T08:49:54.189Z</time></trkpt><trkpt lat="44.871235" lon="9.649955"><ele>210.0</ele><time>2026-04-05T08:49:55.188Z</time></trkpt><trkpt lat="44.871235" lon="9.6500767"><ele>210.0</ele><time>2026-04-05T08:49:56.188Z</time></trkpt><trkpt lat="44.8712217" lon="9.6501967"><ele>210.0</ele><time>2026-04-05T08:49:57.19Z</time></trkpt><trkpt lat="44.8711867" lon="9.6503033"><ele>210.0</ele><time>2026-04-05T08:49:58.19Z</time></trkpt><trkpt lat="44.8711433" lon="9.6504033"><ele>210.0</ele><time>2026-04-05T08:49:59.19Z</time></trkpt><trkpt lat="44.871095" lon="9.6505017"><ele>210.83333333333334</ele><time>2026-04-05T08:50:00.188Z</time></trkpt><trkpt lat="44.871045" lon="9.6506017"><ele>211.66666666666669</ele><time>2026-04-05T08:50:01.189Z</time></trkpt><trkpt lat="44.8709917" lon="9.650705"><ele>212.5</ele><time>2026-04-05T08:50:02.189Z</time></trkpt><trkpt lat="44.87094" lon="9.6508033"><ele>213.33333333333334</ele><time>2026-04-05T08:50:03.189Z</time></trkpt><trkpt lat="44.8708867" lon="9.650895"><ele>214.16666666666669</ele><time>2026-04-05T08:50:04.188Z</time></trkpt><trkpt lat="44.8708417" lon="9.650985"><ele>215.0</ele><time>2026-04-05T08:50:05.188Z</time></trkpt><trkpt lat="44.8708117" lon="9.6510817"><ele>216.83333333333334</ele><time>2026-04-05T08:50:06.188Z</time></trkpt><trkpt lat="44.87079" lon="9.65118"><ele>218.66666666666669</ele><time>2026-04-05T08:50:07.188Z</time></trkpt><trkpt lat="44.8707883" lon="9.6512783"><ele>220.5</ele><time>2026-04-05T08:50:08.192Z</time></trkpt><trkpt lat="44.8708067" lon="9.65137"><ele>222.33333333333331</ele><time>2026-04-05T08:50:09.188Z</time></trkpt><trkpt lat="44.8708533" lon="9.6514567"><ele>224.16666666666666</ele><time>2026-04-05T08:50:10.188Z</time></trkpt><trkpt lat="44.870925" lon="9.6515467"><ele>226.0</ele><time>2026-04-05T08:50:11.19Z</time></trkpt><trkpt lat="44.8710117" lon="9.6516317"><ele>226.0</ele><time>2026-04-05T08:50:12.189Z</time></trkpt><trkpt lat="44.871105" lon="9.651715"><ele>226.00000000000003</ele><time>2026-04-05T08:50:13.188Z</time></trkpt><trkpt lat="44.87119" lon="9.6517917"><ele>226.00000000000003</ele><time>2026-04-05T08:50:14.188Z</time></trkpt><trkpt lat="44.871265" lon="9.651855"><ele>226.0</ele><time>2026-04-05T08:50:15.188Z</time></trkpt><trkpt lat="44.8713267" lon="9.651925"><ele>226.0</ele><time>2026-04-05T08:50:16.188Z</time></trkpt><trkpt lat="44.8713833" lon="9.6520117"><ele>229.0</ele><time>2026-04-05T08:50:17.188Z</time></trkpt><trkpt lat="44.8714283" lon="9.65212"><ele>232.00000000000003</ele><time>2026-04-05T08:50:18.19Z</time></trkpt><trkpt lat="44.8714583" lon="9.6522517"><ele>235.00000000000003</ele><time>2026-04-05T08:50:19.188Z</time></trkpt><trkpt lat="44.8714867" lon="9.65239"><ele>238.0</ele><time>2026-04-05T08:50:20.188Z</time></trkpt><trkpt lat="44.871505" lon="9.6525283"><ele>241.0</ele><time>2026-04-05T08:50:21.188Z</time></trkpt><trkpt lat="44.87152" lon="9.6526583"><ele>241.0</ele><time>2026-04-05T08:50:22.188Z</time></trkpt><trkpt lat="44.871525" lon="9.6527683"><ele>241.00000000000003</ele><time>2026-04-05T08:50:23.188Z</time></trkpt><trkpt lat="44.8715267" lon="9.6528583"><ele>241.00000000000003</ele><time>2026-04-05T08:50:24.188Z</time></trkpt><trkpt lat="44.8714767" lon="9.6529833"><ele>241.0</ele><time>2026-04-05T08:50:26.189Z</time></trkpt><trkpt lat="44.8713183" lon="9.6529967"><ele>241.0</ele><time>2026-04-05T08:50:28.189Z</time></trkpt><trkpt lat="44.8711967" lon="9.652995"><ele>242.0</ele><time>2026-04-05T08:50:29.189Z</time></trkpt><trkpt lat="44.8710567" lon="9.6529917"><ele>243.0</ele><time>2026-04-05T08:50:30.189Z</time></trkpt><trkpt lat="44.8709217" lon="9.652975"><ele>244.0</ele><time>2026-04-05T08:50:31.189Z</time></trkpt><trkpt lat="44.8707967" lon="9.6529567"><ele>245.0</ele><time>2026-04-05T08:50:32.19Z</time></trkpt><trkpt lat="44.87069" lon="9.6529517"><ele>249.4</ele><time>2026-04-05T08:50:33.189Z</time></trkpt><trkpt lat="44.8705933" lon="9.652955"><ele>253.8</ele><time>2026-04-05T08:50:34.188Z</time></trkpt><trkpt lat="44.8704833" lon="9.65294"><ele>258.2</ele><time>2026-04-05T08:50:35.189Z</time></trkpt><trkpt lat="44.87037" lon="9.6528967"><ele>262.6</ele><time>2026-04-05T08:50:36.188Z</time></trkpt><trkpt lat="44.8702667" lon="9.65284"><ele>267.0</ele><time>2026-04-05T08:50:37.189Z</time></trkpt><trkpt lat="44.8701767" lon="9.6527917"><ele>267.5</ele><time>2026-04-05T08:50:38.188Z</time></trkpt><trkpt lat="44.8700983" lon="9.6527583"><ele>268.0</ele><time>2026-04-05T08:50:39.188Z</time></trkpt><trkpt lat="44.8700283" lon="9.652755"><ele>268.5</ele><time>2026-04-05T08:50:40.189Z</time></trkpt><trkpt lat="44.8699583" lon="9.6527817"><ele>269.0</ele><time>2026-04-05T08:50:41.188Z</time></trkpt><trkpt lat="44.8698967" lon="9.652845"><ele>269.5</ele><time>2026-04-05T08:50:42.188Z</time></trkpt><trkpt lat="44.8698383" lon="9.6529433"><ele>270.0</ele><time>2026-04-05T08:50:43.188Z</time></trkpt><trkpt lat="44.8697733" lon="9.6530933"><ele>271.6666666666667</ele><time>2026-04-05T08:50:44.189Z</time></trkpt><trkpt lat="44.8697" lon="9.6532683"><ele>273.33333333333337</ele><time>2026-04-05T08:50:45.188Z</time></trkpt><trkpt lat="44.8696183" lon="9.65346"><ele>275.0</ele><time>2026-04-05T08:50:46.188Z</time></trkpt><trkpt lat="44.8695317" lon="9.65366"><ele>275.25</ele><time>2026-04-05T08:50:47.189Z</time></trkpt><trkpt lat="44.8694483" lon="9.6538517"><ele>275.5</ele><time>2026-04-05T08:50:48.188Z</time></trkpt><trkpt lat="44.8693783" lon="9.65402"><ele>275.75</ele><time>2026-04-05T08:50:49.189Z</time></trkpt><trkpt lat="44.8693217" lon="9.6541767"><ele>276.0</ele><time>2026-04-05T08:50:50.188Z</time></trkpt><trkpt lat="44.86928" lon="9.6543133"><ele>277.8333333333333</ele><time>2026-04-05T08:50:51.188Z</time></trkpt><trkpt lat="44.8692517" lon="9.654425"><ele>279.6666666666667</ele><time>2026-04-05T08:50:52.188Z</time></trkpt><trkpt lat="44.86923" lon="9.65451"><ele>281.5</ele><time>2026-04-05T08:50:53.189Z</time></trkpt><trkpt lat="44.8691417" lon="9.6545883"><ele>283.33333333333337</ele><time>2026-04-05T08:50:55.191Z</time></trkpt><trkpt lat="44.869055" lon="9.6545617"><ele>285.1666666666667</ele><time>2026-04-05T08:50:56.192Z</time></trkpt><trkpt lat="44.8689583" lon="9.6545233"><ele>287.0</ele><time>2026-04-05T08:50:57.189Z</time></trkpt><trkpt lat="44.8688333" lon="9.6544817"><ele>287.2</ele><time>2026-04-05T08:50:58.189Z</time></trkpt><trkpt lat="44.8687183" lon="9.6544367"><ele>287.4</ele><time>2026-04-05T08:50:59.188Z</time></trkpt><trkpt lat="44.8686167" lon="9.654385"><ele>287.6</ele><time>2026-04-05T08:51:00.188Z</time></trkpt><trkpt lat="44.8685183" lon="9.6543383"><ele>287.8</ele><time>2026-04-05T08:51:01.188Z</time></trkpt><trkpt lat="44.8684233" lon="9.6542933"><ele>288.0</ele><time>2026-04-05T08:51:02.19Z</time></trkpt><trkpt lat="44.8683217" lon="9.6542333"><ele>290.75</ele><time>2026-04-05T08:51:03.189Z</time></trkpt><trkpt lat="44.8682217" lon="9.65416"><ele>293.5</ele><time>2026-04-05T08:51:04.189Z</time></trkpt><trkpt lat="44.8681233" lon="9.6540783"><ele>296.25</ele><time>2026-04-05T08:51:05.189Z</time></trkpt><trkpt lat="44.86803" lon="9.653985"><ele>299.0</ele><time>2026-04-05T08:51:06.188Z</time></trkpt><trkpt lat="44.867935" lon="9.6538833"><ele>299.0</ele><time>2026-04-05T08:51:07.188Z</time></trkpt><trkpt lat="44.8678433" lon="9.65377"><ele>299.0</ele><time>2026-04-05T08:51:08.19Z</time></trkpt><trkpt lat="44.8677533" lon="9.6536417"><ele>299.0</ele><time>2026-04-05T08:51:09.188Z</time></trkpt><trkpt lat="44.86766" lon="9.6535167"><ele>299.0</ele><time>2026-04-05T08:51:10.189Z</time></trkpt><trkpt lat="44.867565" lon="9.6533983"><ele>300.8</ele><time>2026-04-05T08:51:11.189Z</time></trkpt><trkpt lat="44.8674733" lon="9.6533"><ele>302.59999999999997</ele><time>2026-04-05T08:51:12.189Z</time></trkpt><trkpt lat="44.867385" lon="9.6532217"><ele>304.4</ele><time>2026-04-05T08:51:13.189Z</time></trkpt><trkpt lat="44.8672967" lon="9.6531633"><ele>306.2</ele><time>2026-04-05T08:51:14.19Z</time></trkpt><trkpt lat="44.8671983" lon="9.6531283"><ele>308.0</ele><time>2026-04-05T08:51:15.188Z</time></trkpt><trkpt lat="44.8670917" lon="9.65311"><ele>308.0</ele><time>2026-04-05T08:51:16.188Z</time></trkpt><trkpt lat="44.86698" lon="9.6531017"><ele>308.0</ele><time>2026-04-05T08:51:17.188Z</time></trkpt><trkpt lat="44.866875" lon="9.65311"><ele>308.0</ele><time>2026-04-05T08:51:18.189Z</time></trkpt><trkpt lat="44.8667717" lon="9.6531333"><ele>308.0</ele><time>2026-04-05T08:51:19.19Z</time></trkpt><trkpt lat="44.8666733" lon="9.65318"><ele>308.0</ele><time>2026-04-05T08:51:20.188Z</time></trkpt><trkpt lat="44.8665717" lon="9.6532517"><ele>308.75</ele><time>2026-04-05T08:51:21.188Z</time></trkpt><trkpt lat="44.8664717" lon="9.6533483"><ele>309.5</ele><time>2026-04-05T08:51:22.188Z</time></trkpt><trkpt lat="44.8663667" lon="9.6534683"><ele>310.25</ele><time>2026-04-05T08:51:23.19Z</time></trkpt><trkpt lat="44.866265" lon="9.6536067"><ele>311.0</ele><time>2026-04-05T08:51:24.189Z</time></trkpt><trkpt lat="44.8661683" lon="9.6537483"><ele>313.0</ele><time>2026-04-05T08:51:25.19Z</time></trkpt><trkpt lat="44.8660783" lon="9.6538867"><ele>315.0</ele><time>2026-04-05T08:51:26.189Z</time></trkpt><trkpt lat="44.865995" lon="9.6540317"><ele>317.0</ele><time>2026-04-05T08:51:27.189Z</time></trkpt><trkpt lat="44.865905" lon="9.6541783"><ele>319.0</ele><time>2026-04-05T08:51:28.189Z</time></trkpt><trkpt lat="44.86581" lon="9.654325"><ele>323.5</ele><time>2026-04-05T08:51:29.189Z</time></trkpt><trkpt lat="44.8657133" lon="9.65447"><ele>328.0</ele><time>2026-04-05T08:51:30.189Z</time></trkpt><trkpt lat="44.8656167" lon="9.6546133"><ele>332.5</ele><time>2026-04-05T08:51:31.189Z</time></trkpt><trkpt lat="44.86552" lon="9.6547417"><ele>337.0</ele><time>2026-04-05T08:51:32.191Z</time></trkpt><trkpt lat="44.8654317" lon="9.654855"><ele>337.0</ele><time>2026-04-05T08:51:33.188Z</time></trkpt><trkpt lat="44.86535" lon="9.6549817"><ele>337.0</ele><time>2026-04-05T08:51:34.188Z</time></trkpt><trkpt lat="44.8652917" lon="9.6551117"><ele>337.0</ele><time>2026-04-05T08:51:35.19Z</time></trkpt><trkpt lat="44.8652417" lon="9.6552483"><ele>337.0</ele><time>2026-04-05T08:51:36.192Z</time></trkpt><trkpt lat="44.8652" lon="9.6553883"><ele>337.0</ele><time>2026-04-05T08:51:37.189Z</time></trkpt><trkpt lat="44.8651667" lon="9.6555183"><ele>337.66666666666663</ele><time>2026-04-05T08:51:38.189Z</time></trkpt><trkpt lat="44.8651467" lon="9.6556333"><ele>338.3333333333333</ele><time>2026-04-05T08:51:39.19Z</time></trkpt><trkpt lat="44.8651267" lon="9.6557367"><ele>339.0</ele><time>2026-04-05T08:51:40.191Z</time></trkpt><trkpt lat="44.865095" lon="9.6558233"><ele>339.6666666666667</ele><time>2026-04-05T08:51:41.19Z</time></trkpt><trkpt lat="44.86505" lon="9.6558967"><ele>340.33333333333337</ele><time>2026-04-05T08:51:42.191Z</time></trkpt><trkpt lat="44.8649917" lon="9.6559683"><ele>341.0</ele><time>2026-04-05T08:51:43.189Z</time></trkpt><trkpt lat="44.8649" lon="9.6560183"><ele>340.5</ele><time>2026-04-05T08:51:44.19Z</time></trkpt><trkpt lat="44.8647717" lon="9.6560783"><ele>340.0</ele><time>2026-04-05T08:51:45.188Z</time></trkpt><trkpt lat="44.864635" lon="9.6561317"><ele>339.5</ele><time>2026-04-05T08:51:46.188Z</time></trkpt><trkpt lat="44.8644983" lon="9.656185"><ele>339.0</ele><time>2026-04-05T08:51:47.188Z</time></trkpt><trkpt lat="44.8643733" lon="9.6562567"><ele>341.75</ele><time>2026-04-05T08:51:48.19Z</time></trkpt><trkpt lat="44.8642467" lon="9.6563417"><ele>344.5</ele><time>2026-04-05T08:51:49.191Z</time></trkpt><trkpt lat="44.86412" lon="9.6564283"><ele>347.25</ele><time>2026-04-05T08:51:50.191Z</time></trkpt><trkpt lat="44.8639967" lon="9.656505"><ele>350.0</ele><time>2026-04-05T08:51:51.191Z</time></trkpt><trkpt lat="44.8638733" lon="9.6565683"><ele>350.0</ele><time>2026-04-05T08:51:52.19Z</time></trkpt><trkpt lat="44.8637433" lon="9.6566267"><ele>350.0</ele><time>2026-04-05T08:51:53.191Z</time></trkpt><trkpt lat="44.8636067" lon="9.6566867"><ele>350.0</ele><time>2026-04-05T08:51:54.191Z</time></trkpt><trkpt lat="44.8634583" lon="9.6567533"><ele>350.0</ele><time>2026-04-05T08:51:55.191Z</time></trkpt><trkpt lat="44.8633083" lon="9.6568183"><ele>351.0</ele><time>2026-04-05T08:51:56.192Z</time></trkpt><trkpt lat="44.8631633" lon="9.6568783"><ele>352.0</ele><time>2026-04-05T08:51:57.19Z</time></trkpt><trkpt lat="44.863025" lon="9.65693"><ele>353.0</ele><time>2026-04-05T08:51:58.19Z</time></trkpt><trkpt lat="44.8629017" lon="9.65696"><ele>354.0</ele><time>2026-04-05T08:51:59.19Z</time></trkpt><trkpt lat="44.8627767" lon="9.6569767"><ele>354.25</ele><time>2026-04-05T08:52:00.192Z</time></trkpt><trkpt lat="44.8626483" lon="9.6569633"><ele>354.5</ele><time>2026-04-05T08:52:01.191Z</time></trkpt><trkpt lat="44.8625" lon="9.6569383"><ele>354.75</ele><time>2026-04-05T08:52:02.191Z</time></trkpt><trkpt lat="44.8623467" lon="9.6568983"><ele>355.0</ele><time>2026-04-05T08:52:03.191Z</time></trkpt><trkpt lat="44.86219" lon="9.65688"><ele>355.0</ele><time>2026-04-05T08:52:04.19Z</time></trkpt><trkpt lat="44.8620317" lon="9.656885"><ele>355.0</ele><time>2026-04-05T08:52:05.188Z</time></trkpt><trkpt lat="44.8618767" lon="9.6569033"><ele>355.0</ele><time>2026-04-05T08:52:06.188Z</time></trkpt><trkpt lat="44.8617333" lon="9.6569333"><ele>358.25</ele><time>2026-04-05T08:52:07.188Z</time></trkpt><trkpt lat="44.8616017" lon="9.65699"><ele>361.5</ele><time>2026-04-05T08:52:08.189Z</time></trkpt><trkpt lat="44.8614783" lon="9.6570817"><ele>364.75</ele><time>2026-04-05T08:52:09.189Z</time></trkpt><trkpt lat="44.8613667" lon="9.6572"><ele>368.0</ele><time>2026-04-05T08:52:10.189Z</time></trkpt><trkpt lat="44.861255" lon="9.65734"><ele>368.0</ele><time>2026-04-05T08:52:11.189Z</time></trkpt><trkpt lat="44.8611417" lon="9.6574933"><ele>368.0</ele><time>2026-04-05T08:52:12.189Z</time></trkpt><trkpt lat="44.8610383" lon="9.6576483"><ele>368.0</ele><time>2026-04-05T08:52:13.19Z</time></trkpt><trkpt lat="44.860945" lon="9.6578017"><ele>371.0</ele><time>2026-04-05T08:52:14.191Z</time></trkpt><trkpt lat="44.8608767" lon="9.6579517"><ele>374.0</ele><time>2026-04-05T08:52:15.192Z</time></trkpt><trkpt lat="44.860825" lon="9.6580983"><ele>377.0</ele><time>2026-04-05T08:52:16.19Z</time></trkpt><trkpt lat="44.8607833" lon="9.6582567"><ele>380.0</ele><time>2026-04-05T08:52:17.19Z</time></trkpt><trkpt lat="44.86075" lon="9.6584133"><ele>380.0</ele><time>2026-04-05T08:52:18.191Z</time></trkpt><trkpt lat="44.8607317" lon="9.658585"><ele>380.0</ele><time>2026-04-05T08:52:19.191Z</time></trkpt><trkpt lat="44.86072" lon="9.6587517"><ele>380.0</ele><time>2026-04-05T08:52:20.194Z</time></trkpt><trkpt lat="44.86072" lon="9.658935"><ele>380.0</ele><time>2026-04-05T08:52:21.191Z</time></trkpt><trkpt lat="44.86072" lon="9.659115"><ele>380.4</ele><time>2026-04-05T08:52:22.19Z</time></trkpt><trkpt lat="44.8607117" lon="9.6592733"><ele>380.8</ele><time>2026-04-05T08:52:23.19Z</time></trkpt><trkpt lat="44.8606933" lon="9.65941"><ele>381.20000000000005</ele><time>2026-04-05T08:52:24.191Z</time></trkpt><trkpt lat="44.8606533" lon="9.6595317"><ele>381.6</ele><time>2026-04-05T08:52:25.191Z</time></trkpt><trkpt lat="44.8605817" lon="9.659625"><ele>382.0</ele><time>2026-04-05T08:52:26.19Z</time></trkpt><trkpt lat="44.8604867" lon="9.6596983"><ele>382.0</ele><time>2026-04-05T08:52:27.19Z</time></trkpt><trkpt lat="44.860365" lon="9.6597667"><ele>382.0</ele><time>2026-04-05T08:52:28.192Z</time></trkpt><trkpt lat="44.86024" lon="9.6598533"><ele>382.0</ele><time>2026-04-05T08:52:29.19Z</time></trkpt><trkpt lat="44.860115" lon="9.6599583"><ele>382.0</ele><time>2026-04-05T08:52:30.19Z</time></trkpt><trkpt lat="44.86" lon="9.660095"><ele>381.66666666666663</ele><time>2026-04-05T08:52:31.191Z</time></trkpt><trkpt lat="44.85989" lon="9.66024"><ele>381.3333333333333</ele><time>2026-04-05T08:52:32.188Z</time></trkpt><trkpt lat="44.859775" lon="9.6603767"><ele>381.0</ele><time>2026-04-05T08:52:33.188Z</time></trkpt><trkpt lat="44.8596517" lon="9.6605033"><ele>383.0</ele><time>2026-04-05T08:52:34.189Z</time></trkpt><trkpt lat="44.8595183" lon="9.6606217"><ele>385.0</ele><time>2026-04-05T08:52:35.187Z</time></trkpt><trkpt lat="44.8593883" lon="9.6607483"><ele>387.0</ele><time>2026-04-05T08:52:36.187Z</time></trkpt><trkpt lat="44.8592617" lon="9.66088"><ele>387.0</ele><time>2026-04-05T08:52:37.187Z</time></trkpt><trkpt lat="44.8591467" lon="9.660995"><ele>387.0</ele><time>2026-04-05T08:52:38.187Z</time></trkpt><trkpt lat="44.85903" lon="9.6610933"><ele>387.0</ele><time>2026-04-05T08:52:39.187Z</time></trkpt><trkpt lat="44.8589067" lon="9.6611767"><ele>387.0</ele><time>2026-04-05T08:52:40.188Z</time></trkpt><trkpt lat="44.85878" lon="9.6612417"><ele>387.40000000000003</ele><time>2026-04-05T08:52:41.189Z</time></trkpt><trkpt lat="44.858665" lon="9.6613033"><ele>387.8</ele><time>2026-04-05T08:52:42.188Z</time></trkpt><trkpt lat="44.858565" lon="9.6613517"><ele>388.2</ele><time>2026-04-05T08:52:43.188Z</time></trkpt><trkpt lat="44.8584817" lon="9.6613917"><ele>388.6</ele><time>2026-04-05T08:52:44.188Z</time></trkpt><trkpt lat="44.85841" lon="9.6614167"><ele>389.0</ele><time>2026-04-05T08:52:45.188Z</time></trkpt><trkpt lat="44.8583317" lon="9.6614217"><ele>388.99999999999994</ele><time>2026-04-05T08:52:46.189Z</time></trkpt><trkpt lat="44.85827" lon="9.6613767"><ele>389.0</ele><time>2026-04-05T08:52:47.189Z</time></trkpt><trkpt lat="44.8582017" lon="9.6613183"><ele>389.0</ele><time>2026-04-05T08:52:48.188Z</time></trkpt><trkpt lat="44.85813" lon="9.661265"><ele>389.0</ele><time>2026-04-05T08:52:49.191Z</time></trkpt><trkpt lat="44.85806" lon="9.6612217"><ele>388.99999999999994</ele><time>2026-04-05T08:52:50.191Z</time></trkpt><trkpt lat="44.8579917" lon="9.6612167"><ele>389.0</ele><time>2026-04-05T08:52:51.19Z</time></trkpt><trkpt lat="44.85792" lon="9.6612483"><ele>389.0</ele><time>2026-04-05T08:52:52.19Z</time></trkpt><trkpt lat="44.8578117" lon="9.6613433"><ele>389.0</ele><time>2026-04-05T08:52:53.189Z</time></trkpt><trkpt lat="44.8577033" lon="9.6614367"><ele>389.0</ele><time>2026-04-05T08:52:54.19Z</time></trkpt><trkpt lat="44.85759" lon="9.6615233"><ele>389.0</ele><time>2026-04-05T08:52:55.19Z</time></trkpt><trkpt lat="44.8574683" lon="9.6616017"><ele>385.25</ele><time>2026-04-05T08:52:56.191Z</time></trkpt><trkpt lat="44.8573483" lon="9.661675"><ele>381.5</ele><time>2026-04-05T08:52:57.19Z</time></trkpt><trkpt lat="44.85723" lon="9.6617367"><ele>377.75</ele><time>2026-04-05T08:52:58.19Z</time></trkpt><trkpt lat="44.8571167" lon="9.66178"><ele>374.0</ele><time>2026-04-05T08:52:59.192Z</time></trkpt><trkpt lat="44.857005" lon="9.6618033"><ele>374.0</ele><time>2026-04-05T08:53:00.189Z</time></trkpt><trkpt lat="44.8569067" lon="9.6618067"><ele>374.0</ele><time>2026-04-05T08:53:01.188Z</time></trkpt><trkpt lat="44.8568167" lon="9.6618067"><ele>374.0</ele><time>2026-04-05T08:53:02.188Z</time></trkpt><trkpt lat="44.8567367" lon="9.6618083"><ele>374.0</ele><time>2026-04-05T08:53:03.187Z</time></trkpt><trkpt lat="44.8566667" lon="9.6618083"><ele>374.0</ele><time>2026-04-05T08:53:04.188Z</time></trkpt><trkpt lat="44.8565833" lon="9.6618083"><ele>374.0</ele><time>2026-04-05T08:53:05.187Z</time></trkpt><trkpt lat="44.8564933" lon="9.661815"><ele>373.5</ele><time>2026-04-05T08:53:06.188Z</time></trkpt><trkpt lat="44.856405" lon="9.6618417"><ele>373.0</ele><time>2026-04-05T08:53:07.188Z</time></trkpt><trkpt lat="44.856295" lon="9.661915"><ele>372.5</ele><time>2026-04-05T08:53:08.188Z</time></trkpt><trkpt lat="44.8561733" lon="9.6619967"><ele>372.0</ele><time>2026-04-05T08:53:09.187Z</time></trkpt><trkpt lat="44.8560383" lon="9.6620867"><ele>373.6666666666667</ele><time>2026-04-05T08:53:10.188Z</time></trkpt><trkpt lat="44.8558917" lon="9.662185"><ele>375.33333333333337</ele><time>2026-04-05T08:53:11.188Z</time></trkpt><trkpt lat="44.855745" lon="9.6622917"><ele>377.0</ele><time>2026-04-05T08:53:12.188Z</time></trkpt><trkpt lat="44.8556033" lon="9.6624"><ele>377.0</ele><time>2026-04-05T08:53:13.188Z</time></trkpt><trkpt lat="44.8554683" lon="9.6625033"><ele>377.0</ele><time>2026-04-05T08:53:14.188Z</time></trkpt><trkpt lat="44.8553567" lon="9.6626067"><ele>377.0</ele><time>2026-04-05T08:53:15.188Z</time></trkpt><trkpt lat="44.8552667" lon="9.6627183"><ele>377.0</ele><time>2026-04-05T08:53:16.188Z</time></trkpt><trkpt lat="44.8552" lon="9.66284"><ele>377.0</ele><time>2026-04-05T08:53:17.187Z</time></trkpt><trkpt lat="44.8551633" lon="9.66297"><ele>377.0</ele><time>2026-04-05T08:53:18.188Z</time></trkpt><trkpt lat="44.8551483" lon="9.6631067"><ele>377.0</ele><time>2026-04-05T08:53:19.189Z</time></trkpt><trkpt lat="44.8551717" lon="9.663235"><ele>377.0</ele><time>2026-04-05T08:53:20.188Z</time></trkpt><trkpt lat="44.8552317" lon="9.6633583"><ele>377.0</ele><time>2026-04-05T08:53:21.188Z</time></trkpt><trkpt lat="44.8553133" lon="9.66348"><ele>379.5</ele><time>2026-04-05T08:53:22.19Z</time></trkpt><trkpt lat="44.8554133" lon="9.663615"><ele>382.0</ele><time>2026-04-05T08:53:23.189Z</time></trkpt><trkpt lat="44.8555167" lon="9.6637717"><ele>384.5</ele><time>2026-04-05T08:53:24.191Z</time></trkpt><trkpt lat="44.8556167" lon="9.6639433"><ele>387.0</ele><time>2026-04-05T08:53:25.188Z</time></trkpt><trkpt lat="44.8557117" lon="9.6641233"><ele>387.0</ele><time>2026-04-05T08:53:26.188Z</time></trkpt><trkpt lat="44.855805" lon="9.6643133"><ele>387.0</ele><time>2026-04-05T08:53:27.188Z</time></trkpt><trkpt lat="44.8559033" lon="9.6644967"><ele>387.0</ele><time>2026-04-05T08:53:28.187Z</time></trkpt><trkpt lat="44.85599" lon="9.664665"><ele>388.0</ele><time>2026-04-05T08:53:29.188Z</time></trkpt><trkpt lat="44.8560667" lon="9.6648133"><ele>389.0</ele><time>2026-04-05T08:53:30.188Z</time></trkpt><trkpt lat="44.856125" lon="9.664955"><ele>390.0</ele><time>2026-04-05T08:53:31.187Z</time></trkpt><trkpt lat="44.856155" lon="9.6651083"><ele>391.0</ele><time>2026-04-05T08:53:32.188Z</time></trkpt><trkpt lat="44.8561717" lon="9.6652717"><ele>391.0</ele><time>2026-04-05T08:53:33.188Z</time></trkpt><trkpt lat="44.8561583" lon="9.6654383"><ele>391.0</ele><time>2026-04-05T08:53:34.189Z</time></trkpt><trkpt lat="44.8561117" lon="9.66562"><ele>391.0</ele><time>2026-04-05T08:53:35.188Z</time></trkpt><trkpt lat="44.8560517" lon="9.6658183"><ele>391.0</ele><time>2026-04-05T08:53:36.188Z</time></trkpt><trkpt lat="44.8559833" lon="9.6660317"><ele>392.0</ele><time>2026-04-05T08:53:37.187Z</time></trkpt><trkpt lat="44.8559117" lon="9.66624"><ele>393.0</ele><time>2026-04-05T08:53:38.192Z</time></trkpt><trkpt lat="44.8558367" lon="9.6664433"><ele>394.0</ele><time>2026-04-05T08:53:39.188Z</time></trkpt><trkpt lat="44.8557483" lon="9.666635"><ele>394.0</ele><time>2026-04-05T08:53:40.19Z</time></trkpt><trkpt lat="44.8556633" lon="9.6668283"><ele>394.0</ele><time>2026-04-05T08:53:41.187Z</time></trkpt><trkpt lat="44.8555717" lon="9.6670017"><ele>394.0</ele><time>2026-04-05T08:53:42.188Z</time></trkpt><trkpt lat="44.8554817" lon="9.6671483"><ele>393.6</ele><time>2026-04-05T08:53:43.19Z</time></trkpt><trkpt lat="44.8554017" lon="9.6672633"><ele>393.2</ele><time>2026-04-05T08:53:44.188Z</time></trkpt><trkpt lat="44.85533" lon="9.6673583"><ele>392.8</ele><time>2026-04-05T08:53:45.188Z</time></trkpt><trkpt lat="44.8552583" lon="9.6674317"><ele>392.40000000000003</ele><time>2026-04-05T08:53:46.189Z</time></trkpt><trkpt lat="44.855175" lon="9.667485"><ele>392.0</ele><time>2026-04-05T08:53:47.188Z</time></trkpt><trkpt lat="44.8550783" lon="9.6674717"><ele>391.5</ele><time>2026-04-05T08:53:48.189Z</time></trkpt><trkpt lat="44.85497" lon="9.66741"><ele>391.0</ele><time>2026-04-05T08:53:49.189Z</time></trkpt><trkpt lat="44.8548467" lon="9.6673317"><ele>390.5</ele><time>2026-04-05T08:53:50.19Z</time></trkpt><trkpt lat="44.8547167" lon="9.6672567"><ele>390.0</ele><time>2026-04-05T08:53:51.189Z</time></trkpt><trkpt lat="44.8545833" lon="9.6672"><ele>390.0</ele><time>2026-04-05T08:53:52.188Z</time></trkpt><trkpt lat="44.8544483" lon="9.6671767"><ele>390.0</ele><time>2026-04-05T08:53:53.19Z</time></trkpt><trkpt lat="44.8543" lon="9.6671833"><ele>390.0</ele><time>2026-04-05T08:53:54.188Z</time></trkpt><trkpt lat="44.8541533" lon="9.667235"><ele>390.0</ele><time>2026-04-05T08:53:55.188Z</time></trkpt><trkpt lat="44.8540117" lon="9.6673233"><ele>389.25</ele><time>2026-04-05T08:53:56.189Z</time></trkpt><trkpt lat="44.853885" lon="9.6674133"><ele>388.5</ele><time>2026-04-05T08:53:57.187Z</time></trkpt><trkpt lat="44.8537617" lon="9.6674867"><ele>387.75</ele><time>2026-04-05T08:53:58.187Z</time></trkpt><trkpt lat="44.8536333" lon="9.6675317"><ele>387.0</ele><time>2026-04-05T08:53:59.188Z</time></trkpt><trkpt lat="44.8535133" lon="9.6675417"><ele>386.0</ele><time>2026-04-05T08:54:00.187Z</time></trkpt><trkpt lat="44.8533867" lon="9.6675183"><ele>385.0</ele><time>2026-04-05T08:54:01.187Z</time></trkpt><trkpt lat="44.853245" lon="9.6674733"><ele>384.0</ele><time>2026-04-05T08:54:02.188Z</time></trkpt><trkpt lat="44.8530983" lon="9.6674233"><ele>383.0</ele><time>2026-04-05T08:54:03.187Z</time></trkpt><trkpt lat="44.8529617" lon="9.6673733"><ele>383.0</ele><time>2026-04-05T08:54:04.188Z</time></trkpt><trkpt lat="44.85284" lon="9.6673233"><ele>383.0</ele><time>2026-04-05T08:54:05.19Z</time></trkpt><trkpt lat="44.8527317" lon="9.6672767"><ele>383.0</ele><time>2026-04-05T08:54:06.188Z</time></trkpt><trkpt lat="44.8526367" lon="9.6672317"><ele>383.0</ele><time>2026-04-05T08:54:07.189Z</time></trkpt><trkpt lat="44.8525583" lon="9.6672017"><ele>383.0</ele><time>2026-04-05T08:54:08.188Z</time></trkpt><trkpt lat="44.8524933" lon="9.667195"><ele>382.0</ele><time>2026-04-05T08:54:09.188Z</time></trkpt><trkpt lat="44.8524333" lon="9.6672317"><ele>381.0</ele><time>2026-04-05T08:54:10.188Z</time></trkpt><trkpt lat="44.8523867" lon="9.6673167"><ele>380.0</ele><time>2026-04-05T08:54:11.188Z</time></trkpt><trkpt lat="44.85236" lon="9.6674067"><ele>379.0</ele><time>2026-04-05T08:54:12.188Z</time></trkpt><trkpt lat="44.8524033" lon="9.667605"><ele>378.0</ele><time>2026-04-05T08:54:13.189Z</time></trkpt><trkpt lat="44.852455" lon="9.6678"><ele>378.0</ele><time>2026-04-05T08:54:14.188Z</time></trkpt><trkpt lat="44.8525217" lon="9.668"><ele>378.0</ele><time>2026-04-05T08:54:15.189Z</time></trkpt><trkpt lat="44.8525883" lon="9.6682083"><ele>378.0</ele><time>2026-04-05T08:54:16.187Z</time></trkpt><trkpt lat="44.8526483" lon="9.6684067"><ele>375.5</ele><time>2026-04-05T08:54:17.187Z</time></trkpt><trkpt lat="44.8527017" lon="9.66859"><ele>373.0</ele><time>2026-04-05T08:54:18.189Z</time></trkpt><trkpt lat="44.85275" lon="9.6687617"><ele>370.5</ele><time>2026-04-05T08:54:19.188Z</time></trkpt><trkpt lat="44.8527833" lon="9.6689267"><ele>368.0</ele><time>2026-04-05T08:54:20.189Z</time></trkpt><trkpt lat="44.8527983" lon="9.6690917"><ele>367.0</ele><time>2026-04-05T08:54:21.188Z</time></trkpt><trkpt lat="44.85281" lon="9.6692667"><ele>366.0</ele><time>2026-04-05T08:54:22.187Z</time></trkpt><trkpt lat="44.8528333" lon="9.66945"><ele>365.0</ele><time>2026-04-05T08:54:23.188Z</time></trkpt><trkpt lat="44.8528767" lon="9.6696283"><ele>364.0</ele><time>2026-04-05T08:54:24.187Z</time></trkpt><trkpt lat="44.8529367" lon="9.6698133"><ele>364.0</ele><time>2026-04-05T08:54:25.187Z</time></trkpt><trkpt lat="44.8530033" lon="9.669995"><ele>364.0</ele><time>2026-04-05T08:54:26.188Z</time></trkpt><trkpt lat="44.8530767" lon="9.67018"><ele>364.0</ele><time>2026-04-05T08:54:27.188Z</time></trkpt><trkpt lat="44.8531467" lon="9.670355"><ele>364.0</ele><time>2026-04-05T08:54:28.188Z</time></trkpt><trkpt lat="44.853215" lon="9.6705233"><ele>364.75</ele><time>2026-04-05T08:54:29.188Z</time></trkpt><trkpt lat="44.853285" lon="9.670685"><ele>365.5</ele><time>2026-04-05T08:54:30.189Z</time></trkpt><trkpt lat="44.8533583" lon="9.6708433"><ele>366.25</ele><time>2026-04-05T08:54:31.188Z</time></trkpt><trkpt lat="44.85342" lon="9.6710033"><ele>367.0</ele><time>2026-04-05T08:54:32.188Z</time></trkpt><trkpt lat="44.85347" lon="9.6711617"><ele>361.25</ele><time>2026-04-05T08:54:33.189Z</time></trkpt><trkpt lat="44.8535017" lon="9.6713167"><ele>355.5</ele><time>2026-04-05T08:54:34.187Z</time></trkpt><trkpt lat="44.8535217" lon="9.6714717"><ele>349.75</ele><time>2026-04-05T08:54:35.188Z</time></trkpt><trkpt lat="44.8535367" lon="9.67164"><ele>344.0</ele><time>2026-04-05T08:54:36.188Z</time></trkpt><trkpt lat="44.853545" lon="9.6718167"><ele>341.75</ele><time>2026-04-05T08:54:37.187Z</time></trkpt><trkpt lat="44.8535533" lon="9.67199"><ele>339.5</ele><time>2026-04-05T08:54:38.189Z</time></trkpt><trkpt lat="44.8535783" lon="9.6721567"><ele>337.25</ele><time>2026-04-05T08:54:39.187Z</time></trkpt><trkpt lat="44.8536217" lon="9.6723167"><ele>335.0</ele><time>2026-04-05T08:54:40.187Z</time></trkpt><trkpt lat="44.8536667" lon="9.6724617"><ele>335.0</ele><time>2026-04-05T08:54:41.189Z</time></trkpt><trkpt lat="44.8537083" lon="9.6725967"><ele>335.0</ele><time>2026-04-05T08:54:42.187Z</time></trkpt><trkpt lat="44.85374" lon="9.672715"><ele>335.0</ele><time>2026-04-05T08:54:43.188Z</time></trkpt><trkpt lat="44.85376" lon="9.6728233"><ele>335.0</ele><time>2026-04-05T08:54:44.187Z</time></trkpt><trkpt lat="44.8537617" lon="9.6729317"><ele>335.0</ele><time>2026-04-05T08:54:45.188Z</time></trkpt><trkpt lat="44.8537433" lon="9.6730217"><ele>335.0</ele><time>2026-04-05T08:54:46.194Z</time></trkpt><trkpt lat="44.8536417" lon="9.6731317"><ele>335.2</ele><time>2026-04-05T08:54:48.187Z</time></trkpt><trkpt lat="44.8535567" lon="9.67316"><ele>335.4</ele><time>2026-04-05T08:54:49.188Z</time></trkpt><trkpt lat="44.8534617" lon="9.673195"><ele>335.6</ele><time>2026-04-05T08:54:50.188Z</time></trkpt><trkpt lat="44.8533633" lon="9.67326"><ele>335.8</ele><time>2026-04-05T08:54:51.188Z</time></trkpt><trkpt lat="44.8532667" lon="9.6733483"><ele>336.0</ele><time>2026-04-05T08:54:52.187Z</time></trkpt><trkpt lat="44.853165" lon="9.6734283"><ele>336.6</ele><time>2026-04-05T08:54:53.191Z</time></trkpt><trkpt lat="44.8530683" lon="9.673495"><ele>337.20000000000005</ele><time>2026-04-05T08:54:54.187Z</time></trkpt><trkpt lat="44.852975" lon="9.6735617"><ele>337.79999999999995</ele><time>2026-04-05T08:54:55.187Z</time></trkpt><trkpt lat="44.8529" lon="9.6736483"><ele>338.4</ele><time>2026-04-05T08:54:56.188Z</time></trkpt><trkpt lat="44.8528433" lon="9.6737617"><ele>339.0</ele><time>2026-04-05T08:54:57.188Z</time></trkpt><trkpt lat="44.8528017" lon="9.6739"><ele>336.5</ele><time>2026-04-05T08:54:58.19Z</time></trkpt><trkpt lat="44.85278" lon="9.67405"><ele>334.0</ele><time>2026-04-05T08:54:59.187Z</time></trkpt><trkpt lat="44.8527783" lon="9.6742133"><ele>331.5</ele><time>2026-04-05T08:55:00.187Z</time></trkpt><trkpt lat="44.852795" lon="9.6743783"><ele>329.0</ele><time>2026-04-05T08:55:01.188Z</time></trkpt><trkpt lat="44.8528267" lon="9.6745417"><ele>327.5</ele><time>2026-04-05T08:55:02.188Z</time></trkpt><trkpt lat="44.8528433" lon="9.6746967"><ele>326.0</ele><time>2026-04-05T08:55:03.188Z</time></trkpt><trkpt lat="44.85284" lon="9.6748433"><ele>324.5</ele><time>2026-04-05T08:55:04.19Z</time></trkpt><trkpt lat="44.852805" lon="9.6749983"><ele>323.0</ele><time>2026-04-05T08:55:05.187Z</time></trkpt><trkpt lat="44.8527433" lon="9.6751517"><ele>322.25</ele><time>2026-04-05T08:55:06.189Z</time></trkpt><trkpt lat="44.8526767" lon="9.6752967"><ele>321.5</ele><time>2026-04-05T08:55:07.188Z</time></trkpt><trkpt lat="44.8526167" lon="9.6754333"><ele>320.75</ele><time>2026-04-05T08:55:08.188Z</time></trkpt><trkpt lat="44.8525583" lon="9.6755633"><ele>320.0</ele><time>2026-04-05T08:55:09.188Z</time></trkpt><trkpt lat="44.85251" lon="9.6757017"><ele>320.0</ele><time>2026-04-05T08:55:10.188Z</time></trkpt><trkpt lat="44.8524667" lon="9.6758467"><ele>320.0</ele><time>2026-04-05T08:55:11.187Z</time></trkpt><trkpt lat="44.8524317" lon="9.675995"><ele>320.0</ele><time>2026-04-05T08:55:12.189Z</time></trkpt><trkpt lat="44.8523983" lon="9.67614"><ele>320.0</ele><time>2026-04-05T08:55:13.189Z</time></trkpt><trkpt lat="44.8523683" lon="9.6762683"><ele>320.0</ele><time>2026-04-05T08:55:14.189Z</time></trkpt><trkpt lat="44.852335" lon="9.6763767"><ele>318.0</ele><time>2026-04-05T08:55:15.19Z</time></trkpt><trkpt lat="44.8522883" lon="9.6764633"><ele>316.0</ele><time>2026-04-05T08:55:16.188Z</time></trkpt><trkpt lat="44.8522183" lon="9.6765333"><ele>314.0</ele><time>2026-04-05T08:55:17.187Z</time></trkpt><trkpt lat="44.852125" lon="9.6765983"><ele>312.0</ele><time>2026-04-05T08:55:18.187Z</time></trkpt><trkpt lat="44.8520117" lon="9.67666"><ele>310.0</ele><time>2026-04-05T08:55:19.187Z</time></trkpt><trkpt lat="44.851895" lon="9.6767267"><ele>307.5</ele><time>2026-04-05T08:55:20.188Z</time></trkpt><trkpt lat="44.8517817" lon="9.676795"><ele>305.0</ele><time>2026-04-05T08:55:21.187Z</time></trkpt><trkpt lat="44.8516733" lon="9.6768483"><ele>302.5</ele><time>2026-04-05T08:55:22.188Z</time></trkpt><trkpt lat="44.8515617" lon="9.6768667"><ele>300.0</ele><time>2026-04-05T08:55:23.187Z</time></trkpt><trkpt lat="44.851445" lon="9.6768583"><ele>300.0</ele><time>2026-04-05T08:55:24.187Z</time></trkpt><trkpt lat="44.8513283" lon="9.6768333"><ele>300.0</ele><time>2026-04-05T08:55:25.187Z</time></trkpt><trkpt lat="44.8512133" lon="9.6768117"><ele>300.0</ele><time>2026-04-05T08:55:26.188Z</time></trkpt><trkpt lat="44.851095" lon="9.6768067"><ele>300.0</ele><time>2026-04-05T08:55:27.189Z</time></trkpt><trkpt lat="44.85098" lon="9.67681"><ele>298.8333333333333</ele><time>2026-04-05T08:55:28.188Z</time></trkpt><trkpt lat="44.850875" lon="9.6768133"><ele>297.6666666666667</ele><time>2026-04-05T08:55:29.187Z</time></trkpt><trkpt lat="44.8507833" lon="9.6768167"><ele>296.5</ele><time>2026-04-05T08:55:30.188Z</time></trkpt><trkpt lat="44.8507067" lon="9.676835"><ele>295.33333333333337</ele><time>2026-04-05T08:55:31.187Z</time></trkpt><trkpt lat="44.850635" lon="9.6768717"><ele>294.1666666666667</ele><time>2026-04-05T08:55:32.188Z</time></trkpt><trkpt lat="44.850575" lon="9.676955"><ele>293.0</ele><time>2026-04-05T08:55:33.19Z</time></trkpt><trkpt lat="44.85052" lon="9.6770817"><ele>291.0</ele><time>2026-04-05T08:55:34.187Z</time></trkpt><trkpt lat="44.8504667" lon="9.677235"><ele>289.0</ele><time>2026-04-05T08:55:35.188Z</time></trkpt><trkpt lat="44.8504117" lon="9.6773817"><ele>287.0</ele><time>2026-04-05T08:55:36.188Z</time></trkpt><trkpt lat="44.8503617" lon="9.6775233"><ele>285.0</ele><time>2026-04-05T08:55:37.192Z</time></trkpt><trkpt lat="44.850325" lon="9.6776667"><ele>284.8</ele><time>2026-04-05T08:55:38.19Z</time></trkpt><trkpt lat="44.8502983" lon="9.6778033"><ele>284.6</ele><time>2026-04-05T08:55:39.188Z</time></trkpt><trkpt lat="44.8502883" lon="9.6779467"><ele>284.4</ele><time>2026-04-05T08:55:40.188Z</time></trkpt><trkpt lat="44.85029" lon="9.6780933"><ele>284.2</ele><time>2026-04-05T08:55:41.188Z</time></trkpt><trkpt lat="44.850285" lon="9.6782367"><ele>284.0</ele><time>2026-04-05T08:55:42.189Z</time></trkpt><trkpt lat="44.850275" lon="9.67837"><ele>284.0</ele><time>2026-04-05T08:55:43.189Z</time></trkpt><trkpt lat="44.8502567" lon="9.6784867"><ele>284.0</ele><time>2026-04-05T08:55:44.188Z</time></trkpt><trkpt lat="44.85023" lon="9.678585"><ele>284.0</ele><time>2026-04-05T08:55:45.188Z</time></trkpt><trkpt lat="44.8501917" lon="9.6786667"><ele>284.0</ele><time>2026-04-05T08:55:46.188Z</time></trkpt><trkpt lat="44.8501333" lon="9.6787383"><ele>284.0</ele><time>2026-04-05T08:55:47.187Z</time></trkpt><trkpt lat="44.8500533" lon="9.6787933"><ele>284.0</ele><time>2026-04-05T08:55:48.188Z</time></trkpt><trkpt lat="44.8499533" lon="9.6788417"><ele>285.5</ele><time>2026-04-05T08:55:49.187Z</time></trkpt><trkpt lat="44.8498733" lon="9.678895"><ele>287.0</ele><time>2026-04-05T08:55:50.188Z</time></trkpt><trkpt lat="44.8498067" lon="9.6789567"><ele>288.5</ele><time>2026-04-05T08:55:51.187Z</time></trkpt><trkpt lat="44.84975" lon="9.67903"><ele>290.0</ele><time>2026-04-05T08:55:52.187Z</time></trkpt><trkpt lat="44.8497217" lon="9.679135"><ele>291.5</ele><time>2026-04-05T08:55:53.187Z</time></trkpt><trkpt lat="44.84973" lon="9.679275"><ele>293.0</ele><time>2026-04-05T08:55:54.187Z</time></trkpt><trkpt lat="44.8497383" lon="9.6794267"><ele>294.4</ele><time>2026-04-05T08:55:55.187Z</time></trkpt><trkpt lat="44.8497533" lon="9.679575"><ele>295.8</ele><time>2026-04-05T08:55:56.19Z</time></trkpt><trkpt lat="44.84977" lon="9.6797233"><ele>297.2</ele><time>2026-04-05T08:55:57.187Z</time></trkpt><trkpt lat="44.84979" lon="9.679865"><ele>298.6</ele><time>2026-04-05T08:55:58.187Z</time></trkpt><trkpt lat="44.8498167" lon="9.6799983"><ele>300.0</ele><time>2026-04-05T08:55:59.187Z</time></trkpt><trkpt lat="44.8498417" lon="9.6801233"><ele>300.0</ele><time>2026-04-05T08:56:00.188Z</time></trkpt><trkpt lat="44.8498617" lon="9.6802283"><ele>300.0</ele><time>2026-04-05T08:56:01.188Z</time></trkpt><trkpt lat="44.84988" lon="9.6803333"><ele>300.0</ele><time>2026-04-05T08:56:02.189Z</time></trkpt><trkpt lat="44.8498933" lon="9.68045"><ele>300.0</ele><time>2026-04-05T08:56:03.188Z</time></trkpt><trkpt lat="44.8498867" lon="9.6805717"><ele>300.0</ele><time>2026-04-05T08:56:04.188Z</time></trkpt><trkpt lat="44.8498617" lon="9.6806933"><ele>300.0</ele><time>2026-04-05T08:56:05.187Z</time></trkpt><trkpt lat="44.8498017" lon="9.6808017"><ele>300.8</ele><time>2026-04-05T08:56:06.187Z</time></trkpt><trkpt lat="44.8497083" lon="9.6808717"><ele>301.6</ele><time>2026-04-05T08:56:07.188Z</time></trkpt><trkpt lat="44.84962" lon="9.6809"><ele>302.4</ele><time>2026-04-05T08:56:08.188Z</time></trkpt><trkpt lat="44.8495333" lon="9.6809"><ele>303.2</ele><time>2026-04-05T08:56:09.188Z</time></trkpt><trkpt lat="44.8494483" lon="9.68088"><ele>304.0</ele><time>2026-04-05T08:56:10.188Z</time></trkpt><trkpt lat="44.849365" lon="9.6808183"><ele>307.5</ele><time>2026-04-05T08:56:11.187Z</time></trkpt><trkpt lat="44.8492583" lon="9.6807117"><ele>311.0</ele><time>2026-04-05T08:56:12.188Z</time></trkpt><trkpt lat="44.84916" lon="9.6806133"><ele>314.5</ele><time>2026-04-05T08:56:13.187Z</time></trkpt><trkpt lat="44.8490583" lon="9.6805267"><ele>318.0</ele><time>2026-04-05T08:56:14.188Z</time></trkpt><trkpt lat="44.848945" lon="9.6804483"><ele>318.0</ele><time>2026-04-05T08:56:15.188Z</time></trkpt><trkpt lat="44.8488317" lon="9.6803817"><ele>318.0</ele><time>2026-04-05T08:56:16.187Z</time></trkpt><trkpt lat="44.8487283" lon="9.6803217"><ele>318.0</ele><time>2026-04-05T08:56:17.187Z</time></trkpt><trkpt lat="44.848635" lon="9.6802567"><ele>318.0</ele><time>2026-04-05T08:56:18.188Z</time></trkpt><trkpt lat="44.848555" lon="9.6801883"><ele>318.0</ele><time>2026-04-05T08:56:19.188Z</time></trkpt><trkpt lat="44.8484833" lon="9.68013"><ele>319.0</ele><time>2026-04-05T08:56:20.189Z</time></trkpt><trkpt lat="44.84842" lon="9.6801"><ele>320.0</ele><time>2026-04-05T08:56:21.187Z</time></trkpt><trkpt lat="44.8483683" lon="9.6801567"><ele>321.0</ele><time>2026-04-05T08:56:22.187Z</time></trkpt><trkpt lat="44.8483117" lon="9.6802283"><ele>322.0</ele><time>2026-04-05T08:56:23.187Z</time></trkpt><trkpt lat="44.848265" lon="9.68032"><ele>323.0</ele><time>2026-04-05T08:56:24.189Z</time></trkpt><trkpt lat="44.8482283" lon="9.6804217"><ele>324.0</ele><time>2026-04-05T08:56:25.188Z</time></trkpt><trkpt lat="44.8482" lon="9.680545"><ele>325.2</ele><time>2026-04-05T08:56:26.188Z</time></trkpt><trkpt lat="44.848165" lon="9.6806783"><ele>326.4</ele><time>2026-04-05T08:56:27.189Z</time></trkpt><trkpt lat="44.8481267" lon="9.6808217"><ele>327.6</ele><time>2026-04-05T08:56:28.187Z</time></trkpt><trkpt lat="44.848085" lon="9.680955"><ele>328.8</ele><time>2026-04-05T08:56:29.188Z</time></trkpt><trkpt lat="44.84803" lon="9.6810967"><ele>330.0</ele><time>2026-04-05T08:56:30.188Z</time></trkpt><trkpt lat="44.847975" lon="9.681245"><ele>330.8</ele><time>2026-04-05T08:56:31.187Z</time></trkpt><trkpt lat="44.8479267" lon="9.681395"><ele>331.6</ele><time>2026-04-05T08:56:32.191Z</time></trkpt><trkpt lat="44.847915" lon="9.68154"><ele>332.4</ele><time>2026-04-05T08:56:33.187Z</time></trkpt><trkpt lat="44.847935" lon="9.6816717"><ele>333.2</ele><time>2026-04-05T08:56:34.188Z</time></trkpt><trkpt lat="44.8479717" lon="9.6818"><ele>334.0</ele><time>2026-04-05T08:56:35.187Z</time></trkpt><trkpt lat="44.84803" lon="9.6819367"><ele>337.75</ele><time>2026-04-05T08:56:36.19Z</time></trkpt><trkpt lat="44.848105" lon="9.68209"><ele>341.5</ele><time>2026-04-05T08:56:37.19Z</time></trkpt><trkpt lat="44.8481783" lon="9.6822583"><ele>345.25</ele><time>2026-04-05T08:56:38.19Z</time></trkpt><trkpt lat="44.8482517" lon="9.6824167"><ele>349.0</ele><time>2026-04-05T08:56:39.19Z</time></trkpt><trkpt lat="44.84831" lon="9.682565"><ele>349.0</ele><time>2026-04-05T08:56:40.189Z</time></trkpt><trkpt lat="44.8483467" lon="9.6827067"><ele>349.0</ele><time>2026-04-05T08:56:41.188Z</time></trkpt><trkpt lat="44.848375" lon="9.68286"><ele>349.0</ele><time>2026-04-05T08:56:42.19Z</time></trkpt><trkpt lat="44.8484017" lon="9.68304"><ele>349.0</ele><time>2026-04-05T08:56:43.188Z</time></trkpt><trkpt lat="44.8484317" lon="9.6832483"><ele>350.5</ele><time>2026-04-05T08:56:44.188Z</time></trkpt><trkpt lat="44.8484567" lon="9.683465"><ele>352.0</ele><time>2026-04-05T08:56:45.188Z</time></trkpt><trkpt lat="44.8484817" lon="9.6836633"><ele>353.5</ele><time>2026-04-05T08:56:46.187Z</time></trkpt><trkpt lat="44.8485017" lon="9.68383"><ele>355.0</ele><time>2026-04-05T08:56:47.188Z</time></trkpt><trkpt lat="44.84851" lon="9.6839933"><ele>355.0</ele><time>2026-04-05T08:56:48.187Z</time></trkpt><trkpt lat="44.8485" lon="9.68417"><ele>355.0</ele><time>2026-04-05T08:56:49.187Z</time></trkpt><trkpt lat="44.8484833" lon="9.6843633"><ele>355.0</ele><time>2026-04-05T08:56:50.187Z</time></trkpt><trkpt lat="44.8484667" lon="9.68456"><ele>355.0</ele><time>2026-04-05T08:56:51.187Z</time></trkpt><trkpt lat="44.8484617" lon="9.6847483"><ele>357.25</ele><time>2026-04-05T08:56:52.188Z</time></trkpt><trkpt lat="44.8484717" lon="9.6849233"><ele>359.5</ele><time>2026-04-05T08:56:53.187Z</time></trkpt><trkpt lat="44.8485" lon="9.6850833"><ele>361.75</ele><time>2026-04-05T08:56:54.192Z</time></trkpt><trkpt lat="44.8485467" lon="9.685235"><ele>364.0</ele><time>2026-04-05T08:56:55.188Z</time></trkpt><trkpt lat="44.8486083" lon="9.68539"><ele>366.5</ele><time>2026-04-05T08:56:56.189Z</time></trkpt><trkpt lat="44.84868" lon="9.685555"><ele>369.0</ele><time>2026-04-05T08:56:57.188Z</time></trkpt><trkpt lat="44.8487533" lon="9.6857317"><ele>371.5</ele><time>2026-04-05T08:56:58.189Z</time></trkpt><trkpt lat="44.8488217" lon="9.6859083"><ele>374.0</ele><time>2026-04-05T08:56:59.188Z</time></trkpt><trkpt lat="44.84888" lon="9.6860767"><ele>375.25</ele><time>2026-04-05T08:57:00.188Z</time></trkpt><trkpt lat="44.8489183" lon="9.68624"><ele>376.5</ele><time>2026-04-05T08:57:01.188Z</time></trkpt><trkpt lat="44.8489417" lon="9.686405"><ele>377.75</ele><time>2026-04-05T08:57:02.188Z</time></trkpt><trkpt lat="44.8489583" lon="9.6865767"><ele>379.0</ele><time>2026-04-05T08:57:03.189Z</time></trkpt><trkpt lat="44.8489733" lon="9.686765"><ele>379.5</ele><time>2026-04-05T08:57:04.188Z</time></trkpt><trkpt lat="44.848985" lon="9.68696"><ele>380.0</ele><time>2026-04-05T08:57:05.188Z</time></trkpt><trkpt lat="44.8489967" lon="9.6871533"><ele>380.5</ele><time>2026-04-05T08:57:06.189Z</time></trkpt><trkpt lat="44.8490067" lon="9.6873417"><ele>381.0</ele><time>2026-04-05T08:57:07.188Z</time></trkpt><trkpt lat="44.8490167" lon="9.68752"><ele>381.0</ele><time>2026-04-05T08:57:08.189Z</time></trkpt><trkpt lat="44.8490267" lon="9.6876883"><ele>381.0</ele><time>2026-04-05T08:57:09.189Z</time></trkpt><trkpt lat="44.8490367" lon="9.68784"><ele>381.0</ele><time>2026-04-05T08:57:10.188Z</time></trkpt><trkpt lat="44.84904" lon="9.6879583"><ele>381.0</ele><time>2026-04-05T08:57:11.189Z</time></trkpt><trkpt lat="44.8490467" lon="9.6880917"><ele>381.0</ele><time>2026-04-05T08:57:13.188Z</time></trkpt><trkpt lat="44.8490433" lon="9.6882033"><ele>380.6666666666667</ele><time>2026-04-05T08:57:18.187Z</time></trkpt><trkpt lat="44.8490017" lon="9.6883117"><ele>380.3333333333333</ele><time>2026-04-05T08:57:20.188Z</time></trkpt><trkpt lat="44.8489583" lon="9.6883833"><ele>380.0</ele><time>2026-04-05T08:57:21.188Z</time></trkpt><trkpt lat="44.8489017" lon="9.6884633"><ele>379.66666666666663</ele><time>2026-04-05T08:57:22.188Z</time></trkpt><trkpt lat="44.8488317" lon="9.6885467"><ele>379.3333333333333</ele><time>2026-04-05T08:57:23.187Z</time></trkpt><trkpt lat="44.848765" lon="9.688625"><ele>379.0</ele><time>2026-04-05T08:57:24.187Z</time></trkpt><trkpt lat="44.8487033" lon="9.6886917"><ele>377.8333333333333</ele><time>2026-04-05T08:57:25.187Z</time></trkpt><trkpt lat="44.8486417" lon="9.6887517"><ele>376.66666666666663</ele><time>2026-04-05T08:57:26.188Z</time></trkpt><trkpt lat="44.8485833" lon="9.6888083"><ele>375.5</ele><time>2026-04-05T08:57:27.187Z</time></trkpt><trkpt lat="44.848535" lon="9.6888683"><ele>374.3333333333333</ele><time>2026-04-05T08:57:28.187Z</time></trkpt><trkpt lat="44.8484717" lon="9.6890217"><ele>373.1666666666667</ele><time>2026-04-05T08:57:30.189Z</time></trkpt><trkpt lat="44.8484667" lon="9.68912"><ele>372.0</ele><time>2026-04-05T08:57:31.189Z</time></trkpt><trkpt lat="44.8484817" lon="9.689235"><ele>372.0</ele><time>2026-04-05T08:57:32.189Z</time></trkpt><trkpt lat="44.8485017" lon="9.68935"><ele>372.0</ele><time>2026-04-05T08:57:33.187Z</time></trkpt><trkpt lat="44.8485283" lon="9.68945"><ele>372.0</ele><time>2026-04-05T08:57:34.188Z</time></trkpt><trkpt lat="44.8485633" lon="9.68954"><ele>372.0</ele><time>2026-04-05T08:57:35.188Z</time></trkpt><trkpt lat="44.8486133" lon="9.6896183"><ele>372.0</ele><time>2026-04-05T08:57:36.188Z</time></trkpt><trkpt lat="44.84868" lon="9.689675"><ele>372.0</ele><time>2026-04-05T08:57:37.187Z</time></trkpt><trkpt lat="44.848755" lon="9.6897183"><ele>369.8333333333333</ele><time>2026-04-05T08:57:38.188Z</time></trkpt><trkpt lat="44.8488317" lon="9.6897583"><ele>367.6666666666667</ele><time>2026-04-05T08:57:39.188Z</time></trkpt><trkpt lat="44.8489083" lon="9.689795"><ele>365.5</ele><time>2026-04-05T08:57:40.189Z</time></trkpt><trkpt lat="44.8489883" lon="9.689835"><ele>363.33333333333337</ele><time>2026-04-05T08:57:41.188Z</time></trkpt><trkpt lat="44.8490633" lon="9.68989"><ele>361.1666666666667</ele><time>2026-04-05T08:57:42.189Z</time></trkpt><trkpt lat="44.84913" lon="9.6899633"><ele>359.0</ele><time>2026-04-05T08:57:43.187Z</time></trkpt><trkpt lat="44.8491867" lon="9.6900533"><ele>359.0</ele><time>2026-04-05T08:57:44.188Z</time></trkpt><trkpt lat="44.8492283" lon="9.6901767"><ele>359.0</ele><time>2026-04-05T08:57:45.188Z</time></trkpt><trkpt lat="44.8492667" lon="9.6903133"><ele>359.0</ele><time>2026-04-05T08:57:46.188Z</time></trkpt><trkpt lat="44.8493117" lon="9.6904517"><ele>359.0</ele><time>2026-04-05T08:57:47.187Z</time></trkpt><trkpt lat="44.8493517" lon="9.6905817"><ele>359.0</ele><time>2026-04-05T08:57:48.188Z</time></trkpt><trkpt lat="44.849385" lon="9.6907133"><ele>359.0</ele><time>2026-04-05T08:57:49.187Z</time></trkpt><trkpt lat="44.8494133" lon="9.6908467"><ele>359.0</ele><time>2026-04-05T08:57:50.189Z</time></trkpt><trkpt lat="44.8494317" lon="9.69098"><ele>359.0</ele><time>2026-04-05T08:57:51.188Z</time></trkpt><trkpt lat="44.8494417" lon="9.6911133"><ele>359.0</ele><time>2026-04-05T08:57:52.187Z</time></trkpt><trkpt lat="44.8494467" lon="9.6912417"><ele>359.0</ele><time>2026-04-05T08:57:53.188Z</time></trkpt><trkpt lat="44.8494467" lon="9.6913583"><ele>356.83333333333337</ele><time>2026-04-05T08:57:54.188Z</time></trkpt><trkpt lat="44.8494567" lon="9.691465"><ele>354.6666666666667</ele><time>2026-04-05T08:57:55.188Z</time></trkpt><trkpt lat="44.8494767" lon="9.691565"><ele>352.5</ele><time>2026-04-05T08:57:56.192Z</time></trkpt><trkpt lat="44.8495233" lon="9.6917067"><ele>350.3333333333333</ele><time>2026-04-05T08:57:58.188Z</time></trkpt><trkpt lat="44.84953" lon="9.6918467"><ele>348.16666666666663</ele><time>2026-04-05T08:58:00.188Z</time></trkpt><trkpt lat="44.84947" lon="9.6919233"><ele>346.0</ele><time>2026-04-05T08:58:02.188Z</time></trkpt><trkpt lat="44.8493883" lon="9.6919217"><ele>343.6</ele><time>2026-04-05T08:58:04.188Z</time></trkpt><trkpt lat="44.8492467" lon="9.69188"><ele>341.20000000000005</ele><time>2026-04-05T08:58:06.188Z</time></trkpt><trkpt lat="44.849175" lon="9.6918583"><ele>338.79999999999995</ele><time>2026-04-05T08:58:07.188Z</time></trkpt><trkpt lat="44.8491117" lon="9.6918267"><ele>336.4</ele><time>2026-04-05T08:58:08.19Z</time></trkpt><trkpt lat="44.849015" lon="9.691735"><ele>334.0</ele><time>2026-04-05T08:58:10.188Z</time></trkpt><trkpt lat="44.8489417" lon="9.6917033"><ele>334.0</ele><time>2026-04-05T08:58:12.189Z</time></trkpt><trkpt lat="44.8489" lon="9.6917933"><ele>334.0</ele><time>2026-04-05T08:58:14.19Z</time></trkpt><trkpt lat="44.848915" lon="9.6918817"><ele>334.0</ele><time>2026-04-05T08:58:15.193Z</time></trkpt><trkpt lat="44.8489417" lon="9.691995"><ele>334.0</ele><time>2026-04-05T08:58:16.19Z</time></trkpt><trkpt lat="44.848965" lon="9.692115"><ele>334.0</ele><time>2026-04-05T08:58:17.19Z</time></trkpt><trkpt lat="44.84897" lon="9.69223"><ele>334.0</ele><time>2026-04-05T08:58:18.19Z</time></trkpt><trkpt lat="44.8489733" lon="9.6923483"><ele>331.16666666666663</ele><time>2026-04-05T08:58:19.188Z</time></trkpt><trkpt lat="44.8489583" lon="9.692465"><ele>328.3333333333333</ele><time>2026-04-05T08:58:20.188Z</time></trkpt><trkpt lat="44.8489267" lon="9.6925683"><ele>325.5</ele><time>2026-04-05T08:58:21.188Z</time></trkpt><trkpt lat="44.84889" lon="9.6926683"><ele>322.6666666666667</ele><time>2026-04-05T08:58:22.187Z</time></trkpt><trkpt lat="44.8488283" lon="9.6927483"><ele>319.83333333333337</ele><time>2026-04-05T08:58:23.187Z</time></trkpt><trkpt lat="44.848765" lon="9.69277"><ele>317.0</ele><time>2026-04-05T08:58:24.187Z</time></trkpt><trkpt lat="44.8486683" lon="9.6927567"><ele>313.4</ele><time>2026-04-05T08:58:26.188Z</time></trkpt><trkpt lat="44.8485533" lon="9.6927967"><ele>309.79999999999995</ele><time>2026-04-05T08:58:28.189Z</time></trkpt><trkpt lat="44.848495" lon="9.6928617"><ele>306.2</ele><time>2026-04-05T08:58:29.189Z</time></trkpt><trkpt lat="44.8484333" lon="9.6929533"><ele>302.59999999999997</ele><time>2026-04-05T08:58:30.191Z</time></trkpt><trkpt lat="44.84838" lon="9.693055"><ele>299.0</ele><time>2026-04-05T08:58:31.189Z</time></trkpt><trkpt lat="44.84833" lon="9.6931633"><ele>298.83333333333337</ele><time>2026-04-05T08:58:32.191Z</time></trkpt><trkpt lat="44.84829" lon="9.69327"><ele>298.6666666666667</ele><time>2026-04-05T08:58:33.188Z</time></trkpt><trkpt lat="44.84827" lon="9.6933683"><ele>298.5</ele><time>2026-04-05T08:58:34.188Z</time></trkpt><trkpt lat="44.8482533" lon="9.6934717"><ele>298.3333333333333</ele><time>2026-04-05T08:58:35.188Z</time></trkpt><trkpt lat="44.8483067" lon="9.6935833"><ele>298.16666666666663</ele><time>2026-04-05T08:58:37.188Z</time></trkpt><trkpt lat="44.84836" lon="9.693645"><ele>298.0</ele><time>2026-04-05T08:58:38.188Z</time></trkpt><trkpt lat="44.8484283" lon="9.6936967"><ele>296.0</ele><time>2026-04-05T08:58:39.188Z</time></trkpt><trkpt lat="44.848515" lon="9.6937367"><ele>294.0</ele><time>2026-04-05T08:58:40.189Z</time></trkpt><trkpt lat="44.848615" lon="9.693765"><ele>292.0</ele><time>2026-04-05T08:58:41.191Z</time></trkpt><trkpt lat="44.8487217" lon="9.693785"><ele>290.0</ele><time>2026-04-05T08:58:42.19Z</time></trkpt><trkpt lat="44.8488217" lon="9.6938033"><ele>288.0</ele><time>2026-04-05T08:58:43.189Z</time></trkpt><trkpt lat="44.8489183" lon="9.6938133"><ele>288.0</ele><time>2026-04-05T08:58:44.188Z</time></trkpt><trkpt lat="44.8490067" lon="9.6938217"><ele>288.0</ele><time>2026-04-05T08:58:45.188Z</time></trkpt><trkpt lat="44.8490967" lon="9.69383"><ele>288.0</ele><time>2026-04-05T08:58:46.188Z</time></trkpt><trkpt lat="44.8491833" lon="9.6938467"><ele>288.0</ele><time>2026-04-05T08:58:47.19Z</time></trkpt><trkpt lat="44.8492633" lon="9.6938667"><ele>288.0</ele><time>2026-04-05T08:58:48.19Z</time></trkpt><trkpt lat="44.8493317" lon="9.6938983"><ele>288.0</ele><time>2026-04-05T08:58:49.191Z</time></trkpt><trkpt lat="44.849395" lon="9.69395"><ele>287.8333333333333</ele><time>2026-04-05T08:58:50.19Z</time></trkpt><trkpt lat="44.84944" lon="9.694035"><ele>287.6666666666667</ele><time>2026-04-05T08:58:51.188Z</time></trkpt><trkpt lat="44.849475" lon="9.6941383"><ele>287.5</ele><time>2026-04-05T08:58:52.188Z</time></trkpt><trkpt lat="44.8495017" lon="9.694265"><ele>287.33333333333337</ele><time>2026-04-05T08:58:53.188Z</time></trkpt><trkpt lat="44.84952" lon="9.6944017"><ele>287.1666666666667</ele><time>2026-04-05T08:58:54.188Z</time></trkpt><trkpt lat="44.8495317" lon="9.6945383"><ele>287.0</ele><time>2026-04-05T08:58:55.189Z</time></trkpt><trkpt lat="44.84954" lon="9.69467"><ele>287.0</ele><time>2026-04-05T08:58:56.19Z</time></trkpt><trkpt lat="44.84954" lon="9.6947933"><ele>287.0</ele><time>2026-04-05T08:58:57.188Z</time></trkpt><trkpt lat="44.84953" lon="9.6949133"><ele>287.0</ele><time>2026-04-05T08:58:58.189Z</time></trkpt><trkpt lat="44.849515" lon="9.6950333"><ele>287.0</ele><time>2026-04-05T08:58:59.188Z</time></trkpt><trkpt lat="44.8495" lon="9.6951467"><ele>287.0</ele><time>2026-04-05T08:59:00.188Z</time></trkpt><trkpt lat="44.84949" lon="9.6952483"><ele>287.0</ele><time>2026-04-05T08:59:01.189Z</time></trkpt><trkpt lat="44.8494917" lon="9.6953467"><ele>285.6666666666667</ele><time>2026-04-05T08:59:02.188Z</time></trkpt><trkpt lat="44.84951" lon="9.695445"><ele>284.33333333333337</ele><time>2026-04-05T08:59:03.189Z</time></trkpt><trkpt lat="44.8495333" lon="9.6955467"><ele>283.0</ele><time>2026-04-05T08:59:04.188Z</time></trkpt><trkpt lat="44.849555" lon="9.6956467"><ele>281.6666666666667</ele><time>2026-04-05T08:59:05.192Z</time></trkpt><trkpt lat="44.8495633" lon="9.695755"><ele>280.3333333333333</ele><time>2026-04-05T08:59:06.187Z</time></trkpt><trkpt lat="44.8495483" lon="9.695865"><ele>279.0</ele><time>2026-04-05T08:59:07.187Z</time></trkpt><trkpt lat="44.849525" lon="9.6959833"><ele>277.3333333333333</ele><time>2026-04-05T08:59:08.188Z</time></trkpt><trkpt lat="44.8495033" lon="9.6961083"><ele>275.6666666666667</ele><time>2026-04-05T08:59:09.187Z</time></trkpt><trkpt lat="44.8494917" lon="9.6962383"><ele>274.0</ele><time>2026-04-05T08:59:10.188Z</time></trkpt><trkpt lat="44.84949" lon="9.69636"><ele>272.33333333333337</ele><time>2026-04-05T08:59:11.189Z</time></trkpt><trkpt lat="44.8495017" lon="9.69647"><ele>270.6666666666667</ele><time>2026-04-05T08:59:12.188Z</time></trkpt><trkpt lat="44.8495233" lon="9.6965633"><ele>269.0</ele><time>2026-04-05T08:59:13.188Z</time></trkpt><trkpt lat="44.84958" lon="9.696715"><ele>269.0</ele><time>2026-04-05T08:59:15.187Z</time></trkpt><trkpt lat="44.84961" lon="9.6967983"><ele>269.0</ele><time>2026-04-05T08:59:16.188Z</time></trkpt><trkpt lat="44.849635" lon="9.696895"><ele>269.0</ele><time>2026-04-05T08:59:17.188Z</time></trkpt><trkpt lat="44.8496483" lon="9.6970233"><ele>269.0</ele><time>2026-04-05T08:59:18.189Z</time></trkpt><trkpt lat="44.8496467" lon="9.6971717"><ele>269.0</ele><time>2026-04-05T08:59:19.189Z</time></trkpt><trkpt lat="44.8496517" lon="9.6973167"><ele>269.0</ele><time>2026-04-05T08:59:20.191Z</time></trkpt><trkpt lat="44.8496683" lon="9.6974617"><ele>267.83333333333337</ele><time>2026-04-05T08:59:21.19Z</time></trkpt><trkpt lat="44.8496917" lon="9.6975967"><ele>266.6666666666667</ele><time>2026-04-05T08:59:22.191Z</time></trkpt><trkpt lat="44.8497183" lon="9.6977233"><ele>265.5</ele><time>2026-04-05T08:59:23.19Z</time></trkpt><trkpt lat="44.8497417" lon="9.6978317"><ele>264.3333333333333</ele><time>2026-04-05T08:59:24.189Z</time></trkpt><trkpt lat="44.8497583" lon="9.6979183"><ele>263.16666666666663</ele><time>2026-04-05T08:59:25.188Z</time></trkpt><trkpt lat="44.8497433" lon="9.6980483"><ele>262.0</ele><time>2026-04-05T08:59:27.188Z</time></trkpt><trkpt lat="44.849645" lon="9.698125"><ele>260.4</ele><time>2026-04-05T08:59:29.188Z</time></trkpt><trkpt lat="44.84956" lon="9.698155"><ele>258.79999999999995</ele><time>2026-04-05T08:59:31.189Z</time></trkpt><trkpt lat="44.849515" lon="9.6980733"><ele>257.2</ele><time>2026-04-05T08:59:41.187Z</time></trkpt><trkpt lat="44.8494733" lon="9.698"><ele>255.6</ele><time>2026-04-05T08:59:42.188Z</time></trkpt><trkpt lat="44.8494033" lon="9.697885"><ele>254.0</ele><time>2026-04-05T08:59:43.187Z</time></trkpt><trkpt lat="44.8493283" lon="9.6977617"><ele>253.0</ele><time>2026-04-05T08:59:44.19Z</time></trkpt><trkpt lat="44.84926" lon="9.69764"><ele>252.0</ele><time>2026-04-05T08:59:45.189Z</time></trkpt><trkpt lat="44.8491917" lon="9.6975183"><ele>251.0</ele><time>2026-04-05T08:59:46.192Z</time></trkpt><trkpt lat="44.8491167" lon="9.697385"><ele>250.0</ele><time>2026-04-05T08:59:47.189Z</time></trkpt><trkpt lat="44.8490417" lon="9.697235"><ele>250.0</ele><time>2026-04-05T08:59:48.188Z</time></trkpt><trkpt lat="44.8489683" lon="9.69708"><ele>250.0</ele><time>2026-04-05T08:59:49.189Z</time></trkpt><trkpt lat="44.8488917" lon="9.69693"><ele>250.0</ele><time>2026-04-05T08:59:50.188Z</time></trkpt><trkpt lat="44.8488233" lon="9.6967933"><ele>250.0</ele><time>2026-04-05T08:59:51.188Z</time></trkpt><trkpt lat="44.8487583" lon="9.6966767"><ele>250.8</ele><time>2026-04-05T08:59:52.189Z</time></trkpt><trkpt lat="44.8487" lon="9.6965833"><ele>251.6</ele><time>2026-04-05T08:59:53.188Z</time></trkpt><trkpt lat="44.848635" lon="9.6965017"><ele>252.39999999999998</ele><time>2026-04-05T08:59:54.188Z</time></trkpt><trkpt lat="44.8485633" lon="9.6964333"><ele>253.2</ele><time>2026-04-05T08:59:55.189Z</time></trkpt><trkpt lat="44.8484767" lon="9.6963683"><ele>254.0</ele><time>2026-04-05T08:59:56.188Z</time></trkpt><trkpt lat="44.848375" lon="9.6963083"><ele>254.0</ele><time>2026-04-05T08:59:57.187Z</time></trkpt><trkpt lat="44.8482567" lon="9.6962467"><ele>254.0</ele><time>2026-04-05T08:59:58.188Z</time></trkpt><trkpt lat="44.8481317" lon="9.6961883"><ele>254.0</ele><time>2026-04-05T08:59:59.188Z</time></trkpt><trkpt lat="44.848005" lon="9.6961317"><ele>254.0</ele><time>2026-04-05T09:00:00.189Z</time></trkpt><trkpt lat="44.8478767" lon="9.6960733"><ele>254.0</ele><time>2026-04-05T09:00:01.189Z</time></trkpt><trkpt lat="44.84775" lon="9.69601"><ele>254.0</ele><time>2026-04-05T09:00:02.188Z</time></trkpt><trkpt lat="44.8476283" lon="9.695945"><ele>254.0</ele><time>2026-04-05T09:00:03.188Z</time></trkpt><trkpt lat="44.8475117" lon="9.69588"><ele>254.0</ele><time>2026-04-05T09:00:04.188Z</time></trkpt><trkpt lat="44.8474033" lon="9.6958117"><ele>254.0</ele><time>2026-04-05T09:00:05.189Z</time></trkpt><trkpt lat="44.8473033" lon="9.695745"><ele>254.0</ele><time>2026-04-05T09:00:06.19Z</time></trkpt><trkpt lat="44.847205" lon="9.6956733"><ele>254.0</ele><time>2026-04-05T09:00:07.188Z</time></trkpt><trkpt lat="44.8471" lon="9.6955933"><ele>254.0</ele><time>2026-04-05T09:00:08.188Z</time></trkpt><trkpt lat="44.84699" lon="9.6955017"><ele>254.0</ele><time>2026-04-05T09:00:09.188Z</time></trkpt><trkpt lat="44.8468733" lon="9.6954033"><ele>254.0</ele><time>2026-04-05T09:00:10.188Z</time></trkpt><trkpt lat="44.84676" lon="9.695305"><ele>254.0</ele><time>2026-04-05T09:00:11.189Z</time></trkpt><trkpt lat="44.8466567" lon="9.6952083"><ele>254.0</ele><time>2026-04-05T09:00:12.188Z</time></trkpt><trkpt lat="44.8465583" lon="9.6951117"><ele>255.0</ele><time>2026-04-05T09:00:13.19Z</time></trkpt><trkpt lat="44.846465" lon="9.6950117"><ele>256.0</ele><time>2026-04-05T09:00:14.191Z</time></trkpt><trkpt lat="44.84637" lon="9.6949017"><ele>257.0</ele><time>2026-04-05T09:00:15.188Z</time></trkpt><trkpt lat="44.84627" lon="9.694785"><ele>258.0</ele><time>2026-04-05T09:00:16.19Z</time></trkpt><trkpt lat="44.8461683" lon="9.694665"><ele>258.0</ele><time>2026-04-05T09:00:17.19Z</time></trkpt><trkpt lat="44.8460667" lon="9.6945533"><ele>258.0</ele><time>2026-04-05T09:00:18.19Z</time></trkpt><trkpt lat="44.8459617" lon="9.69445"><ele>258.0</ele><time>2026-04-05T09:00:19.19Z</time></trkpt><trkpt lat="44.845855" lon="9.6943533"><ele>258.0</ele><time>2026-04-05T09:00:20.191Z</time></trkpt><trkpt lat="44.8457517" lon="9.6942567"><ele>258.75</ele><time>2026-04-05T09:00:21.191Z</time></trkpt><trkpt lat="44.8456517" lon="9.69416"><ele>259.5</ele><time>2026-04-05T09:00:22.191Z</time></trkpt><trkpt lat="44.8455583" lon="9.69406"><ele>260.25</ele><time>2026-04-05T09:00:23.19Z</time></trkpt><trkpt lat="44.8454617" lon="9.69396"><ele>261.0</ele><time>2026-04-05T09:00:24.189Z</time></trkpt><trkpt lat="44.8453633" lon="9.6938717"><ele>261.0</ele><time>2026-04-05T09:00:25.188Z</time></trkpt><trkpt lat="44.8452583" lon="9.69379"><ele>261.0</ele><time>2026-04-05T09:00:26.188Z</time></trkpt><trkpt lat="44.8451467" lon="9.6937133"><ele>261.0</ele><time>2026-04-05T09:00:27.188Z</time></trkpt><trkpt lat="44.8450267" lon="9.693635"><ele>261.0</ele><time>2026-04-05T09:00:28.189Z</time></trkpt><trkpt lat="44.8449079" lon="9.6935587"><ele>261.75</ele><time>2026-04-05T09:00:29.188Z</time></trkpt><trkpt lat="44.8447911" lon="9.6934778"><ele>262.5</ele><time>2026-04-05T09:00:30.188Z</time></trkpt><trkpt lat="44.8446806" lon="9.6933954"><ele>263.25</ele><time>2026-04-05T09:00:31.188Z</time></trkpt><trkpt lat="44.8445837" lon="9.6933098"><ele>264.0</ele><time>2026-04-05T09:00:32.189Z</time></trkpt><trkpt lat="44.844493" lon="9.6932134"><ele>264.0</ele><time>2026-04-05T09:00:33.188Z</time></trkpt><trkpt lat="44.8444035" lon="9.6931082"><ele>264.0</ele><time>2026-04-05T09:00:34.189Z</time></trkpt><trkpt lat="44.8443153" lon="9.6929911"><ele>264.0</ele><time>2026-04-05T09:00:35.188Z</time></trkpt><trkpt lat="44.8442231" lon="9.692862"><ele>264.0</ele><time>2026-04-05T09:00:36.19Z</time></trkpt><trkpt lat="44.8441316" lon="9.6927285"><ele>264.5</ele><time>2026-04-05T09:00:37.188Z</time></trkpt><trkpt lat="44.8440488" lon="9.692594"><ele>265.0</ele><time>2026-04-05T09:00:38.188Z</time></trkpt><trkpt lat="44.8439722" lon="9.6924573"><ele>265.5</ele><time>2026-04-05T09:00:39.189Z</time></trkpt><trkpt lat="44.8438993" lon="9.6923215"><ele>266.0</ele><time>2026-04-05T09:00:40.189Z</time></trkpt><trkpt lat="44.8438241" lon="9.6921841"><ele>266.0</ele><time>2026-04-05T09:00:41.188Z</time></trkpt><trkpt lat="44.8437492" lon="9.6920479"><ele>266.0</ele><time>2026-04-05T09:00:42.188Z</time></trkpt><trkpt lat="44.8436835" lon="9.6919098"><ele>266.0</ele><time>2026-04-05T09:00:43.188Z</time></trkpt><trkpt lat="44.8436245" lon="9.6917592"><ele>266.0</ele><time>2026-04-05T09:00:44.188Z</time></trkpt><trkpt lat="44.8435681" lon="9.6915991"><ele>266.0</ele><time>2026-04-05T09:00:45.189Z</time></trkpt><trkpt lat="44.843515" lon="9.691446"><ele>266.0</ele><time>2026-04-05T09:00:46.188Z</time></trkpt><trkpt lat="44.843463" lon="9.6913107"><ele>266.0</ele><time>2026-04-05T09:00:47.188Z</time></trkpt><trkpt lat="44.8434102" lon="9.6911897"><ele>266.0</ele><time>2026-04-05T09:00:48.188Z</time></trkpt><trkpt lat="44.8433487" lon="9.6910814"><ele>266.0</ele><time>2026-04-05T09:00:49.188Z</time></trkpt><trkpt lat="44.8432699" lon="9.6909792"><ele>266.75</ele><time>2026-04-05T09:00:50.189Z</time></trkpt><trkpt lat="44.8431735" lon="9.69087"><ele>267.5</ele><time>2026-04-05T09:00:51.187Z</time></trkpt><trkpt lat="44.8430648" lon="9.6907527"><ele>268.25</ele><time>2026-04-05T09:00:52.188Z</time></trkpt><trkpt lat="44.842946" lon="9.6906248"><ele>269.0</ele><time>2026-04-05T09:00:53.188Z</time></trkpt><trkpt lat="44.8428156" lon="9.6904871"><ele>269.0</ele><time>2026-04-05T09:00:54.192Z</time></trkpt><trkpt lat="44.8426898" lon="9.6903558"><ele>269.0</ele><time>2026-04-05T09:00:55.191Z</time></trkpt><trkpt lat="44.8425778" lon="9.6902363"><ele>269.0</ele><time>2026-04-05T09:00:56.188Z</time></trkpt><trkpt lat="44.8424777" lon="9.6901281"><ele>269.0</ele><time>2026-04-05T09:00:57.187Z</time></trkpt><trkpt lat="44.8423943" lon="9.6900326"><ele>269.33333333333337</ele><time>2026-04-05T09:00:58.191Z</time></trkpt><trkpt lat="44.8423285" lon="9.689959"><ele>269.6666666666667</ele><time>2026-04-05T09:00:59.189Z</time></trkpt><trkpt lat="44.8422775" lon="9.6899025"><ele>270.0</ele><time>2026-04-05T09:01:00.19Z</time></trkpt><trkpt lat="44.8422292" lon="9.6898368"><ele>270.3333333333333</ele><time>2026-04-05T09:01:02.189Z</time></trkpt><trkpt lat="44.8421667" lon="9.6897417"><ele>270.66666666666663</ele><time>2026-04-05T09:04:27.189Z</time></trkpt><trkpt lat="44.8421067" lon="9.689665"><ele>271.0</ele><time>2026-04-05T09:04:30.188Z</time></trkpt><trkpt lat="44.8420317" lon="9.6897133"><ele>271.0</ele><time>2026-04-05T09:04:34.188Z</time></trkpt><trkpt lat="44.8419883" lon="9.689795"><ele>271.0</ele><time>2026-04-05T09:04:36.188Z</time></trkpt><trkpt lat="44.8419583" lon="9.6898967"><ele>271.0</ele><time>2026-04-05T09:04:39.188Z</time></trkpt><trkpt lat="44.8419583" lon="9.6899917"><ele>271.0</ele><time>2026-04-05T09:06:55.189Z</time></trkpt><trkpt lat="44.84194" lon="9.6900967"><ele>271.0</ele><time>2026-04-05T09:07:15.188Z</time></trkpt><trkpt lat="44.8419217" lon="9.6902733"><ele>271.0</ele><time>2026-04-05T09:07:24.188Z</time></trkpt><trkpt lat="44.841895" lon="9.690405"><ele>270.6</ele><time>2026-04-05T09:07:27.188Z</time></trkpt><trkpt lat="44.8418533" lon="9.6905867"><ele>270.20000000000005</ele><time>2026-04-05T09:09:18.188Z</time></trkpt><trkpt lat="44.8418083" lon="9.6906967"><ele>269.79999999999995</ele><time>2026-04-05T09:09:21.188Z</time></trkpt><trkpt lat="44.841715" lon="9.690705"><ele>269.4</ele><time>2026-04-05T09:09:24.189Z</time></trkpt><trkpt lat="44.8416117" lon="9.6906483"><ele>269.0</ele><time>2026-04-05T09:09:26.188Z</time></trkpt><trkpt lat="44.8415133" lon="9.6905617"><ele>269.75</ele><time>2026-04-05T09:09:27.189Z</time></trkpt><trkpt lat="44.8413933" lon="9.69044"><ele>270.5</ele><time>2026-04-05T09:09:28.188Z</time></trkpt><trkpt lat="44.841275" lon="9.6903283"><ele>271.25</ele><time>2026-04-05T09:09:29.188Z</time></trkpt><trkpt lat="44.8411517" lon="9.6902133"><ele>272.0</ele><time>2026-04-05T09:09:30.188Z</time></trkpt><trkpt lat="44.8410267" lon="9.6900917"><ele>273.0</ele><time>2026-04-05T09:09:31.189Z</time></trkpt><trkpt lat="44.840905" lon="9.6899633"><ele>274.0</ele><time>2026-04-05T09:09:32.188Z</time></trkpt><trkpt lat="44.8407817" lon="9.6898283"><ele>275.0</ele><time>2026-04-05T09:09:33.188Z</time></trkpt><trkpt lat="44.84066" lon="9.689685"><ele>275.0</ele><time>2026-04-05T09:09:34.188Z</time></trkpt><trkpt lat="44.8405417" lon="9.689535"><ele>275.0</ele><time>2026-04-05T09:09:35.188Z</time></trkpt><trkpt lat="44.8404233" lon="9.6893817"><ele>275.0</ele><time>2026-04-05T09:09:36.189Z</time></trkpt><trkpt lat="44.8403017" lon="9.6892283"><ele>275.6666666666667</ele><time>2026-04-05T09:09:37.188Z</time></trkpt><trkpt lat="44.840175" lon="9.6890767"><ele>276.3333333333333</ele><time>2026-04-05T09:09:38.189Z</time></trkpt><trkpt lat="44.8400483" lon="9.6889267"><ele>277.0</ele><time>2026-04-05T09:09:39.188Z</time></trkpt><trkpt lat="44.8399217" lon="9.688785"><ele>277.0</ele><time>2026-04-05T09:09:40.191Z</time></trkpt><trkpt lat="44.8397917" lon="9.6886433"><ele>277.0</ele><time>2026-04-05T09:09:41.189Z</time></trkpt><trkpt lat="44.8396567" lon="9.688505"><ele>277.0</ele><time>2026-04-05T09:09:42.19Z</time></trkpt><trkpt lat="44.83952" lon="9.6883733"><ele>276.3333333333333</ele><time>2026-04-05T09:09:43.19Z</time></trkpt><trkpt lat="44.8393817" lon="9.6882483"><ele>275.6666666666667</ele><time>2026-04-05T09:09:44.189Z</time></trkpt><trkpt lat="44.8392433" lon="9.6881267"><ele>275.0</ele><time>2026-04-05T09:09:45.19Z</time></trkpt><trkpt lat="44.8391033" lon="9.6880067"><ele>276.6666666666667</ele><time>2026-04-05T09:09:46.189Z</time></trkpt><trkpt lat="44.8389633" lon="9.6878917"><ele>278.3333333333333</ele><time>2026-04-05T09:09:47.19Z</time></trkpt><trkpt lat="44.8388267" lon="9.6877733"><ele>280.0</ele><time>2026-04-05T09:09:48.188Z</time></trkpt><trkpt lat="44.8386867" lon="9.68765"><ele>280.3333333333333</ele><time>2026-04-05T09:09:49.187Z</time></trkpt><trkpt lat="44.8385483" lon="9.68752"><ele>280.6666666666667</ele><time>2026-04-05T09:09:50.188Z</time></trkpt><trkpt lat="44.8384083" lon="9.68739"><ele>281.0</ele><time>2026-04-05T09:09:51.188Z</time></trkpt><trkpt lat="44.83827" lon="9.6872683"><ele>281.33333333333337</ele><time>2026-04-05T09:09:52.187Z</time></trkpt><trkpt lat="44.8381317" lon="9.68715"><ele>281.6666666666667</ele><time>2026-04-05T09:09:53.188Z</time></trkpt><trkpt lat="44.83799" lon="9.6870467"><ele>282.0</ele><time>2026-04-05T09:09:54.189Z</time></trkpt><trkpt lat="44.8378383" lon="9.6869583"><ele>281.6666666666667</ele><time>2026-04-05T09:09:55.189Z</time></trkpt><trkpt lat="44.837685" lon="9.68688"><ele>281.33333333333337</ele><time>2026-04-05T09:09:56.188Z</time></trkpt><trkpt lat="44.83753" lon="9.68681"><ele>281.0</ele><time>2026-04-05T09:09:57.188Z</time></trkpt><trkpt lat="44.8373717" lon="9.686745"><ele>281.0</ele><time>2026-04-05T09:09:58.187Z</time></trkpt><trkpt lat="44.8372233" lon="9.6866867"><ele>281.0</ele><time>2026-04-05T09:09:59.188Z</time></trkpt><trkpt lat="44.8370833" lon="9.68663"><ele>281.0</ele><time>2026-04-05T09:10:00.188Z</time></trkpt><trkpt lat="44.83695" lon="9.6865783"><ele>281.0</ele><time>2026-04-05T09:10:01.188Z</time></trkpt><trkpt lat="44.8368133" lon="9.6865383"><ele>282.5</ele><time>2026-04-05T09:10:02.188Z</time></trkpt><trkpt lat="44.8366767" lon="9.6865183"><ele>284.0</ele><time>2026-04-05T09:10:03.187Z</time></trkpt><trkpt lat="44.83653" lon="9.6865217"><ele>285.5</ele><time>2026-04-05T09:10:04.188Z</time></trkpt><trkpt lat="44.8363783" lon="9.6865417"><ele>287.0</ele><time>2026-04-05T09:10:05.188Z</time></trkpt><trkpt lat="44.83624" lon="9.6865517"><ele>287.0</ele><time>2026-04-05T09:10:06.188Z</time></trkpt><trkpt lat="44.8361183" lon="9.68656"><ele>287.0</ele><time>2026-04-05T09:10:07.189Z</time></trkpt><trkpt lat="44.8360167" lon="9.6865867"><ele>287.0</ele><time>2026-04-05T09:10:08.188Z</time></trkpt><trkpt lat="44.8359117" lon="9.686625"><ele>287.0</ele><time>2026-04-05T09:10:09.189Z</time></trkpt><trkpt lat="44.8357983" lon="9.6866767"><ele>287.25</ele><time>2026-04-05T09:10:10.187Z</time></trkpt><trkpt lat="44.835675" lon="9.6867267"><ele>287.5</ele><time>2026-04-05T09:10:11.189Z</time></trkpt><trkpt lat="44.8355517" lon="9.6867583"><ele>287.75</ele><time>2026-04-05T09:10:12.188Z</time></trkpt><trkpt lat="44.8354267" lon="9.68676"><ele>288.0</ele><time>2026-04-05T09:10:13.187Z</time></trkpt><trkpt lat="44.8352967" lon="9.6867367"><ele>288.0</ele><time>2026-04-05T09:10:14.188Z</time></trkpt><trkpt lat="44.835165" lon="9.6866767"><ele>288.0</ele><time>2026-04-05T09:10:15.189Z</time></trkpt><trkpt lat="44.835035" lon="9.68659"><ele>288.0</ele><time>2026-04-05T09:10:16.188Z</time></trkpt><trkpt lat="44.8348983" lon="9.686485"><ele>288.0</ele><time>2026-04-05T09:10:17.188Z</time></trkpt><trkpt lat="44.8347517" lon="9.68639"><ele>288.0</ele><time>2026-04-05T09:10:18.188Z</time></trkpt><trkpt lat="44.83459" lon="9.6863183"><ele>288.0</ele><time>2026-04-05T09:10:19.188Z</time></trkpt><trkpt lat="44.8344183" lon="9.6862583"><ele>288.0</ele><time>2026-04-05T09:10:20.189Z</time></trkpt><trkpt lat="44.8342367" lon="9.6862"><ele>288.6666666666667</ele><time>2026-04-05T09:10:21.188Z</time></trkpt><trkpt lat="44.834055" lon="9.6861333"><ele>289.33333333333337</ele><time>2026-04-05T09:10:22.189Z</time></trkpt><trkpt lat="44.833875" lon="9.6860533"><ele>290.0</ele><time>2026-04-05T09:10:23.188Z</time></trkpt><trkpt lat="44.833705" lon="9.685955"><ele>290.0</ele><time>2026-04-05T09:10:24.189Z</time></trkpt><trkpt lat="44.83354" lon="9.6858517"><ele>290.0</ele><time>2026-04-05T09:10:25.188Z</time></trkpt><trkpt lat="44.8333817" lon="9.6857483"><ele>290.0</ele><time>2026-04-05T09:10:26.188Z</time></trkpt><trkpt lat="44.8332233" lon="9.685645"><ele>293.0</ele><time>2026-04-05T09:10:27.188Z</time></trkpt><trkpt lat="44.8330633" lon="9.6855367"><ele>296.0</ele><time>2026-04-05T09:10:28.188Z</time></trkpt><trkpt lat="44.832905" lon="9.68542"><ele>299.0</ele><time>2026-04-05T09:10:29.188Z</time></trkpt><trkpt lat="44.8327433" lon="9.6852983"><ele>298.0</ele><time>2026-04-05T09:10:30.187Z</time></trkpt><trkpt lat="44.8325883" lon="9.6851733"><ele>297.0</ele><time>2026-04-05T09:10:31.188Z</time></trkpt><trkpt lat="44.8324383" lon="9.6850417"><ele>296.0</ele><time>2026-04-05T09:10:32.188Z</time></trkpt><trkpt lat="44.8323017" lon="9.6848917"><ele>296.0</ele><time>2026-04-05T09:10:33.188Z</time></trkpt><trkpt lat="44.8321683" lon="9.68474"><ele>296.0</ele><time>2026-04-05T09:10:34.189Z</time></trkpt><trkpt lat="44.83203" lon="9.6845933"><ele>296.0</ele><time>2026-04-05T09:10:35.189Z</time></trkpt><trkpt lat="44.8318967" lon="9.6844583"><ele>296.33333333333337</ele><time>2026-04-05T09:10:36.188Z</time></trkpt><trkpt lat="44.831765" lon="9.6843417"><ele>296.6666666666667</ele><time>2026-04-05T09:10:37.191Z</time></trkpt><trkpt lat="44.83163" lon="9.684245"><ele>297.0</ele><time>2026-04-05T09:10:38.188Z</time></trkpt><trkpt lat="44.831495" lon="9.6841683"><ele>297.0</ele><time>2026-04-05T09:10:39.191Z</time></trkpt><trkpt lat="44.8313467" lon="9.68411"><ele>297.0</ele><time>2026-04-05T09:10:40.187Z</time></trkpt><trkpt lat="44.8311833" lon="9.684055"><ele>297.0</ele><time>2026-04-05T09:10:41.192Z</time></trkpt><trkpt lat="44.8310233" lon="9.6840017"><ele>298.0</ele><time>2026-04-05T09:10:42.188Z</time></trkpt><trkpt lat="44.83087" lon="9.68396"><ele>299.0</ele><time>2026-04-05T09:10:43.187Z</time></trkpt><trkpt lat="44.8307233" lon="9.6839383"><ele>300.0</ele><time>2026-04-05T09:10:44.189Z</time></trkpt><trkpt lat="44.83059" lon="9.6839283"><ele>301.0</ele><time>2026-04-05T09:10:45.19Z</time></trkpt><trkpt lat="44.8304567" lon="9.68395"><ele>301.0</ele><time>2026-04-05T09:10:46.187Z</time></trkpt><trkpt lat="44.830325" lon="9.6839967"><ele>301.0</ele><time>2026-04-05T09:10:47.188Z</time></trkpt><trkpt lat="44.8301967" lon="9.68406"><ele>301.0</ele><time>2026-04-05T09:10:48.188Z</time></trkpt><trkpt lat="44.8300667" lon="9.6841333"><ele>301.0</ele><time>2026-04-05T09:10:49.188Z</time></trkpt><trkpt lat="44.8299317" lon="9.6842183"><ele>301.3333333333333</ele><time>2026-04-05T09:10:50.188Z</time></trkpt><trkpt lat="44.8297917" lon="9.6843183"><ele>301.6666666666667</ele><time>2026-04-05T09:10:51.188Z</time></trkpt><trkpt lat="44.82965" lon="9.6844233"><ele>302.0</ele><time>2026-04-05T09:10:52.188Z</time></trkpt><trkpt lat="44.82952" lon="9.6845283"><ele>303.0</ele><time>2026-04-05T09:10:53.188Z</time></trkpt><trkpt lat="44.8293967" lon="9.68462"><ele>304.0</ele><time>2026-04-05T09:10:54.188Z</time></trkpt><trkpt lat="44.8292817" lon="9.6847017"><ele>305.0</ele><time>2026-04-05T09:10:55.189Z</time></trkpt><trkpt lat="44.8291683" lon="9.6847683"><ele>306.0</ele><time>2026-04-05T09:10:56.188Z</time></trkpt><trkpt lat="44.8290567" lon="9.6848133"><ele>306.0</ele><time>2026-04-05T09:10:57.188Z</time></trkpt><trkpt lat="44.82895" lon="9.68485"><ele>306.0</ele><time>2026-04-05T09:10:58.191Z</time></trkpt><trkpt lat="44.82886" lon="9.6848717"><ele>306.0</ele><time>2026-04-05T09:10:59.188Z</time></trkpt><trkpt lat="44.8287917" lon="9.6848733"><ele>306.0</ele><time>2026-04-05T09:11:00.188Z</time></trkpt><trkpt lat="44.8287" lon="9.6848267"><ele>306.0</ele><time>2026-04-05T09:11:02.19Z</time></trkpt><trkpt lat="44.8286417" lon="9.6846967"><ele>306.0</ele><time>2026-04-05T09:11:04.188Z</time></trkpt><trkpt lat="44.8286283" lon="9.6846067"><ele>306.0</ele><time>2026-04-05T09:11:05.188Z</time></trkpt><trkpt lat="44.828625" lon="9.6844967"><ele>306.0</ele><time>2026-04-05T09:11:06.188Z</time></trkpt><trkpt lat="44.828625" lon="9.6843817"><ele>306.0</ele><time>2026-04-05T09:11:07.19Z</time></trkpt><trkpt lat="44.8286267" lon="9.68428"><ele>306.0</ele><time>2026-04-05T09:11:08.188Z</time></trkpt><trkpt lat="44.8286167" lon="9.68413"><ele>306.0</ele><time>2026-04-05T09:11:10.192Z</time></trkpt><trkpt lat="44.8285467" lon="9.684055"><ele>306.0</ele><time>2026-04-05T09:11:12.188Z</time></trkpt><trkpt lat="44.8284183" lon="9.6840333"><ele>306.0</ele><time>2026-04-05T09:11:14.189Z</time></trkpt><trkpt lat="44.8283183" lon="9.6840167"><ele>306.0</ele><time>2026-04-05T09:11:15.189Z</time></trkpt><trkpt lat="44.8281917" lon="9.6839767"><ele>306.0</ele><time>2026-04-05T09:11:16.188Z</time></trkpt><trkpt lat="44.8280583" lon="9.6839217"><ele>306.0</ele><time>2026-04-05T09:11:17.188Z</time></trkpt><trkpt lat="44.8279167" lon="9.6838567"><ele>306.0</ele><time>2026-04-05T09:11:18.188Z</time></trkpt><trkpt lat="44.8277717" lon="9.68379"><ele>306.0</ele><time>2026-04-05T09:11:19.188Z</time></trkpt><trkpt lat="44.82763" lon="9.6837217"><ele>307.0</ele><time>2026-04-05T09:11:20.189Z</time></trkpt><trkpt lat="44.8274917" lon="9.683645"><ele>308.0</ele><time>2026-04-05T09:11:21.189Z</time></trkpt><trkpt lat="44.82736" lon="9.6835617"><ele>309.0</ele><time>2026-04-05T09:11:22.19Z</time></trkpt><trkpt lat="44.8272283" lon="9.6834733"><ele>310.0</ele><time>2026-04-05T09:11:23.189Z</time></trkpt><trkpt lat="44.827105" lon="9.6833783"><ele>311.0</ele><time>2026-04-05T09:11:24.188Z</time></trkpt><trkpt lat="44.8269817" lon="9.6832983"><ele>312.0</ele><time>2026-04-05T09:11:25.193Z</time></trkpt><trkpt lat="44.8268583" lon="9.6832383"><ele>313.0</ele><time>2026-04-05T09:11:26.188Z</time></trkpt><trkpt lat="44.8267283" lon="9.6831983"><ele>314.0</ele><time>2026-04-05T09:11:27.189Z</time></trkpt><trkpt lat="44.8265867" lon="9.6831767"><ele>314.0</ele><time>2026-04-05T09:11:28.188Z</time></trkpt><trkpt lat="44.82644" lon="9.68316"><ele>314.0</ele><time>2026-04-05T09:11:29.188Z</time></trkpt><trkpt lat="44.82629" lon="9.68313"><ele>314.0</ele><time>2026-04-05T09:11:30.188Z</time></trkpt><trkpt lat="44.8261383" lon="9.68308"><ele>314.0</ele><time>2026-04-05T09:11:31.189Z</time></trkpt><trkpt lat="44.8259883" lon="9.68302"><ele>314.0</ele><time>2026-04-05T09:11:32.188Z</time></trkpt><trkpt lat="44.8258317" lon="9.6829633"><ele>314.0</ele><time>2026-04-05T09:11:33.188Z</time></trkpt><trkpt lat="44.8256783" lon="9.6829167"><ele>314.25</ele><time>2026-04-05T09:11:34.188Z</time></trkpt><trkpt lat="44.8255367" lon="9.6828683"><ele>314.5</ele><time>2026-04-05T09:11:35.188Z</time></trkpt><trkpt lat="44.8254067" lon="9.682815"><ele>314.75</ele><time>2026-04-05T09:11:36.188Z</time></trkpt><trkpt lat="44.82529" lon="9.6827483"><ele>315.0</ele><time>2026-04-05T09:11:37.188Z</time></trkpt><trkpt lat="44.82518" lon="9.68265"><ele>315.75</ele><time>2026-04-05T09:11:38.189Z</time></trkpt><trkpt lat="44.8250617" lon="9.682525"><ele>316.5</ele><time>2026-04-05T09:11:39.19Z</time></trkpt><trkpt lat="44.8249417" lon="9.6823933"><ele>317.25</ele><time>2026-04-05T09:11:40.188Z</time></trkpt><trkpt lat="44.824825" lon="9.6822683"><ele>318.0</ele><time>2026-04-05T09:11:41.188Z</time></trkpt><trkpt lat="44.824715" lon="9.6821483"><ele>318.0</ele><time>2026-04-05T09:11:42.188Z</time></trkpt><trkpt lat="44.824605" lon="9.68202"><ele>318.0</ele><time>2026-04-05T09:11:43.189Z</time></trkpt><trkpt lat="44.8245017" lon="9.68188"><ele>318.0</ele><time>2026-04-05T09:11:44.189Z</time></trkpt><trkpt lat="44.8243967" lon="9.6817167"><ele>318.0</ele><time>2026-04-05T09:11:45.188Z</time></trkpt><trkpt lat="44.8243017" lon="9.68155"><ele>319.25</ele><time>2026-04-05T09:11:46.189Z</time></trkpt><trkpt lat="44.82421" lon="9.6814033"><ele>320.5</ele><time>2026-04-05T09:11:47.19Z</time></trkpt><trkpt lat="44.824115" lon="9.681275"><ele>321.75</ele><time>2026-04-05T09:11:48.189Z</time></trkpt><trkpt lat="44.824015" lon="9.6811683"><ele>323.0</ele><time>2026-04-05T09:11:49.189Z</time></trkpt><trkpt lat="44.823915" lon="9.6810767"><ele>325.25</ele><time>2026-04-05T09:11:50.189Z</time></trkpt><trkpt lat="44.823805" lon="9.681015"><ele>327.5</ele><time>2026-04-05T09:11:51.189Z</time></trkpt><trkpt lat="44.823685" lon="9.680965"><ele>329.75</ele><time>2026-04-05T09:11:52.189Z</time></trkpt><trkpt lat="44.823545" lon="9.6809233"><ele>332.0</ele><time>2026-04-05T09:11:53.188Z</time></trkpt><trkpt lat="44.8233983" lon="9.6808867"><ele>332.0</ele><time>2026-04-05T09:11:54.189Z</time></trkpt><trkpt lat="44.8232483" lon="9.6808417"><ele>332.0</ele><time>2026-04-05T09:11:55.188Z</time></trkpt><trkpt lat="44.82309" lon="9.6807983"><ele>332.0</ele><time>2026-04-05T09:11:56.188Z</time></trkpt><trkpt lat="44.822935" lon="9.6807467"><ele>332.0</ele><time>2026-04-05T09:11:57.188Z</time></trkpt><trkpt lat="44.8227883" lon="9.6806967"><ele>332.0</ele><time>2026-04-05T09:11:58.189Z</time></trkpt><trkpt lat="44.8226467" lon="9.6806533"><ele>332.0</ele><time>2026-04-05T09:11:59.191Z</time></trkpt><trkpt lat="44.8225017" lon="9.68063"><ele>332.0</ele><time>2026-04-05T09:12:00.188Z</time></trkpt><trkpt lat="44.82236" lon="9.6806133"><ele>331.40000000000003</ele><time>2026-04-05T09:12:01.188Z</time></trkpt><trkpt lat="44.822235" lon="9.680595"><ele>330.8</ele><time>2026-04-05T09:12:02.188Z</time></trkpt><trkpt lat="44.8221283" lon="9.680565"><ele>330.2</ele><time>2026-04-05T09:12:03.188Z</time></trkpt><trkpt lat="44.8220333" lon="9.6805267"><ele>329.6</ele><time>2026-04-05T09:12:04.191Z</time></trkpt><trkpt lat="44.821945" lon="9.680455"><ele>329.0</ele><time>2026-04-05T09:12:05.188Z</time></trkpt><trkpt lat="44.8218517" lon="9.6803633"><ele>328.6</ele><time>2026-04-05T09:12:06.19Z</time></trkpt><trkpt lat="44.8217533" lon="9.680275"><ele>328.2</ele><time>2026-04-05T09:12:07.189Z</time></trkpt><trkpt lat="44.821655" lon="9.6802017"><ele>327.8</ele><time>2026-04-05T09:12:08.188Z</time></trkpt><trkpt lat="44.821555" lon="9.6801483"><ele>327.40000000000003</ele><time>2026-04-05T09:12:09.188Z</time></trkpt><trkpt lat="44.8214467" lon="9.680125"><ele>327.0</ele><time>2026-04-05T09:12:10.188Z</time></trkpt><trkpt lat="44.8213217" lon="9.68013"><ele>329.6666666666667</ele><time>2026-04-05T09:12:11.188Z</time></trkpt><trkpt lat="44.82118" lon="9.680155"><ele>332.33333333333337</ele><time>2026-04-05T09:12:12.188Z</time></trkpt><trkpt lat="44.8210267" lon="9.6801883"><ele>335.0</ele><time>2026-04-05T09:12:13.189Z</time></trkpt><trkpt lat="44.820865" lon="9.6802167"><ele>335.0</ele><time>2026-04-05T09:12:14.188Z</time></trkpt><trkpt lat="44.8207117" lon="9.6802433"><ele>335.0</ele><time>2026-04-05T09:12:15.188Z</time></trkpt><trkpt lat="44.8205683" lon="9.6802683"><ele>335.0</ele><time>2026-04-05T09:12:16.188Z</time></trkpt><trkpt lat="44.82043" lon="9.6802933"><ele>335.0</ele><time>2026-04-05T09:12:17.189Z</time></trkpt><trkpt lat="44.8202917" lon="9.680315"><ele>334.5</ele><time>2026-04-05T09:12:18.188Z</time></trkpt><trkpt lat="44.8201483" lon="9.680335"><ele>334.0</ele><time>2026-04-05T09:12:19.188Z</time></trkpt><trkpt lat="44.8200083" lon="9.6803517"><ele>333.5</ele><time>2026-04-05T09:12:20.189Z</time></trkpt><trkpt lat="44.8198683" lon="9.6803733"><ele>333.0</ele><time>2026-04-05T09:12:21.188Z</time></trkpt><trkpt lat="44.8197267" lon="9.680405"><ele>333.0</ele><time>2026-04-05T09:12:22.188Z</time></trkpt><trkpt lat="44.8195867" lon="9.6804383"><ele>333.0</ele><time>2026-04-05T09:12:23.19Z</time></trkpt><trkpt lat="44.8194383" lon="9.68047"><ele>333.0</ele><time>2026-04-05T09:12:24.189Z</time></trkpt><trkpt lat="44.8192967" lon="9.6804867"><ele>333.0</ele><time>2026-04-05T09:12:25.188Z</time></trkpt><trkpt lat="44.8191467" lon="9.6805033"><ele>333.0</ele><time>2026-04-05T09:12:26.189Z</time></trkpt><trkpt lat="44.818995" lon="9.6805033"><ele>333.0</ele><time>2026-04-05T09:12:27.188Z</time></trkpt><trkpt lat="44.8188433" lon="9.6804933"><ele>333.0</ele><time>2026-04-05T09:12:28.189Z</time></trkpt><trkpt lat="44.8186967" lon="9.68048"><ele>333.0</ele><time>2026-04-05T09:12:29.188Z</time></trkpt><trkpt lat="44.8185533" lon="9.6804667"><ele>333.0</ele><time>2026-04-05T09:12:30.188Z</time></trkpt><trkpt lat="44.8184133" lon="9.6804583"><ele>333.0</ele><time>2026-04-05T09:12:31.188Z</time></trkpt><trkpt lat="44.8182783" lon="9.680445"><ele>333.0</ele><time>2026-04-05T09:12:32.188Z</time></trkpt><trkpt lat="44.8181567" lon="9.680425"><ele>333.75</ele><time>2026-04-05T09:12:33.188Z</time></trkpt><trkpt lat="44.8180467" lon="9.6803867"><ele>334.5</ele><time>2026-04-05T09:12:34.189Z</time></trkpt><trkpt lat="44.8179317" lon="9.6803317"><ele>335.25</ele><time>2026-04-05T09:12:35.19Z</time></trkpt><trkpt lat="44.817815" lon="9.6802683"><ele>336.0</ele><time>2026-04-05T09:12:36.188Z</time></trkpt><trkpt lat="44.8176983" lon="9.680205"><ele>338.25</ele><time>2026-04-05T09:12:37.189Z</time></trkpt><trkpt lat="44.817575" lon="9.680145"><ele>340.5</ele><time>2026-04-05T09:12:38.188Z</time></trkpt><trkpt lat="44.8174583" lon="9.680085"><ele>342.75</ele><time>2026-04-05T09:12:39.188Z</time></trkpt><trkpt lat="44.8173467" lon="9.680025"><ele>345.0</ele><time>2026-04-05T09:12:40.189Z</time></trkpt><trkpt lat="44.8172433" lon="9.679975"><ele>345.0</ele><time>2026-04-05T09:12:41.188Z</time></trkpt><trkpt lat="44.81714" lon="9.6799383"><ele>345.0</ele><time>2026-04-05T09:12:42.188Z</time></trkpt><trkpt lat="44.817035" lon="9.679905"><ele>345.0</ele><time>2026-04-05T09:12:43.189Z</time></trkpt><trkpt lat="44.8169267" lon="9.67988"><ele>345.0</ele><time>2026-04-05T09:12:44.188Z</time></trkpt><trkpt lat="44.81682" lon="9.6798583"><ele>345.0</ele><time>2026-04-05T09:12:45.188Z</time></trkpt><trkpt lat="44.8167167" lon="9.67984"><ele>344.3333333333333</ele><time>2026-04-05T09:12:46.188Z</time></trkpt><trkpt lat="44.8166267" lon="9.6798267"><ele>343.6666666666667</ele><time>2026-04-05T09:12:47.189Z</time></trkpt><trkpt lat="44.81655" lon="9.6798067"><ele>343.0</ele><time>2026-04-05T09:12:48.188Z</time></trkpt><trkpt lat="44.816455" lon="9.6797517"><ele>342.33333333333337</ele><time>2026-04-05T09:12:50.189Z</time></trkpt><trkpt lat="44.81644" lon="9.6796367"><ele>341.6666666666667</ele><time>2026-04-05T09:12:52.188Z</time></trkpt><trkpt lat="44.816465" lon="9.679545"><ele>341.0</ele><time>2026-04-05T09:12:53.188Z</time></trkpt><trkpt lat="44.8164833" lon="9.6794517"><ele>342.1666666666667</ele><time>2026-04-05T09:12:54.188Z</time></trkpt><trkpt lat="44.8164867" lon="9.6793567"><ele>343.33333333333337</ele><time>2026-04-05T09:12:55.188Z</time></trkpt><trkpt lat="44.8164733" lon="9.67925"><ele>344.5</ele><time>2026-04-05T09:12:56.189Z</time></trkpt><trkpt lat="44.8164383" lon="9.679145"><ele>345.6666666666667</ele><time>2026-04-05T09:12:57.188Z</time></trkpt><trkpt lat="44.816385" lon="9.6790367"><ele>346.8333333333333</ele><time>2026-04-05T09:12:58.188Z</time></trkpt><trkpt lat="44.816325" lon="9.678925"><ele>348.0</ele><time>2026-04-05T09:12:59.189Z</time></trkpt><trkpt lat="44.8162617" lon="9.67883"><ele>348.0</ele><time>2026-04-05T09:13:00.189Z</time></trkpt><trkpt lat="44.816215" lon="9.67875"><ele>348.0</ele><time>2026-04-05T09:13:01.188Z</time></trkpt><trkpt lat="44.8161517" lon="9.67862"><ele>348.0</ele><time>2026-04-05T09:13:03.189Z</time></trkpt><trkpt lat="44.8160717" lon="9.6785783"><ele>348.0</ele><time>2026-04-05T09:13:05.189Z</time></trkpt><trkpt lat="44.8159483" lon="9.678575"><ele>348.0</ele><time>2026-04-05T09:13:07.188Z</time></trkpt><trkpt lat="44.8158833" lon="9.6785683"><ele>348.3333333333333</ele><time>2026-04-05T09:13:08.188Z</time></trkpt><trkpt lat="44.815785" lon="9.67854"><ele>348.6666666666667</ele><time>2026-04-05T09:13:10.189Z</time></trkpt><trkpt lat="44.8157017" lon="9.678445"><ele>349.0</ele><time>2026-04-05T09:13:12.188Z</time></trkpt><trkpt lat="44.8156733" lon="9.678345"><ele>349.33333333333337</ele><time>2026-04-05T09:13:13.188Z</time></trkpt><trkpt lat="44.81565" lon="9.6782317"><ele>349.6666666666667</ele><time>2026-04-05T09:13:14.188Z</time></trkpt><trkpt lat="44.8156217" lon="9.6781367"><ele>350.0</ele><time>2026-04-05T09:13:15.188Z</time></trkpt><trkpt lat="44.815555" lon="9.6780217"><ele>350.0</ele><time>2026-04-05T09:13:17.189Z</time></trkpt><trkpt lat="44.81544" lon="9.6780417"><ele>350.0</ele><time>2026-04-05T09:13:19.19Z</time></trkpt><trkpt lat="44.8153667" lon="9.6780933"><ele>350.0</ele><time>2026-04-05T09:13:20.19Z</time></trkpt><trkpt lat="44.815285" lon="9.6781467"><ele>350.0</ele><time>2026-04-05T09:13:21.188Z</time></trkpt><trkpt lat="44.81521" lon="9.6781867"><ele>350.0</ele><time>2026-04-05T09:13:22.19Z</time></trkpt><trkpt lat="44.81513" lon="9.67821"><ele>350.6</ele><time>2026-04-05T09:13:23.189Z</time></trkpt><trkpt lat="44.8150483" lon="9.678215"><ele>351.2</ele><time>2026-04-05T09:13:24.189Z</time></trkpt><trkpt lat="44.8149583" lon="9.6782"><ele>351.79999999999995</ele><time>2026-04-05T09:13:25.189Z</time></trkpt><trkpt lat="44.8148633" lon="9.6781767"><ele>352.4</ele><time>2026-04-05T09:13:26.188Z</time></trkpt><trkpt lat="44.8147667" lon="9.6781483"><ele>353.0</ele><time>2026-04-05T09:13:27.19Z</time></trkpt><trkpt lat="44.81467" lon="9.6781083"><ele>353.0</ele><time>2026-04-05T09:13:28.188Z</time></trkpt><trkpt lat="44.814575" lon="9.67807"><ele>353.0</ele><time>2026-04-05T09:13:29.188Z</time></trkpt><trkpt lat="44.8144833" lon="9.6780533"><ele>353.0</ele><time>2026-04-05T09:13:30.188Z</time></trkpt><trkpt lat="44.8143867" lon="9.6780533"><ele>353.0</ele><time>2026-04-05T09:13:31.188Z</time></trkpt><trkpt lat="44.8142917" lon="9.67806"><ele>353.0</ele><time>2026-04-05T09:13:32.189Z</time></trkpt><trkpt lat="44.8141917" lon="9.6780733"><ele>354.4</ele><time>2026-04-05T09:13:33.188Z</time></trkpt><trkpt lat="44.8140967" lon="9.6780983"><ele>355.79999999999995</ele><time>2026-04-05T09:13:34.189Z</time></trkpt><trkpt lat="44.8140017" lon="9.6781317"><ele>357.2</ele><time>2026-04-05T09:13:35.188Z</time></trkpt><trkpt lat="44.8139033" lon="9.6781683"><ele>358.6</ele><time>2026-04-05T09:13:36.188Z</time></trkpt><trkpt lat="44.813805" lon="9.6781917"><ele>360.0</ele><time>2026-04-05T09:13:37.188Z</time></trkpt><trkpt lat="44.8137067" lon="9.6782067"><ele>360.0</ele><time>2026-04-05T09:13:38.189Z</time></trkpt><trkpt lat="44.8136183" lon="9.67823"><ele>360.0</ele><time>2026-04-05T09:13:39.191Z</time></trkpt><trkpt lat="44.8135383" lon="9.6782733"><ele>360.0</ele><time>2026-04-05T09:13:40.188Z</time></trkpt><trkpt lat="44.81346" lon="9.6783417"><ele>360.0</ele><time>2026-04-05T09:13:41.189Z</time></trkpt><trkpt lat="44.8133883" lon="9.6784283"><ele>360.0</ele><time>2026-04-05T09:13:42.189Z</time></trkpt><trkpt lat="44.8133167" lon="9.6785183"><ele>360.3333333333333</ele><time>2026-04-05T09:13:43.189Z</time></trkpt><trkpt lat="44.8132467" lon="9.6786017"><ele>360.6666666666667</ele><time>2026-04-05T09:13:44.19Z</time></trkpt><trkpt lat="44.8131767" lon="9.67867"><ele>361.0</ele><time>2026-04-05T09:13:45.189Z</time></trkpt><trkpt lat="44.8131067" lon="9.6787117"><ele>361.33333333333337</ele><time>2026-04-05T09:13:46.189Z</time></trkpt><trkpt lat="44.8130317" lon="9.67872"><ele>361.6666666666667</ele><time>2026-04-05T09:13:47.188Z</time></trkpt><trkpt lat="44.812945" lon="9.6787033"><ele>362.0</ele><time>2026-04-05T09:13:48.189Z</time></trkpt><trkpt lat="44.812835" lon="9.6786583"><ele>362.0</ele><time>2026-04-05T09:13:49.188Z</time></trkpt><trkpt lat="44.8127183" lon="9.67861"><ele>362.0</ele><time>2026-04-05T09:13:50.189Z</time></trkpt><trkpt lat="44.8126" lon="9.6785533"><ele>362.0</ele><time>2026-04-05T09:13:51.188Z</time></trkpt><trkpt lat="44.8124917" lon="9.6785017"><ele>362.0</ele><time>2026-04-05T09:13:52.188Z</time></trkpt><trkpt lat="44.8123867" lon="9.6784517"><ele>366.0</ele><time>2026-04-05T09:13:53.189Z</time></trkpt><trkpt lat="44.812285" lon="9.6784017"><ele>370.0</ele><time>2026-04-05T09:13:54.188Z</time></trkpt><trkpt lat="44.8121867" lon="9.678355"><ele>374.0</ele><time>2026-04-05T09:13:55.188Z</time></trkpt><trkpt lat="44.812085" lon="9.6783033"><ele>378.0</ele><time>2026-04-05T09:13:56.188Z</time></trkpt><trkpt lat="44.8119883" lon="9.67824"><ele>382.0</ele><time>2026-04-05T09:13:57.188Z</time></trkpt><trkpt lat="44.8119017" lon="9.6781667"><ele>383.8333333333333</ele><time>2026-04-05T09:13:58.188Z</time></trkpt><trkpt lat="44.8118217" lon="9.6780883"><ele>385.66666666666663</ele><time>2026-04-05T09:13:59.189Z</time></trkpt><trkpt lat="44.8117583" lon="9.67801"><ele>387.5</ele><time>2026-04-05T09:14:00.189Z</time></trkpt><trkpt lat="44.8117083" lon="9.6779333"><ele>389.3333333333333</ele><time>2026-04-05T09:14:01.191Z</time></trkpt><trkpt lat="44.8116767" lon="9.6778433"><ele>391.1666666666667</ele><time>2026-04-05T09:14:02.192Z</time></trkpt><trkpt lat="44.8116483" lon="9.6777517"><ele>393.0</ele><time>2026-04-05T09:14:03.188Z</time></trkpt><trkpt lat="44.8116117" lon="9.6776667"><ele>393.5</ele><time>2026-04-05T09:14:04.19Z</time></trkpt><trkpt lat="44.8115583" lon="9.6775783"><ele>394.0</ele><time>2026-04-05T09:14:05.19Z</time></trkpt><trkpt lat="44.8114933" lon="9.677495"><ele>394.5</ele><time>2026-04-05T09:14:06.189Z</time></trkpt><trkpt lat="44.8114183" lon="9.67743"><ele>395.0</ele><time>2026-04-05T09:14:07.188Z</time></trkpt><trkpt lat="44.8113483" lon="9.6773817"><ele>395.5</ele><time>2026-04-05T09:14:08.19Z</time></trkpt><trkpt lat="44.81128" lon="9.6773433"><ele>396.0</ele><time>2026-04-05T09:14:09.188Z</time></trkpt><trkpt lat="44.8112083" lon="9.6772983"><ele>396.0</ele><time>2026-04-05T09:14:10.188Z</time></trkpt><trkpt lat="44.811145" lon="9.6772383"><ele>396.0</ele><time>2026-04-05T09:14:11.188Z</time></trkpt><trkpt lat="44.8110933" lon="9.6771667"><ele>396.0</ele><time>2026-04-05T09:14:12.189Z</time></trkpt><trkpt lat="44.8111033" lon="9.6769883"><ele>396.0</ele><time>2026-04-05T09:14:14.188Z</time></trkpt><trkpt lat="44.8111467" lon="9.6769033"><ele>396.0</ele><time>2026-04-05T09:14:15.188Z</time></trkpt><trkpt lat="44.8112133" lon="9.6768233"><ele>396.0</ele><time>2026-04-05T09:14:16.189Z</time></trkpt><trkpt lat="44.8113083" lon="9.67675"><ele>398.6</ele><time>2026-04-05T09:14:17.189Z</time></trkpt><trkpt lat="44.8113967" lon="9.6766617"><ele>401.20000000000005</ele><time>2026-04-05T09:14:18.189Z</time></trkpt><trkpt lat="44.8114633" lon="9.6765533"><ele>403.79999999999995</ele><time>2026-04-05T09:14:19.188Z</time></trkpt><trkpt lat="44.8114933" lon="9.67643"><ele>406.4</ele><time>2026-04-05T09:14:20.188Z</time></trkpt><trkpt lat="44.8115167" lon="9.676285"><ele>409.0</ele><time>2026-04-05T09:14:21.188Z</time></trkpt><trkpt lat="44.8115333" lon="9.6761517"><ele>412.00000000000006</ele><time>2026-04-05T09:14:22.188Z</time></trkpt><trkpt lat="44.8115317" lon="9.6760367"><ele>415.0</ele><time>2026-04-05T09:14:23.19Z</time></trkpt><trkpt lat="44.8115117" lon="9.6759267"><ele>418.0</ele><time>2026-04-05T09:14:24.188Z</time></trkpt><trkpt lat="44.8114667" lon="9.6758533"><ele>421.0</ele><time>2026-04-05T09:14:25.188Z</time></trkpt><trkpt lat="44.8113917" lon="9.6758033"><ele>424.00000000000006</ele><time>2026-04-05T09:14:26.189Z</time></trkpt><trkpt lat="44.811305" lon="9.6757683"><ele>427.0</ele><time>2026-04-05T09:14:27.189Z</time></trkpt><trkpt lat="44.8112217" lon="9.6757533"><ele>427.0</ele><time>2026-04-05T09:14:28.188Z</time></trkpt><trkpt lat="44.8111467" lon="9.6757667"><ele>427.00000000000006</ele><time>2026-04-05T09:14:29.189Z</time></trkpt><trkpt lat="44.8110767" lon="9.6758083"><ele>427.00000000000006</ele><time>2026-04-05T09:14:30.188Z</time></trkpt><trkpt lat="44.8109967" lon="9.6759133"><ele>427.0</ele><time>2026-04-05T09:14:31.188Z</time></trkpt><trkpt lat="44.8109083" lon="9.6760383"><ele>427.0</ele><time>2026-04-05T09:14:32.19Z</time></trkpt><trkpt lat="44.8108167" lon="9.67616"><ele>426.0</ele><time>2026-04-05T09:14:33.188Z</time></trkpt><trkpt lat="44.8107317" lon="9.6762683"><ele>425.00000000000006</ele><time>2026-04-05T09:14:34.189Z</time></trkpt><trkpt lat="44.8106617" lon="9.6763467"><ele>424.0</ele><time>2026-04-05T09:14:35.188Z</time></trkpt><trkpt lat="44.81059" lon="9.676405"><ele>423.0</ele><time>2026-04-05T09:14:36.189Z</time></trkpt><trkpt lat="44.8105067" lon="9.6764367"><ele>422.0</ele><time>2026-04-05T09:14:37.189Z</time></trkpt><trkpt lat="44.8104167" lon="9.676435"><ele>422.0</ele><time>2026-04-05T09:14:38.189Z</time></trkpt><trkpt lat="44.81033" lon="9.6764067"><ele>422.0</ele><time>2026-04-05T09:14:39.189Z</time></trkpt><trkpt lat="44.8102567" lon="9.67631"><ele>422.0</ele><time>2026-04-05T09:14:40.189Z</time></trkpt><trkpt lat="44.8101983" lon="9.6761617"><ele>422.0</ele><time>2026-04-05T09:14:41.188Z</time></trkpt><trkpt lat="44.8101383" lon="9.6759933"><ele>422.0</ele><time>2026-04-05T09:14:42.188Z</time></trkpt><trkpt lat="44.810095" lon="9.675835"><ele>424.49999999999994</ele><time>2026-04-05T09:14:43.188Z</time></trkpt><trkpt lat="44.8100583" lon="9.675725"><ele>427.0</ele><time>2026-04-05T09:14:44.188Z</time></trkpt><trkpt lat="44.8100233" lon="9.6756383"><ele>429.5</ele><time>2026-04-05T09:14:45.188Z</time></trkpt><trkpt lat="44.8099817" lon="9.6755383"><ele>432.0</ele><time>2026-04-05T09:14:46.188Z</time></trkpt><trkpt lat="44.8099383" lon="9.675425"><ele>434.49999999999994</ele><time>2026-04-05T09:14:47.189Z</time></trkpt><trkpt lat="44.8098967" lon="9.6753133"><ele>437.0</ele><time>2026-04-05T09:14:48.188Z</time></trkpt><trkpt lat="44.809855" lon="9.675215"><ele>439.66666666666663</ele><time>2026-04-05T09:14:49.188Z</time></trkpt><trkpt lat="44.8098033" lon="9.6751283"><ele>442.3333333333333</ele><time>2026-04-05T09:14:50.189Z</time></trkpt><trkpt lat="44.8097467" lon="9.6750517"><ele>445.0</ele><time>2026-04-05T09:14:51.188Z</time></trkpt><trkpt lat="44.8096867" lon="9.6749917"><ele>447.66666666666663</ele><time>2026-04-05T09:14:52.189Z</time></trkpt><trkpt lat="44.8096267" lon="9.6749533"><ele>450.3333333333333</ele><time>2026-04-05T09:14:53.188Z</time></trkpt><trkpt lat="44.8095517" lon="9.6749433"><ele>453.0</ele><time>2026-04-05T09:14:54.191Z</time></trkpt><trkpt lat="44.8094717" lon="9.6749567"><ele>453.0</ele><time>2026-04-05T09:14:55.188Z</time></trkpt><trkpt lat="44.8093917" lon="9.67499"><ele>453.0</ele><time>2026-04-05T09:14:56.189Z</time></trkpt><trkpt lat="44.8093233" lon="9.6750383"><ele>453.0</ele><time>2026-04-05T09:14:57.189Z</time></trkpt><trkpt lat="44.8092733" lon="9.675105"><ele>453.0</ele><time>2026-04-05T09:14:58.19Z</time></trkpt><trkpt lat="44.8092333" lon="9.6751867"><ele>453.0</ele><time>2026-04-05T09:14:59.188Z</time></trkpt><trkpt lat="44.8091967" lon="9.67529"><ele>453.0</ele><time>2026-04-05T09:15:00.191Z</time></trkpt><trkpt lat="44.8091767" lon="9.6754317"><ele>452.0</ele><time>2026-04-05T09:15:01.191Z</time></trkpt><trkpt lat="44.8091583" lon="9.6756"><ele>451.0</ele><time>2026-04-05T09:15:02.188Z</time></trkpt><trkpt lat="44.8091283" lon="9.67577"><ele>450.0</ele><time>2026-04-05T09:15:03.188Z</time></trkpt><trkpt lat="44.8090983" lon="9.675935"><ele>449.0</ele><time>2026-04-05T09:15:04.189Z</time></trkpt><trkpt lat="44.8090567" lon="9.6760983"><ele>447.2</ele><time>2026-04-05T09:15:05.188Z</time></trkpt><trkpt lat="44.80901" lon="9.6762617"><ele>445.4</ele><time>2026-04-05T09:15:06.188Z</time></trkpt><trkpt lat="44.808965" lon="9.6764017"><ele>443.6</ele><time>2026-04-05T09:15:07.188Z</time></trkpt><trkpt lat="44.8089167" lon="9.6765217"><ele>441.8</ele><time>2026-04-05T09:15:08.188Z</time></trkpt><trkpt lat="44.8088533" lon="9.6766217"><ele>440.0</ele><time>2026-04-05T09:15:09.188Z</time></trkpt><trkpt lat="44.8087917" lon="9.6766983"><ele>439.99999999999994</ele><time>2026-04-05T09:15:10.188Z</time></trkpt><trkpt lat="44.8087333" lon="9.67675"><ele>440.0</ele><time>2026-04-05T09:15:11.192Z</time></trkpt><trkpt lat="44.8086633" lon="9.6767683"><ele>440.0</ele><time>2026-04-05T09:15:12.188Z</time></trkpt><trkpt lat="44.8085783" lon="9.676765"><ele>440.0</ele><time>2026-04-05T09:15:13.189Z</time></trkpt><trkpt lat="44.80849" lon="9.676785"><ele>439.99999999999994</ele><time>2026-04-05T09:15:14.188Z</time></trkpt><trkpt lat="44.8083967" lon="9.67683"><ele>440.0</ele><time>2026-04-05T09:15:15.188Z</time></trkpt><trkpt lat="44.808295" lon="9.6769"><ele>439.8333333333333</ele><time>2026-04-05T09:15:16.188Z</time></trkpt><trkpt lat="44.8082067" lon="9.676965"><ele>439.66666666666663</ele><time>2026-04-05T09:15:17.188Z</time></trkpt><trkpt lat="44.80813" lon="9.6770133"><ele>439.5</ele><time>2026-04-05T09:15:18.188Z</time></trkpt><trkpt lat="44.8080567" lon="9.6770517"><ele>439.33333333333337</ele><time>2026-04-05T09:15:19.189Z</time></trkpt><trkpt lat="44.8079867" lon="9.6770483"><ele>439.1666666666667</ele><time>2026-04-05T09:15:20.19Z</time></trkpt><trkpt lat="44.8079167" lon="9.67701"><ele>439.0</ele><time>2026-04-05T09:15:21.188Z</time></trkpt><trkpt lat="44.8078533" lon="9.6769083"><ele>443.0</ele><time>2026-04-05T09:15:22.188Z</time></trkpt><trkpt lat="44.80778" lon="9.676785"><ele>447.0</ele><time>2026-04-05T09:15:23.189Z</time></trkpt><trkpt lat="44.80771" lon="9.6766433"><ele>451.0</ele><time>2026-04-05T09:15:24.188Z</time></trkpt><trkpt lat="44.80765" lon="9.6764967"><ele>455.0</ele><time>2026-04-05T09:15:25.189Z</time></trkpt><trkpt lat="44.8076017" lon="9.6763567"><ele>454.99999999999994</ele><time>2026-04-05T09:15:26.191Z</time></trkpt><trkpt lat="44.8075633" lon="9.6762317"><ele>455.0</ele><time>2026-04-05T09:15:27.188Z</time></trkpt><trkpt lat="44.8075283" lon="9.6761233"><ele>455.0</ele><time>2026-04-05T09:15:28.188Z</time></trkpt><trkpt lat="44.8074967" lon="9.6760267"><ele>455.0</ele><time>2026-04-05T09:15:29.188Z</time></trkpt><trkpt lat="44.8074633" lon="9.67593"><ele>454.99999999999994</ele><time>2026-04-05T09:15:30.188Z</time></trkpt><trkpt lat="44.8074217" lon="9.6758383"><ele>455.0</ele><time>2026-04-05T09:15:31.189Z</time></trkpt><trkpt lat="44.8073667" lon="9.675755"><ele>456.6</ele><time>2026-04-05T09:15:32.188Z</time></trkpt><trkpt lat="44.8072917" lon="9.67567"><ele>458.2</ele><time>2026-04-05T09:15:33.188Z</time></trkpt><trkpt lat="44.8072117" lon="9.6755733"><ele>459.79999999999995</ele><time>2026-04-05T09:15:34.189Z</time></trkpt><trkpt lat="44.80714" lon="9.6754783"><ele>461.4</ele><time>2026-04-05T09:15:35.189Z</time></trkpt><trkpt lat="44.8070767" lon="9.6753817"><ele>463.0</ele><time>2026-04-05T09:15:36.189Z</time></trkpt><trkpt lat="44.8070167" lon="9.6752867"><ele>463.79999999999995</ele><time>2026-04-05T09:15:37.188Z</time></trkpt><trkpt lat="44.80695" lon="9.6752"><ele>464.59999999999997</ele><time>2026-04-05T09:15:38.188Z</time></trkpt><trkpt lat="44.8068683" lon="9.6751233"><ele>465.40000000000003</ele><time>2026-04-05T09:15:39.188Z</time></trkpt><trkpt lat="44.8067833" lon="9.6750517"><ele>466.20000000000005</ele><time>2026-04-05T09:15:40.188Z</time></trkpt><trkpt lat="44.8066983" lon="9.6749733"><ele>467.0</ele><time>2026-04-05T09:15:41.188Z</time></trkpt><trkpt lat="44.8066117" lon="9.6748883"><ele>467.0</ele><time>2026-04-05T09:15:42.188Z</time></trkpt><trkpt lat="44.8065217" lon="9.6748167"><ele>467.00000000000006</ele><time>2026-04-05T09:15:43.188Z</time></trkpt><trkpt lat="44.8064333" lon="9.6747633"><ele>467.00000000000006</ele><time>2026-04-05T09:15:44.188Z</time></trkpt><trkpt lat="44.8063483" lon="9.6747133"><ele>467.0</ele><time>2026-04-05T09:15:45.188Z</time></trkpt><trkpt lat="44.80627" lon="9.6746517"><ele>467.0</ele><time>2026-04-05T09:15:46.188Z</time></trkpt><trkpt lat="44.8061983" lon="9.674555"><ele>467.0</ele><time>2026-04-05T09:15:47.188Z</time></trkpt><trkpt lat="44.80613" lon="9.6744483"><ele>467.00000000000006</ele><time>2026-04-05T09:15:48.188Z</time></trkpt><trkpt lat="44.8060583" lon="9.674345"><ele>467.00000000000006</ele><time>2026-04-05T09:15:49.188Z</time></trkpt><trkpt lat="44.8059833" lon="9.6742433"><ele>467.0</ele><time>2026-04-05T09:15:50.19Z</time></trkpt><trkpt lat="44.8059083" lon="9.6741467"><ele>467.0</ele><time>2026-04-05T09:15:51.191Z</time></trkpt><trkpt lat="44.8058333" lon="9.6740517"><ele>468.16666666666663</ele><time>2026-04-05T09:15:52.189Z</time></trkpt><trkpt lat="44.805765" lon="9.67396"><ele>469.3333333333333</ele><time>2026-04-05T09:15:53.191Z</time></trkpt><trkpt lat="44.80571" lon="9.6738667"><ele>470.5</ele><time>2026-04-05T09:15:54.191Z</time></trkpt><trkpt lat="44.8056683" lon="9.673775"><ele>471.66666666666663</ele><time>2026-04-05T09:15:55.19Z</time></trkpt><trkpt lat="44.8056333" lon="9.6736717"><ele>472.8333333333333</ele><time>2026-04-05T09:15:56.19Z</time></trkpt><trkpt lat="44.805605" lon="9.67357"><ele>474.0</ele><time>2026-04-05T09:15:57.189Z</time></trkpt><trkpt lat="44.8055867" lon="9.6734567"><ele>476.6666666666667</ele><time>2026-04-05T09:15:58.191Z</time></trkpt><trkpt lat="44.80557" lon="9.6733333"><ele>479.33333333333337</ele><time>2026-04-05T09:15:59.191Z</time></trkpt><trkpt lat="44.805555" lon="9.673205"><ele>482.0</ele><time>2026-04-05T09:16:00.189Z</time></trkpt><trkpt lat="44.8055383" lon="9.6730867"><ele>484.6666666666667</ele><time>2026-04-05T09:16:01.188Z</time></trkpt><trkpt lat="44.805515" lon="9.672975"><ele>487.33333333333337</ele><time>2026-04-05T09:16:02.189Z</time></trkpt><trkpt lat="44.8054817" lon="9.6728617"><ele>490.0</ele><time>2026-04-05T09:16:03.188Z</time></trkpt><trkpt lat="44.805435" lon="9.67275"><ele>488.6</ele><time>2026-04-05T09:16:04.189Z</time></trkpt><trkpt lat="44.8053783" lon="9.6726333"><ele>487.2</ele><time>2026-04-05T09:16:05.188Z</time></trkpt><trkpt lat="44.8053117" lon="9.6725333"><ele>485.79999999999995</ele><time>2026-04-05T09:16:06.188Z</time></trkpt><trkpt lat="44.8052367" lon="9.672445"><ele>484.4</ele><time>2026-04-05T09:16:07.188Z</time></trkpt><trkpt lat="44.8051533" lon="9.67237"><ele>483.0</ele><time>2026-04-05T09:16:08.189Z</time></trkpt><trkpt lat="44.8050717" lon="9.672295"><ele>483.0</ele><time>2026-04-05T09:16:09.188Z</time></trkpt><trkpt lat="44.8049917" lon="9.6722133"><ele>482.99999999999994</ele><time>2026-04-05T09:16:10.188Z</time></trkpt><trkpt lat="44.8049167" lon="9.6721383"><ele>482.99999999999994</ele><time>2026-04-05T09:16:11.189Z</time></trkpt><trkpt lat="44.804855" lon="9.6720767"><ele>483.0</ele><time>2026-04-05T09:16:12.188Z</time></trkpt><trkpt lat="44.8047983" lon="9.67202"><ele>483.0</ele><time>2026-04-05T09:16:13.188Z</time></trkpt><trkpt lat="44.8046817" lon="9.6719617"><ele>483.0</ele><time>2026-04-05T09:16:15.19Z</time></trkpt><trkpt lat="44.80456" lon="9.6719933"><ele>483.0</ele><time>2026-04-05T09:16:17.188Z</time></trkpt><trkpt lat="44.8045033" lon="9.6720467"><ele>483.0</ele><time>2026-04-05T09:16:18.188Z</time></trkpt><trkpt lat="44.80444" lon="9.6721267"><ele>483.0</ele><time>2026-04-05T09:16:19.189Z</time></trkpt><trkpt lat="44.8043833" lon="9.6722117"><ele>483.0</ele><time>2026-04-05T09:16:20.189Z</time></trkpt><trkpt lat="44.8043317" lon="9.6722933"><ele>483.0</ele><time>2026-04-05T09:16:21.188Z</time></trkpt><trkpt lat="44.8042883" lon="9.6723667"><ele>483.2</ele><time>2026-04-05T09:16:22.188Z</time></trkpt><trkpt lat="44.8042083" lon="9.6724933"><ele>483.4</ele><time>2026-04-05T09:16:24.19Z</time></trkpt><trkpt lat="44.80413" lon="9.6726033"><ele>483.59999999999997</ele><time>2026-04-05T09:16:26.189Z</time></trkpt><trkpt lat="44.8040567" lon="9.67268"><ele>483.79999999999995</ele><time>2026-04-05T09:16:28.189Z</time></trkpt><trkpt lat="44.80398" lon="9.6727267"><ele>484.0</ele><time>2026-04-05T09:16:30.192Z</time></trkpt><trkpt lat="44.80391" lon="9.6727383"><ele>484.0</ele><time>2026-04-05T09:16:32.188Z</time></trkpt><trkpt lat="44.8037783" lon="9.672665"><ele>484.0</ele><time>2026-04-05T09:16:35.188Z</time></trkpt><trkpt lat="44.8037067" lon="9.6725317"><ele>484.0</ele><time>2026-04-05T09:16:37.19Z</time></trkpt><trkpt lat="44.80367" lon="9.6724433"><ele>484.0</ele><time>2026-04-05T09:16:38.188Z</time></trkpt><trkpt lat="44.803625" lon="9.6723617"><ele>484.0</ele><time>2026-04-05T09:16:39.188Z</time></trkpt><trkpt lat="44.8035667" lon="9.6722733"><ele>484.0</ele><time>2026-04-05T09:16:40.188Z</time></trkpt><trkpt lat="44.8035067" lon="9.6721867"><ele>483.99999999999994</ele><time>2026-04-05T09:16:41.189Z</time></trkpt><trkpt lat="44.80345" lon="9.6721067"><ele>484.0</ele><time>2026-04-05T09:16:42.188Z</time></trkpt><trkpt lat="44.803395" lon="9.6720333"><ele>484.0</ele><time>2026-04-05T09:16:43.188Z</time></trkpt><trkpt lat="44.8033417" lon="9.6719683"><ele>483.99999999999994</ele><time>2026-04-05T09:16:44.188Z</time></trkpt><trkpt lat="44.80329" lon="9.6719133"><ele>484.0</ele><time>2026-04-05T09:16:45.188Z</time></trkpt><trkpt lat="44.8032333" lon="9.67187"><ele>484.0</ele><time>2026-04-05T09:16:46.188Z</time></trkpt><trkpt lat="44.80314" lon="9.67181"><ele>487.33333333333337</ele><time>2026-04-05T09:16:48.188Z</time></trkpt><trkpt lat="44.80311" lon="9.6717033"><ele>490.6666666666667</ele><time>2026-04-05T09:16:51.19Z</time></trkpt><trkpt lat="44.8031883" lon="9.6716083"><ele>494.0</ele><time>2026-04-05T09:16:54.19Z</time></trkpt><trkpt lat="44.80328" lon="9.6715517"><ele>497.33333333333337</ele><time>2026-04-05T09:16:56.19Z</time></trkpt><trkpt lat="44.8033333" lon="9.6714933"><ele>500.6666666666667</ele><time>2026-04-05T09:16:58.189Z</time></trkpt><trkpt lat="44.8033117" lon="9.6713817"><ele>504.0</ele><time>2026-04-05T09:17:01.188Z</time></trkpt><trkpt lat="44.8031783" lon="9.67132"><ele>504.0</ele><time>2026-04-05T09:17:03.189Z</time></trkpt><trkpt lat="44.8031017" lon="9.6712783"><ele>504.0</ele><time>2026-04-05T09:17:04.188Z</time></trkpt><trkpt lat="44.8030371" lon="9.6712433"><ele>504.0</ele><time>2026-04-05T09:17:05.189Z</time></trkpt><trkpt lat="44.8029643" lon="9.6711732"><ele>504.0</ele><time>2026-04-05T09:17:07.188Z</time></trkpt><trkpt lat="44.8029686" lon="9.6710775"><ele>504.0</ele><time>2026-04-05T09:17:09.189Z</time></trkpt><trkpt lat="44.8030476" lon="9.6709749"><ele>504.0</ele><time>2026-04-05T09:17:11.188Z</time></trkpt><trkpt lat="44.8031064" lon="9.670938"><ele>505.79999999999995</ele><time>2026-04-05T09:17:12.188Z</time></trkpt><trkpt lat="44.8031797" lon="9.6709029"><ele>507.59999999999997</ele><time>2026-04-05T09:17:13.189Z</time></trkpt><trkpt lat="44.8032613" lon="9.6708666"><ele>509.4</ele><time>2026-04-05T09:17:14.188Z</time></trkpt><trkpt lat="44.8033527" lon="9.6708321"><ele>511.2</ele><time>2026-04-05T09:17:15.188Z</time></trkpt><trkpt lat="44.8034488" lon="9.6708008"><ele>513.0</ele><time>2026-04-05T09:17:16.188Z</time></trkpt><trkpt lat="44.8035422" lon="9.6707715"><ele>513.0</ele><time>2026-04-05T09:17:17.189Z</time></trkpt><trkpt lat="44.8036347" lon="9.6707344"><ele>513.0</ele><time>2026-04-05T09:17:18.19Z</time></trkpt><trkpt lat="44.8037297" lon="9.6706756"><ele>513.0</ele><time>2026-04-05T09:17:19.189Z</time></trkpt><trkpt lat="44.8038285" lon="9.670606"><ele>513.0</ele><time>2026-04-05T09:17:20.191Z</time></trkpt><trkpt lat="44.8039239" lon="9.6705329"><ele>513.0</ele><time>2026-04-05T09:17:21.19Z</time></trkpt><trkpt lat="44.8040043" lon="9.6704559"><ele>513.0</ele><time>2026-04-05T09:17:22.189Z</time></trkpt><trkpt lat="44.8040662" lon="9.6703866"><ele>513.0</ele><time>2026-04-05T09:17:23.19Z</time></trkpt><trkpt lat="44.8041238" lon="9.6703324"><ele>513.0</ele><time>2026-04-05T09:17:24.19Z</time></trkpt><trkpt lat="44.804185" lon="9.6702772"><ele>513.0</ele><time>2026-04-05T09:17:25.191Z</time></trkpt><trkpt lat="44.8042433" lon="9.6702095"><ele>513.0</ele><time>2026-04-05T09:17:26.189Z</time></trkpt><trkpt lat="44.8042924" lon="9.6701273"><ele>513.0</ele><time>2026-04-05T09:17:27.189Z</time></trkpt><trkpt lat="44.8043281" lon="9.6700291"><ele>514.8571428571429</ele><time>2026-04-05T09:17:28.188Z</time></trkpt><trkpt lat="44.8043498" lon="9.6699125"><ele>516.7142857142858</ele><time>2026-04-05T09:17:29.188Z</time></trkpt><trkpt lat="44.8043628" lon="9.6697995"><ele>518.5714285714286</ele><time>2026-04-05T09:17:30.188Z</time></trkpt><trkpt lat="44.8043752" lon="9.6697023"><ele>520.4285714285714</ele><time>2026-04-05T09:17:31.189Z</time></trkpt><trkpt lat="44.8043913" lon="9.6696114"><ele>522.2857142857142</ele><time>2026-04-05T09:17:32.189Z</time></trkpt><trkpt lat="44.8044078" lon="9.6695248"><ele>524.1428571428571</ele><time>2026-04-05T09:17:33.188Z</time></trkpt><trkpt lat="44.8044288" lon="9.6694319"><ele>526.0</ele><time>2026-04-05T09:17:34.188Z</time></trkpt><trkpt lat="44.8044543" lon="9.669322"><ele>529.1666666666667</ele><time>2026-04-05T09:17:35.189Z</time></trkpt><trkpt lat="44.8044866" lon="9.6692006"><ele>532.3333333333334</ele><time>2026-04-05T09:17:36.188Z</time></trkpt><trkpt lat="44.8045223" lon="9.6690728"><ele>535.5</ele><time>2026-04-05T09:17:37.189Z</time></trkpt><trkpt lat="44.8045568" lon="9.668953"><ele>538.6666666666666</ele><time>2026-04-05T09:17:38.19Z</time></trkpt><trkpt lat="44.8045856" lon="9.6688478"><ele>541.8333333333333</ele><time>2026-04-05T09:17:39.189Z</time></trkpt><trkpt lat="44.8046156" lon="9.6687685"><ele>545.0</ele><time>2026-04-05T09:17:40.188Z</time></trkpt><trkpt lat="44.8046848" lon="9.6686557"><ele>547.1666666666666</ele><time>2026-04-05T09:17:42.188Z</time></trkpt><trkpt lat="44.8047818" lon="9.6685887"><ele>549.3333333333333</ele><time>2026-04-05T09:17:44.189Z</time></trkpt><trkpt lat="44.8048998" lon="9.6685569"><ele>551.5</ele><time>2026-04-05T09:17:46.189Z</time></trkpt><trkpt lat="44.804973" lon="9.6685592"><ele>553.6666666666666</ele><time>2026-04-05T09:17:47.189Z</time></trkpt><trkpt lat="44.8050452" lon="9.668574"><ele>555.8333333333334</ele><time>2026-04-05T09:17:48.189Z</time></trkpt><trkpt lat="44.8051101" lon="9.6685966"><ele>558.0</ele><time>2026-04-05T09:17:49.19Z</time></trkpt><trkpt lat="44.8051695" lon="9.6686269"><ele>559.6666666666666</ele><time>2026-04-05T09:17:50.189Z</time></trkpt><trkpt lat="44.8052357" lon="9.6686692"><ele>561.3333333333334</ele><time>2026-04-05T09:17:51.189Z</time></trkpt><trkpt lat="44.8053192" lon="9.6687204"><ele>563.0</ele><time>2026-04-05T09:17:52.189Z</time></trkpt><trkpt lat="44.8054065" lon="9.6687682"><ele>564.6666666666667</ele><time>2026-04-05T09:17:53.19Z</time></trkpt><trkpt lat="44.8054818" lon="9.6688116"><ele>566.3333333333334</ele><time>2026-04-05T09:17:54.189Z</time></trkpt><trkpt lat="44.8055419" lon="9.6688468"><ele>568.0</ele><time>2026-04-05T09:17:55.189Z</time></trkpt><trkpt lat="44.8056417" lon="9.6689417"><ele>568.0</ele><time>2026-04-05T09:17:57.188Z</time></trkpt><trkpt lat="44.8056789" lon="9.6690173"><ele>568.0</ele><time>2026-04-05T09:17:58.188Z</time></trkpt><trkpt lat="44.805713" lon="9.6691021"><ele>568.0</ele><time>2026-04-05T09:17:59.189Z</time></trkpt><trkpt lat="44.805756" lon="9.6691923"><ele>568.0</ele><time>2026-04-05T09:18:00.189Z</time></trkpt><trkpt lat="44.8058116" lon="9.6692893"><ele>568.0</ele><time>2026-04-05T09:18:01.189Z</time></trkpt><trkpt lat="44.8058823" lon="9.6693781"><ele>568.0</ele><time>2026-04-05T09:18:02.189Z</time></trkpt><trkpt lat="44.805952" lon="9.6694559"><ele>567.0</ele><time>2026-04-05T09:18:03.189Z</time></trkpt><trkpt lat="44.8060169" lon="9.6695167"><ele>566.0</ele><time>2026-04-05T09:18:04.189Z</time></trkpt><trkpt lat="44.8060817" lon="9.6695736"><ele>565.0</ele><time>2026-04-05T09:18:05.189Z</time></trkpt><trkpt lat="44.8061414" lon="9.6696084"><ele>564.0</ele><time>2026-04-05T09:18:06.189Z</time></trkpt><trkpt lat="44.8062428" lon="9.669617"><ele>563.0</ele><time>2026-04-05T09:18:08.189Z</time></trkpt><trkpt lat="44.8063251" lon="9.6695463"><ele>562.0</ele><time>2026-04-05T09:18:10.189Z</time></trkpt><trkpt lat="44.8064102" lon="9.6694677"><ele>565.1666666666667</ele><time>2026-04-05T09:18:12.188Z</time></trkpt><trkpt lat="44.8064767" lon="9.6694167"><ele>568.3333333333334</ele><time>2026-04-05T09:18:54.19Z</time></trkpt><trkpt lat="44.80656" lon="9.669385"><ele>571.5</ele><time>2026-04-05T09:18:56.194Z</time></trkpt><trkpt lat="44.8066567" lon="9.6693533"><ele>574.6666666666666</ele><time>2026-04-05T09:18:58.19Z</time></trkpt><trkpt lat="44.8067183" lon="9.66927"><ele>577.8333333333333</ele><time>2026-04-05T09:19:00.193Z</time></trkpt><trkpt lat="44.8067" lon="9.66918"><ele>581.0</ele><time>2026-04-05T09:19:02.19Z</time></trkpt><trkpt lat="44.8065883" lon="9.66905"><ele>581.0</ele><time>2026-04-05T09:19:04.19Z</time></trkpt><trkpt lat="44.8065017" lon="9.6689783"><ele>581.0</ele><time>2026-04-05T09:19:05.189Z</time></trkpt><trkpt lat="44.806435" lon="9.6689083"><ele>581.0</ele><time>2026-04-05T09:19:06.188Z</time></trkpt><trkpt lat="44.8063733" lon="9.6688667"><ele>581.0</ele><time>2026-04-05T09:19:07.188Z</time></trkpt><trkpt lat="44.806255" lon="9.6688467"><ele>581.0</ele><time>2026-04-05T09:19:09.191Z</time></trkpt><trkpt lat="44.8061467" lon="9.6687833"><ele>581.0</ele><time>2026-04-05T09:19:11.191Z</time></trkpt><trkpt lat="44.8060833" lon="9.66867"><ele>581.0</ele><time>2026-04-05T09:19:13.189Z</time></trkpt><trkpt lat="44.8060617" lon="9.6685"><ele>581.0</ele><time>2026-04-05T09:19:15.19Z</time></trkpt><trkpt lat="44.8060883" lon="9.6683517"><ele>581.0</ele><time>2026-04-05T09:19:17.188Z</time></trkpt><trkpt lat="44.8061767" lon="9.6682783"><ele>581.0</ele><time>2026-04-05T09:19:19.188Z</time></trkpt><trkpt lat="44.8063083" lon="9.6682533"><ele>584.0</ele><time>2026-04-05T09:19:21.188Z</time></trkpt><trkpt lat="44.80639" lon="9.6682533"><ele>587.0</ele><time>2026-04-05T09:19:22.188Z</time></trkpt><trkpt lat="44.8064617" lon="9.6682567"><ele>590.0</ele><time>2026-04-05T09:19:23.188Z</time></trkpt><trkpt lat="44.8065717" lon="9.6682217"><ele>593.0</ele><time>2026-04-05T09:19:25.191Z</time></trkpt><trkpt lat="44.8066067" lon="9.66811"><ele>596.0</ele><time>2026-04-05T09:19:27.188Z</time></trkpt><trkpt lat="44.8065667" lon="9.6680183"><ele>599.0</ele><time>2026-04-05T09:19:28.189Z</time></trkpt><trkpt lat="44.8065233" lon="9.667935"><ele>599.0</ele><time>2026-04-05T09:19:29.188Z</time></trkpt><trkpt lat="44.80648" lon="9.66785"><ele>599.0</ele><time>2026-04-05T09:19:30.189Z</time></trkpt><trkpt lat="44.8064433" lon="9.6677517"><ele>599.0</ele><time>2026-04-05T09:19:31.188Z</time></trkpt><trkpt lat="44.8064183" lon="9.667645"><ele>599.0</ele><time>2026-04-05T09:19:32.189Z</time></trkpt><trkpt lat="44.8064033" lon="9.6675333"><ele>599.0</ele><time>2026-04-05T09:19:33.187Z</time></trkpt><trkpt lat="44.8063917" lon="9.6674183"><ele>599.0</ele><time>2026-04-05T09:19:34.188Z</time></trkpt><trkpt lat="44.8063802" lon="9.6673004"><ele>600.6666666666666</ele><time>2026-04-05T09:19:35.188Z</time></trkpt><trkpt lat="44.8063692" lon="9.6671877"><ele>602.3333333333333</ele><time>2026-04-05T09:19:36.188Z</time></trkpt><trkpt lat="44.806359" lon="9.6670869"><ele>604.0</ele><time>2026-04-05T09:19:37.187Z</time></trkpt><trkpt lat="44.8063538" lon="9.6669804"><ele>605.6666666666666</ele><time>2026-04-05T09:19:38.188Z</time></trkpt><trkpt lat="44.8063496" lon="9.6668595"><ele>607.3333333333334</ele><time>2026-04-05T09:19:39.188Z</time></trkpt><trkpt lat="44.8063447" lon="9.6667287"><ele>609.0</ele><time>2026-04-05T09:19:40.187Z</time></trkpt><trkpt lat="44.8063448" lon="9.6665958"><ele>609.0</ele><time>2026-04-05T09:19:41.189Z</time></trkpt><trkpt lat="44.8063425" lon="9.666468"><ele>609.0</ele><time>2026-04-05T09:19:42.188Z</time></trkpt><trkpt lat="44.806327" lon="9.6663416"><ele>609.0</ele><time>2026-04-05T09:19:43.19Z</time></trkpt><trkpt lat="44.8062923" lon="9.6662185"><ele>609.0</ele><time>2026-04-05T09:19:44.19Z</time></trkpt><trkpt lat="44.8062449" lon="9.6661024"><ele>609.0</ele><time>2026-04-05T09:19:45.193Z</time></trkpt><trkpt lat="44.8061933" lon="9.665999"><ele>610.3333333333334</ele><time>2026-04-05T09:19:46.187Z</time></trkpt><trkpt lat="44.8061445" lon="9.6659092"><ele>611.6666666666666</ele><time>2026-04-05T09:19:47.188Z</time></trkpt><trkpt lat="44.8061052" lon="9.6658217"><ele>613.0</ele><time>2026-04-05T09:19:48.188Z</time></trkpt><trkpt lat="44.8060753" lon="9.6657284"><ele>614.3333333333333</ele><time>2026-04-05T09:19:49.188Z</time></trkpt><trkpt lat="44.8060391" lon="9.6656283"><ele>615.6666666666666</ele><time>2026-04-05T09:19:50.188Z</time></trkpt><trkpt lat="44.805985" lon="9.6655234"><ele>617.0</ele><time>2026-04-05T09:19:51.188Z</time></trkpt><trkpt lat="44.8059254" lon="9.6654246"><ele>617.0</ele><time>2026-04-05T09:19:52.188Z</time></trkpt><trkpt lat="44.8058755" lon="9.6653429"><ele>617.0</ele><time>2026-04-05T09:19:53.187Z</time></trkpt><trkpt lat="44.8058359" lon="9.6652663"><ele>617.0</ele><time>2026-04-05T09:19:54.188Z</time></trkpt><trkpt lat="44.8058044" lon="9.6651857"><ele>617.0</ele><time>2026-04-05T09:19:55.187Z</time></trkpt><trkpt lat="44.8057792" lon="9.6650972"><ele>617.0</ele><time>2026-04-05T09:19:56.189Z</time></trkpt><trkpt lat="44.8057527" lon="9.6650116"><ele>617.0</ele><time>2026-04-05T09:19:57.189Z</time></trkpt><trkpt lat="44.8057205" lon="9.6649262"><ele>617.0</ele><time>2026-04-05T09:19:58.191Z</time></trkpt><trkpt lat="44.8056879" lon="9.6648445"><ele>617.8000000000001</ele><time>2026-04-05T09:19:59.187Z</time></trkpt><trkpt lat="44.8056214" lon="9.6646984"><ele>618.6</ele><time>2026-04-05T09:20:01.187Z</time></trkpt><trkpt lat="44.8055662" lon="9.664565"><ele>619.4000000000001</ele><time>2026-04-05T09:20:03.189Z</time></trkpt><trkpt lat="44.8055493" lon="9.6644043"><ele>620.2</ele><time>2026-04-05T09:20:05.188Z</time></trkpt><trkpt lat="44.8055577" lon="9.6642942"><ele>621.0</ele><time>2026-04-05T09:20:06.189Z</time></trkpt><trkpt lat="44.8055717" lon="9.6641801"><ele>621.6666666666666</ele><time>2026-04-05T09:20:07.188Z</time></trkpt><trkpt lat="44.8055859" lon="9.6640812"><ele>622.3333333333334</ele><time>2026-04-05T09:20:08.189Z</time></trkpt><trkpt lat="44.8055963" lon="9.6639911"><ele>623.0</ele><time>2026-04-05T09:20:09.188Z</time></trkpt><trkpt lat="44.8056034" lon="9.6638344"><ele>623.6666666666667</ele><time>2026-04-05T09:20:11.188Z</time></trkpt><trkpt lat="44.80561" lon="9.6637112"><ele>624.3333333333334</ele><time>2026-04-05T09:20:13.187Z</time></trkpt><trkpt lat="44.8056053" lon="9.6635962"><ele>625.0</ele><time>2026-04-05T09:20:15.189Z</time></trkpt><trkpt lat="44.8055822" lon="9.6634717"><ele>627.5</ele><time>2026-04-05T09:20:17.187Z</time></trkpt><trkpt lat="44.8055118" lon="9.6633111"><ele>630.0</ele><time>2026-04-05T09:20:19.188Z</time></trkpt><trkpt lat="44.8054687" lon="9.6632295"><ele>632.5</ele><time>2026-04-05T09:20:20.189Z</time></trkpt><trkpt lat="44.8054203" lon="9.6631642"><ele>635.0</ele><time>2026-04-05T09:20:21.188Z</time></trkpt><trkpt lat="44.8053615" lon="9.6631142"><ele>637.5</ele><time>2026-04-05T09:20:22.188Z</time></trkpt><trkpt lat="44.8052975" lon="9.6630699"><ele>640.0</ele><time>2026-04-05T09:20:23.188Z</time></trkpt><trkpt lat="44.8052409" lon="9.6630224"><ele>640.0</ele><time>2026-04-05T09:20:24.187Z</time></trkpt><trkpt lat="44.8051933" lon="9.66296"><ele>640.0</ele><time>2026-04-05T09:20:25.187Z</time></trkpt><trkpt lat="44.8051478" lon="9.6628745"><ele>640.0</ele><time>2026-04-05T09:20:26.188Z</time></trkpt><trkpt lat="44.8051029" lon="9.6627581"><ele>640.0</ele><time>2026-04-05T09:20:27.189Z</time></trkpt><trkpt lat="44.8050502" lon="9.6626371"><ele>640.0</ele><time>2026-04-05T09:20:28.187Z</time></trkpt><trkpt lat="44.8049937" lon="9.6625228"><ele>640.0</ele><time>2026-04-05T09:20:29.187Z</time></trkpt><trkpt lat="44.8049455" lon="9.6624219"><ele>642.3333333333334</ele><time>2026-04-05T09:20:30.187Z</time></trkpt><trkpt lat="44.8049108" lon="9.6623284"><ele>644.6666666666667</ele><time>2026-04-05T09:20:31.189Z</time></trkpt><trkpt lat="44.8048849" lon="9.6622372"><ele>647.0</ele><time>2026-04-05T09:20:32.189Z</time></trkpt><trkpt lat="44.8048565" lon="9.6621182"><ele>649.3333333333334</ele><time>2026-04-05T09:20:34.187Z</time></trkpt><trkpt lat="44.8048553" lon="9.6620269"><ele>651.6666666666666</ele><time>2026-04-05T09:20:51.187Z</time></trkpt><trkpt lat="44.804842" lon="9.6619222"><ele>654.0</ele><time>2026-04-05T09:20:52.187Z</time></trkpt><trkpt lat="44.804813" lon="9.661791"><ele>655.3333333333334</ele><time>2026-04-05T09:20:53.189Z</time></trkpt><trkpt lat="44.8047871" lon="9.661664"><ele>656.6666666666666</ele><time>2026-04-05T09:20:54.187Z</time></trkpt><trkpt lat="44.8047738" lon="9.661547"><ele>658.0</ele><time>2026-04-05T09:20:55.187Z</time></trkpt><trkpt lat="44.8047776" lon="9.6614364"><ele>659.3333333333333</ele><time>2026-04-05T09:20:56.188Z</time></trkpt><trkpt lat="44.8047959" lon="9.6613281"><ele>660.6666666666666</ele><time>2026-04-05T09:20:57.188Z</time></trkpt><trkpt lat="44.8048233" lon="9.6612035"><ele>662.0</ele><time>2026-04-05T09:20:58.187Z</time></trkpt><trkpt lat="44.8048428" lon="9.6610599"><ele>662.0</ele><time>2026-04-05T09:20:59.187Z</time></trkpt><trkpt lat="44.8048464" lon="9.660919"><ele>662.0</ele><time>2026-04-05T09:21:00.187Z</time></trkpt><trkpt lat="44.8048369" lon="9.6608008"><ele>662.0</ele><time>2026-04-05T09:21:01.188Z</time></trkpt><trkpt lat="44.8048139" lon="9.6607042"><ele>662.0</ele><time>2026-04-05T09:21:02.188Z</time></trkpt><trkpt lat="44.8047777" lon="9.6606275"><ele>662.0</ele><time>2026-04-05T09:21:03.187Z</time></trkpt><trkpt lat="44.8046949" lon="9.6605415"><ele>662.0</ele><time>2026-04-05T09:21:05.187Z</time></trkpt><trkpt lat="44.8046077" lon="9.660523"><ele>662.0</ele><time>2026-04-05T09:21:07.187Z</time></trkpt><trkpt lat="44.8044768" lon="9.6604838"><ele>662.0</ele><time>2026-04-05T09:21:09.188Z</time></trkpt><trkpt lat="44.8043885" lon="9.6604384"><ele>662.0</ele><time>2026-04-05T09:21:10.188Z</time></trkpt><trkpt lat="44.804301" lon="9.6603894"><ele>662.0</ele><time>2026-04-05T09:21:11.187Z</time></trkpt><trkpt lat="44.8042252" lon="9.6603389"><ele>662.0</ele><time>2026-04-05T09:21:12.188Z</time></trkpt><trkpt lat="44.8041604" lon="9.6602827"><ele>664.0</ele><time>2026-04-05T09:21:13.187Z</time></trkpt><trkpt lat="44.8041019" lon="9.6602117"><ele>666.0</ele><time>2026-04-05T09:21:14.188Z</time></trkpt><trkpt lat="44.804047" lon="9.6601278"><ele>668.0</ele><time>2026-04-05T09:21:15.188Z</time></trkpt><trkpt lat="44.8039963" lon="9.6600352"><ele>670.0</ele><time>2026-04-05T09:21:16.188Z</time></trkpt><trkpt lat="44.8039446" lon="9.6599256"><ele>672.0</ele><time>2026-04-05T09:21:17.187Z</time></trkpt><trkpt lat="44.8038874" lon="9.6598087"><ele>674.0</ele><time>2026-04-05T09:21:18.187Z</time></trkpt><trkpt lat="44.803835" lon="9.6596884"><ele>674.0</ele><time>2026-04-05T09:21:19.188Z</time></trkpt><trkpt lat="44.8037917" lon="9.6595589"><ele>674.0</ele><time>2026-04-05T09:21:20.189Z</time></trkpt><trkpt lat="44.8037549" lon="9.6594284"><ele>674.0</ele><time>2026-04-05T09:21:21.187Z</time></trkpt><trkpt lat="44.8037277" lon="9.6593087"><ele>674.0</ele><time>2026-04-05T09:21:22.188Z</time></trkpt><trkpt lat="44.8037083" lon="9.6591807"><ele>674.0</ele><time>2026-04-05T09:21:23.188Z</time></trkpt><trkpt lat="44.803691" lon="9.65903"><ele>673.8000000000001</ele><time>2026-04-05T09:21:24.189Z</time></trkpt><trkpt lat="44.8036658" lon="9.6588768"><ele>673.6</ele><time>2026-04-05T09:21:25.187Z</time></trkpt><trkpt lat="44.8036379" lon="9.6587366"><ele>673.4</ele><time>2026-04-05T09:21:26.188Z</time></trkpt><trkpt lat="44.8035962" lon="9.6586104"><ele>673.2</ele><time>2026-04-05T09:21:27.188Z</time></trkpt><trkpt lat="44.8035393" lon="9.6584896"><ele>673.0</ele><time>2026-04-05T09:21:28.189Z</time></trkpt><trkpt lat="44.8034703" lon="9.6583778"><ele>675.4</ele><time>2026-04-05T09:21:29.19Z</time></trkpt><trkpt lat="44.8033955" lon="9.6582646"><ele>677.8</ele><time>2026-04-05T09:21:30.188Z</time></trkpt><trkpt lat="44.803324" lon="9.6581628"><ele>680.2</ele><time>2026-04-05T09:21:31.189Z</time></trkpt><trkpt lat="44.8032608" lon="9.6580674"><ele>682.6</ele><time>2026-04-05T09:21:32.188Z</time></trkpt><trkpt lat="44.8031992" lon="9.6579684"><ele>685.0</ele><time>2026-04-05T09:21:33.188Z</time></trkpt><trkpt lat="44.8031497" lon="9.6578676"><ele>687.0</ele><time>2026-04-05T09:21:34.188Z</time></trkpt><trkpt lat="44.803113" lon="9.6577566"><ele>689.0</ele><time>2026-04-05T09:21:35.188Z</time></trkpt><trkpt lat="44.8030864" lon="9.657638"><ele>691.0</ele><time>2026-04-05T09:21:36.188Z</time></trkpt><trkpt lat="44.8030607" lon="9.6575223"><ele>693.0</ele><time>2026-04-05T09:21:37.188Z</time></trkpt><trkpt lat="44.8030276" lon="9.6574241"><ele>695.0</ele><time>2026-04-05T09:21:38.189Z</time></trkpt><trkpt lat="44.8029763" lon="9.6573542"><ele>697.0</ele><time>2026-04-05T09:21:39.188Z</time></trkpt><trkpt lat="44.8029067" lon="9.6572992"><ele>697.0</ele><time>2026-04-05T09:21:40.192Z</time></trkpt><trkpt lat="44.8028203" lon="9.6572359"><ele>697.0</ele><time>2026-04-05T09:21:41.188Z</time></trkpt><trkpt lat="44.8027309" lon="9.6571628"><ele>697.0</ele><time>2026-04-05T09:21:42.188Z</time></trkpt><trkpt lat="44.8026512" lon="9.65708"><ele>697.0</ele><time>2026-04-05T09:21:43.189Z</time></trkpt><trkpt lat="44.802581" lon="9.6570078"><ele>697.0</ele><time>2026-04-05T09:21:44.188Z</time></trkpt><trkpt lat="44.8025155" lon="9.6569549"><ele>699.1666666666667</ele><time>2026-04-05T09:21:45.188Z</time></trkpt><trkpt lat="44.802452" lon="9.6569186"><ele>701.3333333333334</ele><time>2026-04-05T09:21:46.189Z</time></trkpt><trkpt lat="44.8023832" lon="9.6568976"><ele>703.5</ele><time>2026-04-05T09:21:47.188Z</time></trkpt><trkpt lat="44.8023038" lon="9.6568993"><ele>705.6666666666666</ele><time>2026-04-05T09:21:48.188Z</time></trkpt><trkpt lat="44.8022066" lon="9.6569212"><ele>707.8333333333333</ele><time>2026-04-05T09:21:49.188Z</time></trkpt><trkpt lat="44.8021044" lon="9.6569359"><ele>710.0</ele><time>2026-04-05T09:21:50.189Z</time></trkpt><trkpt lat="44.8020133" lon="9.6569366"><ele>710.0</ele><time>2026-04-05T09:21:51.188Z</time></trkpt><trkpt lat="44.8019373" lon="9.6569223"><ele>710.0</ele><time>2026-04-05T09:21:52.188Z</time></trkpt><trkpt lat="44.8018699" lon="9.6568846"><ele>710.0</ele><time>2026-04-05T09:21:53.188Z</time></trkpt><trkpt lat="44.8018037" lon="9.6568211"><ele>710.0</ele><time>2026-04-05T09:21:54.188Z</time></trkpt><trkpt lat="44.8017316" lon="9.6567347"><ele>710.0</ele><time>2026-04-05T09:21:55.188Z</time></trkpt><trkpt lat="44.8016557" lon="9.6566293"><ele>710.0</ele><time>2026-04-05T09:21:56.194Z</time></trkpt><trkpt lat="44.8015814" lon="9.6565251"><ele>710.2</ele><time>2026-04-05T09:21:57.188Z</time></trkpt><trkpt lat="44.8015053" lon="9.6564389"><ele>710.4</ele><time>2026-04-05T09:21:58.188Z</time></trkpt><trkpt lat="44.801425" lon="9.656371"><ele>710.5999999999999</ele><time>2026-04-05T09:21:59.188Z</time></trkpt><trkpt lat="44.8013406" lon="9.6563254"><ele>710.8</ele><time>2026-04-05T09:22:00.188Z</time></trkpt><trkpt lat="44.8012499" lon="9.6562943"><ele>711.0</ele><time>2026-04-05T09:22:01.188Z</time></trkpt><trkpt lat="44.8011571" lon="9.6562657"><ele>711.0</ele><time>2026-04-05T09:22:02.189Z</time></trkpt><trkpt lat="44.8010641" lon="9.6562244"><ele>711.0</ele><time>2026-04-05T09:22:03.189Z</time></trkpt><trkpt lat="44.8009784" lon="9.6561829"><ele>711.0</ele><time>2026-04-05T09:22:04.189Z</time></trkpt><trkpt lat="44.8008973" lon="9.6561367"><ele>711.0</ele><time>2026-04-05T09:22:05.188Z</time></trkpt><trkpt lat="44.8008204" lon="9.6560867"><ele>711.0</ele><time>2026-04-05T09:22:06.19Z</time></trkpt><trkpt lat="44.8007398" lon="9.6560481"><ele>711.0</ele><time>2026-04-05T09:22:07.19Z</time></trkpt><trkpt lat="44.8006553" lon="9.6560263"><ele>711.5</ele><time>2026-04-05T09:22:08.19Z</time></trkpt><trkpt lat="44.8005633" lon="9.6560234"><ele>712.0</ele><time>2026-04-05T09:22:09.19Z</time></trkpt><trkpt lat="44.800472" lon="9.6560313"><ele>712.5</ele><time>2026-04-05T09:22:10.19Z</time></trkpt><trkpt lat="44.8003868" lon="9.656043"><ele>713.0</ele><time>2026-04-05T09:22:11.189Z</time></trkpt><trkpt lat="44.8003075" lon="9.6560686"><ele>713.5</ele><time>2026-04-05T09:22:12.19Z</time></trkpt><trkpt lat="44.8002314" lon="9.656113"><ele>714.0</ele><time>2026-04-05T09:22:13.191Z</time></trkpt><trkpt lat="44.8001681" lon="9.6561741"><ele>716.1666666666666</ele><time>2026-04-05T09:22:14.19Z</time></trkpt><trkpt lat="44.8001226" lon="9.6562535"><ele>718.3333333333334</ele><time>2026-04-05T09:22:15.189Z</time></trkpt><trkpt lat="44.8000848" lon="9.6563439"><ele>720.5</ele><time>2026-04-05T09:22:16.193Z</time></trkpt><trkpt lat="44.800068" lon="9.656441"><ele>722.6666666666667</ele><time>2026-04-05T09:22:17.189Z</time></trkpt><trkpt lat="44.8000597" lon="9.6565531"><ele>724.8333333333334</ele><time>2026-04-05T09:22:18.189Z</time></trkpt><trkpt lat="44.8000486" lon="9.6566507"><ele>727.0</ele><time>2026-04-05T09:22:19.189Z</time></trkpt><trkpt lat="44.7999939" lon="9.6567743"><ele>727.0</ele><time>2026-04-05T09:22:21.191Z</time></trkpt><trkpt lat="44.7999104" lon="9.6568018"><ele>727.0</ele><time>2026-04-05T09:22:23.188Z</time></trkpt><trkpt lat="44.7998081" lon="9.656724"><ele>727.0</ele><time>2026-04-05T09:22:25.188Z</time></trkpt><trkpt lat="44.7997515" lon="9.6566442"><ele>727.0</ele><time>2026-04-05T09:22:26.188Z</time></trkpt><trkpt lat="44.7996772" lon="9.6565481"><ele>727.0</ele><time>2026-04-05T09:22:27.189Z</time></trkpt><trkpt lat="44.7995854" lon="9.6564461"><ele>727.0</ele><time>2026-04-05T09:22:28.188Z</time></trkpt><trkpt lat="44.7994976" lon="9.6563391"><ele>727.0</ele><time>2026-04-05T09:22:29.189Z</time></trkpt><trkpt lat="44.7994173" lon="9.6562261"><ele>727.0</ele><time>2026-04-05T09:22:30.187Z</time></trkpt><trkpt lat="44.7993388" lon="9.6561054"><ele>727.0</ele><time>2026-04-05T09:22:31.187Z</time></trkpt><trkpt lat="44.7992621" lon="9.6559791"><ele>728.75</ele><time>2026-04-05T09:22:32.189Z</time></trkpt><trkpt lat="44.799187" lon="9.6558466"><ele>730.5</ele><time>2026-04-05T09:22:33.19Z</time></trkpt><trkpt lat="44.7991095" lon="9.6557042"><ele>732.25</ele><time>2026-04-05T09:22:34.189Z</time></trkpt><trkpt lat="44.7990263" lon="9.6555609"><ele>734.0</ele><time>2026-04-05T09:22:35.189Z</time></trkpt><trkpt lat="44.7989282" lon="9.655411"><ele>735.25</ele><time>2026-04-05T09:22:36.189Z</time></trkpt><trkpt lat="44.7988237" lon="9.6552622"><ele>736.5</ele><time>2026-04-05T09:22:37.188Z</time></trkpt><trkpt lat="44.7987238" lon="9.6551294"><ele>737.75</ele><time>2026-04-05T09:22:38.188Z</time></trkpt><trkpt lat="44.7986354" lon="9.655022"><ele>739.0</ele><time>2026-04-05T09:22:39.189Z</time></trkpt><trkpt lat="44.7985576" lon="9.6549325"><ele>737.4000000000001</ele><time>2026-04-05T09:22:40.189Z</time></trkpt><trkpt lat="44.7984832" lon="9.654852"><ele>735.8</ele><time>2026-04-05T09:22:41.189Z</time></trkpt><trkpt lat="44.7984046" lon="9.6547796"><ele>734.2</ele><time>2026-04-05T09:22:42.188Z</time></trkpt><trkpt lat="44.79832" lon="9.6547078"><ele>732.5999999999999</ele><time>2026-04-05T09:22:43.192Z</time></trkpt><trkpt lat="44.7982378" lon="9.6546404"><ele>731.0</ele><time>2026-04-05T09:22:44.188Z</time></trkpt><trkpt lat="44.7981642" lon="9.6545839"><ele>731.0</ele><time>2026-04-05T09:22:45.188Z</time></trkpt><trkpt lat="44.7980989" lon="9.6545384"><ele>731.0</ele><time>2026-04-05T09:22:46.188Z</time></trkpt><trkpt lat="44.7980357" lon="9.6544983"><ele>731.0</ele><time>2026-04-05T09:22:47.189Z</time></trkpt><trkpt lat="44.7979779" lon="9.6544543"><ele>731.0</ele><time>2026-04-05T09:22:48.189Z</time></trkpt><trkpt lat="44.7978779" lon="9.6543723"><ele>731.0</ele><time>2026-04-05T09:22:50.188Z</time></trkpt><trkpt lat="44.7977789" lon="9.6542861"><ele>731.0</ele><time>2026-04-05T09:22:52.188Z</time></trkpt><trkpt lat="44.7976851" lon="9.6541664"><ele>731.5</ele><time>2026-04-05T09:22:54.188Z</time></trkpt><trkpt lat="44.7976399" lon="9.6540923"><ele>732.0</ele><time>2026-04-05T09:22:55.189Z</time></trkpt><trkpt lat="44.7975952" lon="9.6540157"><ele>732.5</ele><time>2026-04-05T09:22:56.188Z</time></trkpt><trkpt lat="44.7975542" lon="9.6539439"><ele>733.0</ele><time>2026-04-05T09:22:57.188Z</time></trkpt><trkpt lat="44.7974782" lon="9.6538289"><ele>733.5</ele><time>2026-04-05T09:22:59.188Z</time></trkpt><trkpt lat="44.7973912" lon="9.6537281"><ele>734.0</ele><time>2026-04-05T09:23:01.188Z</time></trkpt><trkpt lat="44.797337" lon="9.6536827"><ele>734.0</ele><time>2026-04-05T09:23:02.189Z</time></trkpt><trkpt lat="44.7972249" lon="9.6536366"><ele>734.0</ele><time>2026-04-05T09:23:04.187Z</time></trkpt><trkpt lat="44.7971293" lon="9.653611"><ele>734.0</ele><time>2026-04-05T09:23:06.188Z</time></trkpt><trkpt lat="44.7970449" lon="9.6535906"><ele>734.0</ele><time>2026-04-05T09:23:08.188Z</time></trkpt><trkpt lat="44.7969571" lon="9.6535589"><ele>734.0</ele><time>2026-04-05T09:23:10.188Z</time></trkpt><trkpt lat="44.7968717" lon="9.653506"><ele>733.5</ele><time>2026-04-05T09:23:12.189Z</time></trkpt><trkpt lat="44.7967972" lon="9.6534195"><ele>733.0</ele><time>2026-04-05T09:23:14.189Z</time></trkpt><trkpt lat="44.7967372" lon="9.6533041"><ele>732.5</ele><time>2026-04-05T09:23:16.188Z</time></trkpt><trkpt lat="44.7967034" lon="9.6532268"><ele>732.0</ele><time>2026-04-05T09:23:17.189Z</time></trkpt><trkpt lat="44.7966683" lon="9.6531443"><ele>731.5</ele><time>2026-04-05T09:23:18.189Z</time></trkpt><trkpt lat="44.7966346" lon="9.6530646"><ele>731.0</ele><time>2026-04-05T09:23:19.188Z</time></trkpt><trkpt lat="44.7965599" lon="9.6529376"><ele>731.0</ele><time>2026-04-05T09:23:21.188Z</time></trkpt><trkpt lat="44.7965051" lon="9.6528933"><ele>731.0</ele><time>2026-04-05T09:23:22.188Z</time></trkpt><trkpt lat="44.7964326" lon="9.6528638"><ele>731.0</ele><time>2026-04-05T09:23:23.189Z</time></trkpt><trkpt lat="44.7963538" lon="9.6528385"><ele>731.0</ele><time>2026-04-05T09:23:24.188Z</time></trkpt><trkpt lat="44.7962686" lon="9.6528126"><ele>731.0</ele><time>2026-04-05T09:23:25.188Z</time></trkpt><trkpt lat="44.7961768" lon="9.6527922"><ele>731.0</ele><time>2026-04-05T09:23:26.188Z</time></trkpt><trkpt lat="44.7960844" lon="9.6527699"><ele>729.3333333333333</ele><time>2026-04-05T09:23:27.189Z</time></trkpt><trkpt lat="44.7959926" lon="9.6527444"><ele>727.6666666666666</ele><time>2026-04-05T09:23:28.189Z</time></trkpt><trkpt lat="44.7959088" lon="9.6527198"><ele>726.0</ele><time>2026-04-05T09:23:29.188Z</time></trkpt><trkpt lat="44.7958301" lon="9.6527007"><ele>724.3333333333334</ele><time>2026-04-05T09:23:30.188Z</time></trkpt><trkpt lat="44.7957579" lon="9.6526811"><ele>722.6666666666667</ele><time>2026-04-05T09:23:31.19Z</time></trkpt><trkpt lat="44.795682" lon="9.6526587"><ele>721.0</ele><time>2026-04-05T09:23:32.189Z</time></trkpt><trkpt lat="44.7956016" lon="9.6526251"><ele>721.0</ele><time>2026-04-05T09:23:33.188Z</time></trkpt><trkpt lat="44.7955194" lon="9.6525821"><ele>721.0</ele><time>2026-04-05T09:23:34.19Z</time></trkpt><trkpt lat="44.7954263" lon="9.652542"><ele>721.0</ele><time>2026-04-05T09:23:35.189Z</time></trkpt><trkpt lat="44.7953291" lon="9.6525164"><ele>721.0</ele><time>2026-04-05T09:23:36.188Z</time></trkpt><trkpt lat="44.7952345" lon="9.6524983"><ele>721.0</ele><time>2026-04-05T09:23:37.188Z</time></trkpt><trkpt lat="44.7951504" lon="9.652482"><ele>720.0</ele><time>2026-04-05T09:23:38.189Z</time></trkpt><trkpt lat="44.7950727" lon="9.6524603"><ele>719.0</ele><time>2026-04-05T09:23:39.192Z</time></trkpt><trkpt lat="44.7949897" lon="9.6524278"><ele>718.0</ele><time>2026-04-05T09:23:40.189Z</time></trkpt><trkpt lat="44.7948991" lon="9.652389"><ele>717.0</ele><time>2026-04-05T09:23:41.192Z</time></trkpt><trkpt lat="44.7948043" lon="9.6523505"><ele>716.0</ele><time>2026-04-05T09:23:42.188Z</time></trkpt><trkpt lat="44.7947103" lon="9.6523219"><ele>716.0</ele><time>2026-04-05T09:23:43.188Z</time></trkpt><trkpt lat="44.7946197" lon="9.6523048"><ele>716.0</ele><time>2026-04-05T09:23:44.188Z</time></trkpt><trkpt lat="44.7945285" lon="9.6523026"><ele>716.0</ele><time>2026-04-05T09:23:45.188Z</time></trkpt><trkpt lat="44.794433" lon="9.6523148"><ele>716.0</ele><time>2026-04-05T09:23:46.189Z</time></trkpt><trkpt lat="44.7943334" lon="9.6523369"><ele>716.0</ele><time>2026-04-05T09:23:47.188Z</time></trkpt><trkpt lat="44.7942396" lon="9.6523675"><ele>715.8333333333333</ele><time>2026-04-05T09:23:48.188Z</time></trkpt><trkpt lat="44.794164" lon="9.6523972"><ele>715.6666666666666</ele><time>2026-04-05T09:23:49.189Z</time></trkpt><trkpt lat="44.7940956" lon="9.6524133"><ele>715.5</ele><time>2026-04-05T09:23:50.19Z</time></trkpt><trkpt lat="44.7940311" lon="9.6524113"><ele>715.3333333333334</ele><time>2026-04-05T09:23:51.188Z</time></trkpt><trkpt lat="44.7939163" lon="9.6523526"><ele>715.1666666666667</ele><time>2026-04-05T09:23:53.189Z</time></trkpt><trkpt lat="44.7938556" lon="9.6523004"><ele>715.0</ele><time>2026-04-05T09:23:54.188Z</time></trkpt><trkpt lat="44.7937954" lon="9.6522383"><ele>715.0</ele><time>2026-04-05T09:23:55.189Z</time></trkpt><trkpt lat="44.7937308" lon="9.6521684"><ele>715.0</ele><time>2026-04-05T09:23:56.188Z</time></trkpt><trkpt lat="44.7936588" lon="9.6520939"><ele>715.0</ele><time>2026-04-05T09:23:57.188Z</time></trkpt><trkpt lat="44.7935827" lon="9.652011"><ele>715.0</ele><time>2026-04-05T09:23:58.189Z</time></trkpt><trkpt lat="44.7935019" lon="9.6519206"><ele>715.0</ele><time>2026-04-05T09:23:59.188Z</time></trkpt><trkpt lat="44.7934195" lon="9.6518308"><ele>715.8</ele><time>2026-04-05T09:24:00.188Z</time></trkpt><trkpt lat="44.7933323" lon="9.6517485"><ele>716.6</ele><time>2026-04-05T09:24:01.187Z</time></trkpt><trkpt lat="44.7932397" lon="9.6516729"><ele>717.4000000000001</ele><time>2026-04-05T09:24:02.188Z</time></trkpt><trkpt lat="44.7931424" lon="9.6516034"><ele>718.2</ele><time>2026-04-05T09:24:03.188Z</time></trkpt><trkpt lat="44.79305" lon="9.6515402"><ele>719.0</ele><time>2026-04-05T09:24:04.188Z</time></trkpt><trkpt lat="44.7929668" lon="9.6514802"><ele>719.0</ele><time>2026-04-05T09:24:05.192Z</time></trkpt><trkpt lat="44.7928824" lon="9.6514145"><ele>719.0</ele><time>2026-04-05T09:24:06.189Z</time></trkpt><trkpt lat="44.7927954" lon="9.6513319"><ele>719.0</ele><time>2026-04-05T09:24:07.189Z</time></trkpt><trkpt lat="44.7927132" lon="9.6512378"><ele>719.0</ele><time>2026-04-05T09:24:08.192Z</time></trkpt><trkpt lat="44.7926337" lon="9.6511454"><ele>719.0</ele><time>2026-04-05T09:24:09.188Z</time></trkpt><trkpt lat="44.7925448" lon="9.6510583"><ele>720.4000000000001</ele><time>2026-04-05T09:24:10.189Z</time></trkpt><trkpt lat="44.7924506" lon="9.650978"><ele>721.8</ele><time>2026-04-05T09:24:11.189Z</time></trkpt><trkpt lat="44.7923573" lon="9.6509053"><ele>723.2</ele><time>2026-04-05T09:24:12.189Z</time></trkpt><trkpt lat="44.7922612" lon="9.6508389"><ele>724.5999999999999</ele><time>2026-04-05T09:24:13.188Z</time></trkpt><trkpt lat="44.7921643" lon="9.6507727"><ele>726.0</ele><time>2026-04-05T09:24:14.189Z</time></trkpt><trkpt lat="44.7920621" lon="9.6507076"><ele>726.0</ele><time>2026-04-05T09:24:15.188Z</time></trkpt><trkpt lat="44.791958" lon="9.650636"><ele>726.0</ele><time>2026-04-05T09:24:16.188Z</time></trkpt><trkpt lat="44.7918666" lon="9.6505723"><ele>726.0</ele><time>2026-04-05T09:24:17.19Z</time></trkpt><trkpt lat="44.7917832" lon="9.6505151"><ele>726.0</ele><time>2026-04-05T09:24:18.189Z</time></trkpt><trkpt lat="44.7917044" lon="9.6504461"><ele>726.0</ele><time>2026-04-05T09:24:19.191Z</time></trkpt><trkpt lat="44.7916323" lon="9.6503649"><ele>727.1666666666666</ele><time>2026-04-05T09:24:20.19Z</time></trkpt><trkpt lat="44.7915659" lon="9.6502814"><ele>728.3333333333334</ele><time>2026-04-05T09:24:21.19Z</time></trkpt><trkpt lat="44.7914977" lon="9.6502002"><ele>729.5</ele><time>2026-04-05T09:24:22.19Z</time></trkpt><trkpt lat="44.7914284" lon="9.6501204"><ele>730.6666666666667</ele><time>2026-04-05T09:24:23.189Z</time></trkpt><trkpt lat="44.7913666" lon="9.6500353"><ele>731.8333333333334</ele><time>2026-04-05T09:24:24.188Z</time></trkpt><trkpt lat="44.7913116" lon="9.6499466"><ele>733.0</ele><time>2026-04-05T09:24:25.188Z</time></trkpt><trkpt lat="44.7912563" lon="9.6498492"><ele>733.0</ele><time>2026-04-05T09:24:26.188Z</time></trkpt><trkpt lat="44.7912002" lon="9.6497337"><ele>733.0</ele><time>2026-04-05T09:24:27.189Z</time></trkpt><trkpt lat="44.7911484" lon="9.6496259"><ele>733.0</ele><time>2026-04-05T09:24:28.188Z</time></trkpt><trkpt lat="44.7910996" lon="9.6495362"><ele>733.0</ele><time>2026-04-05T09:24:29.188Z</time></trkpt><trkpt lat="44.7910501" lon="9.6494703"><ele>733.0</ele><time>2026-04-05T09:24:30.189Z</time></trkpt><trkpt lat="44.7909924" lon="9.6494309"><ele>733.0</ele><time>2026-04-05T09:24:31.188Z</time></trkpt><trkpt lat="44.7909197" lon="9.6494113"><ele>734.2</ele><time>2026-04-05T09:24:32.189Z</time></trkpt><trkpt lat="44.790828" lon="9.6494193"><ele>735.4</ele><time>2026-04-05T09:24:33.189Z</time></trkpt><trkpt lat="44.7907364" lon="9.6494326"><ele>736.6</ele><time>2026-04-05T09:24:34.188Z</time></trkpt><trkpt lat="44.7906428" lon="9.6494504"><ele>737.8000000000001</ele><time>2026-04-05T09:24:35.189Z</time></trkpt><trkpt lat="44.7905434" lon="9.6494729"><ele>739.0</ele><time>2026-04-05T09:24:36.19Z</time></trkpt><trkpt lat="44.7904455" lon="9.6494923"><ele>735.5</ele><time>2026-04-05T09:24:37.193Z</time></trkpt><trkpt lat="44.790355" lon="9.6495144"><ele>732.0</ele><time>2026-04-05T09:24:38.191Z</time></trkpt><trkpt lat="44.7902718" lon="9.6495318"><ele>728.5</ele><time>2026-04-05T09:24:39.189Z</time></trkpt><trkpt lat="44.7901956" lon="9.6495443"><ele>725.0</ele><time>2026-04-05T09:24:40.189Z</time></trkpt><trkpt lat="44.7901198" lon="9.6495536"><ele>721.5</ele><time>2026-04-05T09:24:41.189Z</time></trkpt><trkpt lat="44.7900474" lon="9.6495562"><ele>718.0</ele><time>2026-04-05T09:24:42.188Z</time></trkpt><trkpt lat="44.7899772" lon="9.6495508"><ele>716.8333333333334</ele><time>2026-04-05T09:24:43.188Z</time></trkpt><trkpt lat="44.7899074" lon="9.6495358"><ele>715.6666666666667</ele><time>2026-04-05T09:24:44.19Z</time></trkpt><trkpt lat="44.7898373" lon="9.6495079"><ele>714.5</ele><time>2026-04-05T09:24:45.189Z</time></trkpt><trkpt lat="44.7897635" lon="9.6494725"><ele>713.3333333333334</ele><time>2026-04-05T09:24:46.189Z</time></trkpt><trkpt lat="44.7896874" lon="9.6494372"><ele>712.1666666666666</ele><time>2026-04-05T09:24:47.188Z</time></trkpt><trkpt lat="44.7896134" lon="9.6494041"><ele>711.0</ele><time>2026-04-05T09:24:48.188Z</time></trkpt><trkpt lat="44.7895456" lon="9.6493664"><ele>711.3333333333334</ele><time>2026-04-05T09:24:49.188Z</time></trkpt><trkpt lat="44.7894885" lon="9.6493186"><ele>711.6666666666666</ele><time>2026-04-05T09:24:50.189Z</time></trkpt><trkpt lat="44.7893941" lon="9.6491999"><ele>712.0</ele><time>2026-04-05T09:24:52.19Z</time></trkpt><trkpt lat="44.7893551" lon="9.6491116"><ele>712.3333333333333</ele><time>2026-04-05T09:24:53.189Z</time></trkpt><trkpt lat="44.7893125" lon="9.6490139"><ele>712.6666666666666</ele><time>2026-04-05T09:24:54.189Z</time></trkpt><trkpt lat="44.7892648" lon="9.6489079"><ele>713.0</ele><time>2026-04-05T09:24:55.189Z</time></trkpt><trkpt lat="44.78921" lon="9.6488022"><ele>713.0</ele><time>2026-04-05T09:24:56.189Z</time></trkpt><trkpt lat="44.7891542" lon="9.648699"><ele>713.0</ele><time>2026-04-05T09:24:57.19Z</time></trkpt><trkpt lat="44.7890969" lon="9.6485984"><ele>713.0</ele><time>2026-04-05T09:24:58.189Z</time></trkpt><trkpt lat="44.7890343" lon="9.6484983"><ele>713.0</ele><time>2026-04-05T09:24:59.19Z</time></trkpt><trkpt lat="44.7889707" lon="9.6483918"><ele>713.0</ele><time>2026-04-05T09:25:00.189Z</time></trkpt><trkpt lat="44.7889101" lon="9.6482849"><ele>713.5999999999999</ele><time>2026-04-05T09:25:01.189Z</time></trkpt><trkpt lat="44.7888507" lon="9.648174"><ele>714.1999999999999</ele><time>2026-04-05T09:25:02.19Z</time></trkpt><trkpt lat="44.788796" lon="9.648066"><ele>714.8</ele><time>2026-04-05T09:25:03.188Z</time></trkpt><trkpt lat="44.7887386" lon="9.6479618"><ele>715.4</ele><time>2026-04-05T09:25:04.189Z</time></trkpt><trkpt lat="44.7886789" lon="9.6478671"><ele>716.0</ele><time>2026-04-05T09:25:05.189Z</time></trkpt><trkpt lat="44.788615" lon="9.6477867"><ele>714.5999999999999</ele><time>2026-04-05T09:25:06.188Z</time></trkpt><trkpt lat="44.7885419" lon="9.6477169"><ele>713.2</ele><time>2026-04-05T09:25:07.189Z</time></trkpt><trkpt lat="44.7884568" lon="9.6476539"><ele>711.8</ele><time>2026-04-05T09:25:08.188Z</time></trkpt><trkpt lat="44.7883567" lon="9.6475974"><ele>710.4000000000001</ele><time>2026-04-05T09:25:09.188Z</time></trkpt><trkpt lat="44.7882523" lon="9.6475422"><ele>709.0</ele><time>2026-04-05T09:25:10.187Z</time></trkpt><trkpt lat="44.7881444" lon="9.6474842"><ele>706.2</ele><time>2026-04-05T09:25:11.187Z</time></trkpt><trkpt lat="44.788038" lon="9.6474191"><ele>703.4000000000001</ele><time>2026-04-05T09:25:12.188Z</time></trkpt><trkpt lat="44.7879367" lon="9.6473499"><ele>700.6</ele><time>2026-04-05T09:25:13.188Z</time></trkpt><trkpt lat="44.7878405" lon="9.647285"><ele>697.8</ele><time>2026-04-05T09:25:14.189Z</time></trkpt><trkpt lat="44.7877462" lon="9.6472239"><ele>695.0</ele><time>2026-04-05T09:25:15.188Z</time></trkpt><trkpt lat="44.7876541" lon="9.6471607"><ele>693.6666666666666</ele><time>2026-04-05T09:25:16.188Z</time></trkpt><trkpt lat="44.7875679" lon="9.6471046"><ele>692.3333333333333</ele><time>2026-04-05T09:25:17.191Z</time></trkpt><trkpt lat="44.7874882" lon="9.647059"><ele>691.0</ele><time>2026-04-05T09:25:18.188Z</time></trkpt><trkpt lat="44.787412" lon="9.6470195"><ele>689.6666666666666</ele><time>2026-04-05T09:25:19.188Z</time></trkpt><trkpt lat="44.7873292" lon="9.6469798"><ele>688.3333333333334</ele><time>2026-04-05T09:25:20.19Z</time></trkpt><trkpt lat="44.787237" lon="9.6469466"><ele>687.0</ele><time>2026-04-05T09:25:21.188Z</time></trkpt><trkpt lat="44.7871405" lon="9.6469274"><ele>687.0</ele><time>2026-04-05T09:25:22.188Z</time></trkpt><trkpt lat="44.7870442" lon="9.6469237"><ele>687.0</ele><time>2026-04-05T09:25:23.188Z</time></trkpt><trkpt lat="44.7869528" lon="9.6469254"><ele>687.0</ele><time>2026-04-05T09:25:24.188Z</time></trkpt><trkpt lat="44.7868712" lon="9.6469279"><ele>687.0</ele><time>2026-04-05T09:25:25.189Z</time></trkpt><trkpt lat="44.7867982" lon="9.6469286"><ele>687.0</ele><time>2026-04-05T09:25:26.189Z</time></trkpt><trkpt lat="44.7867344" lon="9.6469232"><ele>687.0</ele><time>2026-04-05T09:25:27.189Z</time></trkpt><trkpt lat="44.7866218" lon="9.6468729"><ele>687.0</ele><time>2026-04-05T09:25:29.188Z</time></trkpt><trkpt lat="44.7865521" lon="9.6467875"><ele>687.0</ele><time>2026-04-05T09:25:31.188Z</time></trkpt><trkpt lat="44.7865823" lon="9.6466617"><ele>687.0</ele><time>2026-04-05T09:25:34.191Z</time></trkpt><trkpt lat="44.78673" lon="9.6465733"><ele>687.0</ele><time>2026-04-05T09:25:36.188Z</time></trkpt><trkpt lat="44.78685" lon="9.6465217"><ele>687.0</ele><time>2026-04-05T09:25:37.189Z</time></trkpt><trkpt lat="44.7869783" lon="9.6464667"><ele>687.0</ele><time>2026-04-05T09:25:38.188Z</time></trkpt><trkpt lat="44.78712" lon="9.6464067"><ele>687.0</ele><time>2026-04-05T09:25:39.189Z</time></trkpt><trkpt lat="44.7872633" lon="9.6463333"><ele>687.0</ele><time>2026-04-05T09:25:40.189Z</time></trkpt><trkpt lat="44.7874017" lon="9.64625"><ele>687.0</ele><time>2026-04-05T09:25:41.188Z</time></trkpt><trkpt lat="44.78754" lon="9.6461667"><ele>687.0</ele><time>2026-04-05T09:25:42.189Z</time></trkpt><trkpt lat="44.7876767" lon="9.6460883"><ele>687.0</ele><time>2026-04-05T09:25:43.188Z</time></trkpt><trkpt lat="44.7878017" lon="9.6460067"><ele>687.0</ele><time>2026-04-05T09:25:44.188Z</time></trkpt><trkpt lat="44.787925" lon="9.6459167"><ele>684.6666666666666</ele><time>2026-04-05T09:25:45.189Z</time></trkpt><trkpt lat="44.78804" lon="9.6457983"><ele>682.3333333333333</ele><time>2026-04-05T09:25:46.188Z</time></trkpt><trkpt lat="44.7881433" lon="9.6456233"><ele>680.0</ele><time>2026-04-05T09:25:47.189Z</time></trkpt><trkpt lat="44.788245" lon="9.64541"><ele>677.6666666666666</ele><time>2026-04-05T09:25:48.188Z</time></trkpt><trkpt lat="44.7883417" lon="9.645205"><ele>675.3333333333334</ele><time>2026-04-05T09:25:49.189Z</time></trkpt><trkpt lat="44.7884217" lon="9.6450083"><ele>673.0</ele><time>2026-04-05T09:25:50.188Z</time></trkpt><trkpt lat="44.7884783" lon="9.644805"><ele>672.4</ele><time>2026-04-05T09:25:51.188Z</time></trkpt><trkpt lat="44.7885217" lon="9.64462"><ele>671.8</ele><time>2026-04-05T09:25:52.188Z</time></trkpt><trkpt lat="44.7885683" lon="9.6444767"><ele>671.2</ele><time>2026-04-05T09:25:53.188Z</time></trkpt><trkpt lat="44.78864" lon="9.6443833"><ele>670.6</ele><time>2026-04-05T09:25:54.187Z</time></trkpt><trkpt lat="44.7887283" lon="9.64434"><ele>670.0</ele><time>2026-04-05T09:25:55.188Z</time></trkpt><trkpt lat="44.7888233" lon="9.64433"><ele>670.0</ele><time>2026-04-05T09:25:56.188Z</time></trkpt><trkpt lat="44.78894" lon="9.6443583"><ele>670.0</ele><time>2026-04-05T09:25:57.188Z</time></trkpt><trkpt lat="44.789075" lon="9.6443983"><ele>670.0</ele><time>2026-04-05T09:25:58.189Z</time></trkpt><trkpt lat="44.7892017" lon="9.64441"><ele>670.0</ele><time>2026-04-05T09:25:59.19Z</time></trkpt><trkpt lat="44.789315" lon="9.6443533"><ele>673.75</ele><time>2026-04-05T09:26:00.191Z</time></trkpt><trkpt lat="44.78942" lon="9.6442517"><ele>677.5</ele><time>2026-04-05T09:26:01.188Z</time></trkpt><trkpt lat="44.7895133" lon="9.644135"><ele>681.25</ele><time>2026-04-05T09:26:02.188Z</time></trkpt><trkpt lat="44.789595" lon="9.64403"><ele>685.0</ele><time>2026-04-05T09:26:03.188Z</time></trkpt><trkpt lat="44.7896517" lon="9.643915"><ele>685.0</ele><time>2026-04-05T09:26:04.188Z</time></trkpt><trkpt lat="44.7896833" lon="9.6437633"><ele>685.0</ele><time>2026-04-05T09:26:05.188Z</time></trkpt><trkpt lat="44.7897017" lon="9.6435683"><ele>685.0</ele><time>2026-04-05T09:26:06.188Z</time></trkpt><trkpt lat="44.78971" lon="9.6433533"><ele>685.0</ele><time>2026-04-05T09:26:07.194Z</time></trkpt><trkpt lat="44.7897233" lon="9.6431483"><ele>683.5</ele><time>2026-04-05T09:26:08.19Z</time></trkpt><trkpt lat="44.789745" lon="9.642955"><ele>682.0</ele><time>2026-04-05T09:26:09.189Z</time></trkpt><trkpt lat="44.7897967" lon="9.6427683"><ele>680.5</ele><time>2026-04-05T09:26:10.188Z</time></trkpt><trkpt lat="44.7898817" lon="9.6425767"><ele>679.0</ele><time>2026-04-05T09:26:11.188Z</time></trkpt><trkpt lat="44.79" lon="9.6423983"><ele>680.0</ele><time>2026-04-05T09:26:12.189Z</time></trkpt><trkpt lat="44.7901517" lon="9.6422233"><ele>681.0</ele><time>2026-04-05T09:26:13.189Z</time></trkpt><trkpt lat="44.79031" lon="9.6420233"><ele>682.0</ele><time>2026-04-05T09:26:14.188Z</time></trkpt><trkpt lat="44.7904517" lon="9.6418033"><ele>676.0</ele><time>2026-04-05T09:26:15.189Z</time></trkpt><trkpt lat="44.7905817" lon="9.6415867"><ele>670.0</ele><time>2026-04-05T09:26:16.188Z</time></trkpt><trkpt lat="44.7906867" lon="9.641395"><ele>664.0</ele><time>2026-04-05T09:26:17.188Z</time></trkpt><trkpt lat="44.7907817" lon="9.6412333"><ele>661.25</ele><time>2026-04-05T09:26:18.189Z</time></trkpt><trkpt lat="44.790875" lon="9.6411067"><ele>658.5</ele><time>2026-04-05T09:26:19.191Z</time></trkpt><trkpt lat="44.7909867" lon="9.6410083"><ele>655.75</ele><time>2026-04-05T09:26:20.19Z</time></trkpt><trkpt lat="44.7911183" lon="9.6409283"><ele>653.0</ele><time>2026-04-05T09:26:21.188Z</time></trkpt><trkpt lat="44.7912633" lon="9.6408633"><ele>653.0</ele><time>2026-04-05T09:26:22.188Z</time></trkpt><trkpt lat="44.7914117" lon="9.6408017"><ele>653.0</ele><time>2026-04-05T09:26:23.188Z</time></trkpt><trkpt lat="44.7915533" lon="9.6407633"><ele>653.0</ele><time>2026-04-05T09:26:24.188Z</time></trkpt><trkpt lat="44.791695" lon="9.64076"><ele>653.0</ele><time>2026-04-05T09:26:25.188Z</time></trkpt><trkpt lat="44.7918283" lon="9.6407767"><ele>653.0</ele><time>2026-04-05T09:26:26.188Z</time></trkpt><trkpt lat="44.79195" lon="9.6408117"><ele>653.0</ele><time>2026-04-05T09:26:27.188Z</time></trkpt><trkpt lat="44.7920717" lon="9.640855"><ele>653.0</ele><time>2026-04-05T09:26:28.189Z</time></trkpt><trkpt lat="44.79219" lon="9.6409133"><ele>653.0</ele><time>2026-04-05T09:26:29.19Z</time></trkpt><trkpt lat="44.7922967" lon="9.6409533"><ele>653.0</ele><time>2026-04-05T09:26:30.19Z</time></trkpt><trkpt lat="44.7924017" lon="9.6409683"><ele>653.0</ele><time>2026-04-05T09:26:31.19Z</time></trkpt><trkpt lat="44.792505" lon="9.6409283"><ele>653.0</ele><time>2026-04-05T09:26:32.19Z</time></trkpt><trkpt lat="44.7926167" lon="9.6408383"><ele>653.0</ele><time>2026-04-05T09:26:33.19Z</time></trkpt><trkpt lat="44.79274" lon="9.6407067"><ele>654.5</ele><time>2026-04-05T09:26:34.189Z</time></trkpt><trkpt lat="44.7928667" lon="9.6405917"><ele>656.0</ele><time>2026-04-05T09:26:35.188Z</time></trkpt><trkpt lat="44.79298" lon="9.6405017"><ele>657.5</ele><time>2026-04-05T09:26:36.188Z</time></trkpt><trkpt lat="44.7931083" lon="9.6404533"><ele>659.0</ele><time>2026-04-05T09:26:37.188Z</time></trkpt><trkpt lat="44.793235" lon="9.6404133"><ele>659.0</ele><time>2026-04-05T09:26:38.189Z</time></trkpt><trkpt lat="44.7933567" lon="9.64034"><ele>659.0</ele><time>2026-04-05T09:26:39.188Z</time></trkpt><trkpt lat="44.7934767" lon="9.64021"><ele>659.0</ele><time>2026-04-05T09:26:40.188Z</time></trkpt><trkpt lat="44.7935833" lon="9.640065"><ele>659.0</ele><time>2026-04-05T09:26:41.189Z</time></trkpt><trkpt lat="44.7936767" lon="9.6399283"><ele>656.25</ele><time>2026-04-05T09:26:42.189Z</time></trkpt><trkpt lat="44.793765" lon="9.6398283"><ele>653.5</ele><time>2026-04-05T09:26:43.189Z</time></trkpt><trkpt lat="44.7938667" lon="9.6397683"><ele>650.75</ele><time>2026-04-05T09:26:44.189Z</time></trkpt><trkpt lat="44.793995" lon="9.6397533"><ele>648.0</ele><time>2026-04-05T09:26:45.188Z</time></trkpt><trkpt lat="44.794155" lon="9.6397683"><ele>648.0</ele><time>2026-04-05T09:26:46.188Z</time></trkpt><trkpt lat="44.794315" lon="9.639765"><ele>648.0</ele><time>2026-04-05T09:26:47.188Z</time></trkpt><trkpt lat="44.7944733" lon="9.6397233"><ele>648.0</ele><time>2026-04-05T09:26:48.188Z</time></trkpt><trkpt lat="44.7946283" lon="9.6396317"><ele>647.0</ele><time>2026-04-05T09:26:49.189Z</time></trkpt><trkpt lat="44.7947667" lon="9.6395233"><ele>646.0</ele><time>2026-04-05T09:26:50.188Z</time></trkpt><trkpt lat="44.79489" lon="9.63941"><ele>645.0</ele><time>2026-04-05T09:26:51.189Z</time></trkpt><trkpt lat="44.7949883" lon="9.6392683"><ele>644.0</ele><time>2026-04-05T09:26:52.188Z</time></trkpt><trkpt lat="44.79506" lon="9.6390833"><ele>642.25</ele><time>2026-04-05T09:26:53.189Z</time></trkpt><trkpt lat="44.795115" lon="9.638875"><ele>640.5</ele><time>2026-04-05T09:26:54.188Z</time></trkpt><trkpt lat="44.7951683" lon="9.6386767"><ele>638.75</ele><time>2026-04-05T09:26:55.188Z</time></trkpt><trkpt lat="44.79522" lon="9.6385"><ele>637.0</ele><time>2026-04-05T09:26:56.189Z</time></trkpt><trkpt lat="44.7952633" lon="9.6383317"><ele>635.75</ele><time>2026-04-05T09:26:57.188Z</time></trkpt><trkpt lat="44.7952883" lon="9.638165"><ele>634.5</ele><time>2026-04-05T09:26:58.188Z</time></trkpt><trkpt lat="44.79528" lon="9.6380117"><ele>633.25</ele><time>2026-04-05T09:26:59.188Z</time></trkpt><trkpt lat="44.7952333" lon="9.6378633"><ele>632.0</ele><time>2026-04-05T09:27:00.188Z</time></trkpt><trkpt lat="44.7951567" lon="9.6377183"><ele>631.4</ele><time>2026-04-05T09:27:01.189Z</time></trkpt><trkpt lat="44.79507" lon="9.6375933"><ele>630.8000000000001</ele><time>2026-04-05T09:27:02.192Z</time></trkpt><trkpt lat="44.7949833" lon="9.63751"><ele>630.2</ele><time>2026-04-05T09:27:03.189Z</time></trkpt><trkpt lat="44.7948917" lon="9.63748"><ele>629.6</ele><time>2026-04-05T09:27:04.188Z</time></trkpt><trkpt lat="44.7948017" lon="9.6375133"><ele>629.0</ele><time>2026-04-05T09:27:05.188Z</time></trkpt><trkpt lat="44.7947317" lon="9.6376017"><ele>629.0</ele><time>2026-04-05T09:27:06.188Z</time></trkpt><trkpt lat="44.7947017" lon="9.6377317"><ele>629.0</ele><time>2026-04-05T09:27:07.188Z</time></trkpt><trkpt lat="44.7946883" lon="9.6379083"><ele>629.0</ele><time>2026-04-05T09:27:08.19Z</time></trkpt><trkpt lat="44.794675" lon="9.638095"><ele>629.0</ele><time>2026-04-05T09:27:09.188Z</time></trkpt><trkpt lat="44.7946517" lon="9.6382767"><ele>630.0</ele><time>2026-04-05T09:27:10.188Z</time></trkpt><trkpt lat="44.7946083" lon="9.63843"><ele>631.0</ele><time>2026-04-05T09:27:11.188Z</time></trkpt><trkpt lat="44.7945383" lon="9.63854"><ele>632.0</ele><time>2026-04-05T09:27:12.189Z</time></trkpt><trkpt lat="44.79444" lon="9.6386117"><ele>633.0</ele><time>2026-04-05T09:27:13.188Z</time></trkpt><trkpt lat="44.7943217" lon="9.6386583"><ele>633.4</ele><time>2026-04-05T09:27:14.189Z</time></trkpt><trkpt lat="44.7942033" lon="9.638695"><ele>633.8</ele><time>2026-04-05T09:27:15.188Z</time></trkpt><trkpt lat="44.7941" lon="9.6387267"><ele>634.2</ele><time>2026-04-05T09:27:16.19Z</time></trkpt><trkpt lat="44.7940167" lon="9.6387317"><ele>634.6</ele><time>2026-04-05T09:27:17.188Z</time></trkpt><trkpt lat="44.7939383" lon="9.6387083"><ele>635.0</ele><time>2026-04-05T09:27:18.188Z</time></trkpt><trkpt lat="44.7938733" lon="9.63866"><ele>632.4</ele><time>2026-04-05T09:27:19.188Z</time></trkpt><trkpt lat="44.79382" lon="9.63855"><ele>629.8</ele><time>2026-04-05T09:27:21.188Z</time></trkpt><trkpt lat="44.7939317" lon="9.6384533"><ele>627.2</ele><time>2026-04-05T09:27:22.188Z</time></trkpt><trkpt lat="44.794005" lon="9.6383967"><ele>624.6</ele><time>2026-04-05T09:27:23.191Z</time></trkpt><trkpt lat="44.7940883" lon="9.6383617"><ele>622.0</ele><time>2026-04-05T09:27:24.19Z</time></trkpt><trkpt lat="44.794195" lon="9.6383033"><ele>622.0</ele><time>2026-04-05T09:27:25.19Z</time></trkpt><trkpt lat="44.7942817" lon="9.6382133"><ele>622.0</ele><time>2026-04-05T09:27:26.19Z</time></trkpt><trkpt lat="44.79434" lon="9.63808"><ele>622.0</ele><time>2026-04-05T09:27:27.191Z</time></trkpt><trkpt lat="44.7943717" lon="9.6378933"><ele>622.0</ele><time>2026-04-05T09:27:28.191Z</time></trkpt><trkpt lat="44.7943933" lon="9.63768"><ele>623.75</ele><time>2026-04-05T09:27:29.188Z</time></trkpt><trkpt lat="44.7944117" lon="9.6374617"><ele>625.5</ele><time>2026-04-05T09:27:30.188Z</time></trkpt><trkpt lat="44.7944117" lon="9.63726"><ele>627.25</ele><time>2026-04-05T09:27:31.188Z</time></trkpt><trkpt lat="44.7943833" lon="9.6370733"><ele>629.0</ele><time>2026-04-05T09:27:32.188Z</time></trkpt><trkpt lat="44.7943267" lon="9.63689"><ele>624.5</ele><time>2026-04-05T09:27:33.188Z</time></trkpt><trkpt lat="44.7942583" lon="9.636715"><ele>620.0</ele><time>2026-04-05T09:27:34.188Z</time></trkpt><trkpt lat="44.7941967" lon="9.6365567"><ele>615.5</ele><time>2026-04-05T09:27:35.188Z</time></trkpt><trkpt lat="44.794145" lon="9.63641"><ele>611.0</ele><time>2026-04-05T09:27:36.189Z</time></trkpt><trkpt lat="44.794115" lon="9.63627"><ele>611.0</ele><time>2026-04-05T09:27:37.188Z</time></trkpt><trkpt lat="44.794105" lon="9.6361383"><ele>611.0</ele><time>2026-04-05T09:27:38.189Z</time></trkpt><trkpt lat="44.7941233" lon="9.63602"><ele>611.0</ele><time>2026-04-05T09:27:39.188Z</time></trkpt><trkpt lat="44.794165" lon="9.6359267"><ele>611.0</ele><time>2026-04-05T09:27:40.189Z</time></trkpt><trkpt lat="44.7942317" lon="9.6358883"><ele>611.0</ele><time>2026-04-05T09:27:41.188Z</time></trkpt><trkpt lat="44.7942967" lon="9.6358717"><ele>611.0</ele><time>2026-04-05T09:27:42.188Z</time></trkpt><trkpt lat="44.79438" lon="9.635885"><ele>609.75</ele><time>2026-04-05T09:27:43.189Z</time></trkpt><trkpt lat="44.794475" lon="9.6359267"><ele>608.5</ele><time>2026-04-05T09:27:44.189Z</time></trkpt><trkpt lat="44.794595" lon="9.63599"><ele>607.25</ele><time>2026-04-05T09:27:45.188Z</time></trkpt><trkpt lat="44.7947067" lon="9.6360483"><ele>606.0</ele><time>2026-04-05T09:27:46.189Z</time></trkpt><trkpt lat="44.7948083" lon="9.63609"><ele>606.0</ele><time>2026-04-05T09:27:47.188Z</time></trkpt><trkpt lat="44.794895" lon="9.6361033"><ele>606.0</ele><time>2026-04-05T09:27:48.188Z</time></trkpt><trkpt lat="44.794975" lon="9.6360833"><ele>606.0</ele><time>2026-04-05T09:27:49.189Z</time></trkpt><trkpt lat="44.795035" lon="9.6360267"><ele>606.0</ele><time>2026-04-05T09:27:50.189Z</time></trkpt><trkpt lat="44.7950483" lon="9.6358967"><ele>606.0</ele><time>2026-04-05T09:27:51.188Z</time></trkpt><trkpt lat="44.7950517" lon="9.6357667"><ele>606.0</ele><time>2026-04-05T09:27:52.19Z</time></trkpt><trkpt lat="44.7950283" lon="9.63562"><ele>606.0</ele><time>2026-04-05T09:27:53.189Z</time></trkpt><trkpt lat="44.7950067" lon="9.6354833"><ele>606.0</ele><time>2026-04-05T09:27:54.188Z</time></trkpt><trkpt lat="44.794995" lon="9.6353483"><ele>606.0</ele><time>2026-04-05T09:27:55.189Z</time></trkpt><trkpt lat="44.7950083" lon="9.6352183"><ele>606.0</ele><time>2026-04-05T09:27:56.188Z</time></trkpt><trkpt lat="44.7950467" lon="9.6351"><ele>606.0</ele><time>2026-04-05T09:27:57.19Z</time></trkpt><trkpt lat="44.7951133" lon="9.6349733"><ele>607.75</ele><time>2026-04-05T09:27:58.188Z</time></trkpt><trkpt lat="44.7951833" lon="9.6348317"><ele>609.5</ele><time>2026-04-05T09:27:59.189Z</time></trkpt><trkpt lat="44.7952383" lon="9.6346717"><ele>611.25</ele><time>2026-04-05T09:28:00.189Z</time></trkpt><trkpt lat="44.7952767" lon="9.634495"><ele>613.0</ele><time>2026-04-05T09:28:01.188Z</time></trkpt><trkpt lat="44.7952967" lon="9.6343117"><ele>613.0</ele><time>2026-04-05T09:28:02.189Z</time></trkpt><trkpt lat="44.7952967" lon="9.6341283"><ele>613.0</ele><time>2026-04-05T09:28:03.188Z</time></trkpt><trkpt lat="44.7952783" lon="9.6339367"><ele>613.0</ele><time>2026-04-05T09:28:04.188Z</time></trkpt><trkpt lat="44.79525" lon="9.633745"><ele>613.0</ele><time>2026-04-05T09:28:05.189Z</time></trkpt><trkpt lat="44.7952217" lon="9.6335517"><ele>612.5</ele><time>2026-04-05T09:28:06.188Z</time></trkpt><trkpt lat="44.7952" lon="9.6333667"><ele>612.0</ele><time>2026-04-05T09:28:07.188Z</time></trkpt><trkpt lat="44.7951933" lon="9.6331783"><ele>611.5</ele><time>2026-04-05T09:28:08.19Z</time></trkpt><trkpt lat="44.7952033" lon="9.6329817"><ele>611.0</ele><time>2026-04-05T09:28:09.188Z</time></trkpt><trkpt lat="44.7952183" lon="9.6327767"><ele>610.25</ele><time>2026-04-05T09:28:10.188Z</time></trkpt><trkpt lat="44.795235" lon="9.6325683"><ele>609.5</ele><time>2026-04-05T09:28:11.188Z</time></trkpt><trkpt lat="44.7952467" lon="9.6323617"><ele>608.75</ele><time>2026-04-05T09:28:12.189Z</time></trkpt><trkpt lat="44.795235" lon="9.6321583"><ele>608.0</ele><time>2026-04-05T09:28:13.188Z</time></trkpt><trkpt lat="44.7952" lon="9.6319567"><ele>601.75</ele><time>2026-04-05T09:28:14.188Z</time></trkpt><trkpt lat="44.7951517" lon="9.6317567"><ele>595.5</ele><time>2026-04-05T09:28:15.189Z</time></trkpt><trkpt lat="44.7950983" lon="9.6315683"><ele>589.25</ele><time>2026-04-05T09:28:16.189Z</time></trkpt><trkpt lat="44.795045" lon="9.6313833"><ele>583.0</ele><time>2026-04-05T09:28:17.188Z</time></trkpt><trkpt lat="44.7949783" lon="9.631195"><ele>583.6666666666667</ele><time>2026-04-05T09:28:18.188Z</time></trkpt><trkpt lat="44.7948917" lon="9.6310133"><ele>584.3333333333334</ele><time>2026-04-05T09:28:19.189Z</time></trkpt><trkpt lat="44.79478" lon="9.6308383"><ele>585.0</ele><time>2026-04-05T09:28:20.189Z</time></trkpt><trkpt lat="44.7946533" lon="9.6306733"><ele>585.0</ele><time>2026-04-05T09:28:21.188Z</time></trkpt><trkpt lat="44.7945233" lon="9.6305117"><ele>585.0</ele><time>2026-04-05T09:28:22.189Z</time></trkpt><trkpt lat="44.7943967" lon="9.6303567"><ele>585.0</ele><time>2026-04-05T09:28:23.189Z</time></trkpt><trkpt lat="44.7942683" lon="9.6302033"><ele>582.6666666666666</ele><time>2026-04-05T09:28:24.188Z</time></trkpt><trkpt lat="44.7941433" lon="9.6300567"><ele>580.3333333333333</ele><time>2026-04-05T09:28:25.19Z</time></trkpt><trkpt lat="44.7940217" lon="9.629915"><ele>578.0</ele><time>2026-04-05T09:28:26.19Z</time></trkpt><trkpt lat="44.7939067" lon="9.62978"><ele>578.0</ele><time>2026-04-05T09:28:27.188Z</time></trkpt><trkpt lat="44.7937983" lon="9.6296483"><ele>578.0</ele><time>2026-04-05T09:28:28.188Z</time></trkpt><trkpt lat="44.7937" lon="9.6295167"><ele>578.0</ele><time>2026-04-05T09:28:29.189Z</time></trkpt><trkpt lat="44.7936133" lon="9.629375"><ele>578.0</ele><time>2026-04-05T09:28:30.188Z</time></trkpt><trkpt lat="44.793535" lon="9.6292133"><ele>576.5</ele><time>2026-04-05T09:28:31.189Z</time></trkpt><trkpt lat="44.793465" lon="9.6290367"><ele>575.0</ele><time>2026-04-05T09:28:32.188Z</time></trkpt><trkpt lat="44.793405" lon="9.6288483"><ele>573.5</ele><time>2026-04-05T09:28:33.188Z</time></trkpt><trkpt lat="44.793355" lon="9.6286683"><ele>572.0</ele><time>2026-04-05T09:28:34.188Z</time></trkpt><trkpt lat="44.7933117" lon="9.628485"><ele>571.8000000000001</ele><time>2026-04-05T09:28:35.188Z</time></trkpt><trkpt lat="44.7932733" lon="9.62831"><ele>571.6</ele><time>2026-04-05T09:28:36.189Z</time></trkpt><trkpt lat="44.7932417" lon="9.6281583"><ele>571.4000000000001</ele><time>2026-04-05T09:28:37.188Z</time></trkpt><trkpt lat="44.7932167" lon="9.6280317"><ele>571.2</ele><time>2026-04-05T09:28:38.189Z</time></trkpt><trkpt lat="44.7932" lon="9.6279233"><ele>571.0</ele><time>2026-04-05T09:28:39.189Z</time></trkpt><trkpt lat="44.7931867" lon="9.6278167"><ele>571.0</ele><time>2026-04-05T09:28:40.188Z</time></trkpt><trkpt lat="44.793175" lon="9.6277117"><ele>571.0</ele><time>2026-04-05T09:28:41.188Z</time></trkpt><trkpt lat="44.7931633" lon="9.6276083"><ele>571.0</ele><time>2026-04-05T09:28:42.188Z</time></trkpt><trkpt lat="44.7931517" lon="9.6275033"><ele>571.0</ele><time>2026-04-05T09:28:43.188Z</time></trkpt><trkpt lat="44.7931417" lon="9.6273983"><ele>571.0</ele><time>2026-04-05T09:28:44.189Z</time></trkpt><trkpt lat="44.7931317" lon="9.6272917"><ele>571.0</ele><time>2026-04-05T09:28:45.189Z</time></trkpt><trkpt lat="44.7931233" lon="9.6271833"><ele>571.0</ele><time>2026-04-05T09:28:46.188Z</time></trkpt><trkpt lat="44.7931117" lon="9.6270717"><ele>571.0</ele><time>2026-04-05T09:28:47.189Z</time></trkpt><trkpt lat="44.793095" lon="9.62695"><ele>571.0</ele><time>2026-04-05T09:28:48.188Z</time></trkpt><trkpt lat="44.79307" lon="9.6268033"><ele>571.0</ele><time>2026-04-05T09:28:49.189Z</time></trkpt><trkpt lat="44.7930267" lon="9.6266367"><ele>571.0</ele><time>2026-04-05T09:28:50.189Z</time></trkpt><trkpt lat="44.7929583" lon="9.6264467"><ele>570.3333333333334</ele><time>2026-04-05T09:28:51.188Z</time></trkpt><trkpt lat="44.7928767" lon="9.6262483"><ele>569.6666666666666</ele><time>2026-04-05T09:28:52.189Z</time></trkpt><trkpt lat="44.7927917" lon="9.6260583"><ele>569.0</ele><time>2026-04-05T09:28:53.191Z</time></trkpt><trkpt lat="44.7927167" lon="9.6258783"><ele>565.5</ele><time>2026-04-05T09:28:54.188Z</time></trkpt><trkpt lat="44.7926533" lon="9.6257067"><ele>562.0</ele><time>2026-04-05T09:28:55.191Z</time></trkpt><trkpt lat="44.7926017" lon="9.6255267"><ele>558.5</ele><time>2026-04-05T09:28:56.189Z</time></trkpt><trkpt lat="44.7925567" lon="9.6253233"><ele>555.0</ele><time>2026-04-05T09:28:57.189Z</time></trkpt><trkpt lat="44.79251" lon="9.6251133"><ele>555.0</ele><time>2026-04-05T09:28:58.189Z</time></trkpt><trkpt lat="44.7924667" lon="9.6249"><ele>555.0</ele><time>2026-04-05T09:28:59.188Z</time></trkpt><trkpt lat="44.7924267" lon="9.6246967"><ele>555.0</ele><time>2026-04-05T09:29:00.188Z</time></trkpt><trkpt lat="44.79239" lon="9.6245117"><ele>555.0</ele><time>2026-04-05T09:29:01.189Z</time></trkpt><trkpt lat="44.792365" lon="9.6243467"><ele>555.0</ele><time>2026-04-05T09:29:02.188Z</time></trkpt><trkpt lat="44.7923567" lon="9.6241917"><ele>555.0</ele><time>2026-04-05T09:29:03.189Z</time></trkpt><trkpt lat="44.7923717" lon="9.6240383"><ele>555.0</ele><time>2026-04-05T09:29:04.188Z</time></trkpt><trkpt lat="44.7924117" lon="9.6238783"><ele>555.0</ele><time>2026-04-05T09:29:05.188Z</time></trkpt><trkpt lat="44.7924767" lon="9.62372"><ele>555.75</ele><time>2026-04-05T09:29:06.189Z</time></trkpt><trkpt lat="44.7925583" lon="9.62358"><ele>556.5</ele><time>2026-04-05T09:29:07.189Z</time></trkpt><trkpt lat="44.7926567" lon="9.6234617"><ele>557.25</ele><time>2026-04-05T09:29:08.19Z</time></trkpt><trkpt lat="44.7927583" lon="9.62337"><ele>558.0</ele><time>2026-04-05T09:29:09.189Z</time></trkpt><trkpt lat="44.7928517" lon="9.6233"><ele>558.0</ele><time>2026-04-05T09:29:10.188Z</time></trkpt><trkpt lat="44.7929233" lon="9.6232317"><ele>558.0</ele><time>2026-04-05T09:29:11.188Z</time></trkpt><trkpt lat="44.7929767" lon="9.6231517"><ele>558.0</ele><time>2026-04-05T09:29:12.188Z</time></trkpt><trkpt lat="44.7930133" lon="9.6230567"><ele>558.0</ele><time>2026-04-05T09:29:13.189Z</time></trkpt><trkpt lat="44.7929833" lon="9.62296"><ele>558.0</ele><time>2026-04-05T09:29:14.189Z</time></trkpt><trkpt lat="44.792945" lon="9.6228733"><ele>558.0</ele><time>2026-04-05T09:29:15.189Z</time></trkpt><trkpt lat="44.7928667" lon="9.6228417"><ele>558.0</ele><time>2026-04-05T09:29:16.188Z</time></trkpt><trkpt lat="44.7927867" lon="9.6228383"><ele>558.0</ele><time>2026-04-05T09:29:17.19Z</time></trkpt><trkpt lat="44.79268" lon="9.6228967"><ele>558.0</ele><time>2026-04-05T09:29:18.189Z</time></trkpt><trkpt lat="44.7925617" lon="9.62299"><ele>558.0</ele><time>2026-04-05T09:29:19.189Z</time></trkpt><trkpt lat="44.792425" lon="9.6230933"><ele>555.75</ele><time>2026-04-05T09:29:20.19Z</time></trkpt><trkpt lat="44.79229" lon="9.6231983"><ele>553.5</ele><time>2026-04-05T09:29:21.188Z</time></trkpt><trkpt lat="44.7921683" lon="9.6232983"><ele>551.25</ele><time>2026-04-05T09:29:22.192Z</time></trkpt><trkpt lat="44.792055" lon="9.6234217"><ele>549.0</ele><time>2026-04-05T09:29:23.191Z</time></trkpt><trkpt lat="44.7919533" lon="9.6235717"><ele>550.5</ele><time>2026-04-05T09:29:24.189Z</time></trkpt><trkpt lat="44.79187" lon="9.6237333"><ele>552.0</ele><time>2026-04-05T09:29:25.188Z</time></trkpt><trkpt lat="44.7918067" lon="9.6238933"><ele>553.5</ele><time>2026-04-05T09:29:26.189Z</time></trkpt><trkpt lat="44.791765" lon="9.6240583"><ele>555.0</ele><time>2026-04-05T09:29:27.194Z</time></trkpt><trkpt lat="44.791745" lon="9.6242433"><ele>550.3333333333334</ele><time>2026-04-05T09:29:28.188Z</time></trkpt><trkpt lat="44.79174" lon="9.6244517"><ele>545.6666666666667</ele><time>2026-04-05T09:29:29.189Z</time></trkpt><trkpt lat="44.7917383" lon="9.6246717"><ele>541.0</ele><time>2026-04-05T09:29:30.188Z</time></trkpt><trkpt lat="44.79173" lon="9.624895"><ele>540.0</ele><time>2026-04-05T09:29:31.189Z</time></trkpt><trkpt lat="44.7917167" lon="9.625125"><ele>539.0</ele><time>2026-04-05T09:29:32.19Z</time></trkpt><trkpt lat="44.7916967" lon="9.6253683"><ele>538.0</ele><time>2026-04-05T09:29:33.189Z</time></trkpt><trkpt lat="44.79167" lon="9.625605"><ele>537.0</ele><time>2026-04-05T09:29:34.188Z</time></trkpt><trkpt lat="44.791645" lon="9.6258283"><ele>536.0</ele><time>2026-04-05T09:29:35.19Z</time></trkpt><trkpt lat="44.7916233" lon="9.6260417"><ele>535.0</ele><time>2026-04-05T09:29:36.19Z</time></trkpt><trkpt lat="44.7916017" lon="9.626245"><ele>535.0</ele><time>2026-04-05T09:29:37.188Z</time></trkpt><trkpt lat="44.7915733" lon="9.6264383"><ele>535.0</ele><time>2026-04-05T09:29:38.191Z</time></trkpt><trkpt lat="44.7915383" lon="9.6266133"><ele>535.0</ele><time>2026-04-05T09:29:39.189Z</time></trkpt><trkpt lat="44.79149" lon="9.626765"><ele>535.0</ele><time>2026-04-05T09:29:40.188Z</time></trkpt><trkpt lat="44.79143" lon="9.6268967"><ele>535.1666666666667</ele><time>2026-04-05T09:29:41.19Z</time></trkpt><trkpt lat="44.7913667" lon="9.6270133"><ele>535.3333333333334</ele><time>2026-04-05T09:29:42.19Z</time></trkpt><trkpt lat="44.7913" lon="9.6271067"><ele>535.5</ele><time>2026-04-05T09:29:43.188Z</time></trkpt><trkpt lat="44.7912233" lon="9.62717"><ele>535.6666666666666</ele><time>2026-04-05T09:29:44.189Z</time></trkpt><trkpt lat="44.79115" lon="9.6271783"><ele>535.8333333333333</ele><time>2026-04-05T09:29:45.188Z</time></trkpt><trkpt lat="44.7910767" lon="9.62716"><ele>536.0</ele><time>2026-04-05T09:29:46.188Z</time></trkpt><trkpt lat="44.791025" lon="9.6270667"><ele>535.8</ele><time>2026-04-05T09:29:47.188Z</time></trkpt><trkpt lat="44.790995" lon="9.6269683"><ele>535.6</ele><time>2026-04-05T09:29:48.188Z</time></trkpt><trkpt lat="44.7910183" lon="9.6268333"><ele>535.4</ele><time>2026-04-05T09:29:49.19Z</time></trkpt><trkpt lat="44.7910533" lon="9.6266917"><ele>535.2</ele><time>2026-04-05T09:29:50.19Z</time></trkpt><trkpt lat="44.7911017" lon="9.626525"><ele>535.0</ele><time>2026-04-05T09:29:51.189Z</time></trkpt><trkpt lat="44.79112" lon="9.6263417"><ele>535.0</ele><time>2026-04-05T09:29:52.188Z</time></trkpt><trkpt lat="44.7911033" lon="9.6261283"><ele>535.0</ele><time>2026-04-05T09:29:53.189Z</time></trkpt><trkpt lat="44.791065" lon="9.62589"><ele>535.0</ele><time>2026-04-05T09:29:54.192Z</time></trkpt><trkpt lat="44.79102" lon="9.6256483"><ele>529.3333333333334</ele><time>2026-04-05T09:29:55.188Z</time></trkpt><trkpt lat="44.7909683" lon="9.6254267"><ele>523.6666666666666</ele><time>2026-04-05T09:29:56.189Z</time></trkpt><trkpt lat="44.790905" lon="9.62522"><ele>518.0</ele><time>2026-04-05T09:29:57.188Z</time></trkpt><trkpt lat="44.790815" lon="9.6250233"><ele>518.0</ele><time>2026-04-05T09:29:58.188Z</time></trkpt><trkpt lat="44.790705" lon="9.6248417"><ele>518.0</ele><time>2026-04-05T09:29:59.189Z</time></trkpt><trkpt lat="44.7906" lon="9.624685"><ele>518.0</ele><time>2026-04-05T09:30:00.189Z</time></trkpt><trkpt lat="44.7905117" lon="9.624545"><ele>519.0</ele><time>2026-04-05T09:30:01.188Z</time></trkpt><trkpt lat="44.7904467" lon="9.6244017"><ele>520.0</ele><time>2026-04-05T09:30:02.19Z</time></trkpt><trkpt lat="44.7904117" lon="9.6242317"><ele>521.0</ele><time>2026-04-05T09:30:03.193Z</time></trkpt><trkpt lat="44.7904" lon="9.6240283"><ele>522.0</ele><time>2026-04-05T09:30:04.188Z</time></trkpt><trkpt lat="44.7904" lon="9.62382"><ele>521.5</ele><time>2026-04-05T09:30:05.188Z</time></trkpt><trkpt lat="44.7904083" lon="9.6236383"><ele>521.0</ele><time>2026-04-05T09:30:06.188Z</time></trkpt><trkpt lat="44.79044" lon="9.6234717"><ele>520.5</ele><time>2026-04-05T09:30:07.189Z</time></trkpt><trkpt lat="44.7905033" lon="9.6232917"><ele>520.0</ele><time>2026-04-05T09:30:08.189Z</time></trkpt><trkpt lat="44.790575" lon="9.6231017"><ele>520.0</ele><time>2026-04-05T09:30:09.188Z</time></trkpt><trkpt lat="44.7906233" lon="9.6228883"><ele>520.0</ele><time>2026-04-05T09:30:10.189Z</time></trkpt><trkpt lat="44.79064" lon="9.6226567"><ele>520.0</ele><time>2026-04-05T09:30:11.189Z</time></trkpt><trkpt lat="44.7906383" lon="9.62242"><ele>518.25</ele><time>2026-04-05T09:30:12.188Z</time></trkpt><trkpt lat="44.79064" lon="9.6222033"><ele>516.5</ele><time>2026-04-05T09:30:13.188Z</time></trkpt><trkpt lat="44.7906533" lon="9.6219983"><ele>514.75</ele><time>2026-04-05T09:30:14.189Z</time></trkpt><trkpt lat="44.7906883" lon="9.6218"><ele>513.0</ele><time>2026-04-05T09:30:15.189Z</time></trkpt><trkpt lat="44.7907517" lon="9.6215917"><ele>510.33333333333337</ele><time>2026-04-05T09:30:16.188Z</time></trkpt><trkpt lat="44.79083" lon="9.6213883"><ele>507.6666666666667</ele><time>2026-04-05T09:30:17.188Z</time></trkpt><trkpt lat="44.790915" lon="9.621195"><ele>505.0</ele><time>2026-04-05T09:30:18.188Z</time></trkpt><trkpt lat="44.7910033" lon="9.62101"><ele>504.5</ele><time>2026-04-05T09:30:19.191Z</time></trkpt><trkpt lat="44.7910967" lon="9.6208383"><ele>504.0</ele><time>2026-04-05T09:30:20.189Z</time></trkpt><trkpt lat="44.791185" lon="9.6206883"><ele>503.5</ele><time>2026-04-05T09:30:21.189Z</time></trkpt><trkpt lat="44.7912717" lon="9.6205633"><ele>503.0</ele><time>2026-04-05T09:30:22.188Z</time></trkpt><trkpt lat="44.7913717" lon="9.620475"><ele>503.0</ele><time>2026-04-05T09:30:23.191Z</time></trkpt><trkpt lat="44.79149" lon="9.62043"><ele>503.0</ele><time>2026-04-05T09:30:24.188Z</time></trkpt><trkpt lat="44.7916067" lon="9.6204083"><ele>503.0</ele><time>2026-04-05T09:30:25.188Z</time></trkpt><trkpt lat="44.7917117" lon="9.6203483"><ele>503.0</ele><time>2026-04-05T09:30:26.188Z</time></trkpt><trkpt lat="44.7918083" lon="9.62023"><ele>502.66666666666663</ele><time>2026-04-05T09:30:27.188Z</time></trkpt><trkpt lat="44.79189" lon="9.6200617"><ele>502.33333333333337</ele><time>2026-04-05T09:30:28.188Z</time></trkpt><trkpt lat="44.7919617" lon="9.6198617"><ele>502.0</ele><time>2026-04-05T09:30:29.189Z</time></trkpt><trkpt lat="44.7920267" lon="9.619665"><ele>497.33333333333337</ele><time>2026-04-05T09:30:30.189Z</time></trkpt><trkpt lat="44.792165" lon="9.6193583"><ele>492.66666666666663</ele><time>2026-04-05T09:30:32.189Z</time></trkpt><trkpt lat="44.7922583" lon="9.6192617"><ele>488.0</ele><time>2026-04-05T09:30:33.188Z</time></trkpt><trkpt lat="44.7923683" lon="9.6192067"><ele>488.0</ele><time>2026-04-05T09:30:34.19Z</time></trkpt><trkpt lat="44.79249" lon="9.6192"><ele>488.0</ele><time>2026-04-05T09:30:35.189Z</time></trkpt><trkpt lat="44.79262" lon="9.6192283"><ele>488.0</ele><time>2026-04-05T09:30:36.189Z</time></trkpt><trkpt lat="44.7927533" lon="9.6192583"><ele>488.0</ele><time>2026-04-05T09:30:37.188Z</time></trkpt><trkpt lat="44.7928833" lon="9.6192683"><ele>490.25</ele><time>2026-04-05T09:30:38.189Z</time></trkpt><trkpt lat="44.793005" lon="9.61923"><ele>492.5</ele><time>2026-04-05T09:30:39.189Z</time></trkpt><trkpt lat="44.7931167" lon="9.619145"><ele>494.75</ele><time>2026-04-05T09:30:40.19Z</time></trkpt><trkpt lat="44.7932017" lon="9.6190283"><ele>497.0</ele><time>2026-04-05T09:30:41.189Z</time></trkpt><trkpt lat="44.7932533" lon="9.61889"><ele>497.0</ele><time>2026-04-05T09:30:42.188Z</time></trkpt><trkpt lat="44.79326" lon="9.61875"><ele>497.00000000000006</ele><time>2026-04-05T09:30:43.189Z</time></trkpt><trkpt lat="44.7932333" lon="9.6186233"><ele>497.00000000000006</ele><time>2026-04-05T09:30:44.19Z</time></trkpt><trkpt lat="44.79317" lon="9.6185367"><ele>497.0</ele><time>2026-04-05T09:30:45.188Z</time></trkpt><trkpt lat="44.7930767" lon="9.6184867"><ele>497.0</ele><time>2026-04-05T09:30:46.188Z</time></trkpt><trkpt lat="44.79294" lon="9.618475"><ele>493.66666666666663</ele><time>2026-04-05T09:30:47.189Z</time></trkpt><trkpt lat="44.7927483" lon="9.61849"><ele>490.33333333333337</ele><time>2026-04-05T09:30:48.192Z</time></trkpt><trkpt lat="44.792505" lon="9.6185333"><ele>487.0</ele><time>2026-04-05T09:30:49.192Z</time></trkpt><trkpt lat="44.7922783" lon="9.6185733"><ele>487.33333333333337</ele><time>2026-04-05T09:30:50.189Z</time></trkpt><trkpt lat="44.7920617" lon="9.6186217"><ele>487.66666666666663</ele><time>2026-04-05T09:30:51.188Z</time></trkpt><trkpt lat="44.7918667" lon="9.6186683"><ele>488.0</ele><time>2026-04-05T09:30:52.188Z</time></trkpt><trkpt lat="44.7916917" lon="9.6187167"><ele>485.5</ele><time>2026-04-05T09:30:53.188Z</time></trkpt><trkpt lat="44.791545" lon="9.6187817"><ele>483.0</ele><time>2026-04-05T09:30:54.188Z</time></trkpt><trkpt lat="44.7914217" lon="9.6188683"><ele>480.5</ele><time>2026-04-05T09:30:55.188Z</time></trkpt><trkpt lat="44.7913083" lon="9.6189517"><ele>478.0</ele><time>2026-04-05T09:30:56.189Z</time></trkpt><trkpt lat="44.7912083" lon="9.61899"><ele>478.0</ele><time>2026-04-05T09:30:57.188Z</time></trkpt><trkpt lat="44.7911067" lon="9.6189767"><ele>478.0</ele><time>2026-04-05T09:30:58.19Z</time></trkpt><trkpt lat="44.7909983" lon="9.6189083"><ele>478.0</ele><time>2026-04-05T09:30:59.189Z</time></trkpt><trkpt lat="44.79089" lon="9.61879"><ele>478.0</ele><time>2026-04-05T09:31:00.189Z</time></trkpt><trkpt lat="44.790725" lon="9.61846"><ele>475.0</ele><time>2026-04-05T09:31:02.19Z</time></trkpt><trkpt lat="44.790665" lon="9.6182883"><ele>471.99999999999994</ele><time>2026-04-05T09:31:03.191Z</time></trkpt><trkpt lat="44.7906083" lon="9.61814"><ele>468.99999999999994</ele><time>2026-04-05T09:31:04.188Z</time></trkpt><trkpt lat="44.7905467" lon="9.6180333"><ele>466.0</ele><time>2026-04-05T09:31:05.189Z</time></trkpt><trkpt lat="44.7904733" lon="9.61796"><ele>463.0</ele><time>2026-04-05T09:31:06.19Z</time></trkpt><trkpt lat="44.79038" lon="9.6179217"><ele>463.0</ele><time>2026-04-05T09:31:07.191Z</time></trkpt><trkpt lat="44.790255" lon="9.61792"><ele>463.0</ele><time>2026-04-05T09:31:08.189Z</time></trkpt><trkpt lat="44.7901233" lon="9.617945"><ele>463.0</ele><time>2026-04-05T09:31:09.188Z</time></trkpt><trkpt lat="44.7900033" lon="9.617995"><ele>463.0</ele><time>2026-04-05T09:31:10.189Z</time></trkpt><trkpt lat="44.7898967" lon="9.618075"><ele>462.5</ele><time>2026-04-05T09:31:11.189Z</time></trkpt><trkpt lat="44.7898033" lon="9.6181933"><ele>462.0</ele><time>2026-04-05T09:31:12.188Z</time></trkpt><trkpt lat="44.7897233" lon="9.6183533"><ele>461.5</ele><time>2026-04-05T09:31:13.188Z</time></trkpt><trkpt lat="44.7896417" lon="9.6185483"><ele>461.0</ele><time>2026-04-05T09:31:14.189Z</time></trkpt><trkpt lat="44.7895567" lon="9.6187533"><ele>463.3333333333333</ele><time>2026-04-05T09:31:15.188Z</time></trkpt><trkpt lat="44.7894683" lon="9.6189517"><ele>465.66666666666663</ele><time>2026-04-05T09:31:16.189Z</time></trkpt><trkpt lat="44.789375" lon="9.61914"><ele>468.0</ele><time>2026-04-05T09:31:17.188Z</time></trkpt><trkpt lat="44.7892633" lon="9.6193233"><ele>462.33333333333337</ele><time>2026-04-05T09:31:18.188Z</time></trkpt><trkpt lat="44.7891433" lon="9.6194967"><ele>456.6666666666667</ele><time>2026-04-05T09:31:19.189Z</time></trkpt><trkpt lat="44.789035" lon="9.6196517"><ele>451.0</ele><time>2026-04-05T09:31:20.189Z</time></trkpt><trkpt lat="44.788955" lon="9.619785"><ele>451.0</ele><time>2026-04-05T09:31:21.188Z</time></trkpt><trkpt lat="44.788905" lon="9.6199217"><ele>451.0</ele><time>2026-04-05T09:31:22.189Z</time></trkpt><trkpt lat="44.788895" lon="9.6200833"><ele>451.0</ele><time>2026-04-05T09:31:23.188Z</time></trkpt><trkpt lat="44.7889183" lon="9.620285"><ele>451.0</ele><time>2026-04-05T09:31:24.188Z</time></trkpt><trkpt lat="44.78893" lon="9.6204883"><ele>451.5</ele><time>2026-04-05T09:31:25.189Z</time></trkpt><trkpt lat="44.7889117" lon="9.6206833"><ele>452.0</ele><time>2026-04-05T09:31:26.189Z</time></trkpt><trkpt lat="44.7888633" lon="9.620875"><ele>452.5</ele><time>2026-04-05T09:31:27.189Z</time></trkpt><trkpt lat="44.78879" lon="9.621075"><ele>453.0</ele><time>2026-04-05T09:31:28.19Z</time></trkpt><trkpt lat="44.7887017" lon="9.621275"><ele>455.75</ele><time>2026-04-05T09:31:29.188Z</time></trkpt><trkpt lat="44.7886183" lon="9.62147"><ele>458.5</ele><time>2026-04-05T09:31:30.189Z</time></trkpt><trkpt lat="44.78854" lon="9.6216517"><ele>461.25</ele><time>2026-04-05T09:31:31.189Z</time></trkpt><trkpt lat="44.7884683" lon="9.621815"><ele>464.0</ele><time>2026-04-05T09:31:32.189Z</time></trkpt><trkpt lat="44.7883967" lon="9.6219383"><ele>461.6</ele><time>2026-04-05T09:31:33.19Z</time></trkpt><trkpt lat="44.7883117" lon="9.6220183"><ele>459.2</ele><time>2026-04-05T09:31:34.191Z</time></trkpt><trkpt lat="44.7882183" lon="9.6220467"><ele>456.80000000000007</ele><time>2026-04-05T09:31:35.19Z</time></trkpt><trkpt lat="44.7881233" lon="9.622025"><ele>454.40000000000003</ele><time>2026-04-05T09:31:36.19Z</time></trkpt><trkpt lat="44.7880467" lon="9.6219367"><ele>452.0</ele><time>2026-04-05T09:31:37.19Z</time></trkpt><trkpt lat="44.78801" lon="9.6218417"><ele>449.5</ele><time>2026-04-05T09:31:38.191Z</time></trkpt><trkpt lat="44.7879917" lon="9.6217133"><ele>447.0</ele><time>2026-04-05T09:31:39.191Z</time></trkpt><trkpt lat="44.78804" lon="9.6215467"><ele>444.5</ele><time>2026-04-05T09:31:40.19Z</time></trkpt><trkpt lat="44.7881183" lon="9.6213717"><ele>442.0</ele><time>2026-04-05T09:31:41.188Z</time></trkpt><trkpt lat="44.78823" lon="9.6211917"><ele>440.0</ele><time>2026-04-05T09:31:42.189Z</time></trkpt><trkpt lat="44.78835" lon="9.6210167"><ele>438.0</ele><time>2026-04-05T09:31:43.188Z</time></trkpt><trkpt lat="44.78845" lon="9.62087"><ele>436.0</ele><time>2026-04-05T09:31:44.188Z</time></trkpt><trkpt lat="44.788515" lon="9.62073"><ele>434.0</ele><time>2026-04-05T09:31:45.188Z</time></trkpt><trkpt lat="44.788535" lon="9.620565"><ele>433.75</ele><time>2026-04-05T09:31:46.19Z</time></trkpt><trkpt lat="44.7885183" lon="9.6203783"><ele>433.5</ele><time>2026-04-05T09:31:47.192Z</time></trkpt><trkpt lat="44.7884567" lon="9.6201783"><ele>433.25</ele><time>2026-04-05T09:31:48.189Z</time></trkpt><trkpt lat="44.7883917" lon="9.6199983"><ele>433.0</ele><time>2026-04-05T09:31:49.188Z</time></trkpt><trkpt lat="44.78835" lon="9.61983"><ele>433.0</ele><time>2026-04-05T09:31:50.189Z</time></trkpt><trkpt lat="44.788335" lon="9.619645"><ele>433.0</ele><time>2026-04-05T09:31:51.188Z</time></trkpt><trkpt lat="44.7883433" lon="9.6194133"><ele>433.0</ele><time>2026-04-05T09:31:52.188Z</time></trkpt><trkpt lat="44.7883717" lon="9.6191183"><ele>432.0</ele><time>2026-04-05T09:31:53.188Z</time></trkpt><trkpt lat="44.7883967" lon="9.618825"><ele>431.0</ele><time>2026-04-05T09:31:54.188Z</time></trkpt><trkpt lat="44.788425" lon="9.618555"><ele>430.0</ele><time>2026-04-05T09:31:55.189Z</time></trkpt><trkpt lat="44.7884667" lon="9.6183167"><ele>431.0</ele><time>2026-04-05T09:31:56.19Z</time></trkpt><trkpt lat="44.788535" lon="9.6180917"><ele>432.0</ele><time>2026-04-05T09:31:57.188Z</time></trkpt><trkpt lat="44.78863" lon="9.6178817"><ele>433.0</ele><time>2026-04-05T09:31:58.189Z</time></trkpt><trkpt lat="44.7887267" lon="9.6176933"><ele>433.0</ele><time>2026-04-05T09:31:59.189Z</time></trkpt><trkpt lat="44.78881" lon="9.6175367"><ele>433.0</ele><time>2026-04-05T09:32:00.188Z</time></trkpt><trkpt lat="44.78887" lon="9.617395"><ele>433.0</ele><time>2026-04-05T09:32:01.19Z</time></trkpt><trkpt lat="44.7889033" lon="9.6172533"><ele>433.0</ele><time>2026-04-05T09:32:02.189Z</time></trkpt><trkpt lat="44.788895" lon="9.61712"><ele>433.0</ele><time>2026-04-05T09:32:03.189Z</time></trkpt><trkpt lat="44.7888417" lon="9.6170067"><ele>432.99999999999994</ele><time>2026-04-05T09:32:04.188Z</time></trkpt><trkpt lat="44.78876" lon="9.6169417"><ele>432.99999999999994</ele><time>2026-04-05T09:32:05.189Z</time></trkpt><trkpt lat="44.78866" lon="9.6169367"><ele>433.0</ele><time>2026-04-05T09:32:06.189Z</time></trkpt><trkpt lat="44.7885583" lon="9.616995"><ele>433.0</ele><time>2026-04-05T09:32:07.189Z</time></trkpt><trkpt lat="44.78845" lon="9.6171"><ele>428.0</ele><time>2026-04-05T09:32:08.189Z</time></trkpt><trkpt lat="44.78832" lon="9.6172467"><ele>423.0</ele><time>2026-04-05T09:32:09.188Z</time></trkpt><trkpt lat="44.7881783" lon="9.6174083"><ele>418.0</ele><time>2026-04-05T09:32:10.189Z</time></trkpt><trkpt lat="44.7880417" lon="9.6175683"><ele>418.0</ele><time>2026-04-05T09:32:11.189Z</time></trkpt><trkpt lat="44.787915" lon="9.617715"><ele>418.0</ele><time>2026-04-05T09:32:12.188Z</time></trkpt><trkpt lat="44.78781" lon="9.6178533"><ele>418.0</ele><time>2026-04-05T09:32:13.189Z</time></trkpt><trkpt lat="44.7877317" lon="9.6180117"><ele>418.0</ele><time>2026-04-05T09:32:14.189Z</time></trkpt><trkpt lat="44.7876783" lon="9.6182067"><ele>415.33333333333337</ele><time>2026-04-05T09:32:15.189Z</time></trkpt><trkpt lat="44.7876167" lon="9.6184233"><ele>412.66666666666663</ele><time>2026-04-05T09:32:16.188Z</time></trkpt><trkpt lat="44.787525" lon="9.6186333"><ele>410.0</ele><time>2026-04-05T09:32:17.188Z</time></trkpt><trkpt lat="44.7874183" lon="9.6188383"><ele>410.0</ele><time>2026-04-05T09:32:18.189Z</time></trkpt><trkpt lat="44.7873167" lon="9.61903"><ele>410.0</ele><time>2026-04-05T09:32:19.189Z</time></trkpt><trkpt lat="44.78722" lon="9.6192167"><ele>410.0</ele><time>2026-04-05T09:32:20.188Z</time></trkpt><trkpt lat="44.7871333" lon="9.619405"><ele>408.75</ele><time>2026-04-05T09:32:21.188Z</time></trkpt><trkpt lat="44.7870533" lon="9.6195883"><ele>407.5</ele><time>2026-04-05T09:32:22.189Z</time></trkpt><trkpt lat="44.7869683" lon="9.6197567"><ele>406.25</ele><time>2026-04-05T09:32:23.188Z</time></trkpt><trkpt lat="44.7868717" lon="9.619905"><ele>405.0</ele><time>2026-04-05T09:32:24.189Z</time></trkpt><trkpt lat="44.78676" lon="9.6200317"><ele>405.0</ele><time>2026-04-05T09:32:25.188Z</time></trkpt><trkpt lat="44.786635" lon="9.620135"><ele>405.0</ele><time>2026-04-05T09:32:26.19Z</time></trkpt><trkpt lat="44.7864933" lon="9.6202317"><ele>405.0</ele><time>2026-04-05T09:32:27.188Z</time></trkpt><trkpt lat="44.7863417" lon="9.6203433"><ele>406.66666666666663</ele><time>2026-04-05T09:32:28.188Z</time></trkpt><trkpt lat="44.7861967" lon="9.6204667"><ele>408.3333333333333</ele><time>2026-04-05T09:32:29.191Z</time></trkpt><trkpt lat="44.7860633" lon="9.620585"><ele>410.0</ele><time>2026-04-05T09:32:30.19Z</time></trkpt><trkpt lat="44.7859483" lon="9.6206883"><ele>408.16666666666663</ele><time>2026-04-05T09:32:31.189Z</time></trkpt><trkpt lat="44.78585" lon="9.620765"><ele>406.3333333333333</ele><time>2026-04-05T09:32:32.189Z</time></trkpt><trkpt lat="44.78576" lon="9.6208033"><ele>404.5</ele><time>2026-04-05T09:32:33.19Z</time></trkpt><trkpt lat="44.7856833" lon="9.6207783"><ele>402.66666666666663</ele><time>2026-04-05T09:32:34.194Z</time></trkpt><trkpt lat="44.7856217" lon="9.6207067"><ele>400.8333333333333</ele><time>2026-04-05T09:32:35.19Z</time></trkpt><trkpt lat="44.7855817" lon="9.6206217"><ele>399.0</ele><time>2026-04-05T09:32:36.189Z</time></trkpt><trkpt lat="44.7856033" lon="9.620495"><ele>399.0</ele><time>2026-04-05T09:32:37.188Z</time></trkpt><trkpt lat="44.7856733" lon="9.6203633"><ele>399.0</ele><time>2026-04-05T09:32:38.189Z</time></trkpt><trkpt lat="44.78578" lon="9.6202317"><ele>399.0</ele><time>2026-04-05T09:32:39.19Z</time></trkpt><trkpt lat="44.7859067" lon="9.6200683"><ele>399.0</ele><time>2026-04-05T09:32:40.188Z</time></trkpt><trkpt lat="44.7860133" lon="9.6198883"><ele>398.66666666666663</ele><time>2026-04-05T09:32:41.191Z</time></trkpt><trkpt lat="44.7860883" lon="9.619685"><ele>398.3333333333333</ele><time>2026-04-05T09:32:42.188Z</time></trkpt><trkpt lat="44.786135" lon="9.6194417"><ele>398.0</ele><time>2026-04-05T09:32:43.189Z</time></trkpt><trkpt lat="44.786155" lon="9.6191617"><ele>398.0</ele><time>2026-04-05T09:32:44.19Z</time></trkpt><trkpt lat="44.78616" lon="9.6188467"><ele>398.0</ele><time>2026-04-05T09:32:45.188Z</time></trkpt><trkpt lat="44.7861667" lon="9.6185183"><ele>396.3333333333333</ele><time>2026-04-05T09:32:46.19Z</time></trkpt><trkpt lat="44.786185" lon="9.6181983"><ele>394.66666666666663</ele><time>2026-04-05T09:32:47.19Z</time></trkpt><trkpt lat="44.7862133" lon="9.6179033"><ele>393.0</ele><time>2026-04-05T09:32:48.189Z</time></trkpt><trkpt lat="44.786245" lon="9.6176267"><ele>391.33333333333337</ele><time>2026-04-05T09:32:49.189Z</time></trkpt><trkpt lat="44.7862783" lon="9.6173533"><ele>389.6666666666667</ele><time>2026-04-05T09:32:50.189Z</time></trkpt><trkpt lat="44.7863067" lon="9.6170917"><ele>388.0</ele><time>2026-04-05T09:32:51.189Z</time></trkpt><trkpt lat="44.7863283" lon="9.6168417"><ele>386.25</ele><time>2026-04-05T09:32:52.19Z</time></trkpt><trkpt lat="44.78634" lon="9.6166183"><ele>384.5</ele><time>2026-04-05T09:32:53.188Z</time></trkpt><trkpt lat="44.786345" lon="9.6164283"><ele>382.75</ele><time>2026-04-05T09:32:54.189Z</time></trkpt><trkpt lat="44.7863467" lon="9.6162633"><ele>381.0</ele><time>2026-04-05T09:32:55.189Z</time></trkpt><trkpt lat="44.7863383" lon="9.616125"><ele>379.0</ele><time>2026-04-05T09:32:56.189Z</time></trkpt><trkpt lat="44.7863117" lon="9.6160067"><ele>377.0</ele><time>2026-04-05T09:32:57.188Z</time></trkpt><trkpt lat="44.78626" lon="9.6158967"><ele>375.0</ele><time>2026-04-05T09:32:58.188Z</time></trkpt><trkpt lat="44.7861667" lon="9.61578"><ele>373.0</ele><time>2026-04-05T09:32:59.189Z</time></trkpt><trkpt lat="44.7860483" lon="9.6156567"><ele>372.75</ele><time>2026-04-05T09:33:00.19Z</time></trkpt><trkpt lat="44.785955" lon="9.6155183"><ele>372.5</ele><time>2026-04-05T09:33:01.188Z</time></trkpt><trkpt lat="44.7858833" lon="9.6153517"><ele>372.25</ele><time>2026-04-05T09:33:02.189Z</time></trkpt><trkpt lat="44.78583" lon="9.6151533"><ele>372.0</ele><time>2026-04-05T09:33:03.19Z</time></trkpt><trkpt lat="44.7857867" lon="9.6149483"><ele>372.0</ele><time>2026-04-05T09:33:04.19Z</time></trkpt><trkpt lat="44.7857483" lon="9.6147617"><ele>372.0</ele><time>2026-04-05T09:33:05.192Z</time></trkpt><trkpt lat="44.7857267" lon="9.614595"><ele>372.0</ele><time>2026-04-05T09:33:06.191Z</time></trkpt><trkpt lat="44.78574" lon="9.614445"><ele>372.0</ele><time>2026-04-05T09:33:07.191Z</time></trkpt><trkpt lat="44.7857917" lon="9.6143033"><ele>370.6</ele><time>2026-04-05T09:33:08.192Z</time></trkpt><trkpt lat="44.7858533" lon="9.61416"><ele>369.20000000000005</ele><time>2026-04-05T09:33:09.19Z</time></trkpt><trkpt lat="44.7858967" lon="9.6140367"><ele>367.8</ele><time>2026-04-05T09:33:10.192Z</time></trkpt><trkpt lat="44.7859133" lon="9.6139183"><ele>366.4</ele><time>2026-04-05T09:33:11.188Z</time></trkpt><trkpt lat="44.7858783" lon="9.613795"><ele>365.0</ele><time>2026-04-05T09:33:12.188Z</time></trkpt><trkpt lat="44.7857933" lon="9.6136567"><ele>362.6666666666667</ele><time>2026-04-05T09:33:13.189Z</time></trkpt><trkpt lat="44.78567" lon="9.613495"><ele>360.3333333333333</ele><time>2026-04-05T09:33:14.189Z</time></trkpt><trkpt lat="44.7855133" lon="9.6133117"><ele>358.0</ele><time>2026-04-05T09:33:15.188Z</time></trkpt><trkpt lat="44.7853433" lon="9.6131267"><ele>358.66666666666663</ele><time>2026-04-05T09:33:16.189Z</time></trkpt><trkpt lat="44.7851733" lon="9.6129417"><ele>359.3333333333333</ele><time>2026-04-05T09:33:17.189Z</time></trkpt><trkpt lat="44.7850167" lon="9.612765"><ele>360.0</ele><time>2026-04-05T09:33:18.189Z</time></trkpt><trkpt lat="44.784865" lon="9.6125967"><ele>356.6666666666667</ele><time>2026-04-05T09:33:19.188Z</time></trkpt><trkpt lat="44.7847233" lon="9.6124383"><ele>353.33333333333337</ele><time>2026-04-05T09:33:20.189Z</time></trkpt><trkpt lat="44.7845967" lon="9.6122967"><ele>350.0</ele><time>2026-04-05T09:33:21.188Z</time></trkpt><trkpt lat="44.7844883" lon="9.612175"><ele>350.0</ele><time>2026-04-05T09:33:22.19Z</time></trkpt><trkpt lat="44.784385" lon="9.6120817"><ele>350.0</ele><time>2026-04-05T09:33:23.188Z</time></trkpt><trkpt lat="44.7842883" lon="9.6120133"><ele>350.0</ele><time>2026-04-05T09:33:24.188Z</time></trkpt><trkpt lat="44.7842017" lon="9.6119567"><ele>350.0</ele><time>2026-04-05T09:33:25.188Z</time></trkpt><trkpt lat="44.784145" lon="9.6118933"><ele>350.0</ele><time>2026-04-05T09:33:26.19Z</time></trkpt><trkpt lat="44.78411" lon="9.6118183"><ele>349.0</ele><time>2026-04-05T09:33:27.19Z</time></trkpt><trkpt lat="44.7841617" lon="9.6116367"><ele>348.0</ele><time>2026-04-05T09:33:29.191Z</time></trkpt><trkpt lat="44.78424" lon="9.61156"><ele>347.0</ele><time>2026-04-05T09:33:30.191Z</time></trkpt><trkpt lat="44.78434" lon="9.6115117"><ele>346.0</ele><time>2026-04-05T09:33:31.191Z</time></trkpt><trkpt lat="44.784445" lon="9.61151"><ele>345.0</ele><time>2026-04-05T09:33:32.191Z</time></trkpt><trkpt lat="44.784545" lon="9.611545"><ele>344.6666666666667</ele><time>2026-04-05T09:33:33.192Z</time></trkpt><trkpt lat="44.784645" lon="9.6116083"><ele>344.3333333333333</ele><time>2026-04-05T09:33:34.19Z</time></trkpt><trkpt lat="44.7847283" lon="9.6116717"><ele>344.0</ele><time>2026-04-05T09:33:35.19Z</time></trkpt><trkpt lat="44.7848017" lon="9.611705"><ele>343.66666666666663</ele><time>2026-04-05T09:33:36.191Z</time></trkpt><trkpt lat="44.7848683" lon="9.6116683"><ele>343.3333333333333</ele><time>2026-04-05T09:33:37.191Z</time></trkpt><trkpt lat="44.784925" lon="9.6115983"><ele>343.0</ele><time>2026-04-05T09:33:38.189Z</time></trkpt><trkpt lat="44.7849417" lon="9.6114833"><ele>343.0</ele><time>2026-04-05T09:33:39.191Z</time></trkpt><trkpt lat="44.7849433" lon="9.6113617"><ele>343.0</ele><time>2026-04-05T09:33:40.19Z</time></trkpt><trkpt lat="44.7849117" lon="9.61123"><ele>343.0</ele><time>2026-04-05T09:33:41.189Z</time></trkpt><trkpt lat="44.7848667" lon="9.6111233"><ele>343.0</ele><time>2026-04-05T09:33:42.189Z</time></trkpt><trkpt lat="44.784755" lon="9.61107"><ele>343.0</ele><time>2026-04-05T09:33:43.19Z</time></trkpt><trkpt lat="44.7846467" lon="9.6110283"><ele>341.25</ele><time>2026-04-05T09:33:44.192Z</time></trkpt><trkpt lat="44.78452" lon="9.6109667"><ele>339.5</ele><time>2026-04-05T09:33:45.188Z</time></trkpt><trkpt lat="44.7843867" lon="9.6108833"><ele>337.75</ele><time>2026-04-05T09:33:46.188Z</time></trkpt><trkpt lat="44.784245" lon="9.6107833"><ele>336.0</ele><time>2026-04-05T09:33:47.189Z</time></trkpt><trkpt lat="44.7841033" lon="9.6106767"><ele>336.0</ele><time>2026-04-05T09:33:48.188Z</time></trkpt><trkpt lat="44.7839633" lon="9.6105683"><ele>336.0</ele><time>2026-04-05T09:33:49.188Z</time></trkpt><trkpt lat="44.783825" lon="9.61047"><ele>336.0</ele><time>2026-04-05T09:33:50.189Z</time></trkpt><trkpt lat="44.783695" lon="9.6103733"><ele>333.0</ele><time>2026-04-05T09:33:51.188Z</time></trkpt><trkpt lat="44.783565" lon="9.6102883"><ele>330.0</ele><time>2026-04-05T09:33:52.188Z</time></trkpt><trkpt lat="44.783435" lon="9.6102183"><ele>327.0</ele><time>2026-04-05T09:33:53.188Z</time></trkpt><trkpt lat="44.78331" lon="9.6101617"><ele>324.0</ele><time>2026-04-05T09:33:54.188Z</time></trkpt><trkpt lat="44.7831883" lon="9.6101167"><ele>324.0</ele><time>2026-04-05T09:33:55.188Z</time></trkpt><trkpt lat="44.7830767" lon="9.610075"><ele>324.0</ele><time>2026-04-05T09:33:56.191Z</time></trkpt><trkpt lat="44.782975" lon="9.6100433"><ele>324.0</ele><time>2026-04-05T09:33:57.189Z</time></trkpt><trkpt lat="44.782885" lon="9.61003"><ele>324.0</ele><time>2026-04-05T09:33:58.192Z</time></trkpt><trkpt lat="44.7828083" lon="9.6100433"><ele>324.0</ele><time>2026-04-05T09:33:59.191Z</time></trkpt><trkpt lat="44.7827367" lon="9.6100783"><ele>324.0</ele><time>2026-04-05T09:34:00.19Z</time></trkpt><trkpt lat="44.7826917" lon="9.6101483"><ele>324.0</ele><time>2026-04-05T09:34:01.19Z</time></trkpt><trkpt lat="44.7826767" lon="9.610255"><ele>324.0</ele><time>2026-04-05T09:34:02.189Z</time></trkpt><trkpt lat="44.78268" lon="9.6103833"><ele>324.0</ele><time>2026-04-05T09:34:03.189Z</time></trkpt><trkpt lat="44.7826533" lon="9.6104817"><ele>324.0</ele><time>2026-04-05T09:34:04.189Z</time></trkpt><trkpt lat="44.7826083" lon="9.610555"><ele>324.0</ele><time>2026-04-05T09:34:05.189Z</time></trkpt><trkpt lat="44.782545" lon="9.6106033"><ele>324.4</ele><time>2026-04-05T09:34:06.19Z</time></trkpt><trkpt lat="44.7824783" lon="9.6106283"><ele>324.79999999999995</ele><time>2026-04-05T09:34:07.19Z</time></trkpt><trkpt lat="44.7823617" lon="9.6105917"><ele>325.20000000000005</ele><time>2026-04-05T09:34:09.19Z</time></trkpt><trkpt lat="44.7822867" lon="9.6104683"><ele>325.6</ele><time>2026-04-05T09:34:11.188Z</time></trkpt><trkpt lat="44.7821667" lon="9.610385"><ele>326.0</ele><time>2026-04-05T09:34:13.188Z</time></trkpt><trkpt lat="44.78207" lon="9.6103617"><ele>326.0</ele><time>2026-04-05T09:34:14.189Z</time></trkpt><trkpt lat="44.7819467" lon="9.6103317"><ele>326.0</ele><time>2026-04-05T09:34:15.188Z</time></trkpt><trkpt lat="44.7818117" lon="9.6102833"><ele>326.0</ele><time>2026-04-05T09:34:16.189Z</time></trkpt><trkpt lat="44.7816767" lon="9.6102183"><ele>326.0</ele><time>2026-04-05T09:34:17.188Z</time></trkpt><trkpt lat="44.78155" lon="9.6101467"><ele>325.75</ele><time>2026-04-05T09:34:18.188Z</time></trkpt><trkpt lat="44.7814333" lon="9.6100733"><ele>325.5</ele><time>2026-04-05T09:34:19.19Z</time></trkpt><trkpt lat="44.78132" lon="9.6100083"><ele>325.25</ele><time>2026-04-05T09:34:20.189Z</time></trkpt><trkpt lat="44.78121" lon="9.60995"><ele>325.0</ele><time>2026-04-05T09:34:21.188Z</time></trkpt><trkpt lat="44.7811033" lon="9.6098917"><ele>325.0</ele><time>2026-04-05T09:34:22.189Z</time></trkpt><trkpt lat="44.7810017" lon="9.609835"><ele>325.0</ele><time>2026-04-05T09:34:23.189Z</time></trkpt><trkpt lat="44.7808983" lon="9.6097767"><ele>325.0</ele><time>2026-04-05T09:34:24.188Z</time></trkpt><trkpt lat="44.780795" lon="9.609715"><ele>325.0</ele><time>2026-04-05T09:34:25.189Z</time></trkpt><trkpt lat="44.78069" lon="9.6096533"><ele>325.0</ele><time>2026-04-05T09:34:26.19Z</time></trkpt><trkpt lat="44.7805933" lon="9.6096017"><ele>325.0</ele><time>2026-04-05T09:34:27.189Z</time></trkpt><trkpt lat="44.780505" lon="9.6095533"><ele>325.0</ele><time>2026-04-05T09:34:28.19Z</time></trkpt><trkpt lat="44.780425" lon="9.6095083"><ele>325.0</ele><time>2026-04-05T09:34:29.191Z</time></trkpt><trkpt lat="44.7803483" lon="9.609465"><ele>325.0</ele><time>2026-04-05T09:34:30.191Z</time></trkpt><trkpt lat="44.7802783" lon="9.6094183"><ele>325.0</ele><time>2026-04-05T09:34:31.191Z</time></trkpt><trkpt lat="44.780215" lon="9.6093833"><ele>325.0</ele><time>2026-04-05T09:34:32.191Z</time></trkpt><trkpt lat="44.7801117" lon="9.6093267"><ele>325.2</ele><time>2026-04-05T09:34:34.191Z</time></trkpt><trkpt lat="44.7799933" lon="9.60929"><ele>325.4</ele><time>2026-04-05T09:34:36.191Z</time></trkpt><trkpt lat="44.7799267" lon="9.60929"><ele>325.6</ele><time>2026-04-05T09:34:37.191Z</time></trkpt><trkpt lat="44.7798183" lon="9.6093083"><ele>325.8</ele><time>2026-04-05T09:34:39.193Z</time></trkpt><trkpt lat="44.7797483" lon="9.6093067"><ele>326.0</ele><time>2026-04-05T09:34:41.191Z</time></trkpt><trkpt lat="44.779685" lon="9.6092167"><ele>326.0</ele><time>2026-04-05T09:34:48.189Z</time></trkpt><trkpt lat="44.7796217" lon="9.6092017"><ele>326.0</ele><time>2026-04-05T09:34:50.189Z</time></trkpt><trkpt lat="44.7795867" lon="9.6091233"><ele>326.0</ele><time>2026-04-05T09:41:11.188Z</time></trkpt><trkpt lat="44.7795017" lon="9.60899"><ele>326.0</ele><time>2026-04-05T09:41:19.19Z</time></trkpt><trkpt lat="44.7794283" lon="9.608935"><ele>326.0</ele><time>2026-04-05T09:41:20.191Z</time></trkpt><trkpt lat="44.779335" lon="9.6088783"><ele>326.0</ele><time>2026-04-05T09:41:21.19Z</time></trkpt><trkpt lat="44.7792167" lon="9.6088133"><ele>325.75</ele><time>2026-04-05T09:41:22.19Z</time></trkpt><trkpt lat="44.7790883" lon="9.6087467"><ele>325.5</ele><time>2026-04-05T09:41:23.19Z</time></trkpt><trkpt lat="44.7789567" lon="9.608675"><ele>325.25</ele><time>2026-04-05T09:41:24.188Z</time></trkpt><trkpt lat="44.7788267" lon="9.608605"><ele>325.0</ele><time>2026-04-05T09:41:25.193Z</time></trkpt><trkpt lat="44.7787033" lon="9.608535"><ele>325.0</ele><time>2026-04-05T09:41:26.188Z</time></trkpt><trkpt lat="44.77859" lon="9.60846"><ele>325.0</ele><time>2026-04-05T09:41:27.189Z</time></trkpt><trkpt lat="44.7784767" lon="9.6083933"><ele>325.0</ele><time>2026-04-05T09:41:28.188Z</time></trkpt><trkpt lat="44.7783667" lon="9.60833"><ele>325.0</ele><time>2026-04-05T09:41:29.188Z</time></trkpt><trkpt lat="44.778255" lon="9.6082633"><ele>325.75</ele><time>2026-04-05T09:41:30.188Z</time></trkpt><trkpt lat="44.77814" lon="9.6081933"><ele>326.5</ele><time>2026-04-05T09:41:31.188Z</time></trkpt><trkpt lat="44.7780267" lon="9.6081217"><ele>327.25</ele><time>2026-04-05T09:41:32.189Z</time></trkpt><trkpt lat="44.7779067" lon="9.6080533"><ele>328.0</ele><time>2026-04-05T09:41:33.19Z</time></trkpt><trkpt lat="44.77778" lon="9.6079833"><ele>328.0</ele><time>2026-04-05T09:41:34.189Z</time></trkpt><trkpt lat="44.7776533" lon="9.6079117"><ele>328.0</ele><time>2026-04-05T09:41:35.189Z</time></trkpt><trkpt lat="44.7775217" lon="9.60784"><ele>328.0</ele><time>2026-04-05T09:41:36.188Z</time></trkpt><trkpt lat="44.7773933" lon="9.6077683"><ele>328.0</ele><time>2026-04-05T09:41:37.188Z</time></trkpt><trkpt lat="44.7772717" lon="9.6076983"><ele>328.0</ele><time>2026-04-05T09:41:38.189Z</time></trkpt><trkpt lat="44.7771533" lon="9.6076333"><ele>328.0</ele><time>2026-04-05T09:41:39.188Z</time></trkpt><trkpt lat="44.7770317" lon="9.6075667"><ele>328.0</ele><time>2026-04-05T09:41:40.187Z</time></trkpt><trkpt lat="44.7769083" lon="9.60749"><ele>328.0</ele><time>2026-04-05T09:41:41.189Z</time></trkpt><trkpt lat="44.7767883" lon="9.6074167"><ele>328.25</ele><time>2026-04-05T09:41:42.188Z</time></trkpt><trkpt lat="44.7766717" lon="9.6073433"><ele>328.5</ele><time>2026-04-05T09:41:43.188Z</time></trkpt><trkpt lat="44.77656" lon="9.6072833"><ele>328.75</ele><time>2026-04-05T09:41:44.189Z</time></trkpt><trkpt lat="44.7764583" lon="9.6072317"><ele>329.0</ele><time>2026-04-05T09:41:45.189Z</time></trkpt><trkpt lat="44.7763667" lon="9.6071783"><ele>329.0</ele><time>2026-04-05T09:41:46.189Z</time></trkpt><trkpt lat="44.7762983" lon="9.6071167"><ele>329.0</ele><time>2026-04-05T09:41:47.188Z</time></trkpt><trkpt lat="44.7762433" lon="9.6070617"><ele>329.0</ele><time>2026-04-05T09:41:48.188Z</time></trkpt><trkpt lat="44.77619" lon="9.6069183"><ele>329.0</ele><time>2026-04-05T09:41:50.19Z</time></trkpt><trkpt lat="44.7761933" lon="9.6068267"><ele>329.0</ele><time>2026-04-05T09:41:51.192Z</time></trkpt><trkpt lat="44.77621" lon="9.6067167"><ele>329.0</ele><time>2026-04-05T09:41:52.192Z</time></trkpt><trkpt lat="44.776225" lon="9.606585"><ele>328.2</ele><time>2026-04-05T09:41:53.191Z</time></trkpt><trkpt lat="44.7762367" lon="9.6064333"><ele>327.4</ele><time>2026-04-05T09:41:54.189Z</time></trkpt><trkpt lat="44.7762467" lon="9.6062767"><ele>326.6</ele><time>2026-04-05T09:41:55.188Z</time></trkpt><trkpt lat="44.7762533" lon="9.6061267"><ele>325.8</ele><time>2026-04-05T09:41:56.19Z</time></trkpt><trkpt lat="44.7762567" lon="9.6059967"><ele>325.0</ele><time>2026-04-05T09:41:57.189Z</time></trkpt><trkpt lat="44.7762617" lon="9.6058783"><ele>325.0</ele><time>2026-04-05T09:41:58.189Z</time></trkpt><trkpt lat="44.7762667" lon="9.6057783"><ele>325.0</ele><time>2026-04-05T09:41:59.188Z</time></trkpt><trkpt lat="44.77627" lon="9.6056317"><ele>325.0</ele><time>2026-04-05T09:42:01.188Z</time></trkpt><trkpt lat="44.7762233" lon="9.6055483"><ele>325.0</ele><time>2026-04-05T09:42:03.189Z</time></trkpt><trkpt lat="44.7761033" lon="9.6055217"><ele>325.0</ele><time>2026-04-05T09:42:05.188Z</time></trkpt><trkpt lat="44.7760067" lon="9.6055233"><ele>325.5</ele><time>2026-04-05T09:42:06.189Z</time></trkpt><trkpt lat="44.7758817" lon="9.605515"><ele>326.0</ele><time>2026-04-05T09:42:07.189Z</time></trkpt><trkpt lat="44.7757417" lon="9.6055133"><ele>326.5</ele><time>2026-04-05T09:42:08.189Z</time></trkpt><trkpt lat="44.7755883" lon="9.6054983"><ele>327.0</ele><time>2026-04-05T09:42:09.19Z</time></trkpt><trkpt lat="44.77543" lon="9.6054717"><ele>327.0</ele><time>2026-04-05T09:42:10.188Z</time></trkpt><trkpt lat="44.7752683" lon="9.6054383"><ele>327.0</ele><time>2026-04-05T09:42:11.188Z</time></trkpt><trkpt lat="44.7751017" lon="9.605395"><ele>327.0</ele><time>2026-04-05T09:42:12.188Z</time></trkpt><trkpt lat="44.77494" lon="9.605355"><ele>327.25</ele><time>2026-04-05T09:42:13.188Z</time></trkpt><trkpt lat="44.7747867" lon="9.6053133"><ele>327.5</ele><time>2026-04-05T09:42:14.188Z</time></trkpt><trkpt lat="44.7746383" lon="9.60528"><ele>327.75</ele><time>2026-04-05T09:42:15.189Z</time></trkpt><trkpt lat="44.7745017" lon="9.6052483"><ele>328.0</ele><time>2026-04-05T09:42:16.188Z</time></trkpt><trkpt lat="44.7743783" lon="9.6052217"><ele>328.4</ele><time>2026-04-05T09:42:17.189Z</time></trkpt><trkpt lat="44.7742717" lon="9.6051867"><ele>328.79999999999995</ele><time>2026-04-05T09:42:18.188Z</time></trkpt><trkpt lat="44.7741767" lon="9.6051533"><ele>329.2</ele><time>2026-04-05T09:42:19.188Z</time></trkpt><trkpt lat="44.77409" lon="9.60512"><ele>329.6</ele><time>2026-04-05T09:42:20.188Z</time></trkpt><trkpt lat="44.7740167" lon="9.6050967"><ele>330.0</ele><time>2026-04-05T09:42:21.188Z</time></trkpt><trkpt lat="44.7739217" lon="9.6050583"><ele>330.0</ele><time>2026-04-05T09:42:23.191Z</time></trkpt><trkpt lat="44.77381" lon="9.6050067"><ele>330.0</ele><time>2026-04-05T09:42:25.189Z</time></trkpt><trkpt lat="44.7737467" lon="9.604975"><ele>330.0</ele><time>2026-04-05T09:42:26.19Z</time></trkpt><trkpt lat="44.7736733" lon="9.6049367"><ele>330.0</ele><time>2026-04-05T09:42:27.188Z</time></trkpt><trkpt lat="44.77359" lon="9.604895"><ele>330.0</ele><time>2026-04-05T09:42:28.188Z</time></trkpt><trkpt lat="44.7735017" lon="9.604845"><ele>330.0</ele><time>2026-04-05T09:42:29.189Z</time></trkpt><trkpt lat="44.7734083" lon="9.6047883"><ele>330.5</ele><time>2026-04-05T09:42:30.189Z</time></trkpt><trkpt lat="44.7733083" lon="9.6047317"><ele>331.0</ele><time>2026-04-05T09:42:31.189Z</time></trkpt><trkpt lat="44.773205" lon="9.604675"><ele>331.5</ele><time>2026-04-05T09:42:32.189Z</time></trkpt><trkpt lat="44.7730967" lon="9.6046217"><ele>332.0</ele><time>2026-04-05T09:42:33.188Z</time></trkpt><trkpt lat="44.772985" lon="9.6045683"><ele>332.0</ele><time>2026-04-05T09:42:34.188Z</time></trkpt><trkpt lat="44.77288" lon="9.6045067"><ele>332.0</ele><time>2026-04-05T09:42:35.189Z</time></trkpt><trkpt lat="44.77279" lon="9.6044433"><ele>332.0</ele><time>2026-04-05T09:42:36.188Z</time></trkpt><trkpt lat="44.772725" lon="9.604385"><ele>332.0</ele><time>2026-04-05T09:42:37.188Z</time></trkpt><trkpt lat="44.7726633" lon="9.60429"><ele>332.0</ele><time>2026-04-05T09:42:39.188Z</time></trkpt><trkpt lat="44.77275" lon="9.6042567"><ele>333.6666666666667</ele><time>2026-04-05T09:42:42.191Z</time></trkpt><trkpt lat="44.7728617" lon="9.6043083"><ele>335.33333333333337</ele><time>2026-04-05T09:42:44.188Z</time></trkpt><trkpt lat="44.77293" lon="9.6043517"><ele>337.0</ele><time>2026-04-05T09:42:45.188Z</time></trkpt><trkpt lat="44.7730083" lon="9.6043767"><ele>338.6666666666667</ele><time>2026-04-05T09:42:46.188Z</time></trkpt><trkpt lat="44.773095" lon="9.6043733"><ele>340.3333333333333</ele><time>2026-04-05T09:42:47.188Z</time></trkpt><trkpt lat="44.7731783" lon="9.6043417"><ele>342.0</ele><time>2026-04-05T09:42:48.188Z</time></trkpt><trkpt lat="44.7732617" lon="9.6042817"><ele>342.0</ele><time>2026-04-05T09:42:49.188Z</time></trkpt><trkpt lat="44.7733417" lon="9.604205"><ele>342.0</ele><time>2026-04-05T09:42:50.189Z</time></trkpt><trkpt lat="44.77342" lon="9.6041183"><ele>342.0</ele><time>2026-04-05T09:42:51.189Z</time></trkpt><trkpt lat="44.7734883" lon="9.6040267"><ele>342.0</ele><time>2026-04-05T09:42:52.188Z</time></trkpt><trkpt lat="44.773545" lon="9.6039233"><ele>342.0</ele><time>2026-04-05T09:42:53.188Z</time></trkpt><trkpt lat="44.7735967" lon="9.6038333"><ele>342.0</ele><time>2026-04-05T09:42:54.189Z</time></trkpt><trkpt lat="44.7736383" lon="9.6037567"><ele>342.0</ele><time>2026-04-05T09:42:55.189Z</time></trkpt><trkpt lat="44.7736667" lon="9.6036283"><ele>342.0</ele><time>2026-04-05T09:42:57.188Z</time></trkpt><trkpt lat="44.7736333" lon="9.603455"><ele>342.0</ele><time>2026-04-05T09:42:59.188Z</time></trkpt><trkpt lat="44.7736" lon="9.603345"><ele>342.0</ele><time>2026-04-05T09:43:00.191Z</time></trkpt><trkpt lat="44.77356" lon="9.603215"><ele>342.0</ele><time>2026-04-05T09:43:01.189Z</time></trkpt><trkpt lat="44.7735267" lon="9.6030717"><ele>342.0</ele><time>2026-04-05T09:43:02.189Z</time></trkpt><trkpt lat="44.7734983" lon="9.6029283"><ele>342.0</ele><time>2026-04-05T09:43:03.188Z</time></trkpt><trkpt lat="44.77348" lon="9.602795"><ele>342.0</ele><time>2026-04-05T09:43:04.188Z</time></trkpt><trkpt lat="44.773475" lon="9.6026667"><ele>342.0</ele><time>2026-04-05T09:43:05.188Z</time></trkpt><trkpt lat="44.77348" lon="9.60254"><ele>345.8</ele><time>2026-04-05T09:43:06.189Z</time></trkpt><trkpt lat="44.7734867" lon="9.60241"><ele>349.6</ele><time>2026-04-05T09:43:07.19Z</time></trkpt><trkpt lat="44.7734867" lon="9.60227"><ele>353.40000000000003</ele><time>2026-04-05T09:43:08.188Z</time></trkpt><trkpt lat="44.7734717" lon="9.60213"><ele>357.20000000000005</ele><time>2026-04-05T09:43:09.188Z</time></trkpt><trkpt lat="44.7734383" lon="9.6019867"><ele>361.0</ele><time>2026-04-05T09:43:10.189Z</time></trkpt><trkpt lat="44.77339" lon="9.6018417"><ele>361.25</ele><time>2026-04-05T09:43:11.189Z</time></trkpt><trkpt lat="44.773325" lon="9.6016783"><ele>361.5</ele><time>2026-04-05T09:43:12.188Z</time></trkpt><trkpt lat="44.7732517" lon="9.601515"><ele>361.75</ele><time>2026-04-05T09:43:13.19Z</time></trkpt><trkpt lat="44.7731817" lon="9.601365"><ele>362.0</ele><time>2026-04-05T09:43:14.19Z</time></trkpt><trkpt lat="44.7731283" lon="9.6012267"><ele>364.75</ele><time>2026-04-05T09:43:15.188Z</time></trkpt><trkpt lat="44.773095" lon="9.6010817"><ele>367.5</ele><time>2026-04-05T09:43:16.19Z</time></trkpt><trkpt lat="44.7730717" lon="9.600915"><ele>370.25</ele><time>2026-04-05T09:43:17.19Z</time></trkpt><trkpt lat="44.7730567" lon="9.6007217"><ele>373.0</ele><time>2026-04-05T09:43:18.188Z</time></trkpt><trkpt lat="44.77304" lon="9.6005083"><ele>377.0</ele><time>2026-04-05T09:43:19.188Z</time></trkpt><trkpt lat="44.7730233" lon="9.6003133"><ele>381.0</ele><time>2026-04-05T09:43:20.188Z</time></trkpt><trkpt lat="44.7730117" lon="9.60014"><ele>385.0</ele><time>2026-04-05T09:43:21.188Z</time></trkpt><trkpt lat="44.77301" lon="9.6000017"><ele>389.0</ele><time>2026-04-05T09:43:22.188Z</time></trkpt><trkpt lat="44.7730267" lon="9.5998617"><ele>389.0</ele><time>2026-04-05T09:43:23.188Z</time></trkpt><trkpt lat="44.7730483" lon="9.5997067"><ele>389.0</ele><time>2026-04-05T09:43:24.188Z</time></trkpt><trkpt lat="44.7730633" lon="9.5995283"><ele>389.0</ele><time>2026-04-05T09:43:25.188Z</time></trkpt><trkpt lat="44.7730767" lon="9.5993367"><ele>389.0</ele><time>2026-04-05T09:43:26.189Z</time></trkpt><trkpt lat="44.7731" lon="9.5991383"><ele>391.25</ele><time>2026-04-05T09:43:27.191Z</time></trkpt><trkpt lat="44.773135" lon="9.59894"><ele>393.5</ele><time>2026-04-05T09:43:28.19Z</time></trkpt><trkpt lat="44.7731767" lon="9.5987433"><ele>395.75</ele><time>2026-04-05T09:43:29.19Z</time></trkpt><trkpt lat="44.7732183" lon="9.5985517"><ele>398.0</ele><time>2026-04-05T09:43:30.192Z</time></trkpt><trkpt lat="44.7732567" lon="9.5983683"><ele>399.25</ele><time>2026-04-05T09:43:31.19Z</time></trkpt><trkpt lat="44.7732883" lon="9.5981983"><ele>400.5</ele><time>2026-04-05T09:43:32.188Z</time></trkpt><trkpt lat="44.7733133" lon="9.5980217"><ele>401.75</ele><time>2026-04-05T09:43:33.188Z</time></trkpt><trkpt lat="44.77334" lon="9.5978467"><ele>403.0</ele><time>2026-04-05T09:43:34.188Z</time></trkpt><trkpt lat="44.7733633" lon="9.5976883"><ele>405.0</ele><time>2026-04-05T09:43:35.189Z</time></trkpt><trkpt lat="44.7733883" lon="9.5975483"><ele>407.0</ele><time>2026-04-05T09:43:36.189Z</time></trkpt><trkpt lat="44.7734233" lon="9.5974233"><ele>409.0</ele><time>2026-04-05T09:43:37.188Z</time></trkpt><trkpt lat="44.7734633" lon="9.597305"><ele>411.0</ele><time>2026-04-05T09:43:38.188Z</time></trkpt><trkpt lat="44.7735117" lon="9.5971967"><ele>413.0</ele><time>2026-04-05T09:43:39.188Z</time></trkpt><trkpt lat="44.7735617" lon="9.5970917"><ele>414.99999999999994</ele><time>2026-04-05T09:43:40.188Z</time></trkpt><trkpt lat="44.77361" lon="9.5969883"><ele>417.0</ele><time>2026-04-05T09:43:41.188Z</time></trkpt><trkpt lat="44.7736467" lon="9.59689"><ele>419.0</ele><time>2026-04-05T09:43:42.189Z</time></trkpt><trkpt lat="44.7736583" lon="9.5967833"><ele>421.0</ele><time>2026-04-05T09:43:43.19Z</time></trkpt><trkpt lat="44.773645" lon="9.5966683"><ele>422.99999999999994</ele><time>2026-04-05T09:43:44.19Z</time></trkpt><trkpt lat="44.7736117" lon="9.596545"><ele>425.0</ele><time>2026-04-05T09:43:45.189Z</time></trkpt><trkpt lat="44.7735633" lon="9.5964083"><ele>424.49999999999994</ele><time>2026-04-05T09:43:46.188Z</time></trkpt><trkpt lat="44.7735133" lon="9.5962783"><ele>424.0</ele><time>2026-04-05T09:43:47.188Z</time></trkpt><trkpt lat="44.7734717" lon="9.5961567"><ele>423.5</ele><time>2026-04-05T09:43:48.189Z</time></trkpt><trkpt lat="44.7734483" lon="9.596045"><ele>423.0</ele><time>2026-04-05T09:43:49.189Z</time></trkpt><trkpt lat="44.77344" lon="9.59594"><ele>422.49999999999994</ele><time>2026-04-05T09:43:50.192Z</time></trkpt><trkpt lat="44.77345" lon="9.5958517"><ele>422.0</ele><time>2026-04-05T09:43:51.189Z</time></trkpt><trkpt lat="44.7734817" lon="9.595745"><ele>424.75</ele><time>2026-04-05T09:43:52.188Z</time></trkpt><trkpt lat="44.7735367" lon="9.5956033"><ele>427.5</ele><time>2026-04-05T09:43:53.189Z</time></trkpt><trkpt lat="44.7736083" lon="9.59543"><ele>430.25</ele><time>2026-04-05T09:43:54.189Z</time></trkpt><trkpt lat="44.7736767" lon="9.5952767"><ele>433.0</ele><time>2026-04-05T09:43:55.189Z</time></trkpt><trkpt lat="44.773755" lon="9.5951517"><ele>436.25</ele><time>2026-04-05T09:43:56.191Z</time></trkpt><trkpt lat="44.773835" lon="9.59503"><ele>439.5</ele><time>2026-04-05T09:43:57.189Z</time></trkpt><trkpt lat="44.7739083" lon="9.594905"><ele>442.75</ele><time>2026-04-05T09:43:58.188Z</time></trkpt><trkpt lat="44.7739717" lon="9.5947633"><ele>446.0</ele><time>2026-04-05T09:43:59.189Z</time></trkpt><trkpt lat="44.77403" lon="9.594585"><ele>449.5</ele><time>2026-04-05T09:44:00.19Z</time></trkpt><trkpt lat="44.7740817" lon="9.59439"><ele>453.0</ele><time>2026-04-05T09:44:01.191Z</time></trkpt><trkpt lat="44.77413" lon="9.5942117"><ele>456.5</ele><time>2026-04-05T09:44:02.191Z</time></trkpt><trkpt lat="44.7741617" lon="9.5940583"><ele>460.0</ele><time>2026-04-05T09:44:03.188Z</time></trkpt><trkpt lat="44.774175" lon="9.593915"><ele>460.0</ele><time>2026-04-05T09:44:04.188Z</time></trkpt><trkpt lat="44.7741717" lon="9.593755"><ele>460.0</ele><time>2026-04-05T09:44:05.189Z</time></trkpt><trkpt lat="44.77416" lon="9.5936"><ele>460.0</ele><time>2026-04-05T09:44:06.189Z</time></trkpt><trkpt lat="44.774155" lon="9.593455"><ele>460.0</ele><time>2026-04-05T09:44:07.189Z</time></trkpt><trkpt lat="44.77417" lon="9.5933183"><ele>460.0</ele><time>2026-04-05T09:44:08.189Z</time></trkpt><trkpt lat="44.7742033" lon="9.59317"><ele>461.6</ele><time>2026-04-05T09:44:09.188Z</time></trkpt><trkpt lat="44.77424" lon="9.5930083"><ele>463.2</ele><time>2026-04-05T09:44:10.188Z</time></trkpt><trkpt lat="44.774265" lon="9.592855"><ele>464.79999999999995</ele><time>2026-04-05T09:44:11.19Z</time></trkpt><trkpt lat="44.7742783" lon="9.5927133"><ele>466.4</ele><time>2026-04-05T09:44:12.191Z</time></trkpt><trkpt lat="44.77428" lon="9.592565"><ele>468.0</ele><time>2026-04-05T09:44:13.193Z</time></trkpt><trkpt lat="44.7742733" lon="9.5924017"><ele>469.6666666666667</ele><time>2026-04-05T09:44:14.188Z</time></trkpt><trkpt lat="44.7742633" lon="9.592255"><ele>471.33333333333337</ele><time>2026-04-05T09:44:15.188Z</time></trkpt><trkpt lat="44.7742617" lon="9.5921367"><ele>473.0</ele><time>2026-04-05T09:44:16.19Z</time></trkpt><trkpt lat="44.7742733" lon="9.5920267"><ele>474.6666666666667</ele><time>2026-04-05T09:44:17.188Z</time></trkpt><trkpt lat="44.7743033" lon="9.59192"><ele>476.33333333333337</ele><time>2026-04-05T09:44:18.188Z</time></trkpt><trkpt lat="44.77432" lon="9.5918083"><ele>478.0</ele><time>2026-04-05T09:44:19.193Z</time></trkpt><trkpt lat="44.7743183" lon="9.5916967"><ele>480.59999999999997</ele><time>2026-04-05T09:44:20.189Z</time></trkpt><trkpt lat="44.7743017" lon="9.5915733"><ele>483.19999999999993</ele><time>2026-04-05T09:44:21.19Z</time></trkpt><trkpt lat="44.7742917" lon="9.591445"><ele>485.8</ele><time>2026-04-05T09:44:22.189Z</time></trkpt><trkpt lat="44.7742917" lon="9.591305"><ele>488.4</ele><time>2026-04-05T09:44:23.188Z</time></trkpt><trkpt lat="44.7742883" lon="9.5911633"><ele>491.0</ele><time>2026-04-05T09:44:24.188Z</time></trkpt><trkpt lat="44.774265" lon="9.5910283"><ele>492.49999999999994</ele><time>2026-04-05T09:44:25.189Z</time></trkpt><trkpt lat="44.7742467" lon="9.5909083"><ele>494.0</ele><time>2026-04-05T09:44:26.188Z</time></trkpt><trkpt lat="44.7742333" lon="9.5908117"><ele>495.5</ele><time>2026-04-05T09:44:27.188Z</time></trkpt><trkpt lat="44.7742267" lon="9.5906783"><ele>497.0</ele><time>2026-04-05T09:44:29.188Z</time></trkpt><trkpt lat="44.7743117" lon="9.5906833"><ele>498.49999999999994</ele><time>2026-04-05T09:44:33.188Z</time></trkpt><trkpt lat="44.7743717" lon="9.590785"><ele>500.0</ele><time>2026-04-05T09:44:35.189Z</time></trkpt><trkpt lat="44.7744317" lon="9.5909433"><ele>501.2</ele><time>2026-04-05T09:44:37.188Z</time></trkpt><trkpt lat="44.7744667" lon="9.5910433"><ele>502.4</ele><time>2026-04-05T09:44:38.19Z</time></trkpt><trkpt lat="44.7745083" lon="9.5911467"><ele>503.6</ele><time>2026-04-05T09:44:39.189Z</time></trkpt><trkpt lat="44.7745683" lon="9.59125"><ele>504.8</ele><time>2026-04-05T09:44:40.189Z</time></trkpt><trkpt lat="44.77464" lon="9.5913383"><ele>506.0</ele><time>2026-04-05T09:44:41.188Z</time></trkpt><trkpt lat="44.7747217" lon="9.59141"><ele>506.0</ele><time>2026-04-05T09:44:42.192Z</time></trkpt><trkpt lat="44.7748033" lon="9.5914717"><ele>506.0</ele><time>2026-04-05T09:44:43.189Z</time></trkpt><trkpt lat="44.77489" lon="9.5915217"><ele>506.0</ele><time>2026-04-05T09:44:44.192Z</time></trkpt><trkpt lat="44.7749783" lon="9.5915617"><ele>506.0</ele><time>2026-04-05T09:44:45.192Z</time></trkpt><trkpt lat="44.7750533" lon="9.5915767"><ele>506.0</ele><time>2026-04-05T09:44:46.19Z</time></trkpt><trkpt lat="44.7751483" lon="9.5916133"><ele>506.3333333333333</ele><time>2026-04-05T09:44:48.191Z</time></trkpt><trkpt lat="44.77521" lon="9.59169"><ele>506.66666666666663</ele><time>2026-04-05T09:44:50.189Z</time></trkpt><trkpt lat="44.7752767" lon="9.5917983"><ele>507.0</ele><time>2026-04-05T09:44:52.188Z</time></trkpt><trkpt lat="44.7753183" lon="9.591875"><ele>507.33333333333337</ele><time>2026-04-05T09:44:53.19Z</time></trkpt><trkpt lat="44.77537" lon="9.591965"><ele>507.6666666666667</ele><time>2026-04-05T09:44:54.188Z</time></trkpt><trkpt lat="44.7754183" lon="9.59206"><ele>508.0</ele><time>2026-04-05T09:44:55.189Z</time></trkpt><trkpt lat="44.7754683" lon="9.5921533"><ele>506.33333333333337</ele><time>2026-04-05T09:44:56.189Z</time></trkpt><trkpt lat="44.7755167" lon="9.5922383"><ele>504.6666666666667</ele><time>2026-04-05T09:44:57.188Z</time></trkpt><trkpt lat="44.7755617" lon="9.5923133"><ele>503.0</ele><time>2026-04-05T09:44:58.188Z</time></trkpt><trkpt lat="44.77561" lon="9.5923883"><ele>501.33333333333337</ele><time>2026-04-05T09:44:59.188Z</time></trkpt><trkpt lat="44.77565" lon="9.59246"><ele>499.6666666666667</ele><time>2026-04-05T09:45:00.189Z</time></trkpt><trkpt lat="44.7757167" lon="9.592575"><ele>498.0</ele><time>2026-04-05T09:45:02.188Z</time></trkpt><trkpt lat="44.77577" lon="9.59267"><ele>498.0</ele><time>2026-04-05T09:45:04.189Z</time></trkpt><trkpt lat="44.7758183" lon="9.592735"><ele>498.0</ele><time>2026-04-05T09:45:06.188Z</time></trkpt><trkpt lat="44.7758833" lon="9.5927617"><ele>498.0</ele><time>2026-04-05T09:45:09.188Z</time></trkpt><trkpt lat="44.7759517" lon="9.59274"><ele>498.0</ele><time>2026-04-05T09:45:11.189Z</time></trkpt><trkpt lat="44.7760467" lon="9.59271"><ele>498.0</ele><time>2026-04-05T09:45:13.188Z</time></trkpt><trkpt lat="44.7761317" lon="9.592725"><ele>498.0</ele><time>2026-04-05T09:45:15.19Z</time></trkpt><trkpt lat="44.7762473" lon="9.5927477"><ele>497.25</ele><time>2026-04-05T09:45:17.189Z</time></trkpt><trkpt lat="44.7763479" lon="9.5927358"><ele>496.5</ele><time>2026-04-05T09:45:19.189Z</time></trkpt><trkpt lat="44.7764885" lon="9.5926749"><ele>495.75</ele><time>2026-04-05T09:45:21.188Z</time></trkpt><trkpt lat="44.7765861" lon="9.592634"><ele>495.0</ele><time>2026-04-05T09:45:22.19Z</time></trkpt><trkpt lat="44.7766998" lon="9.5925879"><ele>495.0</ele><time>2026-04-05T09:45:23.189Z</time></trkpt><trkpt lat="44.7768193" lon="9.5925348"><ele>495.0</ele><time>2026-04-05T09:45:24.188Z</time></trkpt><trkpt lat="44.7769337" lon="9.5924824"><ele>495.0</ele><time>2026-04-05T09:45:25.188Z</time></trkpt><trkpt lat="44.7770473" lon="9.5924284"><ele>495.0</ele><time>2026-04-05T09:45:26.189Z</time></trkpt><trkpt lat="44.7771613" lon="9.5923757"><ele>494.4</ele><time>2026-04-05T09:45:27.188Z</time></trkpt><trkpt lat="44.7772718" lon="9.5923283"><ele>493.8</ele><time>2026-04-05T09:45:28.188Z</time></trkpt><trkpt lat="44.7773731" lon="9.5922847"><ele>493.20000000000005</ele><time>2026-04-05T09:45:29.188Z</time></trkpt><trkpt lat="44.7774596" lon="9.5922488"><ele>492.6</ele><time>2026-04-05T09:45:30.188Z</time></trkpt><trkpt lat="44.7775306" lon="9.5922224"><ele>492.0</ele><time>2026-04-05T09:45:31.189Z</time></trkpt><trkpt lat="44.7775995" lon="9.5921975"><ele>492.0</ele><time>2026-04-05T09:45:32.19Z</time></trkpt><trkpt lat="44.7776756" lon="9.5921682"><ele>492.0</ele><time>2026-04-05T09:45:33.188Z</time></trkpt><trkpt lat="44.7777539" lon="9.5921332"><ele>492.0</ele><time>2026-04-05T09:45:34.189Z</time></trkpt><trkpt lat="44.7778308" lon="9.5920905"><ele>492.0</ele><time>2026-04-05T09:45:35.19Z</time></trkpt><trkpt lat="44.7779127" lon="9.5920432"><ele>492.0</ele><time>2026-04-05T09:45:36.188Z</time></trkpt><trkpt lat="44.7779966" lon="9.5919918"><ele>492.0</ele><time>2026-04-05T09:45:37.189Z</time></trkpt><trkpt lat="44.7780791" lon="9.5919314"><ele>493.0</ele><time>2026-04-05T09:45:38.189Z</time></trkpt><trkpt lat="44.7781637" lon="9.5918519"><ele>494.00000000000006</ele><time>2026-04-05T09:45:39.188Z</time></trkpt><trkpt lat="44.7782461" lon="9.5917612"><ele>495.00000000000006</ele><time>2026-04-05T09:45:40.188Z</time></trkpt><trkpt lat="44.7783231" lon="9.5916802"><ele>496.0</ele><time>2026-04-05T09:45:41.191Z</time></trkpt><trkpt lat="44.778386" lon="9.5916135"><ele>497.0</ele><time>2026-04-05T09:45:42.189Z</time></trkpt><trkpt lat="44.7784663" lon="9.5915312"><ele>496.8333333333333</ele><time>2026-04-05T09:45:44.189Z</time></trkpt><trkpt lat="44.7785391" lon="9.5915355"><ele>496.66666666666663</ele><time>2026-04-05T09:45:47.188Z</time></trkpt><trkpt lat="44.778615" lon="9.5915917"><ele>496.5</ele><time>2026-04-05T09:45:50.189Z</time></trkpt><trkpt lat="44.7786733" lon="9.5916483"><ele>496.33333333333337</ele><time>2026-04-05T09:45:53.188Z</time></trkpt><trkpt lat="44.7787367" lon="9.591705"><ele>496.1666666666667</ele><time>2026-04-05T09:47:01.19Z</time></trkpt><trkpt lat="44.7786833" lon="9.59165"><ele>496.0</ele><time>2026-04-05T09:47:30.188Z</time></trkpt><trkpt lat="44.77861" lon="9.591605"><ele>496.0</ele><time>2026-04-05T09:47:32.191Z</time></trkpt><trkpt lat="44.7785333" lon="9.5915667"><ele>496.0</ele><time>2026-04-05T09:47:34.189Z</time></trkpt><trkpt lat="44.7784567" lon="9.5915717"><ele>496.0</ele><time>2026-04-05T09:47:36.192Z</time></trkpt><trkpt lat="44.7783783" lon="9.5916217"><ele>496.0</ele><time>2026-04-05T09:47:38.189Z</time></trkpt><trkpt lat="44.7782817" lon="9.5917183"><ele>496.0</ele><time>2026-04-05T09:47:40.191Z</time></trkpt><trkpt lat="44.7781717" lon="9.5918233"><ele>496.1666666666667</ele><time>2026-04-05T09:47:42.191Z</time></trkpt><trkpt lat="44.7781033" lon="9.5918833"><ele>496.33333333333337</ele><time>2026-04-05T09:47:43.191Z</time></trkpt><trkpt lat="44.7780283" lon="9.5919417"><ele>496.5</ele><time>2026-04-05T09:47:44.191Z</time></trkpt><trkpt lat="44.7779433" lon="9.5920017"><ele>496.66666666666663</ele><time>2026-04-05T09:47:45.191Z</time></trkpt><trkpt lat="44.7778617" lon="9.5920617"><ele>496.8333333333333</ele><time>2026-04-05T09:47:46.191Z</time></trkpt><trkpt lat="44.7777733" lon="9.5921133"><ele>497.0</ele><time>2026-04-05T09:47:47.192Z</time></trkpt><trkpt lat="44.7776983" lon="9.5921533"><ele>496.0</ele><time>2026-04-05T09:47:48.191Z</time></trkpt><trkpt lat="44.777625" lon="9.5921817"><ele>495.00000000000006</ele><time>2026-04-05T09:47:49.191Z</time></trkpt><trkpt lat="44.777535" lon="9.5922117"><ele>494.00000000000006</ele><time>2026-04-05T09:47:50.192Z</time></trkpt><trkpt lat="44.777445" lon="9.5922383"><ele>493.0</ele><time>2026-04-05T09:47:51.191Z</time></trkpt><trkpt lat="44.7773533" lon="9.5922733"><ele>492.0</ele><time>2026-04-05T09:47:52.19Z</time></trkpt><trkpt lat="44.77726" lon="9.5923133"><ele>492.0</ele><time>2026-04-05T09:47:53.191Z</time></trkpt><trkpt lat="44.7771633" lon="9.5923567"><ele>492.00000000000006</ele><time>2026-04-05T09:47:54.189Z</time></trkpt><trkpt lat="44.77707" lon="9.5924"><ele>492.00000000000006</ele><time>2026-04-05T09:47:55.191Z</time></trkpt><trkpt lat="44.7769783" lon="9.5924433"><ele>492.0</ele><time>2026-04-05T09:47:56.189Z</time></trkpt><trkpt lat="44.776885" lon="9.5924883"><ele>492.0</ele><time>2026-04-05T09:47:57.189Z</time></trkpt><trkpt lat="44.776795" lon="9.5925317"><ele>492.5</ele><time>2026-04-05T09:47:58.189Z</time></trkpt><trkpt lat="44.7767017" lon="9.5925767"><ele>493.0</ele><time>2026-04-05T09:47:59.189Z</time></trkpt><trkpt lat="44.7766083" lon="9.5926167"><ele>493.5</ele><time>2026-04-05T09:48:00.19Z</time></trkpt><trkpt lat="44.776515" lon="9.592655"><ele>494.0</ele><time>2026-04-05T09:48:01.192Z</time></trkpt><trkpt lat="44.7764367" lon="9.5926867"><ele>494.5</ele><time>2026-04-05T09:48:02.189Z</time></trkpt><trkpt lat="44.7763683" lon="9.592715"><ele>495.0</ele><time>2026-04-05T09:48:03.19Z</time></trkpt><trkpt lat="44.7762617" lon="9.5927533"><ele>495.0</ele><time>2026-04-05T09:48:05.19Z</time></trkpt><trkpt lat="44.77618" lon="9.5927533"><ele>495.0</ele><time>2026-04-05T09:48:07.188Z</time></trkpt><trkpt lat="44.7760767" lon="9.5927283"><ele>495.0</ele><time>2026-04-05T09:48:09.189Z</time></trkpt><trkpt lat="44.775975" lon="9.5927283"><ele>495.0</ele><time>2026-04-05T09:48:11.189Z</time></trkpt><trkpt lat="44.7758936" lon="9.5927565"><ele>495.0</ele><time>2026-04-05T09:48:13.189Z</time></trkpt><trkpt lat="44.7758191" lon="9.5927305"><ele>495.0</ele><time>2026-04-05T09:48:16.19Z</time></trkpt><trkpt lat="44.7757665" lon="9.5926306"><ele>495.5</ele><time>2026-04-05T09:48:18.189Z</time></trkpt><trkpt lat="44.775725" lon="9.592558"><ele>496.0</ele><time>2026-04-05T09:48:19.19Z</time></trkpt><trkpt lat="44.7756751" lon="9.5924739"><ele>496.5</ele><time>2026-04-05T09:48:20.19Z</time></trkpt><trkpt lat="44.7756178" lon="9.5923814"><ele>497.0</ele><time>2026-04-05T09:48:21.189Z</time></trkpt><trkpt lat="44.7755526" lon="9.5922782"><ele>497.5</ele><time>2026-04-05T09:48:22.189Z</time></trkpt><trkpt lat="44.7754807" lon="9.5921662"><ele>498.0</ele><time>2026-04-05T09:48:23.189Z</time></trkpt><trkpt lat="44.7754075" lon="9.5920445"><ele>499.59999999999997</ele><time>2026-04-05T09:48:24.188Z</time></trkpt><trkpt lat="44.7753363" lon="9.5919189"><ele>501.19999999999993</ele><time>2026-04-05T09:48:25.188Z</time></trkpt><trkpt lat="44.7752718" lon="9.5918042"><ele>502.8</ele><time>2026-04-05T09:48:26.189Z</time></trkpt><trkpt lat="44.7752172" lon="9.5917124"><ele>504.4</ele><time>2026-04-05T09:48:27.188Z</time></trkpt><trkpt lat="44.7751747" lon="9.5916383"><ele>506.0</ele><time>2026-04-05T09:48:28.187Z</time></trkpt><trkpt lat="44.7751135" lon="9.5915531"><ele>505.99999999999994</ele><time>2026-04-05T09:48:30.188Z</time></trkpt><trkpt lat="44.7750263" lon="9.5915329"><ele>506.0</ele><time>2026-04-05T09:48:32.188Z</time></trkpt><trkpt lat="44.7748943" lon="9.5915076"><ele>506.0</ele><time>2026-04-05T09:48:34.187Z</time></trkpt><trkpt lat="44.7748295" lon="9.591472"><ele>506.0</ele><time>2026-04-05T09:48:35.187Z</time></trkpt><trkpt lat="44.7747606" lon="9.5914217"><ele>505.99999999999994</ele><time>2026-04-05T09:48:36.187Z</time></trkpt><trkpt lat="44.7746904" lon="9.5913656"><ele>506.0</ele><time>2026-04-05T09:48:37.189Z</time></trkpt><trkpt lat="44.7746299" lon="9.5913076"><ele>506.00000000000006</ele><time>2026-04-05T09:48:38.187Z</time></trkpt><trkpt lat="44.7745815" lon="9.5912428"><ele>506.0</ele><time>2026-04-05T09:48:39.188Z</time></trkpt><trkpt lat="44.7745435" lon="9.5911711"><ele>506.00000000000006</ele><time>2026-04-05T09:48:40.188Z</time></trkpt><trkpt lat="44.774511" lon="9.5910913"><ele>506.00000000000006</ele><time>2026-04-05T09:48:41.191Z</time></trkpt><trkpt lat="44.7744808" lon="9.5910066"><ele>506.0</ele><time>2026-04-05T09:48:42.19Z</time></trkpt><trkpt lat="44.7744467" lon="9.5909147"><ele>506.00000000000006</ele><time>2026-04-05T09:48:43.189Z</time></trkpt><trkpt lat="44.7744107" lon="9.5908307"><ele>506.00000000000006</ele><time>2026-04-05T09:48:44.188Z</time></trkpt><trkpt lat="44.774336" lon="9.5907108"><ele>500.0</ele><time>2026-04-05T09:48:46.189Z</time></trkpt><trkpt lat="44.7742794" lon="9.5906554"><ele>500.0</ele><time>2026-04-05T09:48:48.19Z</time></trkpt></trkseg><trkseg><trkpt lat="44.7921442" lon="9.5745677"><ele>496.0</ele><time>2026-04-05T10:46:36.189Z</time></trkpt><trkpt lat="44.7921151" lon="9.5744336"><ele>497.0</ele><time>2026-04-05T10:46:49.189Z</time></trkpt><trkpt lat="44.7920995" lon="9.5743375"><ele>498.0</ele><time>2026-04-05T10:46:51.188Z</time></trkpt><trkpt lat="44.7920783" lon="9.5742338"><ele>499.0</ele><time>2026-04-05T10:46:53.19Z</time></trkpt><trkpt lat="44.792064" lon="9.5741355"><ele>500.0</ele><time>2026-04-05T10:46:55.189Z</time></trkpt><trkpt lat="44.7920488" lon="9.5740298"><ele>501.0</ele><time>2026-04-05T10:46:58.189Z</time></trkpt><trkpt lat="44.7919983" lon="9.5739717"><ele>501.0</ele><time>2026-04-05T10:47:35.189Z</time></trkpt><trkpt lat="44.7920233" lon="9.573865"><ele>501.0</ele><time>2026-04-05T10:47:37.19Z</time></trkpt><trkpt lat="44.7920433" lon="9.573725"><ele>501.0</ele><time>2026-04-05T10:47:39.189Z</time></trkpt><trkpt lat="44.7920567" lon="9.5736267"><ele>501.0</ele><time>2026-04-05T10:47:40.19Z</time></trkpt><trkpt lat="44.7920783" lon="9.573475"><ele>501.0</ele><time>2026-04-05T10:47:41.189Z</time></trkpt><trkpt lat="44.7920833" lon="9.5733317"><ele>501.1666666666667</ele><time>2026-04-05T10:47:42.189Z</time></trkpt><trkpt lat="44.7920717" lon="9.573195"><ele>501.33333333333337</ele><time>2026-04-05T10:47:43.189Z</time></trkpt><trkpt lat="44.792055" lon="9.5730667"><ele>501.5</ele><time>2026-04-05T10:47:44.189Z</time></trkpt><trkpt lat="44.7920383" lon="9.572945"><ele>501.6666666666667</ele><time>2026-04-05T10:47:45.188Z</time></trkpt><trkpt lat="44.7920283" lon="9.57284"><ele>501.83333333333337</ele><time>2026-04-05T10:47:46.188Z</time></trkpt><trkpt lat="44.7920283" lon="9.5727433"><ele>502.0</ele><time>2026-04-05T10:47:47.19Z</time></trkpt><trkpt lat="44.7920717" lon="9.572595"><ele>502.00000000000006</ele><time>2026-04-05T10:47:49.187Z</time></trkpt><trkpt lat="44.7921733" lon="9.5725083"><ele>502.0</ele><time>2026-04-05T10:47:51.189Z</time></trkpt><trkpt lat="44.7922417" lon="9.5725067"><ele>502.0</ele><time>2026-04-05T10:47:52.188Z</time></trkpt><trkpt lat="44.7923167" lon="9.5725117"><ele>502.0</ele><time>2026-04-05T10:47:53.189Z</time></trkpt><trkpt lat="44.792405" lon="9.572535"><ele>502.00000000000006</ele><time>2026-04-05T10:47:54.189Z</time></trkpt><trkpt lat="44.792495" lon="9.5725417"><ele>502.0</ele><time>2026-04-05T10:47:55.189Z</time></trkpt><trkpt lat="44.7925783" lon="9.5725283"><ele>502.00000000000006</ele><time>2026-04-05T10:47:56.189Z</time></trkpt><trkpt lat="44.7926517" lon="9.5724967"><ele>502.0</ele><time>2026-04-05T10:47:57.188Z</time></trkpt><trkpt lat="44.7927183" lon="9.572455"><ele>502.0</ele><time>2026-04-05T10:47:58.188Z</time></trkpt><trkpt lat="44.7927833" lon="9.5723933"><ele>502.0</ele><time>2026-04-05T10:47:59.188Z</time></trkpt><trkpt lat="44.7928483" lon="9.5723117"><ele>502.00000000000006</ele><time>2026-04-05T10:48:00.188Z</time></trkpt><trkpt lat="44.7929167" lon="9.5722117"><ele>502.0</ele><time>2026-04-05T10:48:01.188Z</time></trkpt><trkpt lat="44.792985" lon="9.5721067"><ele>501.6</ele><time>2026-04-05T10:48:02.188Z</time></trkpt><trkpt lat="44.7930517" lon="9.5720017"><ele>501.20000000000005</ele><time>2026-04-05T10:48:03.188Z</time></trkpt><trkpt lat="44.7931167" lon="9.571905"><ele>500.8</ele><time>2026-04-05T10:48:04.189Z</time></trkpt><trkpt lat="44.7931767" lon="9.5718267"><ele>500.4</ele><time>2026-04-05T10:48:05.188Z</time></trkpt><trkpt lat="44.793235" lon="9.57177"><ele>500.0</ele><time>2026-04-05T10:48:06.188Z</time></trkpt><trkpt lat="44.7933383" lon="9.57174"><ele>499.99999999999994</ele><time>2026-04-05T10:48:08.189Z</time></trkpt><trkpt lat="44.7934017" lon="9.5717967"><ele>500.0</ele><time>2026-04-05T10:48:09.188Z</time></trkpt><trkpt lat="44.793455" lon="9.5718667"><ele>500.0</ele><time>2026-04-05T10:48:10.188Z</time></trkpt><trkpt lat="44.7935083" lon="9.5719567"><ele>500.0</ele><time>2026-04-05T10:48:11.188Z</time></trkpt><trkpt lat="44.7935617" lon="9.5720417"><ele>499.99999999999994</ele><time>2026-04-05T10:48:12.188Z</time></trkpt><trkpt lat="44.79362" lon="9.572125"><ele>500.0</ele><time>2026-04-05T10:48:13.188Z</time></trkpt><trkpt lat="44.7936883" lon="9.5721983"><ele>500.2</ele><time>2026-04-05T10:48:14.189Z</time></trkpt><trkpt lat="44.7937617" lon="9.5722583"><ele>500.4</ele><time>2026-04-05T10:48:15.188Z</time></trkpt><trkpt lat="44.7938567" lon="9.5722933"><ele>500.6</ele><time>2026-04-05T10:48:16.188Z</time></trkpt><trkpt lat="44.79397" lon="9.572305"><ele>500.8</ele><time>2026-04-05T10:48:17.188Z</time></trkpt><trkpt lat="44.7940933" lon="9.572305"><ele>501.0</ele><time>2026-04-05T10:48:18.188Z</time></trkpt><trkpt lat="44.794215" lon="9.5722983"><ele>501.0</ele><time>2026-04-05T10:48:19.189Z</time></trkpt><trkpt lat="44.7943267" lon="9.5722917"><ele>501.0</ele><time>2026-04-05T10:48:20.188Z</time></trkpt><trkpt lat="44.7944283" lon="9.5722933"><ele>501.0</ele><time>2026-04-05T10:48:21.188Z</time></trkpt><trkpt lat="44.794525" lon="9.572315"><ele>501.0</ele><time>2026-04-05T10:48:22.189Z</time></trkpt><trkpt lat="44.79461" lon="9.572365"><ele>501.0</ele><time>2026-04-05T10:48:23.189Z</time></trkpt><trkpt lat="44.7946817" lon="9.5724417"><ele>501.20000000000005</ele><time>2026-04-05T10:48:24.188Z</time></trkpt><trkpt lat="44.794735" lon="9.5725517"><ele>501.40000000000003</ele><time>2026-04-05T10:48:25.188Z</time></trkpt><trkpt lat="44.79478" lon="9.5726683"><ele>501.6</ele><time>2026-04-05T10:48:26.19Z</time></trkpt><trkpt lat="44.794825" lon="9.57278"><ele>501.8</ele><time>2026-04-05T10:48:27.188Z</time></trkpt><trkpt lat="44.7948683" lon="9.5728667"><ele>502.0</ele><time>2026-04-05T10:48:28.189Z</time></trkpt><trkpt lat="44.7949483" lon="9.5729683"><ele>502.0</ele><time>2026-04-05T10:48:30.188Z</time></trkpt><trkpt lat="44.7950833" lon="9.5729783"><ele>502.00000000000006</ele><time>2026-04-05T10:48:32.189Z</time></trkpt><trkpt lat="44.79517" lon="9.5729583"><ele>502.00000000000006</ele><time>2026-04-05T10:48:33.188Z</time></trkpt><trkpt lat="44.7952517" lon="9.5729267"><ele>502.0</ele><time>2026-04-05T10:48:34.188Z</time></trkpt><trkpt lat="44.7953417" lon="9.5728717"><ele>502.0</ele><time>2026-04-05T10:48:35.188Z</time></trkpt><trkpt lat="44.7954467" lon="9.5727817"><ele>504.0</ele><time>2026-04-05T10:48:36.188Z</time></trkpt><trkpt lat="44.7955517" lon="9.57269"><ele>506.00000000000006</ele><time>2026-04-05T10:48:37.191Z</time></trkpt><trkpt lat="44.7956467" lon="9.5726083"><ele>508.00000000000006</ele><time>2026-04-05T10:48:38.188Z</time></trkpt><trkpt lat="44.7957317" lon="9.572545"><ele>510.0</ele><time>2026-04-05T10:48:39.188Z</time></trkpt><trkpt lat="44.7958183" lon="9.5724933"><ele>512.0</ele><time>2026-04-05T10:48:40.189Z</time></trkpt><trkpt lat="44.7959083" lon="9.5724683"><ele>509.75</ele><time>2026-04-05T10:48:41.187Z</time></trkpt><trkpt lat="44.796015" lon="9.5724633"><ele>507.5</ele><time>2026-04-05T10:48:42.189Z</time></trkpt><trkpt lat="44.7961317" lon="9.57246"><ele>505.25</ele><time>2026-04-05T10:48:43.188Z</time></trkpt><trkpt lat="44.7962467" lon="9.5724617"><ele>503.0</ele><time>2026-04-05T10:48:44.188Z</time></trkpt><trkpt lat="44.7963667" lon="9.5724717"><ele>503.0</ele><time>2026-04-05T10:48:45.187Z</time></trkpt><trkpt lat="44.7964883" lon="9.5724867"><ele>502.99999999999994</ele><time>2026-04-05T10:48:46.187Z</time></trkpt><trkpt lat="44.7966033" lon="9.5725"><ele>502.99999999999994</ele><time>2026-04-05T10:48:47.188Z</time></trkpt><trkpt lat="44.7967117" lon="9.572515"><ele>503.0</ele><time>2026-04-05T10:48:48.188Z</time></trkpt><trkpt lat="44.7968083" lon="9.5725267"><ele>503.0</ele><time>2026-04-05T10:48:49.188Z</time></trkpt><trkpt lat="44.7968967" lon="9.5725233"><ele>502.16666666666663</ele><time>2026-04-05T10:48:50.188Z</time></trkpt><trkpt lat="44.7969833" lon="9.5725017"><ele>501.3333333333333</ele><time>2026-04-05T10:48:51.188Z</time></trkpt><trkpt lat="44.79706" lon="9.5724467"><ele>500.5</ele><time>2026-04-05T10:48:52.191Z</time></trkpt><trkpt lat="44.7971217" lon="9.572375"><ele>499.66666666666663</ele><time>2026-04-05T10:48:53.188Z</time></trkpt><trkpt lat="44.7971783" lon="9.5722883"><ele>498.8333333333333</ele><time>2026-04-05T10:48:54.188Z</time></trkpt><trkpt lat="44.7972333" lon="9.5721983"><ele>498.0</ele><time>2026-04-05T10:48:55.188Z</time></trkpt><trkpt lat="44.79729" lon="9.5721017"><ele>500.59999999999997</ele><time>2026-04-05T10:48:56.19Z</time></trkpt><trkpt lat="44.797345" lon="9.57201"><ele>503.19999999999993</ele><time>2026-04-05T10:48:57.188Z</time></trkpt><trkpt lat="44.7973967" lon="9.571935"><ele>505.8</ele><time>2026-04-05T10:48:58.188Z</time></trkpt><trkpt lat="44.7974917" lon="9.57185"><ele>508.4</ele><time>2026-04-05T10:49:00.187Z</time></trkpt><trkpt lat="44.7976033" lon="9.5718433"><ele>511.0</ele><time>2026-04-05T10:49:02.189Z</time></trkpt><trkpt lat="44.797675" lon="9.5718583"><ele>511.0</ele><time>2026-04-05T10:49:03.188Z</time></trkpt><trkpt lat="44.7977683" lon="9.5718833"><ele>511.0</ele><time>2026-04-05T10:49:04.188Z</time></trkpt><trkpt lat="44.797865" lon="9.5719033"><ele>511.0</ele><time>2026-04-05T10:49:05.188Z</time></trkpt><trkpt lat="44.797955" lon="9.5719117"><ele>511.0</ele><time>2026-04-05T10:49:06.188Z</time></trkpt><trkpt lat="44.7980417" lon="9.5719117"><ele>511.0</ele><time>2026-04-05T10:49:07.192Z</time></trkpt><trkpt lat="44.7981233" lon="9.571905"><ele>511.00000000000006</ele><time>2026-04-05T10:49:08.188Z</time></trkpt><trkpt lat="44.7982" lon="9.571885"><ele>511.0</ele><time>2026-04-05T10:49:09.188Z</time></trkpt><trkpt lat="44.7982683" lon="9.5718517"><ele>511.0</ele><time>2026-04-05T10:49:10.188Z</time></trkpt><trkpt lat="44.7983283" lon="9.5717967"><ele>511.0</ele><time>2026-04-05T10:49:11.188Z</time></trkpt><trkpt lat="44.798395" lon="9.5717217"><ele>511.00000000000006</ele><time>2026-04-05T10:49:12.188Z</time></trkpt><trkpt lat="44.7984667" lon="9.5716317"><ele>511.0</ele><time>2026-04-05T10:49:13.189Z</time></trkpt><trkpt lat="44.7985433" lon="9.5715417"><ele>509.6</ele><time>2026-04-05T10:49:14.189Z</time></trkpt><trkpt lat="44.7986133" lon="9.5714483"><ele>508.20000000000005</ele><time>2026-04-05T10:49:15.19Z</time></trkpt><trkpt lat="44.798685" lon="9.5713483"><ele>506.79999999999995</ele><time>2026-04-05T10:49:16.188Z</time></trkpt><trkpt lat="44.7987583" lon="9.5712533"><ele>505.4</ele><time>2026-04-05T10:49:17.188Z</time></trkpt><trkpt lat="44.79884" lon="9.5711667"><ele>504.0</ele><time>2026-04-05T10:49:18.189Z</time></trkpt><trkpt lat="44.7989333" lon="9.5710833"><ele>506.79999999999995</ele><time>2026-04-05T10:49:19.19Z</time></trkpt><trkpt lat="44.7990217" lon="9.5709967"><ele>509.59999999999997</ele><time>2026-04-05T10:49:20.19Z</time></trkpt><trkpt lat="44.7991067" lon="9.5709033"><ele>512.4</ele><time>2026-04-05T10:49:21.19Z</time></trkpt><trkpt lat="44.7991883" lon="9.57081"><ele>515.1999999999999</ele><time>2026-04-05T10:49:22.19Z</time></trkpt><trkpt lat="44.799265" lon="9.5707233"><ele>518.0</ele><time>2026-04-05T10:49:23.19Z</time></trkpt><trkpt lat="44.7993333" lon="9.5706483"><ele>518.0</ele><time>2026-04-05T10:49:24.188Z</time></trkpt><trkpt lat="44.7994" lon="9.57059"><ele>518.0</ele><time>2026-04-05T10:49:25.189Z</time></trkpt><trkpt lat="44.7994683" lon="9.57054"><ele>518.0</ele><time>2026-04-05T10:49:26.188Z</time></trkpt><trkpt lat="44.79954" lon="9.570505"><ele>518.0</ele><time>2026-04-05T10:49:27.189Z</time></trkpt><trkpt lat="44.799615" lon="9.5704933"><ele>518.0</ele><time>2026-04-05T10:49:28.188Z</time></trkpt><trkpt lat="44.7997083" lon="9.570505"><ele>518.0</ele><time>2026-04-05T10:49:29.188Z</time></trkpt><trkpt lat="44.7998067" lon="9.570525"><ele>518.0</ele><time>2026-04-05T10:49:30.188Z</time></trkpt><trkpt lat="44.7999283" lon="9.57055"><ele>518.0</ele><time>2026-04-05T10:49:31.188Z</time></trkpt><trkpt lat="44.8000367" lon="9.57056"><ele>518.0</ele><time>2026-04-05T10:49:32.19Z</time></trkpt><trkpt lat="44.8001383" lon="9.5705483"><ele>518.0</ele><time>2026-04-05T10:49:33.188Z</time></trkpt><trkpt lat="44.80024" lon="9.5705183"><ele>518.0</ele><time>2026-04-05T10:49:34.188Z</time></trkpt><trkpt lat="44.8003383" lon="9.5704733"><ele>520.6</ele><time>2026-04-05T10:49:35.189Z</time></trkpt><trkpt lat="44.8004367" lon="9.5704167"><ele>523.1999999999999</ele><time>2026-04-05T10:49:36.189Z</time></trkpt><trkpt lat="44.8005267" lon="9.570345"><ele>525.8</ele><time>2026-04-05T10:49:37.188Z</time></trkpt><trkpt lat="44.800615" lon="9.5702567"><ele>528.4</ele><time>2026-04-05T10:49:38.188Z</time></trkpt><trkpt lat="44.8007017" lon="9.57016"><ele>531.0</ele><time>2026-04-05T10:49:39.189Z</time></trkpt><trkpt lat="44.8007817" lon="9.570075"><ele>531.0</ele><time>2026-04-05T10:49:40.189Z</time></trkpt><trkpt lat="44.8008667" lon="9.5700083"><ele>531.0</ele><time>2026-04-05T10:49:41.188Z</time></trkpt><trkpt lat="44.8009583" lon="9.56995"><ele>531.0</ele><time>2026-04-05T10:49:42.188Z</time></trkpt><trkpt lat="44.801055" lon="9.5698917"><ele>531.0</ele><time>2026-04-05T10:49:43.189Z</time></trkpt><trkpt lat="44.8011567" lon="9.5698317"><ele>531.0</ele><time>2026-04-05T10:49:44.19Z</time></trkpt><trkpt lat="44.8012633" lon="9.5697717"><ele>534.25</ele><time>2026-04-05T10:49:45.188Z</time></trkpt><trkpt lat="44.8013783" lon="9.5697067"><ele>537.5</ele><time>2026-04-05T10:49:46.189Z</time></trkpt><trkpt lat="44.8015" lon="9.56964"><ele>540.75</ele><time>2026-04-05T10:49:47.187Z</time></trkpt><trkpt lat="44.8016183" lon="9.5695733"><ele>544.0</ele><time>2026-04-05T10:49:48.189Z</time></trkpt><trkpt lat="44.80173" lon="9.5695183"><ele>544.0</ele><time>2026-04-05T10:49:49.189Z</time></trkpt><trkpt lat="44.80183" lon="9.569485"><ele>544.0</ele><time>2026-04-05T10:49:50.188Z</time></trkpt><trkpt lat="44.80192" lon="9.5694583"><ele>544.0</ele><time>2026-04-05T10:49:51.19Z</time></trkpt><trkpt lat="44.8019967" lon="9.569435"><ele>544.0</ele><time>2026-04-05T10:49:52.187Z</time></trkpt><trkpt lat="44.8020683" lon="9.5694067"><ele>544.0</ele><time>2026-04-05T10:49:53.188Z</time></trkpt><trkpt lat="44.8021583" lon="9.5694133"><ele>544.0</ele><time>2026-04-05T10:49:55.189Z</time></trkpt><trkpt lat="44.8021533" lon="9.56953"><ele>548.4</ele><time>2026-04-05T10:49:57.188Z</time></trkpt><trkpt lat="44.8021267" lon="9.5696217"><ele>552.8</ele><time>2026-04-05T10:49:58.189Z</time></trkpt><trkpt lat="44.8020833" lon="9.569745"><ele>557.2</ele><time>2026-04-05T10:49:59.189Z</time></trkpt><trkpt lat="44.802035" lon="9.5698883"><ele>561.6</ele><time>2026-04-05T10:50:00.188Z</time></trkpt><trkpt lat="44.8019833" lon="9.570035"><ele>566.0</ele><time>2026-04-05T10:50:01.189Z</time></trkpt><trkpt lat="44.8019233" lon="9.5701817"><ele>566.0</ele><time>2026-04-05T10:50:02.189Z</time></trkpt><trkpt lat="44.8018633" lon="9.57033"><ele>566.0</ele><time>2026-04-05T10:50:03.188Z</time></trkpt><trkpt lat="44.8018133" lon="9.5704683"><ele>566.0</ele><time>2026-04-05T10:50:04.189Z</time></trkpt><trkpt lat="44.80178" lon="9.5705967"><ele>566.0</ele><time>2026-04-05T10:50:05.189Z</time></trkpt><trkpt lat="44.8017617" lon="9.5707117"><ele>566.0</ele><time>2026-04-05T10:50:06.188Z</time></trkpt><trkpt lat="44.8017617" lon="9.5708117"><ele>565.5</ele><time>2026-04-05T10:50:07.189Z</time></trkpt><trkpt lat="44.80177" lon="9.5709"><ele>565.0</ele><time>2026-04-05T10:50:08.189Z</time></trkpt><trkpt lat="44.8017967" lon="9.57107"><ele>564.5</ele><time>2026-04-05T10:50:10.189Z</time></trkpt><trkpt lat="44.8018133" lon="9.57118"><ele>564.0</ele><time>2026-04-05T10:50:11.189Z</time></trkpt><trkpt lat="44.8018217" lon="9.571305"><ele>563.5</ele><time>2026-04-05T10:50:12.188Z</time></trkpt><trkpt lat="44.8018217" lon="9.5714283"><ele>563.0</ele><time>2026-04-05T10:50:13.189Z</time></trkpt><trkpt lat="44.80181" lon="9.571555"><ele>563.0</ele><time>2026-04-05T10:50:14.19Z</time></trkpt><trkpt lat="44.8017783" lon="9.5716833"><ele>563.0</ele><time>2026-04-05T10:50:15.188Z</time></trkpt><trkpt lat="44.8017567" lon="9.5718017"><ele>563.0</ele><time>2026-04-05T10:50:16.189Z</time></trkpt><trkpt lat="44.8017383" lon="9.5719183"><ele>563.0</ele><time>2026-04-05T10:50:17.188Z</time></trkpt><trkpt lat="44.8017167" lon="9.572025"><ele>563.0</ele><time>2026-04-05T10:50:18.188Z</time></trkpt><trkpt lat="44.801695" lon="9.5721217"><ele>563.0</ele><time>2026-04-05T10:50:19.188Z</time></trkpt><trkpt lat="44.801675" lon="9.57221"><ele>563.6666666666666</ele><time>2026-04-05T10:50:20.188Z</time></trkpt><trkpt lat="44.8016583" lon="9.572365"><ele>564.3333333333333</ele><time>2026-04-05T10:50:22.19Z</time></trkpt><trkpt lat="44.8016567" lon="9.5724583"><ele>565.0</ele><time>2026-04-05T10:50:23.189Z</time></trkpt><trkpt lat="44.8016617" lon="9.5725533"><ele>565.6666666666666</ele><time>2026-04-05T10:50:24.19Z</time></trkpt><trkpt lat="44.801665" lon="9.5726433"><ele>566.3333333333334</ele><time>2026-04-05T10:50:25.189Z</time></trkpt><trkpt lat="44.801715" lon="9.572775"><ele>567.0</ele><time>2026-04-05T10:50:27.189Z</time></trkpt><trkpt lat="44.8018067" lon="9.5728633"><ele>572.2</ele><time>2026-04-05T10:50:29.188Z</time></trkpt><trkpt lat="44.801875" lon="9.57292"><ele>577.4000000000001</ele><time>2026-04-05T10:50:31.189Z</time></trkpt><trkpt lat="44.80188" lon="9.5730383"><ele>582.5999999999999</ele><time>2026-04-05T10:50:34.188Z</time></trkpt><trkpt lat="44.8018833" lon="9.57315"><ele>587.8</ele><time>2026-04-05T10:50:36.188Z</time></trkpt><trkpt lat="44.8018917" lon="9.5732983"><ele>593.0</ele><time>2026-04-05T10:50:38.189Z</time></trkpt><trkpt lat="44.80191" lon="9.5734567"><ele>593.0</ele><time>2026-04-05T10:50:40.188Z</time></trkpt><trkpt lat="44.8019483" lon="9.5736"><ele>593.0</ele><time>2026-04-05T10:50:42.188Z</time></trkpt><trkpt lat="44.8019833" lon="9.573735"><ele>593.0</ele><time>2026-04-05T10:50:44.189Z</time></trkpt><trkpt lat="44.802045" lon="9.573815"><ele>593.0</ele><time>2026-04-05T10:50:46.188Z</time></trkpt><trkpt lat="44.8021067" lon="9.5737967"><ele>593.0</ele><time>2026-04-05T10:50:48.188Z</time></trkpt><trkpt lat="44.8021367" lon="9.5736933"><ele>593.0</ele><time>2026-04-05T10:50:50.193Z</time></trkpt><trkpt lat="44.80217" lon="9.573585"><ele>593.0</ele><time>2026-04-05T10:50:52.189Z</time></trkpt><trkpt lat="44.8022267" lon="9.5735"><ele>593.0</ele><time>2026-04-05T10:50:54.188Z</time></trkpt><trkpt lat="44.8022933" lon="9.57354"><ele>593.0</ele><time>2026-04-05T10:50:57.188Z</time></trkpt><trkpt lat="44.802325" lon="9.5736533"><ele>593.0</ele><time>2026-04-05T10:50:59.189Z</time></trkpt><trkpt lat="44.8023767" lon="9.573815"><ele>593.0</ele><time>2026-04-05T10:51:01.188Z</time></trkpt><trkpt lat="44.8024117" lon="9.57389"><ele>593.0</ele><time>2026-04-05T10:51:02.189Z</time></trkpt><trkpt lat="44.8024567" lon="9.573955"><ele>593.1666666666666</ele><time>2026-04-05T10:51:03.191Z</time></trkpt><trkpt lat="44.802515" lon="9.5740133"><ele>593.3333333333333</ele><time>2026-04-05T10:51:04.189Z</time></trkpt><trkpt lat="44.80258" lon="9.5740667"><ele>593.5</ele><time>2026-04-05T10:51:05.19Z</time></trkpt><trkpt lat="44.8026433" lon="9.57411"><ele>593.6666666666666</ele><time>2026-04-05T10:51:06.191Z</time></trkpt><trkpt lat="44.8027333" lon="9.5741917"><ele>593.8333333333334</ele><time>2026-04-05T10:51:08.19Z</time></trkpt><trkpt lat="44.8027767" lon="9.57428"><ele>594.0</ele><time>2026-04-05T10:51:10.188Z</time></trkpt><trkpt lat="44.8027683" lon="9.574395"><ele>595.5</ele><time>2026-04-05T10:51:12.188Z</time></trkpt><trkpt lat="44.802745" lon="9.574485"><ele>597.0</ele><time>2026-04-05T10:51:13.188Z</time></trkpt><trkpt lat="44.8027067" lon="9.574605"><ele>598.5</ele><time>2026-04-05T10:51:14.188Z</time></trkpt><trkpt lat="44.8026733" lon="9.5747283"><ele>600.0</ele><time>2026-04-05T10:51:15.189Z</time></trkpt><trkpt lat="44.8026433" lon="9.574845"><ele>601.5</ele><time>2026-04-05T10:51:16.188Z</time></trkpt><trkpt lat="44.802635" lon="9.5749483"><ele>603.0</ele><time>2026-04-05T10:51:17.188Z</time></trkpt><trkpt lat="44.802625" lon="9.575045"><ele>603.0</ele><time>2026-04-05T10:51:18.188Z</time></trkpt><trkpt lat="44.8026167" lon="9.5751367"><ele>603.0</ele><time>2026-04-05T10:51:19.189Z</time></trkpt><trkpt lat="44.8025933" lon="9.5752383"><ele>603.0</ele><time>2026-04-05T10:51:20.188Z</time></trkpt><trkpt lat="44.8025633" lon="9.57536"><ele>603.0</ele><time>2026-04-05T10:51:21.188Z</time></trkpt><trkpt lat="44.8025233" lon="9.57551"><ele>603.0</ele><time>2026-04-05T10:51:22.189Z</time></trkpt><trkpt lat="44.802485" lon="9.5756583"><ele>604.8333333333334</ele><time>2026-04-05T10:51:23.189Z</time></trkpt><trkpt lat="44.8024517" lon="9.5757967"><ele>606.6666666666666</ele><time>2026-04-05T10:51:24.188Z</time></trkpt><trkpt lat="44.8024233" lon="9.5759183"><ele>608.5</ele><time>2026-04-05T10:51:25.188Z</time></trkpt><trkpt lat="44.802395" lon="9.5760233"><ele>610.3333333333333</ele><time>2026-04-05T10:51:26.189Z</time></trkpt><trkpt lat="44.802365" lon="9.5761167"><ele>612.1666666666666</ele><time>2026-04-05T10:51:27.188Z</time></trkpt><trkpt lat="44.8023233" lon="9.57621"><ele>614.0</ele><time>2026-04-05T10:51:28.189Z</time></trkpt><trkpt lat="44.80227" lon="9.5763067"><ele>615.4</ele><time>2026-04-05T10:51:29.188Z</time></trkpt><trkpt lat="44.8022" lon="9.5764133"><ele>616.8</ele><time>2026-04-05T10:51:30.188Z</time></trkpt><trkpt lat="44.80212" lon="9.5765233"><ele>618.2</ele><time>2026-04-05T10:51:31.188Z</time></trkpt><trkpt lat="44.802045" lon="9.5766167"><ele>619.6</ele><time>2026-04-05T10:51:32.188Z</time></trkpt><trkpt lat="44.8019817" lon="9.5767083"><ele>621.0</ele><time>2026-04-05T10:51:33.19Z</time></trkpt><trkpt lat="44.8019267" lon="9.5767967"><ele>621.0</ele><time>2026-04-05T10:51:34.188Z</time></trkpt><trkpt lat="44.80188" lon="9.5768783"><ele>621.0</ele><time>2026-04-05T10:51:35.189Z</time></trkpt><trkpt lat="44.8018483" lon="9.5769617"><ele>621.0</ele><time>2026-04-05T10:51:36.189Z</time></trkpt><trkpt lat="44.801835" lon="9.5771383"><ele>621.0</ele><time>2026-04-05T10:51:38.188Z</time></trkpt><trkpt lat="44.8018483" lon="9.5772367"><ele>621.0</ele><time>2026-04-05T10:51:39.189Z</time></trkpt><trkpt lat="44.80187" lon="9.577335"><ele>621.0</ele><time>2026-04-05T10:51:40.188Z</time></trkpt><trkpt lat="44.8019017" lon="9.57743"><ele>620.8571428571428</ele><time>2026-04-05T10:51:41.188Z</time></trkpt><trkpt lat="44.8019433" lon="9.577515"><ele>620.7142857142857</ele><time>2026-04-05T10:51:42.189Z</time></trkpt><trkpt lat="44.8019883" lon="9.5775933"><ele>620.5714285714286</ele><time>2026-04-05T10:51:43.189Z</time></trkpt><trkpt lat="44.8020433" lon="9.5776583"><ele>620.4285714285713</ele><time>2026-04-05T10:51:44.192Z</time></trkpt><trkpt lat="44.8021067" lon="9.577715"><ele>620.2857142857142</ele><time>2026-04-05T10:51:45.19Z</time></trkpt><trkpt lat="44.8021783" lon="9.577755"><ele>620.1428571428571</ele><time>2026-04-05T10:51:46.188Z</time></trkpt><trkpt lat="44.8022483" lon="9.57779"><ele>620.0</ele><time>2026-04-05T10:51:47.189Z</time></trkpt><trkpt lat="44.8023233" lon="9.5778183"><ele>620.0</ele><time>2026-04-05T10:51:48.19Z</time></trkpt><trkpt lat="44.8024" lon="9.57784"><ele>620.0</ele><time>2026-04-05T10:51:49.189Z</time></trkpt><trkpt lat="44.8024683" lon="9.5778633"><ele>620.0</ele><time>2026-04-05T10:51:50.188Z</time></trkpt><trkpt lat="44.8025833" lon="9.577925"><ele>620.0</ele><time>2026-04-05T10:51:52.188Z</time></trkpt><trkpt lat="44.8026333" lon="9.577985"><ele>620.0</ele><time>2026-04-05T10:51:53.19Z</time></trkpt><trkpt lat="44.80268" lon="9.5780633"><ele>620.0</ele><time>2026-04-05T10:51:54.189Z</time></trkpt><trkpt lat="44.802725" lon="9.578155"><ele>622.6</ele><time>2026-04-05T10:51:55.189Z</time></trkpt><trkpt lat="44.802765" lon="9.5782283"><ele>625.2</ele><time>2026-04-05T10:51:56.189Z</time></trkpt><trkpt lat="44.8028017" lon="9.5783717"><ele>627.8</ele><time>2026-04-05T10:51:58.189Z</time></trkpt><trkpt lat="44.8027767" lon="9.57853"><ele>630.4</ele><time>2026-04-05T10:52:00.188Z</time></trkpt><trkpt lat="44.8027417" lon="9.5786333"><ele>633.0</ele><time>2026-04-05T10:52:01.188Z</time></trkpt><trkpt lat="44.8026983" lon="9.5787467"><ele>628.6666666666666</ele><time>2026-04-05T10:52:02.19Z</time></trkpt><trkpt lat="44.8026517" lon="9.57886"><ele>624.3333333333334</ele><time>2026-04-05T10:52:03.189Z</time></trkpt><trkpt lat="44.80261" lon="9.5789683"><ele>620.0</ele><time>2026-04-05T10:52:04.188Z</time></trkpt><trkpt lat="44.802575" lon="9.5790733"><ele>615.6666666666667</ele><time>2026-04-05T10:52:05.19Z</time></trkpt><trkpt lat="44.8025317" lon="9.5791667"><ele>611.3333333333334</ele><time>2026-04-05T10:52:06.19Z</time></trkpt><trkpt lat="44.8024883" lon="9.5792583"><ele>607.0</ele><time>2026-04-05T10:52:07.188Z</time></trkpt><trkpt lat="44.8024367" lon="9.5793467"><ele>606.9999999999999</ele><time>2026-04-05T10:52:08.19Z</time></trkpt><trkpt lat="44.8023867" lon="9.5794333"><ele>607.0</ele><time>2026-04-05T10:52:09.188Z</time></trkpt><trkpt lat="44.8023467" lon="9.57952"><ele>607.0</ele><time>2026-04-05T10:52:10.189Z</time></trkpt><trkpt lat="44.8023233" lon="9.5796117"><ele>607.0</ele><time>2026-04-05T10:52:11.189Z</time></trkpt><trkpt lat="44.8023117" lon="9.5797033"><ele>607.0</ele><time>2026-04-05T10:52:12.19Z</time></trkpt><trkpt lat="44.8023167" lon="9.5797983"><ele>606.9999999999999</ele><time>2026-04-05T10:52:13.188Z</time></trkpt><trkpt lat="44.802325" lon="9.579895"><ele>607.0</ele><time>2026-04-05T10:52:14.19Z</time></trkpt><trkpt lat="44.8023317" lon="9.57999"><ele>609.4</ele><time>2026-04-05T10:52:15.189Z</time></trkpt><trkpt lat="44.8023333" lon="9.5801633"><ele>611.8000000000001</ele><time>2026-04-05T10:52:17.188Z</time></trkpt><trkpt lat="44.80232" lon="9.5802583"><ele>614.2</ele><time>2026-04-05T10:52:18.189Z</time></trkpt><trkpt lat="44.80228" lon="9.5804117"><ele>616.6</ele><time>2026-04-05T10:52:20.194Z</time></trkpt><trkpt lat="44.802285" lon="9.5805867"><ele>619.0</ele><time>2026-04-05T10:52:22.189Z</time></trkpt><trkpt lat="44.802305" lon="9.5806883"><ele>619.2</ele><time>2026-04-05T10:52:23.188Z</time></trkpt><trkpt lat="44.8023267" lon="9.5808083"><ele>619.4</ele><time>2026-04-05T10:52:24.188Z</time></trkpt><trkpt lat="44.8023533" lon="9.5809517"><ele>619.6</ele><time>2026-04-05T10:52:25.19Z</time></trkpt><trkpt lat="44.8023817" lon="9.5811033"><ele>619.8</ele><time>2026-04-05T10:52:26.19Z</time></trkpt><trkpt lat="44.8023983" lon="9.581245"><ele>620.0</ele><time>2026-04-05T10:52:27.188Z</time></trkpt><trkpt lat="44.8024117" lon="9.5813783"><ele>620.0</ele><time>2026-04-05T10:52:28.191Z</time></trkpt><trkpt lat="44.8024144" lon="9.5815012"><ele>620.0</ele><time>2026-04-05T10:52:29.188Z</time></trkpt><trkpt lat="44.8024038" lon="9.5816159"><ele>620.0</ele><time>2026-04-05T10:52:30.188Z</time></trkpt><trkpt lat="44.8023786" lon="9.5817237"><ele>620.0</ele><time>2026-04-05T10:52:31.188Z</time></trkpt><trkpt lat="44.8023517" lon="9.5818313"><ele>620.0</ele><time>2026-04-05T10:52:32.189Z</time></trkpt><trkpt lat="44.802339" lon="9.5819355"><ele>620.0</ele><time>2026-04-05T10:52:33.188Z</time></trkpt><trkpt lat="44.8023431" lon="9.5820313"><ele>619.7142857142858</ele><time>2026-04-05T10:52:34.188Z</time></trkpt><trkpt lat="44.8023582" lon="9.5821251"><ele>619.4285714285714</ele><time>2026-04-05T10:52:35.189Z</time></trkpt><trkpt lat="44.8023805" lon="9.5822269"><ele>619.1428571428571</ele><time>2026-04-05T10:52:36.188Z</time></trkpt><trkpt lat="44.8023971" lon="9.5823291"><ele>618.8571428571429</ele><time>2026-04-05T10:52:37.188Z</time></trkpt><trkpt lat="44.8023986" lon="9.5824257"><ele>618.5714285714286</ele><time>2026-04-05T10:52:38.191Z</time></trkpt><trkpt lat="44.8023898" lon="9.5825298"><ele>618.2857142857143</ele><time>2026-04-05T10:52:39.188Z</time></trkpt><trkpt lat="44.8023809" lon="9.5826432"><ele>618.0</ele><time>2026-04-05T10:52:40.19Z</time></trkpt><trkpt lat="44.8023711" lon="9.5827544"><ele>618.8333333333334</ele><time>2026-04-05T10:52:41.189Z</time></trkpt><trkpt lat="44.8023611" lon="9.5828642"><ele>619.6666666666666</ele><time>2026-04-05T10:52:42.188Z</time></trkpt><trkpt lat="44.8023485" lon="9.5829699"><ele>620.5</ele><time>2026-04-05T10:52:43.188Z</time></trkpt><trkpt lat="44.8023335" lon="9.5830745"><ele>621.3333333333333</ele><time>2026-04-05T10:52:44.188Z</time></trkpt><trkpt lat="44.8023157" lon="9.5831834"><ele>622.1666666666666</ele><time>2026-04-05T10:52:45.189Z</time></trkpt><trkpt lat="44.8023005" lon="9.583299"><ele>623.0</ele><time>2026-04-05T10:52:46.19Z</time></trkpt><trkpt lat="44.8022861" lon="9.58341"><ele>623.0</ele><time>2026-04-05T10:52:47.19Z</time></trkpt><trkpt lat="44.8022667" lon="9.5835239"><ele>623.0</ele><time>2026-04-05T10:52:48.19Z</time></trkpt><trkpt lat="44.8022449" lon="9.5836472"><ele>623.0</ele><time>2026-04-05T10:52:49.19Z</time></trkpt><trkpt lat="44.8022272" lon="9.583785"><ele>623.0</ele><time>2026-04-05T10:52:50.192Z</time></trkpt><trkpt lat="44.8022141" lon="9.5839248"><ele>623.0</ele><time>2026-04-05T10:52:51.19Z</time></trkpt><trkpt lat="44.8021941" lon="9.5840514"><ele>622.4</ele><time>2026-04-05T10:52:52.19Z</time></trkpt><trkpt lat="44.8021675" lon="9.5841756"><ele>621.8</ele><time>2026-04-05T10:52:53.191Z</time></trkpt><trkpt lat="44.802136" lon="9.5843069"><ele>621.2</ele><time>2026-04-05T10:52:54.19Z</time></trkpt><trkpt lat="44.8020981" lon="9.5844354"><ele>620.6</ele><time>2026-04-05T10:52:55.19Z</time></trkpt><trkpt lat="44.8020539" lon="9.5845506"><ele>620.0</ele><time>2026-04-05T10:52:56.191Z</time></trkpt><trkpt lat="44.8020124" lon="9.5846517"><ele>620.0</ele><time>2026-04-05T10:52:57.19Z</time></trkpt><trkpt lat="44.8019814" lon="9.5847413"><ele>620.0</ele><time>2026-04-05T10:52:58.19Z</time></trkpt><trkpt lat="44.8019552" lon="9.5849079"><ele>620.0</ele><time>2026-04-05T10:53:00.189Z</time></trkpt><trkpt lat="44.8019447" lon="9.5849977"><ele>620.0</ele><time>2026-04-05T10:53:01.19Z</time></trkpt><trkpt lat="44.8019422" lon="9.5851419"><ele>620.0</ele><time>2026-04-05T10:53:03.188Z</time></trkpt><trkpt lat="44.8019546" lon="9.5852852"><ele>619.6666666666666</ele><time>2026-04-05T10:53:05.189Z</time></trkpt><trkpt lat="44.8020031" lon="9.5854402"><ele>619.3333333333333</ele><time>2026-04-05T10:53:07.189Z</time></trkpt><trkpt lat="44.8020346" lon="9.5855236"><ele>619.0</ele><time>2026-04-05T10:53:08.189Z</time></trkpt><trkpt lat="44.8020659" lon="9.5856052"><ele>618.6666666666666</ele><time>2026-04-05T10:53:09.19Z</time></trkpt><trkpt lat="44.8021171" lon="9.5857189"><ele>618.3333333333334</ele><time>2026-04-05T10:53:11.189Z</time></trkpt><trkpt lat="44.802195" lon="9.5857518"><ele>618.0</ele><time>2026-04-05T10:53:14.189Z</time></trkpt><trkpt lat="44.8022371" lon="9.5856649"><ele>618.0</ele><time>2026-04-05T10:53:29.191Z</time></trkpt><trkpt lat="44.8022688" lon="9.5855877"><ele>618.0</ele><time>2026-04-05T10:53:30.192Z</time></trkpt><trkpt lat="44.8022889" lon="9.585489"><ele>618.0</ele><time>2026-04-05T10:53:31.192Z</time></trkpt><trkpt lat="44.8022971" lon="9.5853812"><ele>618.0</ele><time>2026-04-05T10:53:32.191Z</time></trkpt><trkpt lat="44.8022984" lon="9.5852704"><ele>618.0</ele><time>2026-04-05T10:53:33.191Z</time></trkpt><trkpt lat="44.8022975" lon="9.5851543"><ele>618.0</ele><time>2026-04-05T10:53:34.191Z</time></trkpt><trkpt lat="44.8022971" lon="9.5850362"><ele>618.4</ele><time>2026-04-05T10:53:35.191Z</time></trkpt><trkpt lat="44.8022971" lon="9.5849227"><ele>618.8</ele><time>2026-04-05T10:53:36.19Z</time></trkpt><trkpt lat="44.8022985" lon="9.5848237"><ele>619.2</ele><time>2026-04-05T10:53:37.188Z</time></trkpt><trkpt lat="44.8022963" lon="9.5846681"><ele>619.6</ele><time>2026-04-05T10:53:39.189Z</time></trkpt><trkpt lat="44.8023032" lon="9.5844953"><ele>620.0</ele><time>2026-04-05T10:53:41.189Z</time></trkpt><trkpt lat="44.8023142" lon="9.5843893"><ele>621.4</ele><time>2026-04-05T10:53:42.189Z</time></trkpt><trkpt lat="44.8023306" lon="9.5842692"><ele>622.8</ele><time>2026-04-05T10:53:43.194Z</time></trkpt><trkpt lat="44.8023549" lon="9.5841425"><ele>624.2</ele><time>2026-04-05T10:53:44.19Z</time></trkpt><trkpt lat="44.8023838" lon="9.5840209"><ele>625.6</ele><time>2026-04-05T10:53:45.189Z</time></trkpt><trkpt lat="44.80242" lon="9.5839053"><ele>627.0</ele><time>2026-04-05T10:53:46.189Z</time></trkpt><trkpt lat="44.8024686" lon="9.5837973"><ele>627.0</ele><time>2026-04-05T10:53:47.192Z</time></trkpt><trkpt lat="44.8025229" lon="9.5837006"><ele>627.0</ele><time>2026-04-05T10:53:48.189Z</time></trkpt><trkpt lat="44.8025821" lon="9.5836063"><ele>627.0</ele><time>2026-04-05T10:53:49.19Z</time></trkpt><trkpt lat="44.8026416" lon="9.5835235"><ele>627.0</ele><time>2026-04-05T10:53:50.189Z</time></trkpt><trkpt lat="44.8026924" lon="9.5834478"><ele>627.0</ele><time>2026-04-05T10:53:51.189Z</time></trkpt><trkpt lat="44.802731" lon="9.5833693"><ele>627.0</ele><time>2026-04-05T10:53:52.19Z</time></trkpt><trkpt lat="44.8027587" lon="9.5832833"><ele>630.6666666666666</ele><time>2026-04-05T10:53:53.19Z</time></trkpt><trkpt lat="44.8027778" lon="9.583177"><ele>634.3333333333334</ele><time>2026-04-05T10:53:54.189Z</time></trkpt><trkpt lat="44.8027911" lon="9.5830446"><ele>638.0</ele><time>2026-04-05T10:53:55.19Z</time></trkpt><trkpt lat="44.8027995" lon="9.5829019"><ele>641.6666666666667</ele><time>2026-04-05T10:53:56.189Z</time></trkpt><trkpt lat="44.8028132" lon="9.5827805"><ele>645.3333333333334</ele><time>2026-04-05T10:53:57.189Z</time></trkpt><trkpt lat="44.8028369" lon="9.5826768"><ele>649.0</ele><time>2026-04-05T10:53:58.189Z</time></trkpt><trkpt lat="44.802873" lon="9.5825819"><ele>649.0</ele><time>2026-04-05T10:53:59.189Z</time></trkpt><trkpt lat="44.8029175" lon="9.5824907"><ele>649.0</ele><time>2026-04-05T10:54:00.19Z</time></trkpt><trkpt lat="44.8029622" lon="9.5824005"><ele>649.0</ele><time>2026-04-05T10:54:01.19Z</time></trkpt><trkpt lat="44.8029989" lon="9.5823217"><ele>649.0</ele><time>2026-04-05T10:54:02.19Z</time></trkpt><trkpt lat="44.8030304" lon="9.5821386"><ele>649.0</ele><time>2026-04-05T10:54:04.19Z</time></trkpt><trkpt lat="44.8030278" lon="9.5820183"><ele>649.0</ele><time>2026-04-05T10:54:05.188Z</time></trkpt><trkpt lat="44.803027" lon="9.5818886"><ele>648.2</ele><time>2026-04-05T10:54:06.188Z</time></trkpt><trkpt lat="44.8030359" lon="9.5817594"><ele>647.4000000000001</ele><time>2026-04-05T10:54:07.191Z</time></trkpt><trkpt lat="44.8030654" lon="9.5816294"><ele>646.6</ele><time>2026-04-05T10:54:08.191Z</time></trkpt><trkpt lat="44.8031137" lon="9.5814861"><ele>645.8</ele><time>2026-04-05T10:54:09.188Z</time></trkpt><trkpt lat="44.8031707" lon="9.5813362"><ele>645.0</ele><time>2026-04-05T10:54:10.188Z</time></trkpt><trkpt lat="44.8032307" lon="9.5811992"><ele>644.3333333333334</ele><time>2026-04-05T10:54:11.191Z</time></trkpt><trkpt lat="44.8032846" lon="9.5810894"><ele>643.6666666666666</ele><time>2026-04-05T10:54:12.191Z</time></trkpt><trkpt lat="44.8033378" lon="9.5810065"><ele>643.0</ele><time>2026-04-05T10:54:13.192Z</time></trkpt><trkpt lat="44.8033915" lon="9.5809434"><ele>642.3333333333333</ele><time>2026-04-05T10:54:14.193Z</time></trkpt><trkpt lat="44.8034479" lon="9.5808988"><ele>641.6666666666666</ele><time>2026-04-05T10:54:15.193Z</time></trkpt><trkpt lat="44.8035651" lon="9.5808765"><ele>641.0</ele><time>2026-04-05T10:54:17.189Z</time></trkpt><trkpt lat="44.8036535" lon="9.5809627"><ele>644.4</ele><time>2026-04-05T10:54:19.19Z</time></trkpt><trkpt lat="44.8036716" lon="9.581138"><ele>647.8</ele><time>2026-04-05T10:54:21.19Z</time></trkpt><trkpt lat="44.8036556" lon="9.5812516"><ele>651.1999999999999</ele><time>2026-04-05T10:54:22.189Z</time></trkpt><trkpt lat="44.8036227" lon="9.5813933"><ele>654.5999999999999</ele><time>2026-04-05T10:54:23.188Z</time></trkpt><trkpt lat="44.8035806" lon="9.5815571"><ele>658.0</ele><time>2026-04-05T10:54:24.189Z</time></trkpt><trkpt lat="44.80354" lon="9.5817144"><ele>659.0</ele><time>2026-04-05T10:54:25.189Z</time></trkpt><trkpt lat="44.8035027" lon="9.5818433"><ele>660.0</ele><time>2026-04-05T10:54:26.189Z</time></trkpt><trkpt lat="44.8034722" lon="9.5819445"><ele>661.0</ele><time>2026-04-05T10:54:27.19Z</time></trkpt><trkpt lat="44.8034723" lon="9.5820973"><ele>662.0</ele><time>2026-04-05T10:54:29.189Z</time></trkpt><trkpt lat="44.8035309" lon="9.5821687"><ele>663.0</ele><time>2026-04-05T10:54:31.19Z</time></trkpt><trkpt lat="44.8036106" lon="9.5821238"><ele>664.0</ele><time>2026-04-05T10:54:33.188Z</time></trkpt><trkpt lat="44.8036586" lon="9.5820532"><ele>664.0</ele><time>2026-04-05T10:54:34.188Z</time></trkpt><trkpt lat="44.8037171" lon="9.5819553"><ele>664.0</ele><time>2026-04-05T10:54:35.189Z</time></trkpt><trkpt lat="44.8037871" lon="9.5818436"><ele>664.0</ele><time>2026-04-05T10:54:36.189Z</time></trkpt><trkpt lat="44.8038582" lon="9.5817423"><ele>664.0</ele><time>2026-04-05T10:54:37.192Z</time></trkpt><trkpt lat="44.803935" lon="9.5816525"><ele>664.0</ele><time>2026-04-05T10:54:38.189Z</time></trkpt><trkpt lat="44.804024" lon="9.5815842"><ele>664.0</ele><time>2026-04-05T10:54:39.189Z</time></trkpt><trkpt lat="44.8041269" lon="9.581537"><ele>664.0</ele><time>2026-04-05T10:54:40.189Z</time></trkpt><trkpt lat="44.8042394" lon="9.5815066"><ele>664.0</ele><time>2026-04-05T10:54:41.189Z</time></trkpt><trkpt lat="44.804338" lon="9.5814667"><ele>664.0</ele><time>2026-04-05T10:54:42.189Z</time></trkpt><trkpt lat="44.804421" lon="9.5814061"><ele>664.0</ele><time>2026-04-05T10:54:43.19Z</time></trkpt><trkpt lat="44.8044892" lon="9.5813092"><ele>667.25</ele><time>2026-04-05T10:54:44.19Z</time></trkpt><trkpt lat="44.8045438" lon="9.5811713"><ele>670.5</ele><time>2026-04-05T10:54:45.189Z</time></trkpt><trkpt lat="44.8045908" lon="9.5809993"><ele>673.75</ele><time>2026-04-05T10:54:46.189Z</time></trkpt><trkpt lat="44.8046388" lon="9.5808109"><ele>677.0</ele><time>2026-04-05T10:54:47.188Z</time></trkpt><trkpt lat="44.804688" lon="9.5806164"><ele>677.0</ele><time>2026-04-05T10:54:48.188Z</time></trkpt><trkpt lat="44.8047373" lon="9.5804263"><ele>677.0</ele><time>2026-04-05T10:54:49.189Z</time></trkpt><trkpt lat="44.8047814" lon="9.5802565"><ele>677.0</ele><time>2026-04-05T10:54:50.189Z</time></trkpt><trkpt lat="44.8048149" lon="9.5801045"><ele>677.0</ele><time>2026-04-05T10:54:51.188Z</time></trkpt><trkpt lat="44.8048258" lon="9.579955"><ele>678.25</ele><time>2026-04-05T10:54:52.188Z</time></trkpt><trkpt lat="44.8048081" lon="9.5798025"><ele>679.5</ele><time>2026-04-05T10:54:53.188Z</time></trkpt><trkpt lat="44.8047634" lon="9.5796476"><ele>680.75</ele><time>2026-04-05T10:54:54.188Z</time></trkpt><trkpt lat="44.8047032" lon="9.5795007"><ele>682.0</ele><time>2026-04-05T10:54:55.189Z</time></trkpt><trkpt lat="44.8046542" lon="9.5793739"><ele>682.0</ele><time>2026-04-05T10:54:56.189Z</time></trkpt><trkpt lat="44.8046289" lon="9.5792683"><ele>682.0</ele><time>2026-04-05T10:54:57.189Z</time></trkpt><trkpt lat="44.8046302" lon="9.5791758"><ele>682.0</ele><time>2026-04-05T10:54:58.188Z</time></trkpt><trkpt lat="44.8046607" lon="9.5790924"><ele>682.0</ele><time>2026-04-05T10:54:59.189Z</time></trkpt><trkpt lat="44.8047066" lon="9.579014"><ele>682.0</ele><time>2026-04-05T10:55:00.187Z</time></trkpt><trkpt lat="44.80478" lon="9.5789435"><ele>682.0</ele><time>2026-04-05T10:55:01.189Z</time></trkpt><trkpt lat="44.8048871" lon="9.5788874"><ele>682.0</ele><time>2026-04-05T10:55:02.188Z</time></trkpt><trkpt lat="44.8050399" lon="9.5788404"><ele>682.0</ele><time>2026-04-05T10:55:03.188Z</time></trkpt><trkpt lat="44.8051821" lon="9.5787976"><ele>682.0</ele><time>2026-04-05T10:55:04.19Z</time></trkpt><trkpt lat="44.8052949" lon="9.5787466"><ele>682.0</ele><time>2026-04-05T10:55:05.187Z</time></trkpt><trkpt lat="44.8053767" lon="9.5786772"><ele>684.25</ele><time>2026-04-05T10:55:06.188Z</time></trkpt><trkpt lat="44.8054372" lon="9.5785704"><ele>686.5</ele><time>2026-04-05T10:55:07.187Z</time></trkpt><trkpt lat="44.8054725" lon="9.578433"><ele>688.75</ele><time>2026-04-05T10:55:08.188Z</time></trkpt><trkpt lat="44.8054908" lon="9.578264"><ele>691.0</ele><time>2026-04-05T10:55:09.187Z</time></trkpt><trkpt lat="44.8055029" lon="9.5780537"><ele>692.6666666666667</ele><time>2026-04-05T10:55:10.189Z</time></trkpt><trkpt lat="44.8055178" lon="9.5777942"><ele>694.3333333333334</ele><time>2026-04-05T10:55:11.187Z</time></trkpt><trkpt lat="44.8055222" lon="9.5775091"><ele>696.0</ele><time>2026-04-05T10:55:12.188Z</time></trkpt><trkpt lat="44.8055159" lon="9.577243"><ele>696.0</ele><time>2026-04-05T10:55:13.19Z</time></trkpt><trkpt lat="44.8055113" lon="9.577022"><ele>696.0</ele><time>2026-04-05T10:55:14.189Z</time></trkpt><trkpt lat="44.8055146" lon="9.5768265"><ele>696.0</ele><time>2026-04-05T10:55:15.187Z</time></trkpt><trkpt lat="44.805531" lon="9.576647"><ele>696.0</ele><time>2026-04-05T10:55:16.188Z</time></trkpt><trkpt lat="44.8055629" lon="9.5764834"><ele>696.25</ele><time>2026-04-05T10:55:17.189Z</time></trkpt><trkpt lat="44.8056168" lon="9.5763237"><ele>696.5</ele><time>2026-04-05T10:55:18.188Z</time></trkpt><trkpt lat="44.8056974" lon="9.5761497"><ele>696.75</ele><time>2026-04-05T10:55:19.187Z</time></trkpt><trkpt lat="44.805785" lon="9.5759745"><ele>697.0</ele><time>2026-04-05T10:55:20.189Z</time></trkpt><trkpt lat="44.8058545" lon="9.575818"><ele>697.0</ele><time>2026-04-05T10:55:21.187Z</time></trkpt><trkpt lat="44.8058995" lon="9.5756581"><ele>697.0</ele><time>2026-04-05T10:55:22.191Z</time></trkpt><trkpt lat="44.8059256" lon="9.5754802"><ele>697.0</ele><time>2026-04-05T10:55:23.19Z</time></trkpt><trkpt lat="44.8059374" lon="9.575269"><ele>697.0</ele><time>2026-04-05T10:55:24.189Z</time></trkpt><trkpt lat="44.8059396" lon="9.5750283"><ele>697.6666666666667</ele><time>2026-04-05T10:55:25.187Z</time></trkpt><trkpt lat="44.8059459" lon="9.574786"><ele>698.3333333333334</ele><time>2026-04-05T10:55:26.189Z</time></trkpt><trkpt lat="44.8059641" lon="9.5745744"><ele>699.0</ele><time>2026-04-05T10:55:27.189Z</time></trkpt><trkpt lat="44.8059951" lon="9.5743979"><ele>703.25</ele><time>2026-04-05T10:55:28.187Z</time></trkpt><trkpt lat="44.8060412" lon="9.5742507"><ele>707.5</ele><time>2026-04-05T10:55:29.187Z</time></trkpt><trkpt lat="44.8061063" lon="9.5741265"><ele>711.75</ele><time>2026-04-05T10:55:30.188Z</time></trkpt><trkpt lat="44.8061958" lon="9.574021"><ele>716.0</ele><time>2026-04-05T10:55:31.188Z</time></trkpt><trkpt lat="44.8063121" lon="9.5739232"><ele>716.0</ele><time>2026-04-05T10:55:32.19Z</time></trkpt><trkpt lat="44.8064473" lon="9.5738123"><ele>716.0</ele><time>2026-04-05T10:55:33.188Z</time></trkpt><trkpt lat="44.8065847" lon="9.5736874"><ele>716.0</ele><time>2026-04-05T10:55:34.188Z</time></trkpt><trkpt lat="44.806707" lon="9.5735672"><ele>715.0</ele><time>2026-04-05T10:55:35.187Z</time></trkpt><trkpt lat="44.8068081" lon="9.5734573"><ele>714.0</ele><time>2026-04-05T10:55:36.188Z</time></trkpt><trkpt lat="44.8068842" lon="9.5733429"><ele>713.0</ele><time>2026-04-05T10:55:37.187Z</time></trkpt><trkpt lat="44.8069362" lon="9.5731954"><ele>712.0</ele><time>2026-04-05T10:55:38.188Z</time></trkpt><trkpt lat="44.8069834" lon="9.5730022"><ele>718.6666666666667</ele><time>2026-04-05T10:55:39.188Z</time></trkpt><trkpt lat="44.8070364" lon="9.5727759"><ele>725.3333333333334</ele><time>2026-04-05T10:55:40.188Z</time></trkpt><trkpt lat="44.8070941" lon="9.5725456"><ele>732.0</ele><time>2026-04-05T10:55:41.189Z</time></trkpt><trkpt lat="44.8071512" lon="9.5723356"><ele>732.0</ele><time>2026-04-05T10:55:42.188Z</time></trkpt><trkpt lat="44.8072082" lon="9.572147"><ele>732.0</ele><time>2026-04-05T10:55:43.189Z</time></trkpt><trkpt lat="44.8072693" lon="9.5719812"><ele>732.0</ele><time>2026-04-05T10:55:44.188Z</time></trkpt><trkpt lat="44.8073284" lon="9.5718364"><ele>732.0</ele><time>2026-04-05T10:55:45.189Z</time></trkpt><trkpt lat="44.8073823" lon="9.5717142"><ele>731.3333333333334</ele><time>2026-04-05T10:55:46.189Z</time></trkpt><trkpt lat="44.8074293" lon="9.571612"><ele>730.6666666666666</ele><time>2026-04-05T10:55:47.188Z</time></trkpt><trkpt lat="44.807467" lon="9.5715305"><ele>730.0</ele><time>2026-04-05T10:55:48.19Z</time></trkpt><trkpt lat="44.8075042" lon="9.5714084"><ele>729.3333333333333</ele><time>2026-04-05T10:55:50.19Z</time></trkpt><trkpt lat="44.8075033" lon="9.5712991"><ele>728.6666666666666</ele><time>2026-04-05T10:55:52.188Z</time></trkpt><trkpt lat="44.8075005" lon="9.5711936"><ele>728.0</ele><time>2026-04-05T10:55:54.188Z</time></trkpt><trkpt lat="44.8074994" lon="9.5710805"><ele>727.0</ele><time>2026-04-05T10:55:56.189Z</time></trkpt><trkpt lat="44.8075167" lon="9.570955"><ele>726.0</ele><time>2026-04-05T10:55:58.188Z</time></trkpt><trkpt lat="44.8075567" lon="9.57084"><ele>725.0</ele><time>2026-04-05T10:56:00.192Z</time></trkpt><trkpt lat="44.8076067" lon="9.57071"><ele>724.0</ele><time>2026-04-05T10:56:02.189Z</time></trkpt><trkpt lat="44.8076917" lon="9.5705833"><ele>723.0</ele><time>2026-04-05T10:56:04.187Z</time></trkpt><trkpt lat="44.8078" lon="9.570495"><ele>725.6666666666666</ele><time>2026-04-05T10:56:06.188Z</time></trkpt><trkpt lat="44.80787" lon="9.5704417"><ele>728.3333333333334</ele><time>2026-04-05T10:56:07.188Z</time></trkpt><trkpt lat="44.807945" lon="9.570375"><ele>731.0</ele><time>2026-04-05T10:56:08.188Z</time></trkpt><trkpt lat="44.808005" lon="9.5702983"><ele>733.6666666666667</ele><time>2026-04-05T10:56:09.189Z</time></trkpt><trkpt lat="44.8080533" lon="9.5702067"><ele>736.3333333333334</ele><time>2026-04-05T10:56:10.188Z</time></trkpt><trkpt lat="44.808085" lon="9.5701"><ele>739.0</ele><time>2026-04-05T10:56:11.188Z</time></trkpt><trkpt lat="44.8081" lon="9.5699783"><ele>739.0</ele><time>2026-04-05T10:56:12.188Z</time></trkpt><trkpt lat="44.8080983" lon="9.5698583"><ele>739.0</ele><time>2026-04-05T10:56:13.189Z</time></trkpt><trkpt lat="44.808075" lon="9.5697333"><ele>739.0</ele><time>2026-04-05T10:56:14.189Z</time></trkpt><trkpt lat="44.8080517" lon="9.569595"><ele>739.0</ele><time>2026-04-05T10:56:15.188Z</time></trkpt><trkpt lat="44.8080333" lon="9.5694583"><ele>739.0</ele><time>2026-04-05T10:56:16.188Z</time></trkpt><trkpt lat="44.808025" lon="9.56932"><ele>738.6</ele><time>2026-04-05T10:56:17.187Z</time></trkpt><trkpt lat="44.80803" lon="9.56917"><ele>738.2</ele><time>2026-04-05T10:56:18.189Z</time></trkpt><trkpt lat="44.8080467" lon="9.5690133"><ele>737.8000000000001</ele><time>2026-04-05T10:56:19.188Z</time></trkpt><trkpt lat="44.8080717" lon="9.56885"><ele>737.4000000000001</ele><time>2026-04-05T10:56:20.19Z</time></trkpt><trkpt lat="44.8080967" lon="9.5687067"><ele>737.0</ele><time>2026-04-05T10:56:21.19Z</time></trkpt><trkpt lat="44.8081183" lon="9.5685917"><ele>735.4000000000001</ele><time>2026-04-05T10:56:22.19Z</time></trkpt><trkpt lat="44.8081417" lon="9.5685017"><ele>733.8000000000001</ele><time>2026-04-05T10:56:23.188Z</time></trkpt><trkpt lat="44.8081767" lon="9.5684217"><ele>732.2</ele><time>2026-04-05T10:56:24.19Z</time></trkpt><trkpt lat="44.80824" lon="9.5683317"><ele>730.6</ele><time>2026-04-05T10:56:25.19Z</time></trkpt><trkpt lat="44.8083167" lon="9.5682217"><ele>729.0</ele><time>2026-04-05T10:56:26.188Z</time></trkpt><trkpt lat="44.8084117" lon="9.56808"><ele>732.75</ele><time>2026-04-05T10:56:27.19Z</time></trkpt><trkpt lat="44.808505" lon="9.5679333"><ele>736.5</ele><time>2026-04-05T10:56:28.189Z</time></trkpt><trkpt lat="44.8085917" lon="9.5677867"><ele>740.25</ele><time>2026-04-05T10:56:29.187Z</time></trkpt><trkpt lat="44.8086633" lon="9.5676467"><ele>744.0</ele><time>2026-04-05T10:56:30.19Z</time></trkpt><trkpt lat="44.8087133" lon="9.5675217"><ele>744.0</ele><time>2026-04-05T10:56:31.188Z</time></trkpt><trkpt lat="44.8087567" lon="9.5674117"><ele>744.0</ele><time>2026-04-05T10:56:32.188Z</time></trkpt><trkpt lat="44.8088" lon="9.5673133"><ele>744.0</ele><time>2026-04-05T10:56:33.188Z</time></trkpt><trkpt lat="44.8088617" lon="9.5672233"><ele>744.0</ele><time>2026-04-05T10:56:34.188Z</time></trkpt><trkpt lat="44.8089333" lon="9.5671433"><ele>744.0</ele><time>2026-04-05T10:56:35.188Z</time></trkpt><trkpt lat="44.8090017" lon="9.5670833"><ele>744.0</ele><time>2026-04-05T10:56:36.186Z</time></trkpt><trkpt lat="44.8091167" lon="9.567045"><ele>744.0</ele><time>2026-04-05T10:56:38.188Z</time></trkpt><trkpt lat="44.8091833" lon="9.56706"><ele>744.0</ele><time>2026-04-05T10:56:39.188Z</time></trkpt><trkpt lat="44.80925" lon="9.5671067"><ele>744.0</ele><time>2026-04-05T10:56:40.189Z</time></trkpt><trkpt lat="44.809315" lon="9.5671333"><ele>744.0</ele><time>2026-04-05T10:56:41.188Z</time></trkpt><trkpt lat="44.809415" lon="9.5671183"><ele>744.0</ele><time>2026-04-05T10:56:43.188Z</time></trkpt><trkpt lat="44.8094817" lon="9.56694"><ele>749.2</ele><time>2026-04-05T10:56:45.187Z</time></trkpt><trkpt lat="44.8095017" lon="9.5668167"><ele>754.4000000000001</ele><time>2026-04-05T10:56:46.188Z</time></trkpt><trkpt lat="44.8095033" lon="9.5666733"><ele>759.6</ele><time>2026-04-05T10:56:47.188Z</time></trkpt><trkpt lat="44.80949" lon="9.566525"><ele>764.8</ele><time>2026-04-05T10:56:48.188Z</time></trkpt><trkpt lat="44.8094817" lon="9.5663817"><ele>770.0</ele><time>2026-04-05T10:56:49.188Z</time></trkpt><trkpt lat="44.8094833" lon="9.566245"><ele>768.2</ele><time>2026-04-05T10:56:50.188Z</time></trkpt><trkpt lat="44.8094867" lon="9.5661017"><ele>766.4</ele><time>2026-04-05T10:56:51.188Z</time></trkpt><trkpt lat="44.8094783" lon="9.5659733"><ele>764.5999999999999</ele><time>2026-04-05T10:56:52.188Z</time></trkpt><trkpt lat="44.8094633" lon="9.5658583"><ele>762.8</ele><time>2026-04-05T10:56:53.188Z</time></trkpt><trkpt lat="44.8094533" lon="9.5657617"><ele>761.0</ele><time>2026-04-05T10:56:54.19Z</time></trkpt><trkpt lat="44.8094567" lon="9.56561"><ele>761.0</ele><time>2026-04-05T10:56:56.189Z</time></trkpt><trkpt lat="44.8094783" lon="9.565485"><ele>761.0</ele><time>2026-04-05T10:56:58.189Z</time></trkpt><trkpt lat="44.8094783" lon="9.5653767"><ele>761.0</ele><time>2026-04-05T10:57:00.188Z</time></trkpt><trkpt lat="44.809445" lon="9.5652883"><ele>761.0</ele><time>2026-04-05T10:57:12.187Z</time></trkpt><trkpt lat="44.8093783" lon="9.5652283"><ele>761.0</ele><time>2026-04-05T10:57:14.188Z</time></trkpt><trkpt lat="44.8092933" lon="9.5651233"><ele>761.0</ele><time>2026-04-05T10:57:16.187Z</time></trkpt><trkpt lat="44.80924" lon="9.56499"><ele>757.1999999999999</ele><time>2026-04-05T10:57:18.188Z</time></trkpt><trkpt lat="44.8092283" lon="9.56483"><ele>753.4</ele><time>2026-04-05T10:57:20.188Z</time></trkpt><trkpt lat="44.8092333" lon="9.5647383"><ele>749.6</ele><time>2026-04-05T10:57:21.188Z</time></trkpt><trkpt lat="44.8092283" lon="9.5645633"><ele>745.8</ele><time>2026-04-05T10:57:23.189Z</time></trkpt><trkpt lat="44.8091883" lon="9.5644367"><ele>742.0</ele><time>2026-04-05T10:57:25.189Z</time></trkpt><trkpt lat="44.8090983" lon="9.5643367"><ele>742.0</ele><time>2026-04-05T10:57:27.188Z</time></trkpt><trkpt lat="44.809035" lon="9.56431"><ele>742.0</ele><time>2026-04-05T10:57:28.189Z</time></trkpt><trkpt lat="44.8089683" lon="9.564295"><ele>742.0</ele><time>2026-04-05T10:57:29.189Z</time></trkpt><trkpt lat="44.8089017" lon="9.564285"><ele>742.0</ele><time>2026-04-05T10:57:30.188Z</time></trkpt><trkpt lat="44.8087783" lon="9.5642533"><ele>742.0</ele><time>2026-04-05T10:57:32.188Z</time></trkpt><trkpt lat="44.80868" lon="9.5641783"><ele>742.0</ele><time>2026-04-05T10:57:34.191Z</time></trkpt><trkpt lat="44.8086133" lon="9.564075"><ele>742.0</ele><time>2026-04-05T10:57:36.19Z</time></trkpt><trkpt lat="44.8085717" lon="9.5639"><ele>742.0</ele><time>2026-04-05T10:57:38.188Z</time></trkpt><trkpt lat="44.8085633" lon="9.5637817"><ele>742.0</ele><time>2026-04-05T10:57:39.188Z</time></trkpt><trkpt lat="44.8085467" lon="9.56367"><ele>742.0</ele><time>2026-04-05T10:57:40.189Z</time></trkpt><trkpt lat="44.8085217" lon="9.5635633"><ele>742.0</ele><time>2026-04-05T10:57:41.189Z</time></trkpt><trkpt lat="44.808485" lon="9.5634583"><ele>737.4000000000001</ele><time>2026-04-05T10:57:42.187Z</time></trkpt><trkpt lat="44.8084333" lon="9.56336"><ele>732.8000000000001</ele><time>2026-04-05T10:57:43.188Z</time></trkpt><trkpt lat="44.8083617" lon="9.5632633"><ele>728.2</ele><time>2026-04-05T10:57:44.189Z</time></trkpt><trkpt lat="44.8082717" lon="9.5631583"><ele>723.6</ele><time>2026-04-05T10:57:45.188Z</time></trkpt><trkpt lat="44.8081833" lon="9.563055"><ele>719.0</ele><time>2026-04-05T10:57:46.189Z</time></trkpt><trkpt lat="44.8081" lon="9.5629417"><ele>720.0</ele><time>2026-04-05T10:57:47.187Z</time></trkpt><trkpt lat="44.8080267" lon="9.562825"><ele>721.0</ele><time>2026-04-05T10:57:48.188Z</time></trkpt><trkpt lat="44.807955" lon="9.56272"><ele>722.0</ele><time>2026-04-05T10:57:49.188Z</time></trkpt><trkpt lat="44.8078817" lon="9.5626183"><ele>723.0</ele><time>2026-04-05T10:57:50.189Z</time></trkpt><trkpt lat="44.8078083" lon="9.56251"><ele>724.0</ele><time>2026-04-05T10:57:51.188Z</time></trkpt><trkpt lat="44.8077383" lon="9.562405"><ele>724.0</ele><time>2026-04-05T10:57:52.189Z</time></trkpt><trkpt lat="44.8076767" lon="9.5623117"><ele>724.0</ele><time>2026-04-05T10:57:53.188Z</time></trkpt><trkpt lat="44.80763" lon="9.5622333"><ele>724.0</ele><time>2026-04-05T10:57:54.19Z</time></trkpt><trkpt lat="44.8075817" lon="9.5621633"><ele>724.0</ele><time>2026-04-05T10:57:55.19Z</time></trkpt><trkpt lat="44.8075" lon="9.5620383"><ele>724.0</ele><time>2026-04-05T10:57:57.188Z</time></trkpt><trkpt lat="44.8074517" lon="9.5618783"><ele>723.1666666666667</ele><time>2026-04-05T10:57:59.189Z</time></trkpt><trkpt lat="44.8074367" lon="9.561785"><ele>722.3333333333334</ele><time>2026-04-05T10:58:00.188Z</time></trkpt><trkpt lat="44.8074283" lon="9.5616867"><ele>721.5</ele><time>2026-04-05T10:58:01.188Z</time></trkpt><trkpt lat="44.80742" lon="9.5615983"><ele>720.6666666666666</ele><time>2026-04-05T10:58:02.189Z</time></trkpt><trkpt lat="44.8074033" lon="9.5614333"><ele>719.8333333333333</ele><time>2026-04-05T10:58:04.188Z</time></trkpt><trkpt lat="44.80739" lon="9.5613083"><ele>719.0</ele><time>2026-04-05T10:58:06.189Z</time></trkpt><trkpt lat="44.8073933" lon="9.5614433"><ele>719.0</ele><time>2026-04-05T10:59:23.188Z</time></trkpt><trkpt lat="44.8074067" lon="9.5615467"><ele>719.0</ele><time>2026-04-05T10:59:24.188Z</time></trkpt><trkpt lat="44.807415" lon="9.5616617"><ele>719.0</ele><time>2026-04-05T10:59:25.189Z</time></trkpt><trkpt lat="44.807425" lon="9.5617667"><ele>719.0</ele><time>2026-04-05T10:59:26.189Z</time></trkpt><trkpt lat="44.8074333" lon="9.5618567"><ele>719.0</ele><time>2026-04-05T10:59:27.19Z</time></trkpt><trkpt lat="44.8074517" lon="9.561945"><ele>719.0</ele><time>2026-04-05T10:59:28.189Z</time></trkpt><trkpt lat="44.80752" lon="9.5621"><ele>719.8333333333333</ele><time>2026-04-05T10:59:30.188Z</time></trkpt><trkpt lat="44.8075683" lon="9.562175"><ele>720.6666666666666</ele><time>2026-04-05T10:59:31.188Z</time></trkpt><trkpt lat="44.8076217" lon="9.562255"><ele>721.5</ele><time>2026-04-05T10:59:32.19Z</time></trkpt><trkpt lat="44.8076783" lon="9.5623417"><ele>722.3333333333334</ele><time>2026-04-05T10:59:33.188Z</time></trkpt><trkpt lat="44.80774" lon="9.5624317"><ele>723.1666666666667</ele><time>2026-04-05T10:59:34.188Z</time></trkpt><trkpt lat="44.8078033" lon="9.5625267"><ele>724.0</ele><time>2026-04-05T10:59:35.188Z</time></trkpt><trkpt lat="44.8078683" lon="9.5626167"><ele>724.0</ele><time>2026-04-05T10:59:36.189Z</time></trkpt><trkpt lat="44.807935" lon="9.5627033"><ele>724.0</ele><time>2026-04-05T10:59:37.189Z</time></trkpt><trkpt lat="44.8079967" lon="9.5627917"><ele>724.0</ele><time>2026-04-05T10:59:38.189Z</time></trkpt><trkpt lat="44.8080567" lon="9.5628733"><ele>724.0</ele><time>2026-04-05T10:59:39.188Z</time></trkpt><trkpt lat="44.808115" lon="9.5629533"><ele>724.0</ele><time>2026-04-05T10:59:40.188Z</time></trkpt><trkpt lat="44.8081717" lon="9.5630383"><ele>724.0</ele><time>2026-04-05T10:59:41.188Z</time></trkpt><trkpt lat="44.8082317" lon="9.563125"><ele>723.1666666666667</ele><time>2026-04-05T10:59:42.189Z</time></trkpt><trkpt lat="44.8082967" lon="9.5632083"><ele>722.3333333333334</ele><time>2026-04-05T10:59:43.188Z</time></trkpt><trkpt lat="44.8083617" lon="9.56328"><ele>721.5</ele><time>2026-04-05T10:59:44.188Z</time></trkpt><trkpt lat="44.8084183" lon="9.56335"><ele>720.6666666666666</ele><time>2026-04-05T10:59:45.188Z</time></trkpt><trkpt lat="44.808465" lon="9.5634267"><ele>719.8333333333333</ele><time>2026-04-05T10:59:46.188Z</time></trkpt><trkpt lat="44.8085033" lon="9.56351"><ele>719.0</ele><time>2026-04-05T10:59:47.188Z</time></trkpt><trkpt lat="44.8085333" lon="9.5636083"><ele>722.8333333333333</ele><time>2026-04-05T10:59:48.189Z</time></trkpt><trkpt lat="44.8085567" lon="9.5637117"><ele>726.6666666666666</ele><time>2026-04-05T10:59:49.188Z</time></trkpt><trkpt lat="44.8085683" lon="9.56382"><ele>730.5</ele><time>2026-04-05T10:59:50.191Z</time></trkpt><trkpt lat="44.8085833" lon="9.5639217"><ele>734.3333333333334</ele><time>2026-04-05T10:59:51.189Z</time></trkpt><trkpt lat="44.808605" lon="9.564015"><ele>738.1666666666667</ele><time>2026-04-05T10:59:52.189Z</time></trkpt><trkpt lat="44.808635" lon="9.5640967"><ele>742.0</ele><time>2026-04-05T10:59:53.188Z</time></trkpt><trkpt lat="44.8087167" lon="9.5642167"><ele>742.0</ele><time>2026-04-05T10:59:55.189Z</time></trkpt><trkpt lat="44.8087783" lon="9.564255"><ele>742.0</ele><time>2026-04-05T10:59:56.189Z</time></trkpt><trkpt lat="44.8088483" lon="9.5642833"><ele>742.0</ele><time>2026-04-05T10:59:57.189Z</time></trkpt><trkpt lat="44.8089167" lon="9.5643017"><ele>742.0</ele><time>2026-04-05T10:59:58.19Z</time></trkpt><trkpt lat="44.809035" lon="9.56433"><ele>742.0</ele><time>2026-04-05T11:00:00.188Z</time></trkpt><trkpt lat="44.80913" lon="9.5643917"><ele>742.0</ele><time>2026-04-05T11:00:02.189Z</time></trkpt><trkpt lat="44.8092017" lon="9.5645183"><ele>739.6666666666667</ele><time>2026-04-05T11:00:04.189Z</time></trkpt><trkpt lat="44.8092167" lon="9.564615"><ele>737.3333333333334</ele><time>2026-04-05T11:00:05.188Z</time></trkpt><trkpt lat="44.8092183" lon="9.5647167"><ele>735.0</ele><time>2026-04-05T11:00:06.188Z</time></trkpt><trkpt lat="44.8092133" lon="9.5648267"><ele>732.6666666666666</ele><time>2026-04-05T11:00:07.189Z</time></trkpt><trkpt lat="44.809215" lon="9.564935"><ele>730.3333333333333</ele><time>2026-04-05T11:00:08.188Z</time></trkpt><trkpt lat="44.809225" lon="9.5650267"><ele>728.0</ele><time>2026-04-05T11:00:09.188Z</time></trkpt><trkpt lat="44.8092717" lon="9.565165"><ele>733.0</ele><time>2026-04-05T11:00:11.189Z</time></trkpt><trkpt lat="44.8093633" lon="9.5652417"><ele>738.0</ele><time>2026-04-05T11:00:13.188Z</time></trkpt><trkpt lat="44.80945" lon="9.565315"><ele>743.0</ele><time>2026-04-05T11:00:15.19Z</time></trkpt><trkpt lat="44.8095083" lon="9.5653767"><ele>748.0</ele><time>2026-04-05T11:00:17.188Z</time></trkpt><trkpt lat="44.80948" lon="9.5652883"><ele>753.0</ele><time>2026-04-05T11:00:23.188Z</time></trkpt><trkpt lat="44.8094117" lon="9.5652083"><ele>758.0</ele><time>2026-04-05T11:00:26.188Z</time></trkpt><trkpt lat="44.8093533" lon="9.5651133"><ele>758.0</ele><time>2026-04-05T11:00:29.191Z</time></trkpt><trkpt lat="44.8093167" lon="9.5650367"><ele>758.0</ele><time>2026-04-05T11:00:31.189Z</time></trkpt><trkpt lat="44.8093667" lon="9.5651233"><ele>758.0</ele><time>2026-04-05T11:02:25.189Z</time></trkpt><trkpt lat="44.809355" lon="9.5652167"><ele>758.0</ele><time>2026-04-05T11:02:29.189Z</time></trkpt><trkpt lat="44.8093017" lon="9.5651683"><ele>758.0</ele><time>2026-04-05T11:02:33.191Z</time></trkpt><trkpt lat="44.80925" lon="9.5650583"><ele>758.0</ele><time>2026-04-05T11:02:35.19Z</time></trkpt><trkpt lat="44.8092133" lon="9.5649033"><ele>754.8</ele><time>2026-04-05T11:02:37.188Z</time></trkpt><trkpt lat="44.8092067" lon="9.5647583"><ele>751.5999999999999</ele><time>2026-04-05T11:02:39.189Z</time></trkpt><trkpt lat="44.80921" lon="9.5646383"><ele>748.4000000000001</ele><time>2026-04-05T11:02:41.188Z</time></trkpt><trkpt lat="44.8091967" lon="9.56452"><ele>745.2</ele><time>2026-04-05T11:02:43.19Z</time></trkpt><trkpt lat="44.8091567" lon="9.564405"><ele>742.0</ele><time>2026-04-05T11:02:45.188Z</time></trkpt><trkpt lat="44.8090817" lon="9.5643383"><ele>742.0</ele><time>2026-04-05T11:02:47.19Z</time></trkpt><trkpt lat="44.8089783" lon="9.5643167"><ele>742.0</ele><time>2026-04-05T11:02:49.189Z</time></trkpt><trkpt lat="44.808855" lon="9.5642933"><ele>742.0</ele><time>2026-04-05T11:02:51.19Z</time></trkpt><trkpt lat="44.8087483" lon="9.5642417"><ele>742.0</ele><time>2026-04-05T11:02:53.188Z</time></trkpt><trkpt lat="44.808655" lon="9.5641617"><ele>742.0</ele><time>2026-04-05T11:02:55.194Z</time></trkpt><trkpt lat="44.8085933" lon="9.564025"><ele>742.0</ele><time>2026-04-05T11:02:57.19Z</time></trkpt><trkpt lat="44.8085833" lon="9.5639317"><ele>742.0</ele><time>2026-04-05T11:02:58.19Z</time></trkpt><trkpt lat="44.8085733" lon="9.5638317"><ele>742.0</ele><time>2026-04-05T11:02:59.189Z</time></trkpt><trkpt lat="44.808565" lon="9.5637233"><ele>742.0</ele><time>2026-04-05T11:03:00.188Z</time></trkpt><trkpt lat="44.80854" lon="9.563615"><ele>742.0</ele><time>2026-04-05T11:03:01.189Z</time></trkpt><trkpt lat="44.8085083" lon="9.5635017"><ele>737.4000000000001</ele><time>2026-04-05T11:03:02.189Z</time></trkpt><trkpt lat="44.8084567" lon="9.5633983"><ele>732.8000000000001</ele><time>2026-04-05T11:03:03.189Z</time></trkpt><trkpt lat="44.8083917" lon="9.5633017"><ele>728.2</ele><time>2026-04-05T11:03:04.188Z</time></trkpt><trkpt lat="44.8083083" lon="9.5632067"><ele>723.6</ele><time>2026-04-05T11:03:05.19Z</time></trkpt><trkpt lat="44.80823" lon="9.5631083"><ele>719.0</ele><time>2026-04-05T11:03:06.189Z</time></trkpt><trkpt lat="44.8081533" lon="9.5630083"><ele>719.0</ele><time>2026-04-05T11:03:07.189Z</time></trkpt><trkpt lat="44.8080817" lon="9.562905"><ele>719.0</ele><time>2026-04-05T11:03:08.189Z</time></trkpt><trkpt lat="44.80801" lon="9.5627967"><ele>719.0</ele><time>2026-04-05T11:03:09.188Z</time></trkpt><trkpt lat="44.80794" lon="9.562695"><ele>719.0</ele><time>2026-04-05T11:03:10.188Z</time></trkpt><trkpt lat="44.8078717" lon="9.5626"><ele>719.0</ele><time>2026-04-05T11:03:11.188Z</time></trkpt><trkpt lat="44.8078067" lon="9.5625017"><ele>719.0</ele><time>2026-04-05T11:03:12.189Z</time></trkpt><trkpt lat="44.8077417" lon="9.56241"><ele>719.0</ele><time>2026-04-05T11:03:13.189Z</time></trkpt><trkpt lat="44.8076867" lon="9.562315"><ele>719.0</ele><time>2026-04-05T11:03:14.19Z</time></trkpt><trkpt lat="44.807625" lon="9.562225"><ele>719.0</ele><time>2026-04-05T11:03:15.189Z</time></trkpt><trkpt lat="44.80757" lon="9.5621383"><ele>719.0</ele><time>2026-04-05T11:03:16.188Z</time></trkpt><trkpt lat="44.8075167" lon="9.562055"><ele>719.0</ele><time>2026-04-05T11:03:17.191Z</time></trkpt><trkpt lat="44.8074783" lon="9.5619733"><ele>718.9999999999999</ele><time>2026-04-05T11:03:18.188Z</time></trkpt><trkpt lat="44.8074567" lon="9.5618833"><ele>719.0</ele><time>2026-04-05T11:03:19.189Z</time></trkpt><trkpt lat="44.8074417" lon="9.5617817"><ele>719.0</ele><time>2026-04-05T11:03:20.189Z</time></trkpt><trkpt lat="44.8074283" lon="9.56167"><ele>719.0</ele><time>2026-04-05T11:03:21.189Z</time></trkpt><trkpt lat="44.80742" lon="9.5615583"><ele>719.0</ele><time>2026-04-05T11:03:22.19Z</time></trkpt><trkpt lat="44.80741" lon="9.5614617"><ele>718.9999999999999</ele><time>2026-04-05T11:03:23.189Z</time></trkpt><trkpt lat="44.807395" lon="9.561375"><ele>719.0</ele><time>2026-04-05T11:03:24.189Z</time></trkpt><trkpt lat="44.8073733" lon="9.56129"><ele>718.0</ele><time>2026-04-05T11:03:25.192Z</time></trkpt><trkpt lat="44.807335" lon="9.5611983"><ele>717.0</ele><time>2026-04-05T11:03:26.189Z</time></trkpt><trkpt lat="44.8072767" lon="9.561105"><ele>716.0</ele><time>2026-04-05T11:03:27.189Z</time></trkpt><trkpt lat="44.8072017" lon="9.56101"><ele>715.0</ele><time>2026-04-05T11:03:28.189Z</time></trkpt><trkpt lat="44.8071133" lon="9.560915"><ele>714.0</ele><time>2026-04-05T11:03:29.189Z</time></trkpt><trkpt lat="44.8070183" lon="9.5608233"><ele>714.0</ele><time>2026-04-05T11:03:30.189Z</time></trkpt><trkpt lat="44.806925" lon="9.5607383"><ele>714.0</ele><time>2026-04-05T11:03:31.189Z</time></trkpt><trkpt lat="44.806835" lon="9.56067"><ele>714.0</ele><time>2026-04-05T11:03:32.189Z</time></trkpt><trkpt lat="44.8067417" lon="9.5606133"><ele>714.0</ele><time>2026-04-05T11:03:33.189Z</time></trkpt><trkpt lat="44.806645" lon="9.5605617"><ele>714.0</ele><time>2026-04-05T11:03:34.188Z</time></trkpt><trkpt lat="44.8065433" lon="9.560515"><ele>713.8000000000001</ele><time>2026-04-05T11:03:35.189Z</time></trkpt><trkpt lat="44.8064383" lon="9.5604667"><ele>713.6</ele><time>2026-04-05T11:03:36.19Z</time></trkpt><trkpt lat="44.8063383" lon="9.5604133"><ele>713.4</ele><time>2026-04-05T11:03:37.189Z</time></trkpt><trkpt lat="44.8062383" lon="9.5603517"><ele>713.2</ele><time>2026-04-05T11:03:38.19Z</time></trkpt><trkpt lat="44.8061367" lon="9.5602717"><ele>713.0</ele><time>2026-04-05T11:03:39.189Z</time></trkpt><trkpt lat="44.8060333" lon="9.5601733"><ele>712.25</ele><time>2026-04-05T11:03:40.189Z</time></trkpt><trkpt lat="44.80593" lon="9.5600617"><ele>711.5</ele><time>2026-04-05T11:03:41.192Z</time></trkpt><trkpt lat="44.805835" lon="9.5599583"><ele>710.75</ele><time>2026-04-05T11:03:42.191Z</time></trkpt><trkpt lat="44.8057433" lon="9.559875"><ele>710.0</ele><time>2026-04-05T11:03:43.191Z</time></trkpt><trkpt lat="44.8056483" lon="9.5598017"><ele>710.0</ele><time>2026-04-05T11:03:44.191Z</time></trkpt><trkpt lat="44.805545" lon="9.5597367"><ele>710.0</ele><time>2026-04-05T11:03:45.19Z</time></trkpt><trkpt lat="44.8054433" lon="9.559685"><ele>710.0</ele><time>2026-04-05T11:03:46.189Z</time></trkpt><trkpt lat="44.8053417" lon="9.559655"><ele>710.0</ele><time>2026-04-05T11:03:47.189Z</time></trkpt><trkpt lat="44.8052467" lon="9.559635"><ele>710.0</ele><time>2026-04-05T11:03:48.19Z</time></trkpt><trkpt lat="44.8051483" lon="9.5596233"><ele>710.6666666666666</ele><time>2026-04-05T11:03:49.191Z</time></trkpt><trkpt lat="44.8050583" lon="9.5596067"><ele>711.3333333333333</ele><time>2026-04-05T11:03:50.191Z</time></trkpt><trkpt lat="44.8049817" lon="9.55958"><ele>712.0</ele><time>2026-04-05T11:03:51.19Z</time></trkpt><trkpt lat="44.804905" lon="9.5595483"><ele>712.6666666666666</ele><time>2026-04-05T11:03:52.191Z</time></trkpt><trkpt lat="44.8048217" lon="9.5594967"><ele>713.3333333333334</ele><time>2026-04-05T11:03:53.191Z</time></trkpt><trkpt lat="44.8047233" lon="9.5594517"><ele>714.0</ele><time>2026-04-05T11:03:54.191Z</time></trkpt><trkpt lat="44.80461" lon="9.5594167"><ele>714.8000000000001</ele><time>2026-04-05T11:03:55.191Z</time></trkpt><trkpt lat="44.8044883" lon="9.5593833"><ele>715.6</ele><time>2026-04-05T11:03:56.192Z</time></trkpt><trkpt lat="44.80437" lon="9.5593567"><ele>716.4</ele><time>2026-04-05T11:03:57.191Z</time></trkpt><trkpt lat="44.8042633" lon="9.559335"><ele>717.2</ele><time>2026-04-05T11:03:58.191Z</time></trkpt><trkpt lat="44.8041683" lon="9.5593067"><ele>718.0</ele><time>2026-04-05T11:03:59.191Z</time></trkpt><trkpt lat="44.8040883" lon="9.55926"><ele>718.0</ele><time>2026-04-05T11:04:00.192Z</time></trkpt><trkpt lat="44.80401" lon="9.5591967"><ele>718.0</ele><time>2026-04-05T11:04:01.192Z</time></trkpt><trkpt lat="44.8039333" lon="9.5591217"><ele>718.0</ele><time>2026-04-05T11:04:02.189Z</time></trkpt><trkpt lat="44.8038683" lon="9.5590433"><ele>718.0</ele><time>2026-04-05T11:04:03.191Z</time></trkpt><trkpt lat="44.8038183" lon="9.5589733"><ele>718.0</ele><time>2026-04-05T11:04:04.19Z</time></trkpt><trkpt lat="44.8037717" lon="9.55891"><ele>718.0</ele><time>2026-04-05T11:04:05.189Z</time></trkpt><trkpt lat="44.8036917" lon="9.5587917"><ele>718.0</ele><time>2026-04-05T11:04:07.189Z</time></trkpt><trkpt lat="44.8036033" lon="9.5587333"><ele>718.0</ele><time>2026-04-05T11:04:09.191Z</time></trkpt><trkpt lat="44.8034633" lon="9.5587417"><ele>718.0</ele><time>2026-04-05T11:04:11.189Z</time></trkpt><trkpt lat="44.80337" lon="9.5587517"><ele>718.0</ele><time>2026-04-05T11:04:12.189Z</time></trkpt><trkpt lat="44.803275" lon="9.558765"><ele>718.0</ele><time>2026-04-05T11:04:13.189Z</time></trkpt><trkpt lat="44.803185" lon="9.558785"><ele>718.2</ele><time>2026-04-05T11:04:14.189Z</time></trkpt><trkpt lat="44.80311" lon="9.55881"><ele>718.4</ele><time>2026-04-05T11:04:15.189Z</time></trkpt><trkpt lat="44.8030017" lon="9.5588117"><ele>718.6</ele><time>2026-04-05T11:04:17.188Z</time></trkpt><trkpt lat="44.8029267" lon="9.5586933"><ele>718.8000000000001</ele><time>2026-04-05T11:04:19.19Z</time></trkpt><trkpt lat="44.8029083" lon="9.558595"><ele>719.0</ele><time>2026-04-05T11:04:20.19Z</time></trkpt><trkpt lat="44.8028983" lon="9.5584783"><ele>720.4000000000001</ele><time>2026-04-05T11:04:21.189Z</time></trkpt><trkpt lat="44.8028883" lon="9.558365"><ele>721.8</ele><time>2026-04-05T11:04:22.189Z</time></trkpt><trkpt lat="44.8028717" lon="9.5582683"><ele>723.2</ele><time>2026-04-05T11:04:23.189Z</time></trkpt><trkpt lat="44.8028417" lon="9.5581333"><ele>724.5999999999999</ele><time>2026-04-05T11:04:25.19Z</time></trkpt><trkpt lat="44.802835" lon="9.557995"><ele>726.0</ele><time>2026-04-05T11:04:40.189Z</time></trkpt><trkpt lat="44.80285" lon="9.5578083"><ele>726.0</ele><time>2026-04-05T11:04:42.19Z</time></trkpt><trkpt lat="44.8028467" lon="9.55769"><ele>726.0</ele><time>2026-04-05T11:04:43.191Z</time></trkpt><trkpt lat="44.802835" lon="9.5575533"><ele>726.0</ele><time>2026-04-05T11:04:44.192Z</time></trkpt><trkpt lat="44.80283" lon="9.5574117"><ele>726.0</ele><time>2026-04-05T11:04:45.191Z</time></trkpt><trkpt lat="44.8028333" lon="9.5572783"><ele>726.0</ele><time>2026-04-05T11:04:46.19Z</time></trkpt><trkpt lat="44.8028367" lon="9.557165"><ele>726.0</ele><time>2026-04-05T11:04:47.191Z</time></trkpt><trkpt lat="44.80284" lon="9.5570433"><ele>726.0</ele><time>2026-04-05T11:04:48.189Z</time></trkpt><trkpt lat="44.80284" lon="9.5569133"><ele>726.0</ele><time>2026-04-05T11:04:49.189Z</time></trkpt><trkpt lat="44.8028217" lon="9.5567817"><ele>726.0</ele><time>2026-04-05T11:04:50.189Z</time></trkpt><trkpt lat="44.8028017" lon="9.556645"><ele>726.0</ele><time>2026-04-05T11:04:51.189Z</time></trkpt><trkpt lat="44.8027767" lon="9.5565167"><ele>725.6666666666666</ele><time>2026-04-05T11:04:52.189Z</time></trkpt><trkpt lat="44.8027483" lon="9.5563983"><ele>725.3333333333334</ele><time>2026-04-05T11:04:53.189Z</time></trkpt><trkpt lat="44.802715" lon="9.5562883"><ele>725.0</ele><time>2026-04-05T11:04:54.188Z</time></trkpt><trkpt lat="44.8026683" lon="9.55619"><ele>724.6666666666667</ele><time>2026-04-05T11:04:55.188Z</time></trkpt><trkpt lat="44.8026067" lon="9.5561117"><ele>724.3333333333334</ele><time>2026-04-05T11:04:56.188Z</time></trkpt><trkpt lat="44.8025333" lon="9.556055"><ele>724.0</ele><time>2026-04-05T11:04:57.189Z</time></trkpt><trkpt lat="44.8024617" lon="9.5560133"><ele>728.0</ele><time>2026-04-05T11:04:58.188Z</time></trkpt><trkpt lat="44.8023833" lon="9.5559233"><ele>732.0</ele><time>2026-04-05T11:05:00.188Z</time></trkpt><trkpt lat="44.802355" lon="9.5558383"><ele>736.0</ele><time>2026-04-05T11:05:02.189Z</time></trkpt><trkpt lat="44.8023467" lon="9.5557467"><ele>740.0</ele><time>2026-04-05T11:06:21.188Z</time></trkpt><trkpt lat="44.8023333" lon="9.5555633"><ele>744.0</ele><time>2026-04-05T11:06:23.188Z</time></trkpt><trkpt lat="44.80232" lon="9.5554383"><ele>743.6</ele><time>2026-04-05T11:06:24.188Z</time></trkpt><trkpt lat="44.802305" lon="9.5553033"><ele>743.2</ele><time>2026-04-05T11:06:25.189Z</time></trkpt><trkpt lat="44.8022967" lon="9.5551733"><ele>742.8000000000001</ele><time>2026-04-05T11:06:26.189Z</time></trkpt><trkpt lat="44.802295" lon="9.55504"><ele>742.4000000000001</ele><time>2026-04-05T11:06:27.188Z</time></trkpt><trkpt lat="44.802305" lon="9.5548883"><ele>742.0</ele><time>2026-04-05T11:06:28.189Z</time></trkpt><trkpt lat="44.8023117" lon="9.5547433"><ele>742.0</ele><time>2026-04-05T11:06:29.189Z</time></trkpt><trkpt lat="44.8023183" lon="9.5546017"><ele>742.0</ele><time>2026-04-05T11:06:30.188Z</time></trkpt><trkpt lat="44.8023333" lon="9.5544633"><ele>742.0</ele><time>2026-04-05T11:06:31.187Z</time></trkpt><trkpt lat="44.80235" lon="9.55433"><ele>742.0</ele><time>2026-04-05T11:06:32.188Z</time></trkpt><trkpt lat="44.8023783" lon="9.554205"><ele>742.0</ele><time>2026-04-05T11:06:33.188Z</time></trkpt><trkpt lat="44.8024133" lon="9.5540783"><ele>742.3333333333334</ele><time>2026-04-05T11:06:34.19Z</time></trkpt><trkpt lat="44.8024483" lon="9.553955"><ele>742.6666666666667</ele><time>2026-04-05T11:06:35.188Z</time></trkpt><trkpt lat="44.80248" lon="9.5538367"><ele>743.0</ele><time>2026-04-05T11:06:36.189Z</time></trkpt><trkpt lat="44.8025133" lon="9.5537217"><ele>743.3333333333334</ele><time>2026-04-05T11:06:37.188Z</time></trkpt><trkpt lat="44.8025333" lon="9.5536183"><ele>743.6666666666666</ele><time>2026-04-05T11:06:38.189Z</time></trkpt><trkpt lat="44.8025517" lon="9.5535233"><ele>744.0</ele><time>2026-04-05T11:06:39.188Z</time></trkpt><trkpt lat="44.80253" lon="9.553365"><ele>743.8000000000001</ele><time>2026-04-05T11:06:41.189Z</time></trkpt><trkpt lat="44.802495" lon="9.5532783"><ele>743.6</ele><time>2026-04-05T11:06:42.188Z</time></trkpt><trkpt lat="44.8024383" lon="9.5531733"><ele>743.4</ele><time>2026-04-05T11:06:43.188Z</time></trkpt><trkpt lat="44.8023683" lon="9.553065"><ele>743.2</ele><time>2026-04-05T11:06:44.188Z</time></trkpt><trkpt lat="44.8023" lon="9.5529583"><ele>743.0</ele><time>2026-04-05T11:06:45.188Z</time></trkpt><trkpt lat="44.8022383" lon="9.5528683"><ele>743.0</ele><time>2026-04-05T11:06:46.187Z</time></trkpt><trkpt lat="44.802185" lon="9.5527967"><ele>743.0</ele><time>2026-04-05T11:06:47.19Z</time></trkpt><trkpt lat="44.8021117" lon="9.55272"><ele>743.0</ele><time>2026-04-05T11:06:49.188Z</time></trkpt><trkpt lat="44.8020083" lon="9.5526483"><ele>743.0</ele><time>2026-04-05T11:07:54.188Z</time></trkpt><trkpt lat="44.80206" lon="9.5525167"><ele>743.0</ele><time>2026-04-05T11:07:57.187Z</time></trkpt><trkpt lat="44.8021233" lon="9.5523783"><ele>743.0</ele><time>2026-04-05T11:07:59.188Z</time></trkpt><trkpt lat="44.8021583" lon="9.5523017"><ele>743.0</ele><time>2026-04-05T11:08:00.189Z</time></trkpt><trkpt lat="44.8021933" lon="9.552225"><ele>743.0</ele><time>2026-04-05T11:08:01.188Z</time></trkpt><trkpt lat="44.802255" lon="9.5520883"><ele>743.0</ele><time>2026-04-05T11:08:03.188Z</time></trkpt><trkpt lat="44.8023117" lon="9.5519633"><ele>743.0</ele><time>2026-04-05T11:08:05.188Z</time></trkpt><trkpt lat="44.8023617" lon="9.551855"><ele>743.0</ele><time>2026-04-05T11:08:07.189Z</time></trkpt><trkpt lat="44.802415" lon="9.551765"><ele>741.5</ele><time>2026-04-05T11:08:09.19Z</time></trkpt><trkpt lat="44.80247" lon="9.551685"><ele>740.0</ele><time>2026-04-05T11:08:11.188Z</time></trkpt><trkpt lat="44.802505" lon="9.5515883"><ele>738.5</ele><time>2026-04-05T11:08:13.189Z</time></trkpt><trkpt lat="44.8025267" lon="9.5514967"><ele>737.0</ele><time>2026-04-05T11:08:15.19Z</time></trkpt><trkpt lat="44.8025617" lon="9.5514"><ele>735.5</ele><time>2026-04-05T11:08:17.189Z</time></trkpt><trkpt lat="44.8025946" lon="9.551294"><ele>734.0</ele><time>2026-04-05T11:08:19.188Z</time></trkpt><trkpt lat="44.8025915" lon="9.5511972"><ele>732.0</ele><time>2026-04-05T11:08:21.188Z</time></trkpt><trkpt lat="44.8025579" lon="9.551115"><ele>730.0</ele><time>2026-04-05T11:08:23.19Z</time></trkpt><trkpt lat="44.8024982" lon="9.5510445"><ele>728.0</ele><time>2026-04-05T11:08:25.189Z</time></trkpt><trkpt lat="44.8024295" lon="9.5509855"><ele>726.0</ele><time>2026-04-05T11:08:27.189Z</time></trkpt><trkpt lat="44.802343" lon="9.5509582"><ele>724.0</ele><time>2026-04-05T11:08:29.188Z</time></trkpt><trkpt lat="44.8022492" lon="9.5509605"><ele>722.0</ele><time>2026-04-05T11:08:31.191Z</time></trkpt><trkpt lat="44.8021652" lon="9.5509501"><ele>722.0</ele><time>2026-04-05T11:08:33.19Z</time></trkpt><trkpt lat="44.8020698" lon="9.5509307"><ele>722.0</ele><time>2026-04-05T11:08:35.19Z</time></trkpt><trkpt lat="44.8020005" lon="9.5509177"><ele>722.0</ele><time>2026-04-05T11:08:37.189Z</time></trkpt><trkpt lat="44.8019853" lon="9.5508112"><ele>722.0</ele><time>2026-04-05T11:08:41.19Z</time></trkpt><trkpt lat="44.8020357" lon="9.5507244"><ele>722.0</ele><time>2026-04-05T11:08:44.191Z</time></trkpt><trkpt lat="44.8021092" lon="9.5506732"><ele>722.0</ele><time>2026-04-05T11:08:46.19Z</time></trkpt><trkpt lat="44.8021956" lon="9.5506156"><ele>722.0</ele><time>2026-04-05T11:08:48.188Z</time></trkpt><trkpt lat="44.8022688" lon="9.5505626"><ele>722.0</ele><time>2026-04-05T11:08:50.189Z</time></trkpt><trkpt lat="44.8023322" lon="9.5505223"><ele>722.0</ele><time>2026-04-05T11:08:52.189Z</time></trkpt><trkpt lat="44.8023965" lon="9.5504911"><ele>722.0</ele><time>2026-04-05T11:08:54.188Z</time></trkpt><trkpt lat="44.8024725" lon="9.550458"><ele>722.0</ele><time>2026-04-05T11:08:56.19Z</time></trkpt><trkpt lat="44.8025373" lon="9.5504307"><ele>722.0</ele><time>2026-04-05T11:08:58.189Z</time></trkpt><trkpt lat="44.80245" lon="9.5503467"><ele>719.8333333333333</ele><time>2026-04-05T11:09:55.19Z</time></trkpt><trkpt lat="44.8023817" lon="9.55033"><ele>717.6666666666666</ele><time>2026-04-05T11:09:56.189Z</time></trkpt><trkpt lat="44.80231" lon="9.55032"><ele>715.5</ele><time>2026-04-05T11:09:57.188Z</time></trkpt><trkpt lat="44.8022383" lon="9.5503167"><ele>713.3333333333334</ele><time>2026-04-05T11:09:58.188Z</time></trkpt><trkpt lat="44.802175" lon="9.55032"><ele>711.1666666666667</ele><time>2026-04-05T11:09:59.188Z</time></trkpt><trkpt lat="44.8020683" lon="9.5502983"><ele>709.0</ele><time>2026-04-05T11:10:01.188Z</time></trkpt><trkpt lat="44.8019733" lon="9.550225"><ele>709.0</ele><time>2026-04-05T11:10:03.19Z</time></trkpt><trkpt lat="44.80191" lon="9.5500883"><ele>709.0</ele><time>2026-04-05T11:10:05.188Z</time></trkpt><trkpt lat="44.80185" lon="9.549995"><ele>709.0</ele><time>2026-04-05T11:10:07.19Z</time></trkpt><trkpt lat="44.80174" lon="9.54993"><ele>709.0</ele><time>2026-04-05T11:10:09.188Z</time></trkpt><trkpt lat="44.8016717" lon="9.54989"><ele>709.0</ele><time>2026-04-05T11:10:10.188Z</time></trkpt><trkpt lat="44.8016167" lon="9.5498333"><ele>709.8333333333334</ele><time>2026-04-05T11:10:11.19Z</time></trkpt><trkpt lat="44.8015667" lon="9.54976"><ele>710.6666666666667</ele><time>2026-04-05T11:10:12.188Z</time></trkpt><trkpt lat="44.8015183" lon="9.5496783"><ele>711.5</ele><time>2026-04-05T11:10:13.189Z</time></trkpt><trkpt lat="44.8014767" lon="9.549595"><ele>712.3333333333334</ele><time>2026-04-05T11:10:14.189Z</time></trkpt><trkpt lat="44.80144" lon="9.549515"><ele>713.1666666666666</ele><time>2026-04-05T11:10:15.188Z</time></trkpt><trkpt lat="44.8013783" lon="9.5493583"><ele>714.0</ele><time>2026-04-05T11:10:17.188Z</time></trkpt><trkpt lat="44.801335" lon="9.5492533"><ele>712.0</ele><time>2026-04-05T11:10:18.188Z</time></trkpt><trkpt lat="44.80128" lon="9.5491467"><ele>710.0</ele><time>2026-04-05T11:10:19.189Z</time></trkpt><trkpt lat="44.801225" lon="9.5490467"><ele>708.0</ele><time>2026-04-05T11:10:20.19Z</time></trkpt><trkpt lat="44.801165" lon="9.548955"><ele>706.0</ele><time>2026-04-05T11:10:21.189Z</time></trkpt><trkpt lat="44.8011167" lon="9.5488517"><ele>704.0</ele><time>2026-04-05T11:10:22.188Z</time></trkpt><trkpt lat="44.8010717" lon="9.5487317"><ele>705.0</ele><time>2026-04-05T11:10:23.188Z</time></trkpt><trkpt lat="44.8010183" lon="9.5485933"><ele>706.0</ele><time>2026-04-05T11:10:24.189Z</time></trkpt><trkpt lat="44.800965" lon="9.5484483"><ele>707.0</ele><time>2026-04-05T11:10:25.189Z</time></trkpt><trkpt lat="44.80092" lon="9.548315"><ele>708.0</ele><time>2026-04-05T11:10:26.188Z</time></trkpt><trkpt lat="44.8008733" lon="9.5481933"><ele>709.0</ele><time>2026-04-05T11:10:27.188Z</time></trkpt><trkpt lat="44.8008267" lon="9.5480833"><ele>709.0</ele><time>2026-04-05T11:10:28.188Z</time></trkpt><trkpt lat="44.80079" lon="9.5479833"><ele>709.0</ele><time>2026-04-05T11:10:29.191Z</time></trkpt><trkpt lat="44.8007733" lon="9.5478133"><ele>709.0</ele><time>2026-04-05T11:10:31.189Z</time></trkpt><trkpt lat="44.80079" lon="9.5477233"><ele>709.0</ele><time>2026-04-05T11:10:32.192Z</time></trkpt><trkpt lat="44.8008317" lon="9.547635"><ele>709.0</ele><time>2026-04-05T11:10:33.188Z</time></trkpt><trkpt lat="44.8008817" lon="9.5475517"><ele>709.0</ele><time>2026-04-05T11:10:34.188Z</time></trkpt><trkpt lat="44.80093" lon="9.547465"><ele>707.6</ele><time>2026-04-05T11:10:35.19Z</time></trkpt><trkpt lat="44.8009617" lon="9.547375"><ele>706.2</ele><time>2026-04-05T11:10:36.189Z</time></trkpt><trkpt lat="44.8009817" lon="9.5472733"><ele>704.8000000000001</ele><time>2026-04-05T11:10:37.189Z</time></trkpt><trkpt lat="44.8009967" lon="9.5471367"><ele>703.4000000000001</ele><time>2026-04-05T11:10:38.19Z</time></trkpt><trkpt lat="44.8009917" lon="9.5469717"><ele>702.0</ele><time>2026-04-05T11:10:39.19Z</time></trkpt><trkpt lat="44.80099" lon="9.54682"><ele>702.0</ele><time>2026-04-05T11:10:40.19Z</time></trkpt><trkpt lat="44.8009817" lon="9.5466867"><ele>702.0</ele><time>2026-04-05T11:10:41.189Z</time></trkpt><trkpt lat="44.80096" lon="9.546565"><ele>702.0</ele><time>2026-04-05T11:10:42.188Z</time></trkpt><trkpt lat="44.8009333" lon="9.5464317"><ele>702.0</ele><time>2026-04-05T11:10:43.189Z</time></trkpt><trkpt lat="44.800885" lon="9.5462867"><ele>702.0</ele><time>2026-04-05T11:10:44.189Z</time></trkpt><trkpt lat="44.80084" lon="9.546145"><ele>701.25</ele><time>2026-04-05T11:10:45.189Z</time></trkpt><trkpt lat="44.8008033" lon="9.5460067"><ele>700.5</ele><time>2026-04-05T11:10:46.189Z</time></trkpt><trkpt lat="44.800775" lon="9.545855"><ele>699.75</ele><time>2026-04-05T11:10:47.19Z</time></trkpt><trkpt lat="44.8007512" lon="9.5456897"><ele>699.0</ele><time>2026-04-05T11:10:48.191Z</time></trkpt><trkpt lat="44.8007331" lon="9.5455242"><ele>699.2</ele><time>2026-04-05T11:10:49.191Z</time></trkpt><trkpt lat="44.8007269" lon="9.5453733"><ele>699.4000000000001</ele><time>2026-04-05T11:10:50.191Z</time></trkpt><trkpt lat="44.8007293" lon="9.5452386"><ele>699.6</ele><time>2026-04-05T11:10:51.19Z</time></trkpt><trkpt lat="44.8007383" lon="9.5451077"><ele>699.8</ele><time>2026-04-05T11:10:52.192Z</time></trkpt><trkpt lat="44.8007548" lon="9.5449722"><ele>700.0</ele><time>2026-04-05T11:10:53.19Z</time></trkpt><trkpt lat="44.8007741" lon="9.5448368"><ele>700.0</ele><time>2026-04-05T11:10:54.192Z</time></trkpt><trkpt lat="44.800795" lon="9.5447116"><ele>700.0</ele><time>2026-04-05T11:10:55.191Z</time></trkpt><trkpt lat="44.8008138" lon="9.5445998"><ele>700.0</ele><time>2026-04-05T11:10:56.19Z</time></trkpt><trkpt lat="44.8008235" lon="9.5445102"><ele>700.0</ele><time>2026-04-05T11:10:57.188Z</time></trkpt><trkpt lat="44.8008085" lon="9.5443642"><ele>700.0</ele><time>2026-04-05T11:10:59.189Z</time></trkpt><trkpt lat="44.8007845" lon="9.5442812"><ele>700.0</ele><time>2026-04-05T11:11:00.188Z</time></trkpt><trkpt lat="44.8007438" lon="9.5441722"><ele>699.6</ele><time>2026-04-05T11:11:01.188Z</time></trkpt><trkpt lat="44.8006848" lon="9.5440519"><ele>699.2</ele><time>2026-04-05T11:11:02.189Z</time></trkpt><trkpt lat="44.8006237" lon="9.5439356"><ele>698.8</ele><time>2026-04-05T11:11:03.188Z</time></trkpt><trkpt lat="44.8005606" lon="9.5438301"><ele>698.4</ele><time>2026-04-05T11:11:04.188Z</time></trkpt><trkpt lat="44.8004983" lon="9.5437306"><ele>698.0</ele><time>2026-04-05T11:11:05.189Z</time></trkpt><trkpt lat="44.8004414" lon="9.543629"><ele>696.0</ele><time>2026-04-05T11:11:06.188Z</time></trkpt><trkpt lat="44.8003926" lon="9.5435275"><ele>694.0</ele><time>2026-04-05T11:11:07.189Z</time></trkpt><trkpt lat="44.8003577" lon="9.543428"><ele>692.0</ele><time>2026-04-05T11:11:08.19Z</time></trkpt><trkpt lat="44.8003409" lon="9.543326"><ele>690.0</ele><time>2026-04-05T11:11:09.188Z</time></trkpt><trkpt lat="44.8003421" lon="9.543217"><ele>688.0</ele><time>2026-04-05T11:11:10.188Z</time></trkpt><trkpt lat="44.8003471" lon="9.543098"><ele>686.0</ele><time>2026-04-05T11:11:11.188Z</time></trkpt><trkpt lat="44.8003441" lon="9.5429696"><ele>685.1666666666666</ele><time>2026-04-05T11:11:12.188Z</time></trkpt><trkpt lat="44.8003345" lon="9.5428361"><ele>684.3333333333333</ele><time>2026-04-05T11:11:13.189Z</time></trkpt><trkpt lat="44.8003265" lon="9.5427123"><ele>683.5</ele><time>2026-04-05T11:11:14.189Z</time></trkpt><trkpt lat="44.8003177" lon="9.5426088"><ele>682.6666666666666</ele><time>2026-04-05T11:11:15.188Z</time></trkpt><trkpt lat="44.800309" lon="9.5424781"><ele>681.8333333333334</ele><time>2026-04-05T11:11:17.191Z</time></trkpt><trkpt lat="44.8003271" lon="9.5423556"><ele>681.0</ele><time>2026-04-05T11:11:19.191Z</time></trkpt><trkpt lat="44.8003539" lon="9.5422538"><ele>681.0</ele><time>2026-04-05T11:11:21.19Z</time></trkpt><trkpt lat="44.8003637" lon="9.5421459"><ele>681.0</ele><time>2026-04-05T11:11:23.191Z</time></trkpt><trkpt lat="44.800369" lon="9.5420113"><ele>681.0</ele><time>2026-04-05T11:11:25.191Z</time></trkpt><trkpt lat="44.800344" lon="9.541874"><ele>681.0</ele><time>2026-04-05T11:11:27.189Z</time></trkpt><trkpt lat="44.80026" lon="9.541795"><ele>681.0</ele><time>2026-04-05T11:11:29.192Z</time></trkpt><trkpt lat="44.8001983" lon="9.5417733"><ele>681.0</ele><time>2026-04-05T11:11:30.189Z</time></trkpt><trkpt lat="44.8001267" lon="9.5417317"><ele>682.6666666666666</ele><time>2026-04-05T11:11:31.189Z</time></trkpt><trkpt lat="44.8000517" lon="9.54167"><ele>684.3333333333334</ele><time>2026-04-05T11:11:32.189Z</time></trkpt><trkpt lat="44.799975" lon="9.541585"><ele>686.0</ele><time>2026-04-05T11:11:33.189Z</time></trkpt><trkpt lat="44.7999067" lon="9.541495"><ele>687.6666666666667</ele><time>2026-04-05T11:11:34.19Z</time></trkpt><trkpt lat="44.799855" lon="9.5414133"><ele>689.3333333333334</ele><time>2026-04-05T11:11:35.188Z</time></trkpt><trkpt lat="44.7998017" lon="9.54136"><ele>691.0</ele><time>2026-04-05T11:11:36.188Z</time></trkpt><trkpt lat="44.799735" lon="9.5413267"><ele>691.0</ele><time>2026-04-05T11:11:37.188Z</time></trkpt><trkpt lat="44.7996483" lon="9.5413067"><ele>691.0</ele><time>2026-04-05T11:11:38.189Z</time></trkpt><trkpt lat="44.799555" lon="9.5412933"><ele>691.0</ele><time>2026-04-05T11:11:39.188Z</time></trkpt><trkpt lat="44.7994667" lon="9.5412867"><ele>691.0</ele><time>2026-04-05T11:11:40.189Z</time></trkpt><trkpt lat="44.7993767" lon="9.5412767"><ele>691.0</ele><time>2026-04-05T11:11:41.189Z</time></trkpt><trkpt lat="44.7992883" lon="9.5412633"><ele>691.0</ele><time>2026-04-05T11:11:42.189Z</time></trkpt><trkpt lat="44.7992017" lon="9.54124"><ele>688.5714285714286</ele><time>2026-04-05T11:11:43.189Z</time></trkpt><trkpt lat="44.7991233" lon="9.541215"><ele>686.1428571428571</ele><time>2026-04-05T11:11:44.189Z</time></trkpt><trkpt lat="44.79906" lon="9.5411967"><ele>683.7142857142858</ele><time>2026-04-05T11:11:45.189Z</time></trkpt><trkpt lat="44.7989733" lon="9.54117"><ele>681.2857142857142</ele><time>2026-04-05T11:11:47.189Z</time></trkpt><trkpt lat="44.798955" lon="9.5410817"><ele>678.8571428571429</ele><time>2026-04-05T11:11:50.192Z</time></trkpt><trkpt lat="44.7990133" lon="9.5410333"><ele>676.4285714285714</ele><time>2026-04-05T11:11:52.19Z</time></trkpt><trkpt lat="44.7990867" lon="9.5409917"><ele>674.0</ele><time>2026-04-05T11:11:53.191Z</time></trkpt><trkpt lat="44.799175" lon="9.540935"><ele>674.0</ele><time>2026-04-05T11:11:54.19Z</time></trkpt><trkpt lat="44.7992717" lon="9.54084"><ele>674.0</ele><time>2026-04-05T11:11:55.188Z</time></trkpt><trkpt lat="44.7993733" lon="9.5407033"><ele>674.0</ele><time>2026-04-05T11:11:56.19Z</time></trkpt><trkpt lat="44.79946" lon="9.5405683"><ele>674.0</ele><time>2026-04-05T11:11:57.188Z</time></trkpt><trkpt lat="44.799545" lon="9.540445"><ele>674.6</ele><time>2026-04-05T11:11:58.189Z</time></trkpt><trkpt lat="44.79963" lon="9.5403483"><ele>675.2</ele><time>2026-04-05T11:11:59.188Z</time></trkpt><trkpt lat="44.7997233" lon="9.540285"><ele>675.8000000000001</ele><time>2026-04-05T11:12:00.189Z</time></trkpt><trkpt lat="44.799815" lon="9.5402683"><ele>676.4000000000001</ele><time>2026-04-05T11:12:01.189Z</time></trkpt><trkpt lat="44.79991" lon="9.54031"><ele>677.0</ele><time>2026-04-05T11:12:02.189Z</time></trkpt><trkpt lat="44.800005" lon="9.540395"><ele>677.0</ele><time>2026-04-05T11:12:03.188Z</time></trkpt><trkpt lat="44.80012" lon="9.5404733"><ele>677.0</ele><time>2026-04-05T11:12:04.188Z</time></trkpt><trkpt lat="44.8002417" lon="9.5405083"><ele>677.0</ele><time>2026-04-05T11:12:05.188Z</time></trkpt><trkpt lat="44.8003683" lon="9.5405067"><ele>677.0</ele><time>2026-04-05T11:12:06.189Z</time></trkpt><trkpt lat="44.8004833" lon="9.54049"><ele>675.25</ele><time>2026-04-05T11:12:07.189Z</time></trkpt><trkpt lat="44.800595" lon="9.54045"><ele>673.5</ele><time>2026-04-05T11:12:08.188Z</time></trkpt><trkpt lat="44.8007033" lon="9.5403783"><ele>671.75</ele><time>2026-04-05T11:12:09.189Z</time></trkpt><trkpt lat="44.8008033" lon="9.5402867"><ele>670.0</ele><time>2026-04-05T11:12:10.188Z</time></trkpt><trkpt lat="44.800895" lon="9.5401967"><ele>668.0</ele><time>2026-04-05T11:12:11.189Z</time></trkpt><trkpt lat="44.8009733" lon="9.5401"><ele>666.0</ele><time>2026-04-05T11:12:12.188Z</time></trkpt><trkpt lat="44.8010283" lon="9.5399817"><ele>664.0</ele><time>2026-04-05T11:12:13.188Z</time></trkpt><trkpt lat="44.80106" lon="9.539835"><ele>662.0</ele><time>2026-04-05T11:12:14.192Z</time></trkpt><trkpt lat="44.8010717" lon="9.5396633"><ele>660.0</ele><time>2026-04-05T11:12:15.188Z</time></trkpt><trkpt lat="44.801075" lon="9.53947"><ele>658.0</ele><time>2026-04-05T11:12:16.188Z</time></trkpt><trkpt lat="44.8010683" lon="9.5392783"><ele>656.0</ele><time>2026-04-05T11:12:17.188Z</time></trkpt><trkpt lat="44.8010483" lon="9.5390883"><ele>654.0</ele><time>2026-04-05T11:12:18.19Z</time></trkpt><trkpt lat="44.801015" lon="9.5389183"><ele>652.0</ele><time>2026-04-05T11:12:19.189Z</time></trkpt><trkpt lat="44.800985" lon="9.5387733"><ele>650.2</ele><time>2026-04-05T11:12:20.189Z</time></trkpt><trkpt lat="44.8009733" lon="9.5386367"><ele>648.4000000000001</ele><time>2026-04-05T11:12:21.189Z</time></trkpt><trkpt lat="44.800985" lon="9.5385117"><ele>646.5999999999999</ele><time>2026-04-05T11:12:22.188Z</time></trkpt><trkpt lat="44.801015" lon="9.5383817"><ele>644.8</ele><time>2026-04-05T11:12:23.19Z</time></trkpt><trkpt lat="44.8010683" lon="9.538245"><ele>643.0</ele><time>2026-04-05T11:12:24.19Z</time></trkpt><trkpt lat="44.801135" lon="9.5381067"><ele>643.0</ele><time>2026-04-05T11:12:25.188Z</time></trkpt><trkpt lat="44.8012117" lon="9.537985"><ele>643.0</ele><time>2026-04-05T11:12:26.19Z</time></trkpt><trkpt lat="44.8012983" lon="9.5378733"><ele>643.0</ele><time>2026-04-05T11:12:27.189Z</time></trkpt><trkpt lat="44.8013867" lon="9.537785"><ele>643.0</ele><time>2026-04-05T11:12:28.188Z</time></trkpt><trkpt lat="44.8014683" lon="9.537735"><ele>643.0</ele><time>2026-04-05T11:12:29.189Z</time></trkpt><trkpt lat="44.801535" lon="9.5377033"><ele>641.5</ele><time>2026-04-05T11:12:30.189Z</time></trkpt><trkpt lat="44.8015917" lon="9.53766"><ele>640.0</ele><time>2026-04-05T11:12:31.19Z</time></trkpt><trkpt lat="44.801585" lon="9.53754"><ele>638.5</ele><time>2026-04-05T11:12:33.189Z</time></trkpt><trkpt lat="44.801525" lon="9.5375017"><ele>637.0</ele><time>2026-04-05T11:12:34.189Z</time></trkpt><trkpt lat="44.8014433" lon="9.5374867"><ele>635.5</ele><time>2026-04-05T11:12:35.188Z</time></trkpt><trkpt lat="44.8013267" lon="9.5375383"><ele>634.0</ele><time>2026-04-05T11:12:36.19Z</time></trkpt><trkpt lat="44.8012017" lon="9.5376083"><ele>634.0</ele><time>2026-04-05T11:12:37.189Z</time></trkpt><trkpt lat="44.8010717" lon="9.53766"><ele>634.0</ele><time>2026-04-05T11:12:38.189Z</time></trkpt><trkpt lat="44.80094" lon="9.537685"><ele>634.0</ele><time>2026-04-05T11:12:39.189Z</time></trkpt><trkpt lat="44.800825" lon="9.5377083"><ele>634.0</ele><time>2026-04-05T11:12:40.189Z</time></trkpt><trkpt lat="44.800715" lon="9.5377767"><ele>632.4</ele><time>2026-04-05T11:12:41.189Z</time></trkpt><trkpt lat="44.8006117" lon="9.5378417"><ele>630.8</ele><time>2026-04-05T11:12:42.189Z</time></trkpt><trkpt lat="44.800515" lon="9.5378783"><ele>629.2</ele><time>2026-04-05T11:12:43.189Z</time></trkpt><trkpt lat="44.800425" lon="9.5378533"><ele>627.6</ele><time>2026-04-05T11:12:44.189Z</time></trkpt><trkpt lat="44.8003517" lon="9.5377817"><ele>626.0</ele><time>2026-04-05T11:12:45.189Z</time></trkpt><trkpt lat="44.800285" lon="9.5377183"><ele>626.0</ele><time>2026-04-05T11:12:46.188Z</time></trkpt><trkpt lat="44.8002133" lon="9.53771"><ele>626.0</ele><time>2026-04-05T11:12:47.189Z</time></trkpt><trkpt lat="44.80013" lon="9.5377567"><ele>626.0</ele><time>2026-04-05T11:12:48.19Z</time></trkpt><trkpt lat="44.80002" lon="9.5378417"><ele>626.0</ele><time>2026-04-05T11:12:49.188Z</time></trkpt><trkpt lat="44.79989" lon="9.5379317"><ele>626.0</ele><time>2026-04-05T11:12:50.192Z</time></trkpt><trkpt lat="44.799745" lon="9.5380017"><ele>626.8</ele><time>2026-04-05T11:12:51.19Z</time></trkpt><trkpt lat="44.7996133" lon="9.5380667"><ele>627.6</ele><time>2026-04-05T11:12:52.189Z</time></trkpt><trkpt lat="44.7995083" lon="9.5381567"><ele>628.4</ele><time>2026-04-05T11:12:53.189Z</time></trkpt><trkpt lat="44.7994233" lon="9.5382317"><ele>629.2</ele><time>2026-04-05T11:12:54.188Z</time></trkpt><trkpt lat="44.7993467" lon="9.538285"><ele>630.0</ele><time>2026-04-05T11:12:55.189Z</time></trkpt><trkpt lat="44.799275" lon="9.53826"><ele>630.0</ele><time>2026-04-05T11:12:56.19Z</time></trkpt><trkpt lat="44.79921" lon="9.5381833"><ele>630.0</ele><time>2026-04-05T11:12:57.188Z</time></trkpt><trkpt lat="44.7991383" lon="9.538045"><ele>630.0</ele><time>2026-04-05T11:12:58.189Z</time></trkpt><trkpt lat="44.79908" lon="9.5378617"><ele>630.0</ele><time>2026-04-05T11:12:59.188Z</time></trkpt><trkpt lat="44.7990233" lon="9.5376933"><ele>627.2</ele><time>2026-04-05T11:13:00.188Z</time></trkpt><trkpt lat="44.7989767" lon="9.5375567"><ele>624.4</ele><time>2026-04-05T11:13:01.188Z</time></trkpt><trkpt lat="44.7989183" lon="9.53747"><ele>621.6</ele><time>2026-04-05T11:13:02.19Z</time></trkpt><trkpt lat="44.7988433" lon="9.5374233"><ele>618.8</ele><time>2026-04-05T11:13:03.188Z</time></trkpt><trkpt lat="44.7987567" lon="9.5374"><ele>616.0</ele><time>2026-04-05T11:13:04.188Z</time></trkpt><trkpt lat="44.7986733" lon="9.5373617"><ele>616.0</ele><time>2026-04-05T11:13:05.189Z</time></trkpt><trkpt lat="44.798585" lon="9.5372767"><ele>616.0</ele><time>2026-04-05T11:13:06.189Z</time></trkpt><trkpt lat="44.7985083" lon="9.5371533"><ele>616.0</ele><time>2026-04-05T11:13:07.19Z</time></trkpt><trkpt lat="44.7984667" lon="9.537"><ele>616.0</ele><time>2026-04-05T11:13:08.189Z</time></trkpt><trkpt lat="44.7984583" lon="9.53683"><ele>613.0</ele><time>2026-04-05T11:13:09.189Z</time></trkpt><trkpt lat="44.79851" lon="9.5366417"><ele>610.0</ele><time>2026-04-05T11:13:10.189Z</time></trkpt><trkpt lat="44.798565" lon="9.5364767"><ele>607.0</ele><time>2026-04-05T11:13:11.189Z</time></trkpt><trkpt lat="44.798595" lon="9.536335"><ele>604.0</ele><time>2026-04-05T11:13:12.188Z</time></trkpt><trkpt lat="44.79859" lon="9.5362067"><ele>605.5</ele><time>2026-04-05T11:13:13.19Z</time></trkpt><trkpt lat="44.79854" lon="9.53606"><ele>607.0</ele><time>2026-04-05T11:13:14.19Z</time></trkpt><trkpt lat="44.7984567" lon="9.5358983"><ele>608.5</ele><time>2026-04-05T11:13:15.19Z</time></trkpt><trkpt lat="44.798395" lon="9.5357133"><ele>610.0</ele><time>2026-04-05T11:13:16.189Z</time></trkpt><trkpt lat="44.7983517" lon="9.5355267"><ele>607.8</ele><time>2026-04-05T11:13:17.189Z</time></trkpt><trkpt lat="44.7983133" lon="9.53537"><ele>605.6</ele><time>2026-04-05T11:13:18.19Z</time></trkpt><trkpt lat="44.7982683" lon="9.535255"><ele>603.4</ele><time>2026-04-05T11:13:19.191Z</time></trkpt><trkpt lat="44.7982183" lon="9.5351583"><ele>601.2</ele><time>2026-04-05T11:13:20.191Z</time></trkpt><trkpt lat="44.7981533" lon="9.5350983"><ele>599.0</ele><time>2026-04-05T11:13:21.192Z</time></trkpt><trkpt lat="44.7980667" lon="9.53509"><ele>599.0</ele><time>2026-04-05T11:13:22.19Z</time></trkpt><trkpt lat="44.7979617" lon="9.5351283"><ele>599.0</ele><time>2026-04-05T11:13:23.19Z</time></trkpt><trkpt lat="44.7978283" lon="9.535255"><ele>599.0</ele><time>2026-04-05T11:13:24.189Z</time></trkpt><trkpt lat="44.7977233" lon="9.5353767"><ele>599.0</ele><time>2026-04-05T11:13:25.189Z</time></trkpt><trkpt lat="44.7976383" lon="9.53551"><ele>599.3333333333333</ele><time>2026-04-05T11:13:26.19Z</time></trkpt><trkpt lat="44.7975767" lon="9.5356767"><ele>599.6666666666666</ele><time>2026-04-05T11:13:27.188Z</time></trkpt><trkpt lat="44.7975333" lon="9.535895"><ele>600.0</ele><time>2026-04-05T11:13:28.188Z</time></trkpt><trkpt lat="44.7974967" lon="9.5361167"><ele>601.75</ele><time>2026-04-05T11:13:29.188Z</time></trkpt><trkpt lat="44.7974517" lon="9.5363033"><ele>603.5</ele><time>2026-04-05T11:13:30.188Z</time></trkpt><trkpt lat="44.7973917" lon="9.5364683"><ele>605.25</ele><time>2026-04-05T11:13:31.189Z</time></trkpt><trkpt lat="44.7973083" lon="9.53662"><ele>607.0</ele><time>2026-04-05T11:13:32.19Z</time></trkpt><trkpt lat="44.7971917" lon="9.53675"><ele>607.0</ele><time>2026-04-05T11:13:33.189Z</time></trkpt><trkpt lat="44.797055" lon="9.536875"><ele>607.0</ele><time>2026-04-05T11:13:34.189Z</time></trkpt><trkpt lat="44.7969067" lon="9.5369667"><ele>607.0</ele><time>2026-04-05T11:13:35.192Z</time></trkpt><trkpt lat="44.7967533" lon="9.5370217"><ele>603.25</ele><time>2026-04-05T11:13:36.19Z</time></trkpt><trkpt lat="44.7966117" lon="9.5370483"><ele>599.5</ele><time>2026-04-05T11:13:37.189Z</time></trkpt><trkpt lat="44.7964767" lon="9.53704"><ele>595.75</ele><time>2026-04-05T11:13:38.19Z</time></trkpt><trkpt lat="44.796345" lon="9.5369933"><ele>592.0</ele><time>2026-04-05T11:13:39.189Z</time></trkpt><trkpt lat="44.7962233" lon="9.53696"><ele>592.0</ele><time>2026-04-05T11:13:40.189Z</time></trkpt><trkpt lat="44.79609" lon="9.5369683"><ele>592.0</ele><time>2026-04-05T11:13:41.188Z</time></trkpt><trkpt lat="44.79596" lon="9.5369967"><ele>592.0</ele><time>2026-04-05T11:13:42.189Z</time></trkpt><trkpt lat="44.79585" lon="9.537"><ele>592.0</ele><time>2026-04-05T11:13:43.188Z</time></trkpt><trkpt lat="44.79575" lon="9.5369633"><ele>591.6</ele><time>2026-04-05T11:13:44.19Z</time></trkpt><trkpt lat="44.7956583" lon="9.53688"><ele>591.2</ele><time>2026-04-05T11:13:45.191Z</time></trkpt><trkpt lat="44.7955833" lon="9.5367617"><ele>590.8</ele><time>2026-04-05T11:13:46.188Z</time></trkpt><trkpt lat="44.7955183" lon="9.5366333"><ele>590.4</ele><time>2026-04-05T11:13:47.189Z</time></trkpt><trkpt lat="44.795445" lon="9.5365167"><ele>590.0</ele><time>2026-04-05T11:13:48.19Z</time></trkpt><trkpt lat="44.7953717" lon="9.536425"><ele>590.0</ele><time>2026-04-05T11:13:49.191Z</time></trkpt><trkpt lat="44.7952983" lon="9.53637"><ele>590.0</ele><time>2026-04-05T11:13:50.191Z</time></trkpt><trkpt lat="44.79523" lon="9.5363417"><ele>590.0</ele><time>2026-04-05T11:13:51.189Z</time></trkpt><trkpt lat="44.7951633" lon="9.5364083"><ele>590.0</ele><time>2026-04-05T11:13:52.188Z</time></trkpt><trkpt lat="44.7950767" lon="9.5365183"><ele>590.0</ele><time>2026-04-05T11:13:53.188Z</time></trkpt><trkpt lat="44.79497" lon="9.53665"><ele>589.5</ele><time>2026-04-05T11:13:54.188Z</time></trkpt><trkpt lat="44.7948667" lon="9.53676"><ele>589.0</ele><time>2026-04-05T11:13:55.189Z</time></trkpt><trkpt lat="44.7947767" lon="9.5368767"><ele>588.5</ele><time>2026-04-05T11:13:56.19Z</time></trkpt><trkpt lat="44.7946983" lon="9.53702"><ele>588.0</ele><time>2026-04-05T11:13:57.188Z</time></trkpt><trkpt lat="44.79464" lon="9.5371617"><ele>588.0</ele><time>2026-04-05T11:13:58.188Z</time></trkpt><trkpt lat="44.7945733" lon="9.5372883"><ele>588.0</ele><time>2026-04-05T11:13:59.188Z</time></trkpt><trkpt lat="44.7944983" lon="9.5373983"><ele>588.0</ele><time>2026-04-05T11:14:00.19Z</time></trkpt><trkpt lat="44.7943883" lon="9.5374833"><ele>588.0</ele><time>2026-04-05T11:14:01.188Z</time></trkpt><trkpt lat="44.794255" lon="9.53754"><ele>588.0</ele><time>2026-04-05T11:14:02.191Z</time></trkpt><trkpt lat="44.7941117" lon="9.53758"><ele>588.0</ele><time>2026-04-05T11:14:03.189Z</time></trkpt><trkpt lat="44.7939633" lon="9.5375817"><ele>588.0</ele><time>2026-04-05T11:14:04.189Z</time></trkpt><trkpt lat="44.7938117" lon="9.5375383"><ele>588.0</ele><time>2026-04-05T11:14:05.188Z</time></trkpt><trkpt lat="44.7936567" lon="9.5374683"><ele>588.0</ele><time>2026-04-05T11:14:06.189Z</time></trkpt><trkpt lat="44.7935083" lon="9.5373667"><ele>588.0</ele><time>2026-04-05T11:14:07.189Z</time></trkpt><trkpt lat="44.793365" lon="9.5372467"><ele>588.0</ele><time>2026-04-05T11:14:08.189Z</time></trkpt><trkpt lat="44.79324" lon="9.5371317"><ele>587.75</ele><time>2026-04-05T11:14:09.191Z</time></trkpt><trkpt lat="44.7931267" lon="9.5370483"><ele>587.5</ele><time>2026-04-05T11:14:10.19Z</time></trkpt><trkpt lat="44.7930267" lon="9.5370017"><ele>587.25</ele><time>2026-04-05T11:14:11.189Z</time></trkpt><trkpt lat="44.792915" lon="9.5370217"><ele>587.0</ele><time>2026-04-05T11:14:12.189Z</time></trkpt><trkpt lat="44.7928033" lon="9.5370667"><ele>587.0</ele><time>2026-04-05T11:14:13.188Z</time></trkpt><trkpt lat="44.79269" lon="9.5370767"><ele>587.0</ele><time>2026-04-05T11:14:14.189Z</time></trkpt><trkpt lat="44.792575" lon="9.5370417"><ele>587.0</ele><time>2026-04-05T11:14:15.19Z</time></trkpt><trkpt lat="44.7924683" lon="9.537"><ele>587.0</ele><time>2026-04-05T11:14:16.189Z</time></trkpt><trkpt lat="44.7923433" lon="9.5370067"><ele>582.0</ele><time>2026-04-05T11:14:17.189Z</time></trkpt><trkpt lat="44.7922167" lon="9.5370233"><ele>577.0</ele><time>2026-04-05T11:14:18.189Z</time></trkpt><trkpt lat="44.7920867" lon="9.5370067"><ele>572.0</ele><time>2026-04-05T11:14:19.189Z</time></trkpt><trkpt lat="44.791955" lon="9.5369367"><ele>567.0</ele><time>2026-04-05T11:14:20.19Z</time></trkpt><trkpt lat="44.7918367" lon="9.5368483"><ele>565.75</ele><time>2026-04-05T11:14:21.188Z</time></trkpt><trkpt lat="44.791735" lon="9.5367667"><ele>564.5</ele><time>2026-04-05T11:14:22.19Z</time></trkpt><trkpt lat="44.7916383" lon="9.5367167"><ele>563.25</ele><time>2026-04-05T11:14:23.189Z</time></trkpt><trkpt lat="44.7915283" lon="9.5367067"><ele>562.0</ele><time>2026-04-05T11:14:24.19Z</time></trkpt><trkpt lat="44.7914083" lon="9.536735"><ele>562.0</ele><time>2026-04-05T11:14:25.189Z</time></trkpt><trkpt lat="44.7912817" lon="9.536785"><ele>562.0</ele><time>2026-04-05T11:14:26.189Z</time></trkpt><trkpt lat="44.7911583" lon="9.53683"><ele>562.0</ele><time>2026-04-05T11:14:27.19Z</time></trkpt><trkpt lat="44.7910383" lon="9.5368517"><ele>562.0</ele><time>2026-04-05T11:14:28.19Z</time></trkpt><trkpt lat="44.7909267" lon="9.5368317"><ele>561.0</ele><time>2026-04-05T11:14:29.19Z</time></trkpt><trkpt lat="44.79082" lon="9.5367433"><ele>560.0</ele><time>2026-04-05T11:14:30.19Z</time></trkpt><trkpt lat="44.790715" lon="9.5366167"><ele>559.0</ele><time>2026-04-05T11:14:31.191Z</time></trkpt><trkpt lat="44.79062" lon="9.5364917"><ele>558.0</ele><time>2026-04-05T11:14:32.19Z</time></trkpt><trkpt lat="44.7905317" lon="9.53639"><ele>558.0</ele><time>2026-04-05T11:14:33.19Z</time></trkpt><trkpt lat="44.7904517" lon="9.5363083"><ele>558.0</ele><time>2026-04-05T11:14:34.19Z</time></trkpt><trkpt lat="44.7903767" lon="9.536265"><ele>558.0</ele><time>2026-04-05T11:14:35.19Z</time></trkpt><trkpt lat="44.7902983" lon="9.5362583"><ele>558.0</ele><time>2026-04-05T11:14:36.192Z</time></trkpt><trkpt lat="44.7902267" lon="9.5363"><ele>558.0</ele><time>2026-04-05T11:14:37.19Z</time></trkpt><trkpt lat="44.7901933" lon="9.5364583"><ele>558.1999999999999</ele><time>2026-04-05T11:14:38.192Z</time></trkpt><trkpt lat="44.7901633" lon="9.5366233"><ele>558.4</ele><time>2026-04-05T11:14:39.19Z</time></trkpt><trkpt lat="44.7901283" lon="9.536785"><ele>558.5999999999999</ele><time>2026-04-05T11:14:40.189Z</time></trkpt><trkpt lat="44.7900917" lon="9.5369217"><ele>558.8</ele><time>2026-04-05T11:14:41.19Z</time></trkpt><trkpt lat="44.7900433" lon="9.5370317"><ele>559.0</ele><time>2026-04-05T11:14:42.191Z</time></trkpt><trkpt lat="44.7899733" lon="9.5371033"><ele>559.0</ele><time>2026-04-05T11:14:43.192Z</time></trkpt><trkpt lat="44.789895" lon="9.5371417"><ele>559.0</ele><time>2026-04-05T11:14:44.191Z</time></trkpt><trkpt lat="44.78979" lon="9.53716"><ele>559.0</ele><time>2026-04-05T11:14:45.19Z</time></trkpt><trkpt lat="44.7896417" lon="9.5371317"><ele>559.0</ele><time>2026-04-05T11:14:46.189Z</time></trkpt><trkpt lat="44.7894833" lon="9.5371033"><ele>560.0</ele><time>2026-04-05T11:14:47.189Z</time></trkpt><trkpt lat="44.78934" lon="9.53707"><ele>561.0</ele><time>2026-04-05T11:14:48.19Z</time></trkpt><trkpt lat="44.7892033" lon="9.5370217"><ele>562.0</ele><time>2026-04-05T11:14:49.191Z</time></trkpt><trkpt lat="44.7890833" lon="9.5369533"><ele>563.0</ele><time>2026-04-05T11:14:50.189Z</time></trkpt><trkpt lat="44.7889783" lon="9.536865"><ele>558.8</ele><time>2026-04-05T11:14:51.196Z</time></trkpt><trkpt lat="44.788885" lon="9.5367783"><ele>554.5999999999999</ele><time>2026-04-05T11:14:52.191Z</time></trkpt><trkpt lat="44.7888" lon="9.5367217"><ele>550.4000000000001</ele><time>2026-04-05T11:14:53.19Z</time></trkpt><trkpt lat="44.7887033" lon="9.536715"><ele>546.2</ele><time>2026-04-05T11:14:54.189Z</time></trkpt><trkpt lat="44.7886067" lon="9.5367567"><ele>542.0</ele><time>2026-04-05T11:14:55.189Z</time></trkpt><trkpt lat="44.78851" lon="9.53678"><ele>542.8000000000001</ele><time>2026-04-05T11:14:56.189Z</time></trkpt><trkpt lat="44.7884133" lon="9.5367583"><ele>543.6</ele><time>2026-04-05T11:14:57.188Z</time></trkpt><trkpt lat="44.788335" lon="9.5366817"><ele>544.4000000000001</ele><time>2026-04-05T11:14:58.188Z</time></trkpt><trkpt lat="44.788255" lon="9.53656"><ele>545.2</ele><time>2026-04-05T11:14:59.189Z</time></trkpt><trkpt lat="44.7881783" lon="9.5364133"><ele>546.0</ele><time>2026-04-05T11:15:00.188Z</time></trkpt><trkpt lat="44.7881117" lon="9.5362683"><ele>543.0</ele><time>2026-04-05T11:15:01.189Z</time></trkpt><trkpt lat="44.788045" lon="9.5361533"><ele>540.0</ele><time>2026-04-05T11:15:02.189Z</time></trkpt><trkpt lat="44.7879733" lon="9.5360917"><ele>537.0</ele><time>2026-04-05T11:15:03.188Z</time></trkpt><trkpt lat="44.7878917" lon="9.536065"><ele>534.0</ele><time>2026-04-05T11:15:04.187Z</time></trkpt><trkpt lat="44.7878" lon="9.53607"><ele>531.0</ele><time>2026-04-05T11:15:05.189Z</time></trkpt><trkpt lat="44.7877083" lon="9.5361033"><ele>531.5</ele><time>2026-04-05T11:15:06.188Z</time></trkpt><trkpt lat="44.7876133" lon="9.5361667"><ele>532.0</ele><time>2026-04-05T11:15:07.188Z</time></trkpt><trkpt lat="44.7874933" lon="9.5362783"><ele>532.5</ele><time>2026-04-05T11:15:08.188Z</time></trkpt><trkpt lat="44.7873817" lon="9.536385"><ele>533.0</ele><time>2026-04-05T11:15:09.188Z</time></trkpt><trkpt lat="44.787275" lon="9.5364867"><ele>535.0</ele><time>2026-04-05T11:15:10.188Z</time></trkpt><trkpt lat="44.787175" lon="9.5365767"><ele>537.0</ele><time>2026-04-05T11:15:11.191Z</time></trkpt><trkpt lat="44.7870683" lon="9.536635"><ele>539.0</ele><time>2026-04-05T11:15:12.187Z</time></trkpt><trkpt lat="44.78694" lon="9.5366483"><ele>541.0</ele><time>2026-04-05T11:15:13.189Z</time></trkpt><trkpt lat="44.7868033" lon="9.536615"><ele>541.0</ele><time>2026-04-05T11:15:14.189Z</time></trkpt><trkpt lat="44.7866867" lon="9.5365667"><ele>541.0</ele><time>2026-04-05T11:15:15.19Z</time></trkpt><trkpt lat="44.7866" lon="9.5364833"><ele>541.0</ele><time>2026-04-05T11:15:16.188Z</time></trkpt><trkpt lat="44.786525" lon="9.5363533"><ele>541.0</ele><time>2026-04-05T11:15:17.187Z</time></trkpt><trkpt lat="44.7864783" lon="9.536195"><ele>538.0</ele><time>2026-04-05T11:15:18.189Z</time></trkpt><trkpt lat="44.7864267" lon="9.5360517"><ele>535.0</ele><time>2026-04-05T11:15:19.188Z</time></trkpt><trkpt lat="44.7863517" lon="9.53593"><ele>532.0</ele><time>2026-04-05T11:15:20.19Z</time></trkpt><trkpt lat="44.7862417" lon="9.535845"><ele>529.0</ele><time>2026-04-05T11:15:21.188Z</time></trkpt><trkpt lat="44.7861083" lon="9.5358033"><ele>529.8</ele><time>2026-04-05T11:15:22.189Z</time></trkpt><trkpt lat="44.7859717" lon="9.5358"><ele>530.5999999999999</ele><time>2026-04-05T11:15:23.189Z</time></trkpt><trkpt lat="44.7858567" lon="9.5357917"><ele>531.4</ele><time>2026-04-05T11:15:24.189Z</time></trkpt><trkpt lat="44.785765" lon="9.535755"><ele>532.1999999999999</ele><time>2026-04-05T11:15:25.189Z</time></trkpt><trkpt lat="44.785695" lon="9.5356833"><ele>533.0</ele><time>2026-04-05T11:15:26.189Z</time></trkpt><trkpt lat="44.78564" lon="9.535575"><ele>533.0</ele><time>2026-04-05T11:15:27.189Z</time></trkpt><trkpt lat="44.785595" lon="9.5354167"><ele>533.0</ele><time>2026-04-05T11:15:28.188Z</time></trkpt><trkpt lat="44.7855467" lon="9.5352017"><ele>533.0</ele><time>2026-04-05T11:15:29.188Z</time></trkpt><trkpt lat="44.7855017" lon="9.534935"><ele>529.6666666666666</ele><time>2026-04-05T11:15:30.188Z</time></trkpt><trkpt lat="44.7854567" lon="9.5346783"><ele>526.3333333333334</ele><time>2026-04-05T11:15:31.187Z</time></trkpt><trkpt lat="44.7854183" lon="9.5344467"><ele>523.0</ele><time>2026-04-05T11:15:32.188Z</time></trkpt><trkpt lat="44.7853783" lon="9.53426"><ele>523.4</ele><time>2026-04-05T11:15:33.189Z</time></trkpt><trkpt lat="44.7853317" lon="9.53411"><ele>523.8</ele><time>2026-04-05T11:15:34.189Z</time></trkpt><trkpt lat="44.78528" lon="9.5339933"><ele>524.2</ele><time>2026-04-05T11:15:35.188Z</time></trkpt><trkpt lat="44.78521" lon="9.5339117"><ele>524.6</ele><time>2026-04-05T11:15:36.189Z</time></trkpt><trkpt lat="44.7851333" lon="9.533855"><ele>525.0</ele><time>2026-04-05T11:15:37.187Z</time></trkpt><trkpt lat="44.7850183" lon="9.53386"><ele>525.0</ele><time>2026-04-05T11:15:38.188Z</time></trkpt><trkpt lat="44.78488" lon="9.53388"><ele>525.0</ele><time>2026-04-05T11:15:39.188Z</time></trkpt><trkpt lat="44.7847117" lon="9.533915"><ele>525.0</ele><time>2026-04-05T11:15:40.188Z</time></trkpt><trkpt lat="44.7845433" lon="9.5339283"><ele>525.0</ele><time>2026-04-05T11:15:41.187Z</time></trkpt><trkpt lat="44.7843783" lon="9.53391"><ele>525.0</ele><time>2026-04-05T11:15:42.187Z</time></trkpt><trkpt lat="44.78422" lon="9.5338517"><ele>525.0</ele><time>2026-04-05T11:15:43.187Z</time></trkpt><trkpt lat="44.784045" lon="9.5337417"><ele>522.3333333333334</ele><time>2026-04-05T11:15:44.189Z</time></trkpt><trkpt lat="44.7838567" lon="9.5335983"><ele>519.6666666666667</ele><time>2026-04-05T11:15:45.187Z</time></trkpt><trkpt lat="44.7836583" lon="9.5334617"><ele>517.0</ele><time>2026-04-05T11:15:46.192Z</time></trkpt><trkpt lat="44.783475" lon="9.5333483"><ele>517.0</ele><time>2026-04-05T11:15:47.187Z</time></trkpt><trkpt lat="44.7833167" lon="9.533255"><ele>517.0</ele><time>2026-04-05T11:15:48.188Z</time></trkpt><trkpt lat="44.7831917" lon="9.5331783"><ele>517.0</ele><time>2026-04-05T11:15:49.188Z</time></trkpt><trkpt lat="44.783105" lon="9.5331167"><ele>517.0</ele><time>2026-04-05T11:15:50.188Z</time></trkpt><trkpt lat="44.7830517" lon="9.533045"><ele>516.3333333333334</ele><time>2026-04-05T11:15:51.188Z</time></trkpt><trkpt lat="44.783055" lon="9.5328717"><ele>515.6666666666667</ele><time>2026-04-05T11:15:53.19Z</time></trkpt><trkpt lat="44.7830883" lon="9.5327933"><ele>515.0</ele><time>2026-04-05T11:15:54.189Z</time></trkpt><trkpt lat="44.7831533" lon="9.5327267"><ele>514.3333333333334</ele><time>2026-04-05T11:15:55.189Z</time></trkpt><trkpt lat="44.7832217" lon="9.5326517"><ele>513.6666666666666</ele><time>2026-04-05T11:15:56.188Z</time></trkpt><trkpt lat="44.7832717" lon="9.5325583"><ele>513.0</ele><time>2026-04-05T11:15:57.188Z</time></trkpt><trkpt lat="44.78331" lon="9.5324483"><ele>513.0</ele><time>2026-04-05T11:15:58.188Z</time></trkpt><trkpt lat="44.7833267" lon="9.5323317"><ele>513.0</ele><time>2026-04-05T11:15:59.188Z</time></trkpt><trkpt lat="44.7833233" lon="9.5322133"><ele>513.0</ele><time>2026-04-05T11:16:00.188Z</time></trkpt><trkpt lat="44.7833" lon="9.5321033"><ele>513.0</ele><time>2026-04-05T11:16:01.188Z</time></trkpt><trkpt lat="44.7832617" lon="9.5319983"><ele>513.0</ele><time>2026-04-05T11:16:02.188Z</time></trkpt><trkpt lat="44.7831983" lon="9.5319"><ele>513.0</ele><time>2026-04-05T11:16:03.188Z</time></trkpt><trkpt lat="44.7831133" lon="9.5318"><ele>511.25</ele><time>2026-04-05T11:16:04.188Z</time></trkpt><trkpt lat="44.78302" lon="9.53169"><ele>509.5</ele><time>2026-04-05T11:16:05.188Z</time></trkpt><trkpt lat="44.7829267" lon="9.531575"><ele>507.75</ele><time>2026-04-05T11:16:06.19Z</time></trkpt><trkpt lat="44.7828433" lon="9.531465"><ele>506.0</ele><time>2026-04-05T11:16:07.188Z</time></trkpt><trkpt lat="44.7827633" lon="9.5313733"><ele>506.0</ele><time>2026-04-05T11:16:08.188Z</time></trkpt><trkpt lat="44.7826783" lon="9.5313133"><ele>506.0</ele><time>2026-04-05T11:16:09.189Z</time></trkpt><trkpt lat="44.7825883" lon="9.53128"><ele>506.0</ele><time>2026-04-05T11:16:10.189Z</time></trkpt><trkpt lat="44.7824733" lon="9.531295"><ele>506.0</ele><time>2026-04-05T11:16:11.188Z</time></trkpt><trkpt lat="44.7823367" lon="9.5313367"><ele>506.0</ele><time>2026-04-05T11:16:12.188Z</time></trkpt><trkpt lat="44.7821933" lon="9.5313867"><ele>506.0</ele><time>2026-04-05T11:16:13.187Z</time></trkpt><trkpt lat="44.7820667" lon="9.5314283"><ele>506.0</ele><time>2026-04-05T11:16:14.188Z</time></trkpt><trkpt lat="44.78196" lon="9.5314433"><ele>506.0</ele><time>2026-04-05T11:16:15.187Z</time></trkpt><trkpt lat="44.78187" lon="9.53142"><ele>506.0</ele><time>2026-04-05T11:16:16.189Z</time></trkpt><trkpt lat="44.7817867" lon="9.5313467"><ele>506.0</ele><time>2026-04-05T11:16:17.188Z</time></trkpt><trkpt lat="44.7817033" lon="9.53124"><ele>504.20000000000005</ele><time>2026-04-05T11:16:18.188Z</time></trkpt><trkpt lat="44.7816333" lon="9.5311233"><ele>502.40000000000003</ele><time>2026-04-05T11:16:19.191Z</time></trkpt><trkpt lat="44.7815817" lon="9.53101"><ele>500.6</ele><time>2026-04-05T11:16:20.19Z</time></trkpt><trkpt lat="44.78155" lon="9.5308933"><ele>498.8</ele><time>2026-04-05T11:16:21.19Z</time></trkpt><trkpt lat="44.78153" lon="9.5307583"><ele>497.0</ele><time>2026-04-05T11:16:22.191Z</time></trkpt><trkpt lat="44.7815367" lon="9.5305917"><ele>497.0</ele><time>2026-04-05T11:16:23.191Z</time></trkpt><trkpt lat="44.7815467" lon="9.5304133"><ele>497.0</ele><time>2026-04-05T11:16:24.19Z</time></trkpt><trkpt lat="44.7815717" lon="9.5302233"><ele>497.0</ele><time>2026-04-05T11:16:25.19Z</time></trkpt><trkpt lat="44.78162" lon="9.5300417"><ele>497.0</ele><time>2026-04-05T11:16:26.19Z</time></trkpt><trkpt lat="44.7816917" lon="9.529855"><ele>497.0</ele><time>2026-04-05T11:16:27.19Z</time></trkpt><trkpt lat="44.7817767" lon="9.5296567"><ele>497.0</ele><time>2026-04-05T11:16:28.19Z</time></trkpt><trkpt lat="44.7818633" lon="9.529465"><ele>497.0</ele><time>2026-04-05T11:16:29.19Z</time></trkpt><trkpt lat="44.7819517" lon="9.529295"><ele>493.75</ele><time>2026-04-05T11:16:30.19Z</time></trkpt><trkpt lat="44.7820333" lon="9.5291567"><ele>490.5</ele><time>2026-04-05T11:16:31.19Z</time></trkpt><trkpt lat="44.7820933" lon="9.529025"><ele>487.25</ele><time>2026-04-05T11:16:32.189Z</time></trkpt><trkpt lat="44.7821183" lon="9.52887"><ele>484.0</ele><time>2026-04-05T11:16:33.188Z</time></trkpt><trkpt lat="44.7821183" lon="9.5286733"><ele>484.0</ele><time>2026-04-05T11:16:34.19Z</time></trkpt><trkpt lat="44.78212" lon="9.5284567"><ele>484.0</ele><time>2026-04-05T11:16:35.188Z</time></trkpt><trkpt lat="44.782135" lon="9.52825"><ele>484.0</ele><time>2026-04-05T11:16:36.188Z</time></trkpt><trkpt lat="44.782165" lon="9.5280717"><ele>484.0</ele><time>2026-04-05T11:16:37.188Z</time></trkpt><trkpt lat="44.7822167" lon="9.5279233"><ele>485.2</ele><time>2026-04-05T11:16:38.189Z</time></trkpt><trkpt lat="44.7822917" lon="9.5278117"><ele>486.4</ele><time>2026-04-05T11:16:39.188Z</time></trkpt><trkpt lat="44.7823833" lon="9.527745"><ele>487.6</ele><time>2026-04-05T11:16:40.188Z</time></trkpt><trkpt lat="44.7824667" lon="9.5276917"><ele>488.8</ele><time>2026-04-05T11:16:41.189Z</time></trkpt><trkpt lat="44.7825467" lon="9.5276317"><ele>490.0</ele><time>2026-04-05T11:16:42.19Z</time></trkpt><trkpt lat="44.7825933" lon="9.5274983"><ele>490.0</ele><time>2026-04-05T11:16:43.191Z</time></trkpt><trkpt lat="44.782635" lon="9.5273467"><ele>490.0</ele><time>2026-04-05T11:16:44.191Z</time></trkpt><trkpt lat="44.7826917" lon="9.5272117"><ele>490.0</ele><time>2026-04-05T11:16:45.19Z</time></trkpt><trkpt lat="44.7827683" lon="9.5271017"><ele>490.0</ele><time>2026-04-05T11:16:46.19Z</time></trkpt><trkpt lat="44.7828633" lon="9.527025"><ele>490.0</ele><time>2026-04-05T11:16:47.19Z</time></trkpt><trkpt lat="44.7829517" lon="9.526965"><ele>486.6</ele><time>2026-04-05T11:16:48.19Z</time></trkpt><trkpt lat="44.7830183" lon="9.5268983"><ele>483.2</ele><time>2026-04-05T11:16:49.191Z</time></trkpt><trkpt lat="44.7830517" lon="9.5267917"><ele>479.79999999999995</ele><time>2026-04-05T11:16:50.19Z</time></trkpt><trkpt lat="44.7830517" lon="9.5266467"><ele>476.4</ele><time>2026-04-05T11:16:51.191Z</time></trkpt><trkpt lat="44.783045" lon="9.52647"><ele>473.0</ele><time>2026-04-05T11:16:52.19Z</time></trkpt><trkpt lat="44.7830517" lon="9.5262883"><ele>473.0</ele><time>2026-04-05T11:16:53.19Z</time></trkpt><trkpt lat="44.7830883" lon="9.5261383"><ele>472.99999999999994</ele><time>2026-04-05T11:16:54.19Z</time></trkpt><trkpt lat="44.7831333" lon="9.5260017"><ele>472.99999999999994</ele><time>2026-04-05T11:16:55.191Z</time></trkpt><trkpt lat="44.783165" lon="9.525875"><ele>473.0</ele><time>2026-04-05T11:16:56.19Z</time></trkpt><trkpt lat="44.783165" lon="9.5257517"><ele>473.0</ele><time>2026-04-05T11:16:57.19Z</time></trkpt><trkpt lat="44.7831367" lon="9.525615"><ele>473.0</ele><time>2026-04-05T11:16:58.19Z</time></trkpt><trkpt lat="44.78307" lon="9.5254583"><ele>473.0</ele><time>2026-04-05T11:16:59.188Z</time></trkpt><trkpt lat="44.783015" lon="9.5253"><ele>473.0</ele><time>2026-04-05T11:17:00.188Z</time></trkpt><trkpt lat="44.782975" lon="9.5251267"><ele>473.0</ele><time>2026-04-05T11:17:01.189Z</time></trkpt><trkpt lat="44.7829517" lon="9.5249517"><ele>471.75</ele><time>2026-04-05T11:17:02.188Z</time></trkpt><trkpt lat="44.7829433" lon="9.5247783"><ele>470.5</ele><time>2026-04-05T11:17:03.19Z</time></trkpt><trkpt lat="44.782945" lon="9.5246117"><ele>469.25</ele><time>2026-04-05T11:17:04.189Z</time></trkpt><trkpt lat="44.7829633" lon="9.5244483"><ele>468.0</ele><time>2026-04-05T11:17:05.189Z</time></trkpt><trkpt lat="44.78299" lon="9.5242983"><ele>467.2</ele><time>2026-04-05T11:17:06.188Z</time></trkpt><trkpt lat="44.7830017" lon="9.5241567"><ele>466.4</ele><time>2026-04-05T11:17:07.188Z</time></trkpt><trkpt lat="44.7829883" lon="9.5240117"><ele>465.59999999999997</ele><time>2026-04-05T11:17:08.188Z</time></trkpt><trkpt lat="44.7829583" lon="9.5238683"><ele>464.79999999999995</ele><time>2026-04-05T11:17:09.19Z</time></trkpt><trkpt lat="44.782935" lon="9.5237333"><ele>464.0</ele><time>2026-04-05T11:17:10.188Z</time></trkpt><trkpt lat="44.7829333" lon="9.52361"><ele>463.7142857142858</ele><time>2026-04-05T11:17:11.188Z</time></trkpt><trkpt lat="44.7829533" lon="9.5235033"><ele>463.42857142857144</ele><time>2026-04-05T11:17:12.188Z</time></trkpt><trkpt lat="44.782995" lon="9.5234133"><ele>463.14285714285717</ele><time>2026-04-05T11:17:13.188Z</time></trkpt><trkpt lat="44.7830467" lon="9.52333"><ele>462.8571428571429</ele><time>2026-04-05T11:17:14.189Z</time></trkpt><trkpt lat="44.7830783" lon="9.5232433"><ele>462.57142857142856</ele><time>2026-04-05T11:17:15.188Z</time></trkpt><trkpt lat="44.7830983" lon="9.52315"><ele>462.2857142857143</ele><time>2026-04-05T11:17:16.187Z</time></trkpt><trkpt lat="44.7830683" lon="9.5230617"><ele>462.0</ele><time>2026-04-05T11:17:17.189Z</time></trkpt><trkpt lat="44.7830283" lon="9.5229683"><ele>461.0</ele><time>2026-04-05T11:17:18.189Z</time></trkpt><trkpt lat="44.7829533" lon="9.5228817"><ele>460.00000000000006</ele><time>2026-04-05T11:17:19.188Z</time></trkpt><trkpt lat="44.7828917" lon="9.52278"><ele>459.00000000000006</ele><time>2026-04-05T11:17:20.188Z</time></trkpt><trkpt lat="44.78286" lon="9.5226633"><ele>458.0</ele><time>2026-04-05T11:17:21.188Z</time></trkpt><trkpt lat="44.7828633" lon="9.5225217"><ele>457.0</ele><time>2026-04-05T11:17:22.189Z</time></trkpt><trkpt lat="44.78289" lon="9.52236"><ele>457.0</ele><time>2026-04-05T11:17:23.188Z</time></trkpt><trkpt lat="44.7829367" lon="9.5222067"><ele>457.00000000000006</ele><time>2026-04-05T11:17:24.188Z</time></trkpt><trkpt lat="44.7829967" lon="9.5220633"><ele>457.00000000000006</ele><time>2026-04-05T11:17:25.188Z</time></trkpt><trkpt lat="44.7830583" lon="9.5219333"><ele>457.0</ele><time>2026-04-05T11:17:26.189Z</time></trkpt><trkpt lat="44.7831383" lon="9.521845"><ele>457.0</ele><time>2026-04-05T11:17:27.188Z</time></trkpt><trkpt lat="44.78324" lon="9.5217817"><ele>458.5</ele><time>2026-04-05T11:17:28.188Z</time></trkpt><trkpt lat="44.7833617" lon="9.5217233"><ele>460.0</ele><time>2026-04-05T11:17:29.189Z</time></trkpt><trkpt lat="44.7834883" lon="9.52166"><ele>461.5</ele><time>2026-04-05T11:17:30.188Z</time></trkpt><trkpt lat="44.7836133" lon="9.5215883"><ele>463.0</ele><time>2026-04-05T11:17:31.188Z</time></trkpt><trkpt lat="44.7837333" lon="9.521505"><ele>461.0</ele><time>2026-04-05T11:17:32.188Z</time></trkpt><trkpt lat="44.7838483" lon="9.5214383"><ele>458.99999999999994</ele><time>2026-04-05T11:17:33.189Z</time></trkpt><trkpt lat="44.7839517" lon="9.5213883"><ele>456.99999999999994</ele><time>2026-04-05T11:17:34.189Z</time></trkpt><trkpt lat="44.7840333" lon="9.5213333"><ele>455.0</ele><time>2026-04-05T11:17:35.189Z</time></trkpt><trkpt lat="44.784095" lon="9.5212667"><ele>453.0</ele><time>2026-04-05T11:17:36.188Z</time></trkpt><trkpt lat="44.7841417" lon="9.5211783"><ele>453.0</ele><time>2026-04-05T11:17:37.188Z</time></trkpt><trkpt lat="44.7841833" lon="9.521055"><ele>452.99999999999994</ele><time>2026-04-05T11:17:38.188Z</time></trkpt><trkpt lat="44.7842217" lon="9.5208917"><ele>452.99999999999994</ele><time>2026-04-05T11:17:39.188Z</time></trkpt><trkpt lat="44.7842583" lon="9.5207433"><ele>453.0</ele><time>2026-04-05T11:17:40.188Z</time></trkpt><trkpt lat="44.78428" lon="9.5206017"><ele>453.0</ele><time>2026-04-05T11:17:41.188Z</time></trkpt><trkpt lat="44.7842733" lon="9.52047"><ele>451.59999999999997</ele><time>2026-04-05T11:17:42.188Z</time></trkpt><trkpt lat="44.784245" lon="9.520345"><ele>450.19999999999993</ele><time>2026-04-05T11:17:43.189Z</time></trkpt><trkpt lat="44.7842033" lon="9.520225"><ele>448.8</ele><time>2026-04-05T11:17:44.188Z</time></trkpt><trkpt lat="44.7841383" lon="9.5201133"><ele>447.4</ele><time>2026-04-05T11:17:45.189Z</time></trkpt><trkpt lat="44.7840633" lon="9.5199983"><ele>446.0</ele><time>2026-04-05T11:17:46.187Z</time></trkpt><trkpt lat="44.783985" lon="9.5198817"><ele>446.0</ele><time>2026-04-05T11:17:47.188Z</time></trkpt><trkpt lat="44.783915" lon="9.5197517"><ele>446.0</ele><time>2026-04-05T11:17:48.189Z</time></trkpt><trkpt lat="44.78385" lon="9.5196"><ele>446.0</ele><time>2026-04-05T11:17:49.188Z</time></trkpt><trkpt lat="44.7837933" lon="9.5194433"><ele>446.0</ele><time>2026-04-05T11:17:50.189Z</time></trkpt><trkpt lat="44.78375" lon="9.519285"><ele>444.3333333333333</ele><time>2026-04-05T11:17:51.189Z</time></trkpt><trkpt lat="44.7837183" lon="9.51913"><ele>442.66666666666663</ele><time>2026-04-05T11:17:52.188Z</time></trkpt><trkpt lat="44.7837017" lon="9.5189933"><ele>441.0</ele><time>2026-04-05T11:17:53.188Z</time></trkpt><trkpt lat="44.7837067" lon="9.518875"><ele>439.33333333333337</ele><time>2026-04-05T11:17:54.189Z</time></trkpt><trkpt lat="44.783725" lon="9.5187667"><ele>437.6666666666667</ele><time>2026-04-05T11:17:55.188Z</time></trkpt><trkpt lat="44.7837617" lon="9.5186867"><ele>436.0</ele><time>2026-04-05T11:17:56.189Z</time></trkpt><trkpt lat="44.783815" lon="9.5186333"><ele>435.00000000000006</ele><time>2026-04-05T11:17:57.188Z</time></trkpt><trkpt lat="44.7838733" lon="9.5185233"><ele>434.0</ele><time>2026-04-05T11:17:59.188Z</time></trkpt><trkpt lat="44.783835" lon="9.5184433"><ele>433.0</ele><time>2026-04-05T11:18:15.188Z</time></trkpt><trkpt lat="44.7837433" lon="9.5183117"><ele>432.0</ele><time>2026-04-05T11:18:17.188Z</time></trkpt><trkpt lat="44.7836917" lon="9.5182317"><ele>431.00000000000006</ele><time>2026-04-05T11:18:18.188Z</time></trkpt><trkpt lat="44.783645" lon="9.51816"><ele>430.0</ele><time>2026-04-05T11:18:19.188Z</time></trkpt><trkpt lat="44.7835717" lon="9.5180483"><ele>431.6666666666667</ele><time>2026-04-05T11:18:21.192Z</time></trkpt><trkpt lat="44.78351" lon="9.517995"><ele>433.33333333333337</ele><time>2026-04-05T11:18:23.189Z</time></trkpt><trkpt lat="44.7834117" lon="9.5179867"><ele>435.0</ele><time>2026-04-05T11:18:25.189Z</time></trkpt><trkpt lat="44.783335" lon="9.5180183"><ele>436.66666666666663</ele><time>2026-04-05T11:18:26.192Z</time></trkpt><trkpt lat="44.7832683" lon="9.5180317"><ele>438.3333333333333</ele><time>2026-04-05T11:18:27.191Z</time></trkpt><trkpt lat="44.78318" lon="9.5180583"><ele>440.0</ele><time>2026-04-05T11:18:29.189Z</time></trkpt><trkpt lat="44.78328" lon="9.518095"><ele>439.99999999999994</ele><time>2026-04-05T11:18:34.192Z</time></trkpt><trkpt lat="44.783355" lon="9.5180567"><ele>440.0</ele><time>2026-04-05T11:18:35.19Z</time></trkpt><trkpt lat="44.7834217" lon="9.5180367"><ele>440.0</ele><time>2026-04-05T11:18:36.191Z</time></trkpt><trkpt lat="44.783485" lon="9.5180217"><ele>440.0</ele><time>2026-04-05T11:18:37.19Z</time></trkpt><trkpt lat="44.7835567" lon="9.518085"><ele>439.99999999999994</ele><time>2026-04-05T11:18:38.19Z</time></trkpt><trkpt lat="44.78363" lon="9.5181667"><ele>440.0</ele><time>2026-04-05T11:18:39.188Z</time></trkpt><trkpt lat="44.783705" lon="9.5182617"><ele>439.3333333333333</ele><time>2026-04-05T11:18:40.188Z</time></trkpt><trkpt lat="44.7837567" lon="9.51835"><ele>438.66666666666663</ele><time>2026-04-05T11:18:41.188Z</time></trkpt><trkpt lat="44.7837983" lon="9.51843"><ele>438.0</ele><time>2026-04-05T11:18:42.19Z</time></trkpt><trkpt lat="44.7838317" lon="9.5185667"><ele>437.33333333333337</ele><time>2026-04-05T11:18:44.189Z</time></trkpt><trkpt lat="44.7837517" lon="9.5186233"><ele>436.6666666666667</ele><time>2026-04-05T11:18:47.188Z</time></trkpt><trkpt lat="44.7836767" lon="9.5186617"><ele>436.0</ele><time>2026-04-05T11:18:49.188Z</time></trkpt><trkpt lat="44.7836167" lon="9.5187583"><ele>436.0</ele><time>2026-04-05T11:18:51.188Z</time></trkpt><trkpt lat="44.7835733" lon="9.5188617"><ele>436.0</ele><time>2026-04-05T11:18:54.189Z</time></trkpt><trkpt lat="44.783555" lon="9.5189517"><ele>436.0</ele><time>2026-04-05T11:19:10.189Z</time></trkpt><trkpt lat="44.7835117" lon="9.5192017"><ele>436.0</ele><time>2026-04-05T11:19:13.189Z</time></trkpt><trkpt lat="44.7835033" lon="9.519335"><ele>436.0</ele><time>2026-04-05T11:19:15.189Z</time></trkpt><trkpt lat="44.7835133" lon="9.51945"><ele>436.0</ele><time>2026-04-05T11:19:17.188Z</time></trkpt><trkpt lat="44.7835383" lon="9.5195667"><ele>436.0</ele><time>2026-04-05T11:19:19.189Z</time></trkpt><trkpt lat="44.7835683" lon="9.519695"><ele>436.0</ele><time>2026-04-05T11:19:21.191Z</time></trkpt><trkpt lat="44.7835867" lon="9.51984"><ele>436.0</ele><time>2026-04-05T11:19:23.191Z</time></trkpt><trkpt lat="44.7835933" lon="9.5199983"><ele>436.0</ele><time>2026-04-05T11:19:25.191Z</time></trkpt><trkpt lat="44.7836" lon="9.520095"><ele>438.0</ele><time>2026-04-05T11:19:26.191Z</time></trkpt><trkpt lat="44.7836167" lon="9.5202017"><ele>440.0</ele><time>2026-04-05T11:19:27.191Z</time></trkpt><trkpt lat="44.7836517" lon="9.5202983"><ele>442.0</ele><time>2026-04-05T11:19:28.191Z</time></trkpt><trkpt lat="44.7836883" lon="9.520395"><ele>444.0</ele><time>2026-04-05T11:19:29.191Z</time></trkpt><trkpt lat="44.7837283" lon="9.520545"><ele>446.0</ele><time>2026-04-05T11:19:31.191Z</time></trkpt><trkpt lat="44.783715" lon="9.52069"><ele>447.4</ele><time>2026-04-05T11:19:33.189Z</time></trkpt><trkpt lat="44.7836617" lon="9.5208333"><ele>448.8</ele><time>2026-04-05T11:19:35.189Z</time></trkpt><trkpt lat="44.7835617" lon="9.52094"><ele>450.19999999999993</ele><time>2026-04-05T11:19:37.193Z</time></trkpt><trkpt lat="44.7834967" lon="9.5209817"><ele>451.59999999999997</ele><time>2026-04-05T11:19:38.193Z</time></trkpt><trkpt lat="44.7834167" lon="9.5210133"><ele>453.0</ele><time>2026-04-05T11:19:39.189Z</time></trkpt><trkpt lat="44.78332" lon="9.52104"><ele>456.2</ele><time>2026-04-05T11:19:40.19Z</time></trkpt><trkpt lat="44.7832183" lon="9.5210733"><ele>459.4</ele><time>2026-04-05T11:19:41.189Z</time></trkpt><trkpt lat="44.7831183" lon="9.5211083"><ele>462.59999999999997</ele><time>2026-04-05T11:19:42.191Z</time></trkpt><trkpt lat="44.7830267" lon="9.5211383"><ele>465.79999999999995</ele><time>2026-04-05T11:19:43.189Z</time></trkpt><trkpt lat="44.7829467" lon="9.52117"><ele>469.0</ele><time>2026-04-05T11:19:44.191Z</time></trkpt><trkpt lat="44.7828683" lon="9.52121"><ele>468.00000000000006</ele><time>2026-04-05T11:19:45.189Z</time></trkpt><trkpt lat="44.782805" lon="9.5212417"><ele>467.0</ele><time>2026-04-05T11:19:46.189Z</time></trkpt><trkpt lat="44.7826883" lon="9.521275"><ele>466.0</ele><time>2026-04-05T11:19:48.19Z</time></trkpt><trkpt lat="44.7826233" lon="9.5212733"><ele>465.0</ele><time>2026-04-05T11:19:49.189Z</time></trkpt><trkpt lat="44.7825517" lon="9.5212317"><ele>464.00000000000006</ele><time>2026-04-05T11:19:50.189Z</time></trkpt><trkpt lat="44.78248" lon="9.52117"><ele>463.0</ele><time>2026-04-05T11:19:51.189Z</time></trkpt><trkpt lat="44.7824167" lon="9.5211217"><ele>465.1666666666667</ele><time>2026-04-05T11:19:52.189Z</time></trkpt><trkpt lat="44.782295" lon="9.52111"><ele>467.33333333333337</ele><time>2026-04-05T11:19:54.19Z</time></trkpt><trkpt lat="44.7822333" lon="9.5211367"><ele>469.5</ele><time>2026-04-05T11:19:55.19Z</time></trkpt><trkpt lat="44.78217" lon="9.5211917"><ele>471.66666666666663</ele><time>2026-04-05T11:19:56.191Z</time></trkpt><trkpt lat="44.7821017" lon="9.5212683"><ele>473.8333333333333</ele><time>2026-04-05T11:19:57.19Z</time></trkpt><trkpt lat="44.7820333" lon="9.5213517"><ele>476.0</ele><time>2026-04-05T11:19:58.191Z</time></trkpt><trkpt lat="44.7819667" lon="9.5214383"><ele>475.99999999999994</ele><time>2026-04-05T11:19:59.189Z</time></trkpt><trkpt lat="44.7819067" lon="9.5215117"><ele>476.0</ele><time>2026-04-05T11:20:00.191Z</time></trkpt><trkpt lat="44.7818433" lon="9.5215783"><ele>476.0</ele><time>2026-04-05T11:20:01.188Z</time></trkpt><trkpt lat="44.781775" lon="9.5216317"><ele>476.0</ele><time>2026-04-05T11:20:02.193Z</time></trkpt><trkpt lat="44.7816983" lon="9.5216733"><ele>475.99999999999994</ele><time>2026-04-05T11:20:03.191Z</time></trkpt><trkpt lat="44.78162" lon="9.5216983"><ele>476.0</ele><time>2026-04-05T11:20:04.19Z</time></trkpt><trkpt lat="44.78155" lon="9.52172"><ele>477.49999999999994</ele><time>2026-04-05T11:20:05.19Z</time></trkpt><trkpt lat="44.7814867" lon="9.52175"><ele>479.0</ele><time>2026-04-05T11:20:06.189Z</time></trkpt><trkpt lat="44.7814317" lon="9.5218"><ele>480.5</ele><time>2026-04-05T11:20:07.191Z</time></trkpt><trkpt lat="44.781375" lon="9.5218683"><ele>482.0</ele><time>2026-04-05T11:20:08.19Z</time></trkpt><trkpt lat="44.7813117" lon="9.5219517"><ele>483.49999999999994</ele><time>2026-04-05T11:20:09.19Z</time></trkpt><trkpt lat="44.7812383" lon="9.5220367"><ele>485.0</ele><time>2026-04-05T11:20:10.189Z</time></trkpt><trkpt lat="44.7811617" lon="9.5221133"><ele>486.3333333333333</ele><time>2026-04-05T11:20:11.19Z</time></trkpt><trkpt lat="44.7810883" lon="9.52217"><ele>487.66666666666663</ele><time>2026-04-05T11:20:12.19Z</time></trkpt><trkpt lat="44.7810083" lon="9.5222"><ele>489.0</ele><time>2026-04-05T11:20:13.191Z</time></trkpt><trkpt lat="44.7809417" lon="9.5222083"><ele>490.33333333333337</ele><time>2026-04-05T11:20:14.191Z</time></trkpt><trkpt lat="44.7808683" lon="9.522185"><ele>491.6666666666667</ele><time>2026-04-05T11:20:15.191Z</time></trkpt><trkpt lat="44.7807983" lon="9.522135"><ele>493.0</ele><time>2026-04-05T11:20:16.19Z</time></trkpt><trkpt lat="44.7807267" lon="9.52211"><ele>494.59999999999997</ele><time>2026-04-05T11:20:17.19Z</time></trkpt><trkpt lat="44.7806583" lon="9.522115"><ele>496.19999999999993</ele><time>2026-04-05T11:20:18.191Z</time></trkpt><trkpt lat="44.780585" lon="9.5221567"><ele>497.8</ele><time>2026-04-05T11:20:19.191Z</time></trkpt><trkpt lat="44.7805" lon="9.5222483"><ele>499.4</ele><time>2026-04-05T11:20:20.189Z</time></trkpt><trkpt lat="44.7804117" lon="9.52234"><ele>501.0</ele><time>2026-04-05T11:20:21.19Z</time></trkpt><trkpt lat="44.7803233" lon="9.5224083"><ele>501.0</ele><time>2026-04-05T11:20:22.188Z</time></trkpt><trkpt lat="44.7802283" lon="9.5224367"><ele>501.0</ele><time>2026-04-05T11:20:23.189Z</time></trkpt><trkpt lat="44.78012" lon="9.522435"><ele>501.0</ele><time>2026-04-05T11:20:24.19Z</time></trkpt><trkpt lat="44.7799967" lon="9.5224067"><ele>501.0</ele><time>2026-04-05T11:20:25.191Z</time></trkpt><trkpt lat="44.7798883" lon="9.5223633"><ele>501.0</ele><time>2026-04-05T11:20:26.19Z</time></trkpt><trkpt lat="44.7798033" lon="9.5223167"><ele>500.57142857142856</ele><time>2026-04-05T11:20:27.191Z</time></trkpt><trkpt lat="44.7797317" lon="9.5222617"><ele>500.1428571428571</ele><time>2026-04-05T11:20:28.191Z</time></trkpt><trkpt lat="44.7796717" lon="9.5222017"><ele>499.71428571428567</ele><time>2026-04-05T11:20:29.188Z</time></trkpt><trkpt lat="44.779635" lon="9.522125"><ele>499.2857142857143</ele><time>2026-04-05T11:20:30.192Z</time></trkpt><trkpt lat="44.77962" lon="9.5220183"><ele>498.8571428571428</ele><time>2026-04-05T11:20:31.191Z</time></trkpt><trkpt lat="44.77961" lon="9.52192"><ele>498.4285714285714</ele><time>2026-04-05T11:20:32.193Z</time></trkpt><trkpt lat="44.7795983" lon="9.52183"><ele>498.0</ele><time>2026-04-05T11:20:33.189Z</time></trkpt><trkpt lat="44.7795483" lon="9.5216983"><ele>498.0</ele><time>2026-04-05T11:20:35.192Z</time></trkpt><trkpt lat="44.7794317" lon="9.52172"><ele>497.99999999999994</ele><time>2026-04-05T11:20:37.191Z</time></trkpt><trkpt lat="44.7793367" lon="9.5217517"><ele>497.99999999999994</ele><time>2026-04-05T11:20:38.189Z</time></trkpt><trkpt lat="44.7792267" lon="9.521765"><ele>498.0</ele><time>2026-04-05T11:20:39.189Z</time></trkpt><trkpt lat="44.7791067" lon="9.5217533"><ele>498.0</ele><time>2026-04-05T11:20:40.191Z</time></trkpt><trkpt lat="44.778995" lon="9.52173"><ele>500.4</ele><time>2026-04-05T11:20:41.19Z</time></trkpt><trkpt lat="44.7788917" lon="9.521715"><ele>502.79999999999995</ele><time>2026-04-05T11:20:42.191Z</time></trkpt><trkpt lat="44.7787967" lon="9.521735"><ele>505.2</ele><time>2026-04-05T11:20:43.19Z</time></trkpt><trkpt lat="44.7787133" lon="9.5217883"><ele>507.6</ele><time>2026-04-05T11:20:44.191Z</time></trkpt><trkpt lat="44.7786283" lon="9.5218633"><ele>510.0</ele><time>2026-04-05T11:20:45.191Z</time></trkpt><trkpt lat="44.7785483" lon="9.521935"><ele>510.1666666666667</ele><time>2026-04-05T11:20:46.192Z</time></trkpt><trkpt lat="44.7784683" lon="9.52199"><ele>510.33333333333337</ele><time>2026-04-05T11:20:47.189Z</time></trkpt><trkpt lat="44.77839" lon="9.52202"><ele>510.5</ele><time>2026-04-05T11:20:48.195Z</time></trkpt><trkpt lat="44.7783133" lon="9.52203"><ele>510.6666666666667</ele><time>2026-04-05T11:20:49.191Z</time></trkpt><trkpt lat="44.7782417" lon="9.5220267"><ele>510.83333333333337</ele><time>2026-04-05T11:20:50.191Z</time></trkpt><trkpt lat="44.778175" lon="9.5220167"><ele>511.0</ele><time>2026-04-05T11:20:51.191Z</time></trkpt><trkpt lat="44.77811" lon="9.5220033"><ele>511.00000000000006</ele><time>2026-04-05T11:20:52.19Z</time></trkpt><trkpt lat="44.778045" lon="9.52198"><ele>511.0</ele><time>2026-04-05T11:20:53.19Z</time></trkpt><trkpt lat="44.77797" lon="9.5219433"><ele>511.0</ele><time>2026-04-05T11:20:54.189Z</time></trkpt><trkpt lat="44.7779" lon="9.5218867"><ele>511.0</ele><time>2026-04-05T11:20:55.191Z</time></trkpt><trkpt lat="44.777825" lon="9.5218117"><ele>511.00000000000006</ele><time>2026-04-05T11:20:56.192Z</time></trkpt><trkpt lat="44.7777567" lon="9.5217183"><ele>511.0</ele><time>2026-04-05T11:20:57.191Z</time></trkpt><trkpt lat="44.7777033" lon="9.52162"><ele>512.0</ele><time>2026-04-05T11:20:58.191Z</time></trkpt><trkpt lat="44.7776517" lon="9.5215383"><ele>513.0</ele><time>2026-04-05T11:20:59.19Z</time></trkpt><trkpt lat="44.777595" lon="9.5214883"><ele>514.0</ele><time>2026-04-05T11:21:00.189Z</time></trkpt><trkpt lat="44.7775317" lon="9.5214683"><ele>515.0</ele><time>2026-04-05T11:21:01.192Z</time></trkpt><trkpt lat="44.7774633" lon="9.52147"><ele>516.0</ele><time>2026-04-05T11:21:02.192Z</time></trkpt><trkpt lat="44.777395" lon="9.52149"><ele>517.0</ele><time>2026-04-05T11:21:03.189Z</time></trkpt><trkpt lat="44.7772967" lon="9.5215733"><ele>517.0</ele><time>2026-04-05T11:21:05.192Z</time></trkpt><trkpt lat="44.77726" lon="9.52165"><ele>517.0</ele><time>2026-04-05T11:21:06.19Z</time></trkpt><trkpt lat="44.7772333" lon="9.5217583"><ele>517.0</ele><time>2026-04-05T11:21:07.191Z</time></trkpt><trkpt lat="44.7772133" lon="9.5219033"><ele>517.0</ele><time>2026-04-05T11:21:08.19Z</time></trkpt><trkpt lat="44.777195" lon="9.5220333"><ele>517.0</ele><time>2026-04-05T11:21:09.192Z</time></trkpt><trkpt lat="44.7771567" lon="9.5221517"><ele>517.0</ele><time>2026-04-05T11:21:10.189Z</time></trkpt><trkpt lat="44.7771017" lon="9.5222567"><ele>518.0</ele><time>2026-04-05T11:21:11.19Z</time></trkpt><trkpt lat="44.77703" lon="9.522345"><ele>519.0</ele><time>2026-04-05T11:21:12.191Z</time></trkpt><trkpt lat="44.77695" lon="9.522415"><ele>520.0</ele><time>2026-04-05T11:21:13.19Z</time></trkpt><trkpt lat="44.7768767" lon="9.522475"><ele>521.0</ele><time>2026-04-05T11:21:14.191Z</time></trkpt><trkpt lat="44.77681" lon="9.52254"><ele>522.0</ele><time>2026-04-05T11:21:15.19Z</time></trkpt><trkpt lat="44.776745" lon="9.5226217"><ele>523.0</ele><time>2026-04-05T11:21:16.189Z</time></trkpt><trkpt lat="44.7766667" lon="9.5227233"><ele>523.0</ele><time>2026-04-05T11:21:17.191Z</time></trkpt><trkpt lat="44.7765917" lon="9.5228267"><ele>523.0</ele><time>2026-04-05T11:21:18.191Z</time></trkpt><trkpt lat="44.77652" lon="9.5229167"><ele>523.0</ele><time>2026-04-05T11:21:19.191Z</time></trkpt><trkpt lat="44.77645" lon="9.5229817"><ele>523.0</ele><time>2026-04-05T11:21:20.192Z</time></trkpt><trkpt lat="44.77637" lon="9.5230183"><ele>523.0</ele><time>2026-04-05T11:21:21.19Z</time></trkpt><trkpt lat="44.7762883" lon="9.5230333"><ele>525.4</ele><time>2026-04-05T11:21:22.19Z</time></trkpt><trkpt lat="44.776195" lon="9.523015"><ele>527.8</ele><time>2026-04-05T11:21:23.192Z</time></trkpt><trkpt lat="44.7761017" lon="9.5230067"><ele>530.2</ele><time>2026-04-05T11:21:24.191Z</time></trkpt><trkpt lat="44.776005" lon="9.5230233"><ele>532.6</ele><time>2026-04-05T11:21:25.191Z</time></trkpt><trkpt lat="44.7759083" lon="9.523045"><ele>535.0</ele><time>2026-04-05T11:21:26.192Z</time></trkpt><trkpt lat="44.7758067" lon="9.5230633"><ele>535.6</ele><time>2026-04-05T11:21:27.192Z</time></trkpt><trkpt lat="44.775705" lon="9.5230883"><ele>536.2</ele><time>2026-04-05T11:21:28.191Z</time></trkpt><trkpt lat="44.7756117" lon="9.5231383"><ele>536.8</ele><time>2026-04-05T11:21:29.19Z</time></trkpt><trkpt lat="44.7755183" lon="9.5231967"><ele>537.4</ele><time>2026-04-05T11:21:30.19Z</time></trkpt><trkpt lat="44.7754317" lon="9.52324"><ele>538.0</ele><time>2026-04-05T11:21:31.192Z</time></trkpt><trkpt lat="44.7753417" lon="9.5232517"><ele>538.0</ele><time>2026-04-05T11:21:32.189Z</time></trkpt><trkpt lat="44.7752533" lon="9.5232267"><ele>538.0</ele><time>2026-04-05T11:21:33.191Z</time></trkpt><trkpt lat="44.775175" lon="9.523175"><ele>538.0</ele><time>2026-04-05T11:21:34.191Z</time></trkpt><trkpt lat="44.7751117" lon="9.5231133"><ele>538.0</ele><time>2026-04-05T11:21:35.189Z</time></trkpt><trkpt lat="44.7750467" lon="9.5229833"><ele>538.0</ele><time>2026-04-05T11:21:37.193Z</time></trkpt><trkpt lat="44.7750867" lon="9.522905"><ele>538.0</ele><time>2026-04-05T11:21:38.192Z</time></trkpt><trkpt lat="44.775125" lon="9.522825"><ele>538.3333333333334</ele><time>2026-04-05T11:21:39.189Z</time></trkpt><trkpt lat="44.775185" lon="9.5227517"><ele>538.6666666666667</ele><time>2026-04-05T11:21:40.192Z</time></trkpt><trkpt lat="44.7752333" lon="9.522675"><ele>539.0</ele><time>2026-04-05T11:21:41.19Z</time></trkpt><trkpt lat="44.7752583" lon="9.522505"><ele>539.3333333333334</ele><time>2026-04-05T11:21:43.189Z</time></trkpt><trkpt lat="44.7752083" lon="9.52243"><ele>539.6666666666666</ele><time>2026-04-05T11:21:44.192Z</time></trkpt><trkpt lat="44.7751383" lon="9.5223583"><ele>540.0</ele><time>2026-04-05T11:21:45.191Z</time></trkpt><trkpt lat="44.7750433" lon="9.5222917"><ele>540.0</ele><time>2026-04-05T11:21:46.19Z</time></trkpt><trkpt lat="44.774905" lon="9.522235"><ele>540.0</ele><time>2026-04-05T11:21:47.191Z</time></trkpt><trkpt lat="44.7747567" lon="9.522195"><ele>540.0</ele><time>2026-04-05T11:21:48.191Z</time></trkpt><trkpt lat="44.7746117" lon="9.522175"><ele>540.0</ele><time>2026-04-05T11:21:49.191Z</time></trkpt><trkpt lat="44.7744733" lon="9.52217"><ele>540.0</ele><time>2026-04-05T11:21:50.192Z</time></trkpt><trkpt lat="44.774355" lon="9.5221583"><ele>540.0</ele><time>2026-04-05T11:21:51.19Z</time></trkpt><trkpt lat="44.7742483" lon="9.5221217"><ele>540.0</ele><time>2026-04-05T11:21:52.191Z</time></trkpt><trkpt lat="44.7741483" lon="9.5220583"><ele>540.0</ele><time>2026-04-05T11:21:53.189Z</time></trkpt><trkpt lat="44.77406" lon="9.5219883"><ele>540.0</ele><time>2026-04-05T11:21:54.191Z</time></trkpt><trkpt lat="44.7739733" lon="9.521935"><ele>540.2</ele><time>2026-04-05T11:21:55.191Z</time></trkpt><trkpt lat="44.77388" lon="9.521905"><ele>540.4</ele><time>2026-04-05T11:21:56.191Z</time></trkpt><trkpt lat="44.77378" lon="9.5219"><ele>540.6</ele><time>2026-04-05T11:21:57.189Z</time></trkpt><trkpt lat="44.7736683" lon="9.52192"><ele>540.8</ele><time>2026-04-05T11:21:58.19Z</time></trkpt><trkpt lat="44.77355" lon="9.52196"><ele>541.0</ele><time>2026-04-05T11:21:59.191Z</time></trkpt><trkpt lat="44.77344" lon="9.5219967"><ele>543.1666666666667</ele><time>2026-04-05T11:22:00.192Z</time></trkpt><trkpt lat="44.773345" lon="9.522015"><ele>545.3333333333334</ele><time>2026-04-05T11:22:01.191Z</time></trkpt><trkpt lat="44.7732533" lon="9.522"><ele>547.5</ele><time>2026-04-05T11:22:02.191Z</time></trkpt><trkpt lat="44.7731667" lon="9.52196"><ele>549.6666666666666</ele><time>2026-04-05T11:22:03.19Z</time></trkpt><trkpt lat="44.7730967" lon="9.5219033"><ele>551.8333333333333</ele><time>2026-04-05T11:22:04.191Z</time></trkpt><trkpt lat="44.7730367" lon="9.5218283"><ele>554.0</ele><time>2026-04-05T11:22:05.192Z</time></trkpt><trkpt lat="44.7729783" lon="9.5217267"><ele>554.0</ele><time>2026-04-05T11:22:06.191Z</time></trkpt><trkpt lat="44.772925" lon="9.52159"><ele>554.0</ele><time>2026-04-05T11:22:07.191Z</time></trkpt><trkpt lat="44.7728833" lon="9.52146"><ele>554.0</ele><time>2026-04-05T11:22:08.19Z</time></trkpt><trkpt lat="44.7728317" lon="9.5213567"><ele>554.0</ele><time>2026-04-05T11:22:09.191Z</time></trkpt><trkpt lat="44.7727583" lon="9.5212733"><ele>554.0</ele><time>2026-04-05T11:22:10.191Z</time></trkpt><trkpt lat="44.7726667" lon="9.5212067"><ele>558.5</ele><time>2026-04-05T11:22:11.192Z</time></trkpt><trkpt lat="44.7725333" lon="9.5211383"><ele>563.0</ele><time>2026-04-05T11:22:12.189Z</time></trkpt><trkpt lat="44.7724017" lon="9.521065"><ele>567.5</ele><time>2026-04-05T11:22:13.191Z</time></trkpt><trkpt lat="44.7722733" lon="9.5210033"><ele>572.0</ele><time>2026-04-05T11:22:14.192Z</time></trkpt><trkpt lat="44.7721533" lon="9.5209583"><ele>572.0</ele><time>2026-04-05T11:22:15.191Z</time></trkpt><trkpt lat="44.7720483" lon="9.5209433"><ele>572.0</ele><time>2026-04-05T11:22:16.191Z</time></trkpt><trkpt lat="44.77195" lon="9.5209533"><ele>572.0</ele><time>2026-04-05T11:22:17.19Z</time></trkpt><trkpt lat="44.771845" lon="9.5209917"><ele>572.0</ele><time>2026-04-05T11:22:18.19Z</time></trkpt><trkpt lat="44.7717283" lon="9.5210433"><ele>572.0</ele><time>2026-04-05T11:22:19.192Z</time></trkpt><trkpt lat="44.7716117" lon="9.5210917"><ele>573.6</ele><time>2026-04-05T11:22:20.19Z</time></trkpt><trkpt lat="44.7715067" lon="9.52112"><ele>575.2</ele><time>2026-04-05T11:22:21.19Z</time></trkpt><trkpt lat="44.7714033" lon="9.521115"><ele>576.8</ele><time>2026-04-05T11:22:22.192Z</time></trkpt><trkpt lat="44.7712967" lon="9.5210767"><ele>578.4</ele><time>2026-04-05T11:22:23.191Z</time></trkpt><trkpt lat="44.771185" lon="9.5210283"><ele>580.0</ele><time>2026-04-05T11:22:24.19Z</time></trkpt><trkpt lat="44.7710833" lon="9.5209817"><ele>581.3333333333334</ele><time>2026-04-05T11:22:25.19Z</time></trkpt><trkpt lat="44.7709933" lon="9.5209433"><ele>582.6666666666667</ele><time>2026-04-05T11:22:26.191Z</time></trkpt><trkpt lat="44.7709083" lon="9.520935"><ele>584.0</ele><time>2026-04-05T11:22:27.191Z</time></trkpt><trkpt lat="44.7708233" lon="9.52095"><ele>585.3333333333334</ele><time>2026-04-05T11:22:28.19Z</time></trkpt><trkpt lat="44.7707383" lon="9.5209783"><ele>586.6666666666666</ele><time>2026-04-05T11:22:29.19Z</time></trkpt><trkpt lat="44.77067" lon="9.5210133"><ele>588.0</ele><time>2026-04-05T11:22:30.191Z</time></trkpt><trkpt lat="44.7706085" lon="9.52105"><ele>588.0</ele><time>2026-04-05T11:22:31.19Z</time></trkpt><trkpt lat="44.7705494" lon="9.5210812"><ele>588.0</ele><time>2026-04-05T11:22:32.191Z</time></trkpt><trkpt lat="44.7704857" lon="9.521099"><ele>588.0</ele><time>2026-04-05T11:22:33.19Z</time></trkpt><trkpt lat="44.7704124" lon="9.5210978"><ele>588.0</ele><time>2026-04-05T11:22:34.189Z</time></trkpt><trkpt lat="44.7703365" lon="9.5210701"><ele>588.0</ele><time>2026-04-05T11:22:35.191Z</time></trkpt><trkpt lat="44.770252" lon="9.5210183"><ele>588.0</ele><time>2026-04-05T11:22:36.192Z</time></trkpt><trkpt lat="44.7701491" lon="9.520952"><ele>591.0</ele><time>2026-04-05T11:22:37.191Z</time></trkpt><trkpt lat="44.7700261" lon="9.5208826"><ele>594.0</ele><time>2026-04-05T11:22:38.191Z</time></trkpt><trkpt lat="44.7698917" lon="9.5208164"><ele>597.0</ele><time>2026-04-05T11:22:39.189Z</time></trkpt><trkpt lat="44.7697588" lon="9.5207511"><ele>600.0</ele><time>2026-04-05T11:22:40.189Z</time></trkpt><trkpt lat="44.7696344" lon="9.5206944"><ele>600.0</ele><time>2026-04-05T11:22:41.189Z</time></trkpt><trkpt lat="44.7695212" lon="9.520649"><ele>600.0</ele><time>2026-04-05T11:22:42.19Z</time></trkpt><trkpt lat="44.7694216" lon="9.5206182"><ele>600.0</ele><time>2026-04-05T11:22:43.191Z</time></trkpt><trkpt lat="44.7693347" lon="9.5205975"><ele>600.0</ele><time>2026-04-05T11:22:44.191Z</time></trkpt><trkpt lat="44.7692636" lon="9.5205745"><ele>600.0</ele><time>2026-04-05T11:22:45.192Z</time></trkpt><trkpt lat="44.7691826" lon="9.5204892"><ele>601.4</ele><time>2026-04-05T11:22:47.191Z</time></trkpt><trkpt lat="44.7691413" lon="9.5203288"><ele>602.8</ele><time>2026-04-05T11:22:49.193Z</time></trkpt><trkpt lat="44.7691163" lon="9.5202101"><ele>604.2</ele><time>2026-04-05T11:22:50.191Z</time></trkpt><trkpt lat="44.7690833" lon="9.5200703"><ele>605.6</ele><time>2026-04-05T11:22:51.191Z</time></trkpt><trkpt lat="44.7690434" lon="9.519909"><ele>607.0</ele><time>2026-04-05T11:22:52.191Z</time></trkpt><trkpt lat="44.7690009" lon="9.5197514"><ele>607.0</ele><time>2026-04-05T11:22:53.191Z</time></trkpt><trkpt lat="44.7689568" lon="9.5196146"><ele>607.0</ele><time>2026-04-05T11:22:54.191Z</time></trkpt><trkpt lat="44.7689018" lon="9.5194884"><ele>607.0</ele><time>2026-04-05T11:22:55.192Z</time></trkpt><trkpt lat="44.7688276" lon="9.5193709"><ele>607.0</ele><time>2026-04-05T11:22:56.191Z</time></trkpt><trkpt lat="44.7687474" lon="9.5192512"><ele>607.0</ele><time>2026-04-05T11:22:57.19Z</time></trkpt><trkpt lat="44.7686799" lon="9.5191261"><ele>606.8333333333334</ele><time>2026-04-05T11:22:58.19Z</time></trkpt><trkpt lat="44.768637" lon="9.5189909"><ele>606.6666666666667</ele><time>2026-04-05T11:22:59.19Z</time></trkpt><trkpt lat="44.7686006" lon="9.5188611"><ele>606.5</ele><time>2026-04-05T11:23:00.189Z</time></trkpt><trkpt lat="44.7685621" lon="9.5187538"><ele>606.3333333333334</ele><time>2026-04-05T11:23:01.191Z</time></trkpt><trkpt lat="44.7685146" lon="9.5186685"><ele>606.1666666666666</ele><time>2026-04-05T11:23:02.191Z</time></trkpt><trkpt lat="44.7684608" lon="9.5186074"><ele>606.0</ele><time>2026-04-05T11:23:03.191Z</time></trkpt><trkpt lat="44.7683969" lon="9.5185785"><ele>608.6666666666666</ele><time>2026-04-05T11:23:04.19Z</time></trkpt><trkpt lat="44.7683237" lon="9.5185847"><ele>611.3333333333334</ele><time>2026-04-05T11:23:05.191Z</time></trkpt><trkpt lat="44.7682546" lon="9.5186298"><ele>614.0</ele><time>2026-04-05T11:23:06.19Z</time></trkpt><trkpt lat="44.7681898" lon="9.5186928"><ele>616.6666666666667</ele><time>2026-04-05T11:23:07.189Z</time></trkpt><trkpt lat="44.7681295" lon="9.5187416"><ele>619.3333333333334</ele><time>2026-04-05T11:23:08.19Z</time></trkpt><trkpt lat="44.7680209" lon="9.5187451"><ele>622.0</ele><time>2026-04-05T11:23:10.191Z</time></trkpt><trkpt lat="44.7679705" lon="9.518689"><ele>622.0</ele><time>2026-04-05T11:23:11.191Z</time></trkpt><trkpt lat="44.767908" lon="9.5185939"><ele>622.0</ele><time>2026-04-05T11:23:12.191Z</time></trkpt><trkpt lat="44.7678384" lon="9.5184945"><ele>622.0</ele><time>2026-04-05T11:23:13.191Z</time></trkpt><trkpt lat="44.7677748" lon="9.5184162"><ele>622.0</ele><time>2026-04-05T11:23:14.193Z</time></trkpt><trkpt lat="44.7676815" lon="9.5183396"><ele>622.0</ele><time>2026-04-05T11:23:16.19Z</time></trkpt><trkpt lat="44.7675888" lon="9.5183604"><ele>622.6666666666667</ele><time>2026-04-05T11:23:18.191Z</time></trkpt><trkpt lat="44.7675325" lon="9.5184119"><ele>623.3333333333334</ele><time>2026-04-05T11:23:19.19Z</time></trkpt><trkpt lat="44.7674755" lon="9.5184677"><ele>624.0</ele><time>2026-04-05T11:23:20.19Z</time></trkpt><trkpt lat="44.7674217" lon="9.5185174"><ele>624.6666666666666</ele><time>2026-04-05T11:23:21.191Z</time></trkpt><trkpt lat="44.7673487" lon="9.5186026"><ele>625.3333333333333</ele><time>2026-04-05T11:23:23.191Z</time></trkpt><trkpt lat="44.767345" lon="9.518695"><ele>626.0</ele><time>2026-04-05T11:23:30.192Z</time></trkpt><trkpt lat="44.767345" lon="9.5188333"><ele>627.4</ele><time>2026-04-05T11:23:31.191Z</time></trkpt><trkpt lat="44.7673617" lon="9.5189767"><ele>628.8</ele><time>2026-04-05T11:23:32.191Z</time></trkpt><trkpt lat="44.767385" lon="9.5191317"><ele>630.1999999999999</ele><time>2026-04-05T11:23:33.193Z</time></trkpt><trkpt lat="44.767425" lon="9.519285"><ele>631.6</ele><time>2026-04-05T11:23:34.189Z</time></trkpt><trkpt lat="44.7674717" lon="9.5194333"><ele>633.0</ele><time>2026-04-05T11:23:35.192Z</time></trkpt><trkpt lat="44.7675267" lon="9.51957"><ele>634.25</ele><time>2026-04-05T11:23:36.192Z</time></trkpt><trkpt lat="44.7675867" lon="9.5197083"><ele>635.5</ele><time>2026-04-05T11:23:37.19Z</time></trkpt><trkpt lat="44.7676383" lon="9.5198467"><ele>636.75</ele><time>2026-04-05T11:23:38.191Z</time></trkpt><trkpt lat="44.767675" lon="9.519995"><ele>638.0</ele><time>2026-04-05T11:23:39.192Z</time></trkpt><trkpt lat="44.7677017" lon="9.520155"><ele>637.5</ele><time>2026-04-05T11:23:40.192Z</time></trkpt><trkpt lat="44.7677167" lon="9.5203217"><ele>637.0</ele><time>2026-04-05T11:23:41.189Z</time></trkpt><trkpt lat="44.76773" lon="9.520485"><ele>636.5</ele><time>2026-04-05T11:23:42.19Z</time></trkpt><trkpt lat="44.7677317" lon="9.52064"><ele>636.0</ele><time>2026-04-05T11:23:43.191Z</time></trkpt><trkpt lat="44.7677233" lon="9.5208"><ele>636.0</ele><time>2026-04-05T11:23:44.191Z</time></trkpt><trkpt lat="44.7676983" lon="9.5209683"><ele>636.0</ele><time>2026-04-05T11:23:45.19Z</time></trkpt><trkpt lat="44.76766" lon="9.5211383"><ele>636.0</ele><time>2026-04-05T11:23:46.191Z</time></trkpt><trkpt lat="44.76761" lon="9.5212917"><ele>636.0</ele><time>2026-04-05T11:23:47.191Z</time></trkpt><trkpt lat="44.76755" lon="9.5214283"><ele>639.2</ele><time>2026-04-05T11:23:48.19Z</time></trkpt><trkpt lat="44.7674833" lon="9.5215383"><ele>642.4000000000001</ele><time>2026-04-05T11:23:49.193Z</time></trkpt><trkpt lat="44.7674083" lon="9.521635"><ele>645.6</ele><time>2026-04-05T11:23:50.19Z</time></trkpt><trkpt lat="44.767325" lon="9.5217283"><ele>648.8000000000001</ele><time>2026-04-05T11:23:51.19Z</time></trkpt><trkpt lat="44.7672567" lon="9.521825"><ele>652.0</ele><time>2026-04-05T11:23:52.19Z</time></trkpt><trkpt lat="44.76721" lon="9.5219283"><ele>652.0</ele><time>2026-04-05T11:23:53.192Z</time></trkpt><trkpt lat="44.767175" lon="9.5220483"><ele>652.0</ele><time>2026-04-05T11:23:54.191Z</time></trkpt><trkpt lat="44.7671467" lon="9.5221967"><ele>652.0</ele><time>2026-04-05T11:23:55.19Z</time></trkpt><trkpt lat="44.767115" lon="9.5223667"><ele>652.0</ele><time>2026-04-05T11:23:56.191Z</time></trkpt><trkpt lat="44.7670733" lon="9.5225567"><ele>652.5</ele><time>2026-04-05T11:23:57.191Z</time></trkpt><trkpt lat="44.76703" lon="9.5227483"><ele>653.0</ele><time>2026-04-05T11:23:58.19Z</time></trkpt><trkpt lat="44.7669933" lon="9.522925"><ele>653.5</ele><time>2026-04-05T11:23:59.191Z</time></trkpt><trkpt lat="44.7669583" lon="9.5230917"><ele>654.0</ele><time>2026-04-05T11:24:00.189Z</time></trkpt><trkpt lat="44.7669233" lon="9.523235"><ele>655.5</ele><time>2026-04-05T11:24:01.189Z</time></trkpt><trkpt lat="44.7668867" lon="9.5233417"><ele>657.0</ele><time>2026-04-05T11:24:02.189Z</time></trkpt><trkpt lat="44.76685" lon="9.52342"><ele>658.5</ele><time>2026-04-05T11:24:03.19Z</time></trkpt><trkpt lat="44.76678" lon="9.52348"><ele>660.0</ele><time>2026-04-05T11:24:05.191Z</time></trkpt><trkpt lat="44.7667017" lon="9.5234083"><ele>661.5</ele><time>2026-04-05T11:24:07.191Z</time></trkpt><trkpt lat="44.7666767" lon="9.5233167"><ele>663.0</ele><time>2026-04-05T11:24:08.191Z</time></trkpt><trkpt lat="44.76665" lon="9.5232083"><ele>665.4</ele><time>2026-04-05T11:24:09.189Z</time></trkpt><trkpt lat="44.766615" lon="9.5231283"><ele>667.8</ele><time>2026-04-05T11:24:10.192Z</time></trkpt><trkpt lat="44.7665067" lon="9.5231117"><ele>670.2</ele><time>2026-04-05T11:24:12.189Z</time></trkpt><trkpt lat="44.766415" lon="9.5232417"><ele>672.6</ele><time>2026-04-05T11:24:14.19Z</time></trkpt><trkpt lat="44.7663717" lon="9.523375"><ele>675.0</ele><time>2026-04-05T11:24:15.189Z</time></trkpt><trkpt lat="44.7663217" lon="9.52353"><ele>675.0</ele><time>2026-04-05T11:24:16.189Z</time></trkpt><trkpt lat="44.7662567" lon="9.5236917"><ele>675.0</ele><time>2026-04-05T11:24:17.189Z</time></trkpt><trkpt lat="44.766195" lon="9.5238367"><ele>675.0</ele><time>2026-04-05T11:24:18.191Z</time></trkpt><trkpt lat="44.766135" lon="9.523955"><ele>675.0</ele><time>2026-04-05T11:24:19.192Z</time></trkpt><trkpt lat="44.7660767" lon="9.524035"><ele>675.0</ele><time>2026-04-05T11:24:20.191Z</time></trkpt><trkpt lat="44.7659733" lon="9.524095"><ele>678.2</ele><time>2026-04-05T11:24:22.191Z</time></trkpt><trkpt lat="44.7659083" lon="9.5240617"><ele>681.4</ele><time>2026-04-05T11:24:23.191Z</time></trkpt><trkpt lat="44.7658217" lon="9.523955"><ele>684.5999999999999</ele><time>2026-04-05T11:24:24.191Z</time></trkpt><trkpt lat="44.76574" lon="9.5238567"><ele>687.8</ele><time>2026-04-05T11:24:25.189Z</time></trkpt><trkpt lat="44.7656717" lon="9.52377"><ele>691.0</ele><time>2026-04-05T11:24:26.191Z</time></trkpt><trkpt lat="44.7656133" lon="9.5236933"><ele>691.0</ele><time>2026-04-05T11:24:27.192Z</time></trkpt><trkpt lat="44.7655567" lon="9.5236483"><ele>691.0</ele><time>2026-04-05T11:24:28.191Z</time></trkpt><trkpt lat="44.76545" lon="9.523685"><ele>691.0</ele><time>2026-04-05T11:24:30.191Z</time></trkpt><trkpt lat="44.765385" lon="9.5237417"><ele>691.0</ele><time>2026-04-05T11:24:31.191Z</time></trkpt><trkpt lat="44.7653117" lon="9.52383"><ele>691.0</ele><time>2026-04-05T11:24:32.191Z</time></trkpt><trkpt lat="44.7652183" lon="9.52394"><ele>692.6666666666667</ele><time>2026-04-05T11:24:33.19Z</time></trkpt><trkpt lat="44.76513" lon="9.5240367"><ele>694.3333333333334</ele><time>2026-04-05T11:24:34.191Z</time></trkpt><trkpt lat="44.76506" lon="9.5241217"><ele>696.0</ele><time>2026-04-05T11:24:35.189Z</time></trkpt><trkpt lat="44.7650083" lon="9.5242067"><ele>697.6666666666666</ele><time>2026-04-05T11:24:36.191Z</time></trkpt><trkpt lat="44.7649767" lon="9.5243033"><ele>699.3333333333333</ele><time>2026-04-05T11:24:37.191Z</time></trkpt><trkpt lat="44.76496" lon="9.5244033"><ele>701.0</ele><time>2026-04-05T11:24:38.19Z</time></trkpt><trkpt lat="44.76497" lon="9.5244917"><ele>701.4</ele><time>2026-04-05T11:24:39.191Z</time></trkpt><trkpt lat="44.7650017" lon="9.5245817"><ele>701.8</ele><time>2026-04-05T11:24:40.191Z</time></trkpt><trkpt lat="44.7650567" lon="9.5246933"><ele>702.1999999999999</ele><time>2026-04-05T11:24:41.191Z</time></trkpt><trkpt lat="44.7651433" lon="9.524825"><ele>702.5999999999999</ele><time>2026-04-05T11:24:42.19Z</time></trkpt><trkpt lat="44.7652317" lon="9.5249383"><ele>703.0</ele><time>2026-04-05T11:24:43.191Z</time></trkpt><trkpt lat="44.76531" lon="9.5250283"><ele>703.0</ele><time>2026-04-05T11:24:44.19Z</time></trkpt><trkpt lat="44.7653667" lon="9.5250967"><ele>703.0</ele><time>2026-04-05T11:24:45.189Z</time></trkpt><trkpt lat="44.7654333" lon="9.5251733"><ele>703.0</ele><time>2026-04-05T11:24:47.19Z</time></trkpt><trkpt lat="44.76537" lon="9.5251783"><ele>703.0</ele><time>2026-04-05T11:24:54.191Z</time></trkpt><trkpt lat="44.765275" lon="9.5251183"><ele>703.0</ele><time>2026-04-05T11:24:55.189Z</time></trkpt><trkpt lat="44.7651567" lon="9.5250583"><ele>706.75</ele><time>2026-04-05T11:24:56.192Z</time></trkpt><trkpt lat="44.765025" lon="9.5249933"><ele>710.5</ele><time>2026-04-05T11:24:57.188Z</time></trkpt><trkpt lat="44.7648917" lon="9.5249267"><ele>714.25</ele><time>2026-04-05T11:24:58.191Z</time></trkpt><trkpt lat="44.7647767" lon="9.5248333"><ele>718.0</ele><time>2026-04-05T11:24:59.19Z</time></trkpt><trkpt lat="44.7646683" lon="9.5247117"><ele>718.0</ele><time>2026-04-05T11:25:00.189Z</time></trkpt><trkpt lat="44.7645733" lon="9.52459"><ele>718.0</ele><time>2026-04-05T11:25:01.191Z</time></trkpt><trkpt lat="44.7644733" lon="9.524495"><ele>718.0</ele><time>2026-04-05T11:25:02.191Z</time></trkpt><trkpt lat="44.7643717" lon="9.52443"><ele>718.0</ele><time>2026-04-05T11:25:03.19Z</time></trkpt><trkpt lat="44.7642867" lon="9.5243733"><ele>718.6666666666667</ele><time>2026-04-05T11:25:04.19Z</time></trkpt><trkpt lat="44.7642183" lon="9.5243117"><ele>719.3333333333334</ele><time>2026-04-05T11:25:05.191Z</time></trkpt><trkpt lat="44.7641633" lon="9.5242367"><ele>720.0</ele><time>2026-04-05T11:25:06.191Z</time></trkpt><trkpt lat="44.76413" lon="9.52414"><ele>720.6666666666666</ele><time>2026-04-05T11:25:07.19Z</time></trkpt><trkpt lat="44.7641133" lon="9.52402"><ele>721.3333333333333</ele><time>2026-04-05T11:25:08.192Z</time></trkpt><trkpt lat="44.764125" lon="9.52388"><ele>722.0</ele><time>2026-04-05T11:25:09.19Z</time></trkpt><trkpt lat="44.7641683" lon="9.5237483"><ele>720.8</ele><time>2026-04-05T11:25:10.19Z</time></trkpt><trkpt lat="44.7642" lon="9.523625"><ele>719.6</ele><time>2026-04-05T11:25:11.191Z</time></trkpt><trkpt lat="44.7642133" lon="9.5235"><ele>718.4</ele><time>2026-04-05T11:25:12.19Z</time></trkpt><trkpt lat="44.76421" lon="9.52338"><ele>717.1999999999999</ele><time>2026-04-05T11:25:13.19Z</time></trkpt><trkpt lat="44.7641683" lon="9.52327"><ele>716.0</ele><time>2026-04-05T11:25:14.191Z</time></trkpt><trkpt lat="44.76407" lon="9.52314"><ele>716.0</ele><time>2026-04-05T11:25:15.192Z</time></trkpt><trkpt lat="44.7639667" lon="9.5229917"><ele>716.0</ele><time>2026-04-05T11:25:16.19Z</time></trkpt><trkpt lat="44.763875" lon="9.5228467"><ele>716.0</ele><time>2026-04-05T11:25:17.191Z</time></trkpt><trkpt lat="44.7637633" lon="9.52272"><ele>716.0</ele><time>2026-04-05T11:25:18.191Z</time></trkpt><trkpt lat="44.7636417" lon="9.5225933"><ele>717.25</ele><time>2026-04-05T11:25:19.19Z</time></trkpt><trkpt lat="44.7635183" lon="9.522455"><ele>718.5</ele><time>2026-04-05T11:25:20.191Z</time></trkpt><trkpt lat="44.763405" lon="9.5223133"><ele>719.75</ele><time>2026-04-05T11:25:21.189Z</time></trkpt><trkpt lat="44.7633183" lon="9.5221733"><ele>721.0</ele><time>2026-04-05T11:25:22.191Z</time></trkpt><trkpt lat="44.7632433" lon="9.5220417"><ele>718.5999999999999</ele><time>2026-04-05T11:25:23.191Z</time></trkpt><trkpt lat="44.7631767" lon="9.521935"><ele>716.2</ele><time>2026-04-05T11:25:24.191Z</time></trkpt><trkpt lat="44.7631083" lon="9.52186"><ele>713.8</ele><time>2026-04-05T11:25:25.191Z</time></trkpt><trkpt lat="44.7630283" lon="9.5218117"><ele>711.4000000000001</ele><time>2026-04-05T11:25:26.19Z</time></trkpt><trkpt lat="44.7629367" lon="9.5217917"><ele>709.0</ele><time>2026-04-05T11:25:27.189Z</time></trkpt><trkpt lat="44.7628483" lon="9.5217767"><ele>709.0</ele><time>2026-04-05T11:25:28.19Z</time></trkpt><trkpt lat="44.7627717" lon="9.5217567"><ele>709.0</ele><time>2026-04-05T11:25:29.191Z</time></trkpt><trkpt lat="44.762705" lon="9.5217067"><ele>709.0</ele><time>2026-04-05T11:25:30.191Z</time></trkpt><trkpt lat="44.7626533" lon="9.5216317"><ele>709.0</ele><time>2026-04-05T11:25:31.191Z</time></trkpt><trkpt lat="44.7626233" lon="9.52153"><ele>709.0</ele><time>2026-04-05T11:25:32.189Z</time></trkpt><trkpt lat="44.7626317" lon="9.5214117"><ele>709.0</ele><time>2026-04-05T11:25:33.192Z</time></trkpt><trkpt lat="44.7626517" lon="9.5213067"><ele>712.6666666666667</ele><time>2026-04-05T11:25:34.192Z</time></trkpt><trkpt lat="44.7626533" lon="9.521195"><ele>716.3333333333334</ele><time>2026-04-05T11:25:35.192Z</time></trkpt><trkpt lat="44.76264" lon="9.5210733"><ele>720.0</ele><time>2026-04-05T11:25:36.19Z</time></trkpt><trkpt lat="44.7626233" lon="9.52095"><ele>723.6666666666666</ele><time>2026-04-05T11:25:37.191Z</time></trkpt><trkpt lat="44.7626183" lon="9.5208383"><ele>727.3333333333333</ele><time>2026-04-05T11:25:38.19Z</time></trkpt><trkpt lat="44.7626333" lon="9.5207367"><ele>731.0</ele><time>2026-04-05T11:25:39.191Z</time></trkpt><trkpt lat="44.7626817" lon="9.5206367"><ele>726.5</ele><time>2026-04-05T11:25:40.19Z</time></trkpt><trkpt lat="44.7627633" lon="9.5205117"><ele>722.0</ele><time>2026-04-05T11:25:41.189Z</time></trkpt><trkpt lat="44.7628817" lon="9.520345"><ele>717.5</ele><time>2026-04-05T11:25:42.191Z</time></trkpt><trkpt lat="44.762995" lon="9.520185"><ele>713.0</ele><time>2026-04-05T11:25:43.191Z</time></trkpt><trkpt lat="44.7631167" lon="9.52004"><ele>713.0</ele><time>2026-04-05T11:25:44.19Z</time></trkpt><trkpt lat="44.7632317" lon="9.519905"><ele>713.0</ele><time>2026-04-05T11:25:45.19Z</time></trkpt><trkpt lat="44.7633383" lon="9.519755"><ele>713.0</ele><time>2026-04-05T11:25:46.191Z</time></trkpt><trkpt lat="44.76343" lon="9.5195933"><ele>713.0</ele><time>2026-04-05T11:25:47.191Z</time></trkpt><trkpt lat="44.7635083" lon="9.51944"><ele>707.5</ele><time>2026-04-05T11:25:48.191Z</time></trkpt><trkpt lat="44.76357" lon="9.5192883"><ele>702.0</ele><time>2026-04-05T11:25:49.191Z</time></trkpt><trkpt lat="44.763615" lon="9.51912"><ele>696.5</ele><time>2026-04-05T11:25:50.192Z</time></trkpt><trkpt lat="44.76364" lon="9.5189383"><ele>691.0</ele><time>2026-04-05T11:25:51.188Z</time></trkpt><trkpt lat="44.7636533" lon="9.5187517"><ele>693.4</ele><time>2026-04-05T11:25:52.191Z</time></trkpt><trkpt lat="44.7636667" lon="9.5185817"><ele>695.8</ele><time>2026-04-05T11:25:53.191Z</time></trkpt><trkpt lat="44.7636983" lon="9.5184317"><ele>698.1999999999999</ele><time>2026-04-05T11:25:54.191Z</time></trkpt><trkpt lat="44.7637433" lon="9.518295"><ele>700.5999999999999</ele><time>2026-04-05T11:25:55.191Z</time></trkpt><trkpt lat="44.763795" lon="9.5181733"><ele>703.0</ele><time>2026-04-05T11:25:56.191Z</time></trkpt><trkpt lat="44.7638333" lon="9.5180633"><ele>703.0</ele><time>2026-04-05T11:25:57.191Z</time></trkpt><trkpt lat="44.763855" lon="9.5179583"><ele>703.0</ele><time>2026-04-05T11:25:58.191Z</time></trkpt><trkpt lat="44.76385" lon="9.5178533"><ele>703.0</ele><time>2026-04-05T11:25:59.192Z</time></trkpt><trkpt lat="44.7637983" lon="9.517725"><ele>703.0</ele><time>2026-04-05T11:26:00.191Z</time></trkpt><trkpt lat="44.7637333" lon="9.5175633"><ele>703.0</ele><time>2026-04-05T11:26:01.191Z</time></trkpt><trkpt lat="44.7636617" lon="9.5173867"><ele>703.25</ele><time>2026-04-05T11:26:02.191Z</time></trkpt><trkpt lat="44.7636017" lon="9.517215"><ele>703.5</ele><time>2026-04-05T11:26:03.191Z</time></trkpt><trkpt lat="44.7635683" lon="9.517045"><ele>703.75</ele><time>2026-04-05T11:26:04.19Z</time></trkpt><trkpt lat="44.7635533" lon="9.5168767"><ele>704.0</ele><time>2026-04-05T11:26:05.191Z</time></trkpt><trkpt lat="44.7635483" lon="9.5167133"><ele>704.0</ele><time>2026-04-05T11:26:06.192Z</time></trkpt><trkpt lat="44.7635367" lon="9.5165583"><ele>704.0</ele><time>2026-04-05T11:26:07.192Z</time></trkpt><trkpt lat="44.7635133" lon="9.51642"><ele>704.0</ele><time>2026-04-05T11:26:08.192Z</time></trkpt><trkpt lat="44.7634767" lon="9.5163083"><ele>704.0</ele><time>2026-04-05T11:26:09.191Z</time></trkpt><trkpt lat="44.76342" lon="9.5162083"><ele>704.0</ele><time>2026-04-05T11:26:10.19Z</time></trkpt><trkpt lat="44.7633367" lon="9.516135"><ele>705.75</ele><time>2026-04-05T11:26:11.189Z</time></trkpt><trkpt lat="44.76323" lon="9.5160817"><ele>707.5</ele><time>2026-04-05T11:26:12.195Z</time></trkpt><trkpt lat="44.7631217" lon="9.516035"><ele>709.25</ele><time>2026-04-05T11:26:13.191Z</time></trkpt><trkpt lat="44.76301" lon="9.5159933"><ele>711.0</ele><time>2026-04-05T11:26:14.191Z</time></trkpt><trkpt lat="44.762885" lon="9.5159617"><ele>711.0</ele><time>2026-04-05T11:26:15.19Z</time></trkpt><trkpt lat="44.762755" lon="9.5159417"><ele>711.0</ele><time>2026-04-05T11:26:16.189Z</time></trkpt><trkpt lat="44.7626333" lon="9.5159267"><ele>711.0</ele><time>2026-04-05T11:26:17.189Z</time></trkpt><trkpt lat="44.76254" lon="9.5159"><ele>711.0</ele><time>2026-04-05T11:26:18.189Z</time></trkpt><trkpt lat="44.7624733" lon="9.515855"><ele>711.0</ele><time>2026-04-05T11:26:19.191Z</time></trkpt><trkpt lat="44.7624183" lon="9.515785"><ele>712.8333333333334</ele><time>2026-04-05T11:26:20.191Z</time></trkpt><trkpt lat="44.762415" lon="9.51568"><ele>714.6666666666666</ele><time>2026-04-05T11:26:21.191Z</time></trkpt><trkpt lat="44.762425" lon="9.5155733"><ele>716.5</ele><time>2026-04-05T11:26:22.189Z</time></trkpt><trkpt lat="44.762445" lon="9.515465"><ele>718.3333333333333</ele><time>2026-04-05T11:26:23.191Z</time></trkpt><trkpt lat="44.76246" lon="9.51534"><ele>720.1666666666666</ele><time>2026-04-05T11:26:24.192Z</time></trkpt><trkpt lat="44.76245" lon="9.515195"><ele>722.0</ele><time>2026-04-05T11:26:25.192Z</time></trkpt><trkpt lat="44.762395" lon="9.5150017"><ele>722.0</ele><time>2026-04-05T11:26:26.191Z</time></trkpt><trkpt lat="44.762325" lon="9.5148017"><ele>722.0</ele><time>2026-04-05T11:26:27.188Z</time></trkpt><trkpt lat="44.762255" lon="9.5146083"><ele>722.0</ele><time>2026-04-05T11:26:28.19Z</time></trkpt><trkpt lat="44.7622" lon="9.5144367"><ele>722.0</ele><time>2026-04-05T11:26:29.191Z</time></trkpt><trkpt lat="44.762145" lon="9.5143067"><ele>721.2</ele><time>2026-04-05T11:26:30.191Z</time></trkpt><trkpt lat="44.7620783" lon="9.5142133"><ele>720.4000000000001</ele><time>2026-04-05T11:26:31.189Z</time></trkpt><trkpt lat="44.7619883" lon="9.5141483"><ele>719.5999999999999</ele><time>2026-04-05T11:26:32.19Z</time></trkpt><trkpt lat="44.7618783" lon="9.5140917"><ele>718.8</ele><time>2026-04-05T11:26:33.191Z</time></trkpt><trkpt lat="44.76177" lon="9.5140183"><ele>718.0</ele><time>2026-04-05T11:26:34.192Z</time></trkpt><trkpt lat="44.76167" lon="9.5139083"><ele>719.4</ele><time>2026-04-05T11:26:35.19Z</time></trkpt><trkpt lat="44.7615817" lon="9.5137767"><ele>720.8</ele><time>2026-04-05T11:26:36.191Z</time></trkpt><trkpt lat="44.7615" lon="9.5136683"><ele>722.2</ele><time>2026-04-05T11:26:37.192Z</time></trkpt><trkpt lat="44.7614117" lon="9.513605"><ele>723.6</ele><time>2026-04-05T11:26:38.191Z</time></trkpt><trkpt lat="44.76133" lon="9.51357"><ele>725.0</ele><time>2026-04-05T11:26:39.193Z</time></trkpt><trkpt lat="44.761235" lon="9.513565"><ele>725.0</ele><time>2026-04-05T11:26:40.189Z</time></trkpt><trkpt lat="44.7611133" lon="9.513585"><ele>725.0</ele><time>2026-04-05T11:26:41.19Z</time></trkpt><trkpt lat="44.7609583" lon="9.5136067"><ele>725.0</ele><time>2026-04-05T11:26:42.192Z</time></trkpt><trkpt lat="44.7607883" lon="9.5136317"><ele>725.0</ele><time>2026-04-05T11:26:43.191Z</time></trkpt><trkpt lat="44.7606183" lon="9.513655"><ele>726.0</ele><time>2026-04-05T11:26:44.19Z</time></trkpt><trkpt lat="44.7604567" lon="9.5136583"><ele>727.0</ele><time>2026-04-05T11:26:45.191Z</time></trkpt><trkpt lat="44.7602917" lon="9.513635"><ele>728.0</ele><time>2026-04-05T11:26:46.192Z</time></trkpt><trkpt lat="44.76013" lon="9.5136217"><ele>729.0</ele><time>2026-04-05T11:26:47.19Z</time></trkpt><trkpt lat="44.7599783" lon="9.51363"><ele>730.0</ele><time>2026-04-05T11:26:48.191Z</time></trkpt><trkpt lat="44.7598533" lon="9.5136383"><ele>731.0</ele><time>2026-04-05T11:26:49.19Z</time></trkpt><trkpt lat="44.7597517" lon="9.5136233"><ele>732.0</ele><time>2026-04-05T11:26:50.191Z</time></trkpt><trkpt lat="44.7596783" lon="9.5135767"><ele>732.0</ele><time>2026-04-05T11:26:51.192Z</time></trkpt><trkpt lat="44.759615" lon="9.5135"><ele>732.0</ele><time>2026-04-05T11:26:52.191Z</time></trkpt><trkpt lat="44.7595633" lon="9.5134083"><ele>732.0</ele><time>2026-04-05T11:26:53.189Z</time></trkpt><trkpt lat="44.7595017" lon="9.51333"><ele>732.0</ele><time>2026-04-05T11:26:54.188Z</time></trkpt><trkpt lat="44.75942" lon="9.513285"><ele>732.0</ele><time>2026-04-05T11:26:55.19Z</time></trkpt><trkpt lat="44.759305" lon="9.51329"><ele>733.25</ele><time>2026-04-05T11:26:56.191Z</time></trkpt><trkpt lat="44.7591717" lon="9.513355"><ele>734.5</ele><time>2026-04-05T11:26:57.191Z</time></trkpt><trkpt lat="44.7590517" lon="9.5134283"><ele>735.75</ele><time>2026-04-05T11:26:58.191Z</time></trkpt><trkpt lat="44.7589483" lon="9.5135183"><ele>737.0</ele><time>2026-04-05T11:26:59.191Z</time></trkpt><trkpt lat="44.7588583" lon="9.5136283"><ele>740.5</ele><time>2026-04-05T11:27:00.192Z</time></trkpt><trkpt lat="44.7587817" lon="9.51375"><ele>744.0</ele><time>2026-04-05T11:27:01.191Z</time></trkpt><trkpt lat="44.7587133" lon="9.5138917"><ele>747.5</ele><time>2026-04-05T11:27:02.192Z</time></trkpt><trkpt lat="44.75864" lon="9.514055"><ele>751.0</ele><time>2026-04-05T11:27:03.191Z</time></trkpt><trkpt lat="44.758555" lon="9.5142283"><ele>751.75</ele><time>2026-04-05T11:27:04.189Z</time></trkpt><trkpt lat="44.7584633" lon="9.5144"><ele>752.5</ele><time>2026-04-05T11:27:05.19Z</time></trkpt><trkpt lat="44.7583683" lon="9.5145633"><ele>753.25</ele><time>2026-04-05T11:27:06.192Z</time></trkpt><trkpt lat="44.7582683" lon="9.51469"><ele>754.0</ele><time>2026-04-05T11:27:07.192Z</time></trkpt><trkpt lat="44.75814" lon="9.5147833"><ele>754.0</ele><time>2026-04-05T11:27:08.191Z</time></trkpt><trkpt lat="44.758005" lon="9.5148683"><ele>754.0</ele><time>2026-04-05T11:27:09.193Z</time></trkpt><trkpt lat="44.7578817" lon="9.5149533"><ele>754.0</ele><time>2026-04-05T11:27:10.192Z</time></trkpt><trkpt lat="44.7577617" lon="9.5150267"><ele>754.0</ele><time>2026-04-05T11:27:11.19Z</time></trkpt><trkpt lat="44.75764" lon="9.5150583"><ele>753.25</ele><time>2026-04-05T11:27:12.191Z</time></trkpt><trkpt lat="44.75752" lon="9.5150367"><ele>752.5</ele><time>2026-04-05T11:27:13.191Z</time></trkpt><trkpt lat="44.757395" lon="9.51497"><ele>751.75</ele><time>2026-04-05T11:27:14.19Z</time></trkpt><trkpt lat="44.7572733" lon="9.5148817"><ele>751.0</ele><time>2026-04-05T11:27:15.191Z</time></trkpt><trkpt lat="44.7571717" lon="9.5147583"><ele>751.0</ele><time>2026-04-05T11:27:16.19Z</time></trkpt><trkpt lat="44.7570933" lon="9.5146"><ele>751.0</ele><time>2026-04-05T11:27:17.191Z</time></trkpt><trkpt lat="44.7570267" lon="9.5144217"><ele>751.0</ele><time>2026-04-05T11:27:18.191Z</time></trkpt><trkpt lat="44.7569567" lon="9.514245"><ele>751.0</ele><time>2026-04-05T11:27:19.191Z</time></trkpt><trkpt lat="44.75689" lon="9.514085"><ele>750.8</ele><time>2026-04-05T11:27:20.191Z</time></trkpt><trkpt lat="44.756835" lon="9.5139517"><ele>750.5999999999999</ele><time>2026-04-05T11:27:21.191Z</time></trkpt><trkpt lat="44.7567883" lon="9.5138433"><ele>750.4</ele><time>2026-04-05T11:27:22.19Z</time></trkpt><trkpt lat="44.75674" lon="9.5137583"><ele>750.2</ele><time>2026-04-05T11:27:23.191Z</time></trkpt><trkpt lat="44.7566667" lon="9.5137083"><ele>750.0</ele><time>2026-04-05T11:27:24.19Z</time></trkpt><trkpt lat="44.7565683" lon="9.513685"><ele>748.5</ele><time>2026-04-05T11:27:25.191Z</time></trkpt><trkpt lat="44.75644" lon="9.51368"><ele>747.0</ele><time>2026-04-05T11:27:26.192Z</time></trkpt><trkpt lat="44.7562983" lon="9.513665"><ele>745.5</ele><time>2026-04-05T11:27:27.19Z</time></trkpt><trkpt lat="44.7561333" lon="9.513635"><ele>744.0</ele><time>2026-04-05T11:27:28.19Z</time></trkpt><trkpt lat="44.7559583" lon="9.513595"><ele>743.6666666666666</ele><time>2026-04-05T11:27:29.192Z</time></trkpt><trkpt lat="44.7557933" lon="9.5135483"><ele>743.3333333333333</ele><time>2026-04-05T11:27:30.19Z</time></trkpt><trkpt lat="44.7556483" lon="9.51349"><ele>743.0</ele><time>2026-04-05T11:27:31.191Z</time></trkpt><trkpt lat="44.75552" lon="9.5134233"><ele>743.0</ele><time>2026-04-05T11:27:32.19Z</time></trkpt><trkpt lat="44.7554083" lon="9.5133667"><ele>743.0</ele><time>2026-04-05T11:27:33.189Z</time></trkpt><trkpt lat="44.75532" lon="9.5133267"><ele>743.0</ele><time>2026-04-05T11:27:34.191Z</time></trkpt><trkpt lat="44.7552367" lon="9.5133067"><ele>743.0</ele><time>2026-04-05T11:27:35.189Z</time></trkpt><trkpt lat="44.7551517" lon="9.5133017"><ele>743.0</ele><time>2026-04-05T11:27:36.189Z</time></trkpt><trkpt lat="44.7550617" lon="9.5133117"><ele>743.5</ele><time>2026-04-05T11:27:37.189Z</time></trkpt><trkpt lat="44.7549783" lon="9.51334"><ele>744.0</ele><time>2026-04-05T11:27:38.191Z</time></trkpt><trkpt lat="44.7549017" lon="9.5133767"><ele>744.5</ele><time>2026-04-05T11:27:39.19Z</time></trkpt><trkpt lat="44.7548233" lon="9.5134217"><ele>745.0</ele><time>2026-04-05T11:27:40.191Z</time></trkpt><trkpt lat="44.754745" lon="9.51348"><ele>745.5</ele><time>2026-04-05T11:27:41.192Z</time></trkpt><trkpt lat="44.7546817" lon="9.51354"><ele>746.0</ele><time>2026-04-05T11:27:42.191Z</time></trkpt><trkpt lat="44.754605" lon="9.5136"><ele>746.0</ele><time>2026-04-05T11:27:43.191Z</time></trkpt><trkpt lat="44.7545467" lon="9.513645"><ele>746.0</ele><time>2026-04-05T11:27:44.192Z</time></trkpt><trkpt lat="44.7544517" lon="9.513695"><ele>746.0</ele><time>2026-04-05T11:27:46.19Z</time></trkpt><trkpt lat="44.7543883" lon="9.51371"><ele>746.0</ele><time>2026-04-05T11:27:48.193Z</time></trkpt><trkpt lat="44.7543067" lon="9.5137033"><ele>746.0</ele><time>2026-04-05T11:27:50.192Z</time></trkpt><trkpt lat="44.7541933" lon="9.51371"><ele>746.0</ele><time>2026-04-05T11:27:52.191Z</time></trkpt><trkpt lat="44.75407" lon="9.51373"><ele>745.5</ele><time>2026-04-05T11:27:54.191Z</time></trkpt><trkpt lat="44.7540033" lon="9.513755"><ele>745.0</ele><time>2026-04-05T11:27:55.192Z</time></trkpt><trkpt lat="44.753935" lon="9.51377"><ele>744.5</ele><time>2026-04-05T11:27:56.192Z</time></trkpt><trkpt lat="44.7538717" lon="9.5137733"><ele>744.0</ele><time>2026-04-05T11:27:57.19Z</time></trkpt><trkpt lat="44.753765" lon="9.5136967"><ele>743.5</ele><time>2026-04-05T11:27:59.19Z</time></trkpt><trkpt lat="44.7537167" lon="9.5136083"><ele>743.0</ele><time>2026-04-05T11:28:00.189Z</time></trkpt><trkpt lat="44.7536683" lon="9.5135067"><ele>743.0</ele><time>2026-04-05T11:28:01.191Z</time></trkpt><trkpt lat="44.7536317" lon="9.5133767"><ele>743.0</ele><time>2026-04-05T11:28:02.191Z</time></trkpt><trkpt lat="44.7535983" lon="9.513265"><ele>743.0</ele><time>2026-04-05T11:28:03.191Z</time></trkpt><trkpt lat="44.7535717" lon="9.5131567"><ele>743.0</ele><time>2026-04-05T11:28:04.19Z</time></trkpt><trkpt lat="44.753535" lon="9.5130683"><ele>743.0</ele><time>2026-04-05T11:28:05.19Z</time></trkpt><trkpt lat="44.7534817" lon="9.513"><ele>743.0</ele><time>2026-04-05T11:28:06.189Z</time></trkpt><trkpt lat="44.7534317" lon="9.51294"><ele>742.5</ele><time>2026-04-05T11:28:07.191Z</time></trkpt><trkpt lat="44.7533567" lon="9.5129083"><ele>742.0</ele><time>2026-04-05T11:28:08.191Z</time></trkpt><trkpt lat="44.753235" lon="9.5129"><ele>741.5</ele><time>2026-04-05T11:28:09.19Z</time></trkpt><trkpt lat="44.7530983" lon="9.5129"><ele>741.0</ele><time>2026-04-05T11:28:10.19Z</time></trkpt><trkpt lat="44.752985" lon="9.5128967"><ele>741.0</ele><time>2026-04-05T11:28:11.19Z</time></trkpt><trkpt lat="44.7528833" lon="9.512905"><ele>741.0</ele><time>2026-04-05T11:28:12.191Z</time></trkpt><trkpt lat="44.75279" lon="9.5129317"><ele>741.0</ele><time>2026-04-05T11:28:13.191Z</time></trkpt><trkpt lat="44.752705" lon="9.5129633"><ele>741.0</ele><time>2026-04-05T11:28:14.191Z</time></trkpt><trkpt lat="44.752625" lon="9.5129867"><ele>741.0</ele><time>2026-04-05T11:28:15.19Z</time></trkpt><trkpt lat="44.752555" lon="9.5129783"><ele>741.0</ele><time>2026-04-05T11:28:16.189Z</time></trkpt><trkpt lat="44.7524917" lon="9.5129483"><ele>739.5714285714286</ele><time>2026-04-05T11:28:17.189Z</time></trkpt><trkpt lat="44.7524367" lon="9.5128967"><ele>738.1428571428572</ele><time>2026-04-05T11:28:18.191Z</time></trkpt><trkpt lat="44.7523967" lon="9.5128217"><ele>736.7142857142858</ele><time>2026-04-05T11:28:19.191Z</time></trkpt><trkpt lat="44.752375" lon="9.5127283"><ele>735.2857142857142</ele><time>2026-04-05T11:28:20.192Z</time></trkpt><trkpt lat="44.752375" lon="9.5126267"><ele>733.8571428571429</ele><time>2026-04-05T11:28:21.191Z</time></trkpt><trkpt lat="44.7524" lon="9.5125283"><ele>732.4285714285714</ele><time>2026-04-05T11:28:22.191Z</time></trkpt><trkpt lat="44.7524717" lon="9.5124517"><ele>731.0</ele><time>2026-04-05T11:28:23.191Z</time></trkpt><trkpt lat="44.7525333" lon="9.51238"><ele>731.0</ele><time>2026-04-05T11:28:24.191Z</time></trkpt><trkpt lat="44.7525833" lon="9.5122967"><ele>731.0</ele><time>2026-04-05T11:28:25.191Z</time></trkpt><trkpt lat="44.75261" lon="9.512205"><ele>731.0</ele><time>2026-04-05T11:28:26.191Z</time></trkpt><trkpt lat="44.7526167" lon="9.5120933"><ele>731.0</ele><time>2026-04-05T11:28:27.191Z</time></trkpt><trkpt lat="44.7526133" lon="9.5119467"><ele>731.0</ele><time>2026-04-05T11:28:28.192Z</time></trkpt><trkpt lat="44.7526233" lon="9.5118033"><ele>731.0</ele><time>2026-04-05T11:28:29.191Z</time></trkpt><trkpt lat="44.75265" lon="9.5116617"><ele>729.1999999999999</ele><time>2026-04-05T11:28:30.192Z</time></trkpt><trkpt lat="44.7526883" lon="9.51154"><ele>727.4</ele><time>2026-04-05T11:28:31.189Z</time></trkpt><trkpt lat="44.7527233" lon="9.511435"><ele>725.6</ele><time>2026-04-05T11:28:32.189Z</time></trkpt><trkpt lat="44.7527383" lon="9.51128"><ele>723.8</ele><time>2026-04-05T11:28:34.191Z</time></trkpt><trkpt lat="44.7526733" lon="9.5111367"><ele>722.0</ele><time>2026-04-05T11:28:36.192Z</time></trkpt><trkpt lat="44.7526083" lon="9.5110683"><ele>719.5</ele><time>2026-04-05T11:28:37.192Z</time></trkpt><trkpt lat="44.7525067" lon="9.510995"><ele>717.0</ele><time>2026-04-05T11:28:38.191Z</time></trkpt><trkpt lat="44.7523933" lon="9.51091"><ele>714.5</ele><time>2026-04-05T11:28:39.19Z</time></trkpt><trkpt lat="44.752285" lon="9.51082"><ele>712.0</ele><time>2026-04-05T11:28:40.192Z</time></trkpt><trkpt lat="44.75218" lon="9.5107333"><ele>712.0</ele><time>2026-04-05T11:28:41.192Z</time></trkpt><trkpt lat="44.752085" lon="9.5106583"><ele>712.0</ele><time>2026-04-05T11:28:42.191Z</time></trkpt><trkpt lat="44.7519933" lon="9.5106017"><ele>712.0</ele><time>2026-04-05T11:28:43.19Z</time></trkpt><trkpt lat="44.7519033" lon="9.5105633"><ele>712.0</ele><time>2026-04-05T11:28:44.191Z</time></trkpt><trkpt lat="44.75181" lon="9.5105417"><ele>712.0</ele><time>2026-04-05T11:28:45.191Z</time></trkpt><trkpt lat="44.75172" lon="9.5105267"><ele>712.0</ele><time>2026-04-05T11:28:46.192Z</time></trkpt><trkpt lat="44.751635" lon="9.5105117"><ele>712.0</ele><time>2026-04-05T11:28:47.19Z</time></trkpt><trkpt lat="44.751565" lon="9.5104917"><ele>712.0</ele><time>2026-04-05T11:28:48.19Z</time></trkpt><trkpt lat="44.7515033" lon="9.5104583"><ele>712.0</ele><time>2026-04-05T11:28:49.191Z</time></trkpt><trkpt lat="44.751445" lon="9.510415"><ele>712.0</ele><time>2026-04-05T11:28:50.191Z</time></trkpt><trkpt lat="44.7513517" lon="9.510325"><ele>712.0</ele><time>2026-04-05T11:28:52.191Z</time></trkpt><trkpt lat="44.751265" lon="9.5103033"><ele>712.0</ele><time>2026-04-05T11:29:01.192Z</time></trkpt><trkpt lat="44.751235" lon="9.5104317"><ele>712.0</ele><time>2026-04-05T11:29:04.191Z</time></trkpt><trkpt lat="44.751225" lon="9.5105267"><ele>712.0</ele><time>2026-04-05T11:29:05.191Z</time></trkpt><trkpt lat="44.751215" lon="9.5106467"><ele>712.0</ele><time>2026-04-05T11:29:06.191Z</time></trkpt><trkpt lat="44.7512067" lon="9.5107667"><ele>712.0</ele><time>2026-04-05T11:29:07.19Z</time></trkpt><trkpt lat="44.7511983" lon="9.5108817"><ele>712.0</ele><time>2026-04-05T11:29:08.191Z</time></trkpt><trkpt lat="44.7511833" lon="9.510985"><ele>712.0</ele><time>2026-04-05T11:29:09.191Z</time></trkpt><trkpt lat="44.7511633" lon="9.5110767"><ele>712.0</ele><time>2026-04-05T11:29:10.191Z</time></trkpt><trkpt lat="44.7511317" lon="9.5111583"><ele>712.0</ele><time>2026-04-05T11:29:11.19Z</time></trkpt><trkpt lat="44.7510467" lon="9.5112817"><ele>712.0</ele><time>2026-04-05T11:29:13.191Z</time></trkpt><trkpt lat="44.7509583" lon="9.51134"><ele>712.0</ele><time>2026-04-05T11:29:15.189Z</time></trkpt><trkpt lat="44.7508933" lon="9.51135"><ele>712.0</ele><time>2026-04-05T11:29:17.188Z</time></trkpt><trkpt lat="44.7508167" lon="9.5113883"><ele>712.0</ele><time>2026-04-05T11:29:49.193Z</time></trkpt><trkpt lat="44.7509033" lon="9.5113817"><ele>712.0</ele><time>2026-04-05T11:30:02.192Z</time></trkpt><trkpt lat="44.7510133" lon="9.5113333"><ele>712.0</ele><time>2026-04-05T11:30:04.191Z</time></trkpt><trkpt lat="44.7510983" lon="9.511245"><ele>712.0</ele><time>2026-04-05T11:30:06.189Z</time></trkpt><trkpt lat="44.751165" lon="9.5111067"><ele>712.0</ele><time>2026-04-05T11:30:08.191Z</time></trkpt><trkpt lat="44.7511917" lon="9.5110233"><ele>712.0</ele><time>2026-04-05T11:30:09.191Z</time></trkpt><trkpt lat="44.7512083" lon="9.5109283"><ele>712.0</ele><time>2026-04-05T11:30:10.19Z</time></trkpt><trkpt lat="44.7512183" lon="9.5108133"><ele>712.0</ele><time>2026-04-05T11:30:11.19Z</time></trkpt><trkpt lat="44.7512267" lon="9.5106783"><ele>712.0</ele><time>2026-04-05T11:30:12.19Z</time></trkpt><trkpt lat="44.75123" lon="9.51055"><ele>712.0</ele><time>2026-04-05T11:30:13.191Z</time></trkpt><trkpt lat="44.7512417" lon="9.5104417"><ele>712.0</ele><time>2026-04-05T11:30:14.19Z</time></trkpt><trkpt lat="44.7512733" lon="9.51031"><ele>710.5714285714286</ele><time>2026-04-05T11:30:16.191Z</time></trkpt><trkpt lat="44.7513033" lon="9.5101967"><ele>709.1428571428571</ele><time>2026-04-05T11:30:29.19Z</time></trkpt><trkpt lat="44.7513217" lon="9.51011"><ele>707.7142857142858</ele><time>2026-04-05T11:30:31.191Z</time></trkpt><trkpt lat="44.7513767" lon="9.5100167"><ele>706.2857142857142</ele><time>2026-04-05T11:30:34.19Z</time></trkpt><trkpt lat="44.7514467" lon="9.5099717"><ele>704.8571428571429</ele><time>2026-04-05T11:30:37.191Z</time></trkpt><trkpt lat="44.7515117" lon="9.5099517"><ele>703.4285714285714</ele><time>2026-04-05T11:30:39.19Z</time></trkpt><trkpt lat="44.7515717" lon="9.5099867"><ele>702.0</ele><time>2026-04-05T11:30:42.191Z</time></trkpt><trkpt lat="44.7515783" lon="9.5100967"><ele>702.0</ele><time>2026-04-05T11:30:45.19Z</time></trkpt><trkpt lat="44.751575" lon="9.5101967"><ele>702.0</ele><time>2026-04-05T11:30:47.19Z</time></trkpt><trkpt lat="44.75158" lon="9.5102983"><ele>702.0</ele><time>2026-04-05T11:30:49.19Z</time></trkpt><trkpt lat="44.75159" lon="9.5103917"><ele>702.0</ele><time>2026-04-05T11:30:51.191Z</time></trkpt><trkpt lat="44.7516083" lon="9.5104983"><ele>702.0</ele><time>2026-04-05T11:30:54.19Z</time></trkpt><trkpt lat="44.7517417" lon="9.5105433"><ele>702.0</ele><time>2026-04-05T11:31:13.192Z</time></trkpt><trkpt lat="44.7518183" lon="9.5105617"><ele>704.5</ele><time>2026-04-05T11:31:14.191Z</time></trkpt><trkpt lat="44.751985" lon="9.5106283"><ele>707.0</ele><time>2026-04-05T11:31:16.192Z</time></trkpt><trkpt lat="44.7520667" lon="9.5106817"><ele>709.5</ele><time>2026-04-05T11:31:17.191Z</time></trkpt><trkpt lat="44.7521467" lon="9.5107517"><ele>712.0</ele><time>2026-04-05T11:31:18.189Z</time></trkpt><trkpt lat="44.7522333" lon="9.5108267"><ele>712.0</ele><time>2026-04-05T11:31:19.19Z</time></trkpt><trkpt lat="44.7523233" lon="9.5108967"><ele>712.0</ele><time>2026-04-05T11:31:20.191Z</time></trkpt><trkpt lat="44.7524167" lon="9.51097"><ele>712.0</ele><time>2026-04-05T11:31:21.19Z</time></trkpt><trkpt lat="44.75251" lon="9.5110417"><ele>712.0</ele><time>2026-04-05T11:31:22.19Z</time></trkpt><trkpt lat="44.7525917" lon="9.5111067"><ele>712.0</ele><time>2026-04-05T11:31:23.19Z</time></trkpt><trkpt lat="44.75266" lon="9.5111633"><ele>712.2</ele><time>2026-04-05T11:31:24.191Z</time></trkpt><trkpt lat="44.7527267" lon="9.5112867"><ele>712.4000000000001</ele><time>2026-04-05T11:31:26.191Z</time></trkpt><trkpt lat="44.7527117" lon="9.5114617"><ele>712.5999999999999</ele><time>2026-04-05T11:31:28.191Z</time></trkpt><trkpt lat="44.75268" lon="9.5115633"><ele>712.8</ele><time>2026-04-05T11:31:29.192Z</time></trkpt><trkpt lat="44.752645" lon="9.51167"><ele>713.0</ele><time>2026-04-05T11:31:30.19Z</time></trkpt><trkpt lat="44.7526183" lon="9.5117883"><ele>714.5</ele><time>2026-04-05T11:31:31.191Z</time></trkpt><trkpt lat="44.7526" lon="9.51191"><ele>716.0</ele><time>2026-04-05T11:31:32.192Z</time></trkpt><trkpt lat="44.7525983" lon="9.5120267"><ele>717.5</ele><time>2026-04-05T11:31:33.191Z</time></trkpt><trkpt lat="44.7526017" lon="9.5121333"><ele>719.0</ele><time>2026-04-05T11:31:34.189Z</time></trkpt><trkpt lat="44.7526" lon="9.5122267"><ele>720.5</ele><time>2026-04-05T11:31:35.192Z</time></trkpt><trkpt lat="44.7525533" lon="9.5123783"><ele>722.0</ele><time>2026-04-05T11:31:37.191Z</time></trkpt><trkpt lat="44.7524983" lon="9.5124433"><ele>723.5</ele><time>2026-04-05T11:31:38.191Z</time></trkpt><trkpt lat="44.7524433" lon="9.5125033"><ele>725.0</ele><time>2026-04-05T11:31:39.191Z</time></trkpt><trkpt lat="44.7524" lon="9.5125733"><ele>726.5</ele><time>2026-04-05T11:31:40.189Z</time></trkpt><trkpt lat="44.7523733" lon="9.5126667"><ele>728.0</ele><time>2026-04-05T11:31:41.191Z</time></trkpt><trkpt lat="44.752365" lon="9.5127717"><ele>729.5</ele><time>2026-04-05T11:31:42.189Z</time></trkpt><trkpt lat="44.7523817" lon="9.5128633"><ele>731.0</ele><time>2026-04-05T11:31:43.189Z</time></trkpt><trkpt lat="44.7524367" lon="9.5129833"><ele>740.0</ele><time>2026-04-05T11:31:45.189Z</time></trkpt></trkseg></trk></gpx>